GFSNGP_sfc_wetblb_003.txt.gz
Wetbulb
53.24 53.81 53.70 51.87 50.33 50.74 50.09 52.03 50.63 53.22 53.99 57.51 60.02 60.55 61.18 61.85 62.73 62.99 64.09 68.32 70.64 71.33 74.52 75.35 74.84 75.64 76.02 75.53 76.61 76.40 77.93 77.26 78.83 79.85 79.45 78.96 78.67 78.25 76.81 75.70 74.17 72.65 71.88 71.31
51.58 53.04 52.65 51.27 52.48 51.40 51.12 51.12 51.80 52.74 53.32 58.62 60.55 62.29 61.50 61.54 62.25 62.31 63.16 64.64 70.34 72.19 73.38 76.07 76.03 76.91 77.01 76.96 77.51 78.02 78.85 78.41 79.71 80.09 79.25 78.45 77.90 76.77 74.72 75.09 73.49 72.43 69.94 69.73
50.72 54.01 53.54 49.95 52.17 52.74 53.36 53.61 52.30 49.96 54.07 57.24 58.17 60.37 62.01 61.94 62.20 62.91 65.15 65.92 68.82 71.78 73.31 75.10 75.37 77.72 77.35 78.05 78.39 78.75 79.48 79.60 80.71 80.15 78.34 76.36 76.21 75.23 74.01 73.30 73.27 72.18 69.45 69.74
50.39 53.21 45.36 53.80 58.18 56.54 54.29 54.89 55.40 54.84 55.62 56.80 59.71 62.25 63.16 62.57 62.50 64.19 65.88 66.33 67.97 71.13 73.46 76.02 75.61 75.54 77.08 77.27 78.88 79.27 79.32 79.55 80.18 79.27 76.59 74.52 73.61 73.19 73.31 73.66 73.11 71.98 70.22 71.25
49.27 49.61 52.43 54.09 57.12 56.96 56.90 56.21 57.68 56.71 56.56 56.51 58.72 59.57 61.55 63.13 63.36 64.73 65.32 67.12 69.20 72.53 74.01 77.75 76.76 78.29 78.21 77.09 77.92 78.27 77.48 78.97 79.52 77.84 75.55 73.81 72.12 72.52 73.60 73.09 73.76 70.90 69.82 69.91
52.14 47.65 46.42 53.76 59.04 61.16 60.01 52.82 58.64 58.67 58.15 56.23 57.73 55.99 58.74 63.18 65.77 67.48 68.24 67.75 71.08 73.10 74.64 75.63 77.24 76.47 76.90 75.31 76.21 76.96 77.54 78.15 79.16 77.14 75.05 73.16 72.52 72.60 73.43 74.00 72.63 70.32 69.49 69.76
49.53 49.20 51.83 58.49 59.74 61.25 51.08 54.19 63.56 63.73 63.33 61.94 56.73 60.30 66.99 68.57 67.84 68.82 68.56 72.05 73.99 74.03 75.18 76.38 77.29 75.49 75.82 75.53 74.81 75.91 76.71 76.85 76.96 75.51 73.88 72.92 73.36 73.76 72.69 72.47 70.96 68.63 68.10 70.79
50.09 48.19 46.37 60.18 59.48 55.09 60.46 63.45 64.15 64.51 64.64 65.04 60.91 65.75 67.16 67.79 68.85 69.32 69.99 71.74 72.35 73.24 74.18 74.97 76.29 75.97 75.76 76.05 77.57 78.10 77.56 76.44 74.97 73.85 73.03 72.87 73.44 72.20 71.33 70.87 70.40 70.13 70.39 70.38
51.96 51.95 60.52 62.08 61.58 62.91 63.73 63.59 64.52 64.88 65.35 65.76 66.06 66.48 67.50 68.78 69.92 70.44 70.76 71.36 71.76 71.39 73.69 74.45 76.45 76.72 76.41 78.56 78.60 77.75 76.96 74.56 73.49 73.44 73.11 73.79 73.12 72.32 70.58 71.01 69.50 69.19 68.88 67.79
55.81 58.01 59.16 60.83 62.15 62.97 63.34 63.02 64.40 66.19 66.37 66.90 66.41 67.41 67.52 67.82 67.97 68.01 69.03 70.38 71.00 71.64 72.49 73.72 76.09 75.60 76.93 76.83 77.21 76.52 73.45 72.39 72.38 71.97 71.93 72.12 72.37 70.33 68.69 68.00 68.14 68.72 68.40 68.57
56.09 58.12 58.61 59.06 60.19 60.99 61.70 63.26 63.29 64.08 64.53 65.26 65.66 65.85 66.93 67.86 68.71 68.91 69.35 70.03 70.91 71.27 71.86 72.77 74.51 75.23 75.23 75.81 76.16 73.21 71.67 71.39 72.55 71.90 71.46 71.21 69.02 66.29 70.08 70.69 65.07 68.63 68.55 68.29
53.38 59.07 57.79 56.32 58.44 59.70 58.78 58.83 60.06 60.81 61.48 63.57 64.86 65.03 66.84 67.61 68.87 69.08 69.45 70.16 70.75 71.05 72.09 73.07 73.71 74.16 74.41 74.82 74.71 73.40 71.63 71.75 71.23 71.05 71.32 69.52 65.96 62.95 46.96 48.63 46.79 46.68 45.30 56.67
55.16 58.95 56.02 56.22 56.92 56.66 56.13 55.96 57.93 58.55 59.63 59.79 61.33 62.08 62.22 63.42 65.00 62.58 68.53 69.47 69.91 70.42 71.42 72.64 73.27 73.61 73.37 74.35 74.40 72.80 71.76 71.70 71.09 69.43 70.35 69.67 68.99 68.48 65.70 53.67 44.37 42.92 42.92 44.76
58.45 57.83 55.23 56.01 52.27 54.33 56.08 56.07 56.61 57.77 59.13 59.58 59.64 60.59 60.84 61.13 61.93 63.34 64.67 67.13 69.42 69.64 71.09 71.56 71.99 72.24 72.57 73.38 73.54 73.06 72.33 62.72 70.38 70.53 69.31 68.89 68.58 67.67 66.55 64.74 63.20 61.31 46.58 48.48
54.57 57.36 56.39 56.36 54.97 54.09 54.70 54.51 54.32 54.17 56.47 58.74 59.94 60.65 61.11 60.62 60.01 60.95 62.85 64.28 65.33 66.93 69.63 70.15 70.88 70.90 72.74 72.58 72.17 71.77 70.22 69.21 69.70 68.80 68.48 66.36 67.18 66.43 66.04 65.93 65.13 62.85 57.16 51.43
53.77 54.91 54.57 53.02 51.96 52.88 53.60 53.69 53.70 54.93 55.95 57.92 58.92 60.18 61.72 62.63 62.76 62.53 62.57 63.52 63.45 64.16 66.96 68.80 70.44 70.94 71.75 71.53 70.65 69.25 68.36 63.02 65.54 67.25 66.11 66.00 65.65 65.00 64.79 64.47 63.65 61.89 62.20 60.67
48.45 49.01 51.26 51.49 51.55 52.12 52.05 52.78 53.53 54.86 56.97 56.63 57.60 60.22 61.25 61.97 62.50 63.65 63.85 64.06 64.58 65.00 66.43 67.85 69.91 71.49 70.92 69.64 68.43 67.24 66.46 66.46 62.67 66.67 65.57 65.22 64.69 64.07 63.53 63.01 62.42 62.39 62.11 60.04
51.07 52.04 53.21 52.46 53.34 53.67 53.16 54.49 55.49 57.26 56.70 57.60 59.13 59.65 60.66 62.17 61.88 62.63 63.29 64.16 65.78 65.27 66.66 68.69 70.16 69.97 69.60 69.08 68.64 67.22 66.10 65.93 65.86 65.09 64.36 63.52 63.62 64.16 64.03 62.92 62.25 62.13 59.12 56.61
53.66 54.11 55.21 55.68 56.01 55.83 55.74 55.71 57.12 58.64 58.34 58.69 59.37 59.76 60.96 61.82 61.73 62.76 64.15 63.89 63.80 63.62 65.65 68.87 63.03 66.77 68.68 67.24 66.63 66.15 64.73 64.26 64.19 63.45 63.45 59.90 62.74 63.25 62.75 62.40 62.00 61.70 60.69 61.33
53.30 53.71 54.43 54.88 56.39 56.56 56.64 57.60 58.42 58.35 58.96 59.26 59.63 60.36 60.07 60.28 62.03 63.01 64.08 62.63 64.07 65.07 66.22 66.43 66.55 66.94 67.49 65.34 63.00 64.44 63.51 63.87 62.64 63.46 63.14 62.95 62.29 61.49 62.01 56.50 60.68 60.45 60.46 60.01
54.41 54.45 54.43 55.43 56.26 57.40 57.76 58.23 57.34 57.53 59.32 59.22 60.03 59.76 60.09 61.45 60.90 61.21 61.73 61.51 64.11 64.94 64.62 62.19 65.49 65.41 65.49 64.12 64.14 64.78 64.42 62.36 61.87 61.62 61.48 61.66 61.03 60.69 60.66 60.86 59.59 59.59 58.99 59.88
55.09 54.90 54.88 55.72 56.31 56.45 57.87 58.31 59.54 59.08 58.99 59.33 59.78 59.80 60.04 59.83 61.09 61.73 62.74 62.15 63.45 56.51 61.40 63.24 61.89 58.56 62.37 59.00 63.22 62.44 61.72 61.54 61.95 62.41 61.07 60.58 60.06 59.71 59.64 59.53 59.24 59.24 58.84 58.85
55.54 55.53 55.82 55.76 56.53 57.19 57.61 57.71 58.30 59.37 59.11 59.20 58.86 58.27 58.03 58.12 59.40 58.70 58.70 61.76 62.09 57.23 58.70 57.87 55.48 55.92 54.89 60.44 60.63 61.03 61.50 61.12 60.28 59.71 59.10 58.61 58.18 57.72 57.53 57.48 57.41 57.31 56.87 56.33
56.40 56.80 57.20 57.27 57.79 56.14 56.66 57.01 57.83 58.46 58.67 59.84 58.38 58.55 57.50 55.66 57.76 58.59 60.10 56.39 54.75 56.73 58.56 56.15 55.51 53.16 50.09 59.56 59.78 59.97 59.67 59.04 57.97 57.33 57.56 50.14 55.48 54.90 55.14 55.76 55.96 56.72 56.68 54.46
57.17 57.81 57.46 57.07 57.51 56.63 57.43 57.40 58.33 57.55 58.12 58.94 59.52 59.74 59.25 59.78 58.33 57.48 58.21 59.57 54.22 55.73 57.30 52.55 53.03 52.69 57.27 58.67 58.79 58.57 58.71 58.34 58.18 57.67 57.32 56.69 56.39 56.13 55.61 55.10 55.01 55.94 56.25 56.33
56.76 54.86 55.90 57.09 55.79 55.20 55.07 55.71 54.55 55.02 55.21 55.18 56.12 56.83 57.71 57.97 57.76 57.73 59.63 57.08 58.58 57.17 58.12 59.91 60.12 59.10 59.34 58.61 58.59 58.38 58.30 58.63 57.80 57.59 56.11 56.37 56.17 56.46 56.21 55.58 55.48 55.08 54.90 54.75
53.94 49.73 53.49 53.13 54.04 53.94 54.13 53.91 54.02 53.62 53.78 54.85 54.15 55.72 56.36 56.40 56.42 56.22 53.84 57.02 56.69 57.27 57.23 57.99 58.46 57.13 57.79 58.44 58.03 57.52 57.89 58.21 53.92 57.30 56.81 57.05 57.01 56.72 56.44 56.30 56.03 55.59 55.25 55.16

GFSNGP_sfc_wetblb_006.txt.gz
Wetbulb
51.91 52.40 53.32 52.68 51.59 51.51 50.83 51.79 49.54 51.82 52.72 58.02 59.84 62.11 61.85 63.77 65.77 66.38 68.34 69.79 71.63 72.52 72.87 72.24 72.67 72.85 73.28 74.03 74.53 75.37 76.32 77.07 77.24 78.12 77.97 77.93 77.78 77.78 77.59 77.75 77.36 76.66 74.46 73.31
51.01 53.04 52.61 51.91 52.98 52.08 51.60 52.05 52.23 52.65 52.65 57.97 60.69 61.62 63.66 63.38 64.68 64.79 65.94 66.75 71.01 72.05 74.76 75.32 73.43 72.93 72.94 73.22 73.59 74.95 75.07 75.74 77.00 77.80 77.98 77.58 77.39 77.60 77.49 77.84 76.92 75.87 72.87 71.72
48.89 52.16 52.10 49.17 52.49 52.92 52.91 52.63 52.29 50.09 54.34 58.51 58.10 60.24 62.90 65.02 64.46 64.84 65.70 66.61 69.89 72.75 73.29 74.53 75.02 74.00 72.94 73.29 74.38 74.29 75.20 75.99 76.39 77.67 77.94 77.52 77.56 77.56 77.43 76.85 75.90 74.15 71.87 70.17
49.94 52.15 43.70 52.52 56.02 55.11 53.58 54.36 54.62 54.79 56.32 57.82 58.72 60.36 61.49 62.26 63.21 63.74 66.18 66.05 67.26 65.77 73.59 75.41 76.09 74.98 74.96 74.72 74.87 74.50 77.15 76.30 76.94 78.06 77.85 77.68 77.42 77.06 77.28 75.58 74.12 73.50 71.72 69.09
48.94 48.79 51.67 53.04 55.60 55.57 54.06 54.28 57.66 56.53 58.57 57.52 59.22 59.49 59.96 61.84 62.52 63.81 64.14 68.93 68.01 66.55 70.07 75.33 75.76 75.92 76.41 75.22 74.82 77.13 76.31 77.53 78.00 79.30 78.06 77.68 76.76 76.20 75.50 73.76 73.14 72.48 71.12 69.24
50.88 46.11 45.40 54.36 58.52 60.92 59.62 52.30 61.79 62.28 61.67 61.03 60.67 54.74 56.87 63.01 63.98 63.35 63.48 65.33 70.86 71.42 72.03 76.14 76.38 76.47 75.93 76.13 75.58 74.96 77.12 78.03 79.55 79.24 77.89 76.05 75.27 74.05 73.06 73.80 73.25 73.29 70.75 70.29
48.87 47.39 50.40 57.05 59.19 60.15 51.10 53.93 62.43 63.03 63.22 63.05 61.17 63.63 66.70 69.11 71.04 70.67 66.38 68.78 73.28 76.15 75.11 76.44 77.20 77.04 75.74 76.15 76.02 76.83 78.98 78.95 79.58 78.83 77.01 75.04 73.17 72.89 73.00 73.32 74.12 71.75 68.68 68.65
50.00 48.49 46.11 60.21 58.43 54.40 60.18 62.99 62.97 63.09 63.71 63.68 65.94 66.35 66.69 67.52 69.43 70.52 70.54 70.26 73.95 77.54 77.47 77.86 78.07 77.35 76.93 76.97 78.70 79.34 78.65 78.74 78.51 76.55 73.86 72.93 72.64 72.92 72.77 72.12 70.40 69.82 69.49 68.91
49.82 50.70 58.81 62.62 62.51 63.58 63.81 62.99 64.05 65.13 65.05 64.69 64.28 65.42 67.22 68.17 69.20 70.51 70.60 73.65 73.84 75.30 76.91 78.06 78.44 77.12 76.25 77.46 77.78 77.52 77.18 77.19 76.20 74.32 72.98 72.77 73.30 71.10 70.03 71.58 70.15 69.19 68.82 69.82
51.79 56.12 59.85 61.55 62.48 63.11 63.92 63.84 64.53 64.84 65.05 65.95 66.70 66.84 67.35 68.65 69.71 71.27 72.67 73.20 73.70 73.80 74.04 75.06 76.19 76.94 77.34 77.55 77.56 76.86 76.10 74.52 73.59 72.62 73.28 73.96 72.84 71.94 70.80 70.27 69.73 68.80 70.08 69.16
53.12 59.95 60.15 60.93 62.06 62.77 62.66 63.65 63.33 62.62 62.21 62.44 64.52 64.68 67.04 68.59 69.53 70.97 71.53 72.09 73.80 74.12 74.62 75.39 77.06 76.32 77.22 77.75 77.37 74.73 73.30 72.45 71.56 71.39 71.45 71.30 64.40 63.73 69.53 60.28 61.01 70.85 71.55 69.86
52.79 59.41 58.79 58.47 60.93 60.74 60.06 60.55 61.28 60.75 60.46 62.01 62.28 62.61 63.59 65.38 66.50 67.11 68.19 69.57 70.42 73.20 73.64 73.69 75.03 75.54 76.37 76.65 75.17 73.35 71.54 71.26 71.41 70.46 70.15 67.30 63.50 59.99 46.06 47.03 45.40 45.94 47.55 59.17
51.23 56.03 54.56 56.96 57.24 58.22 57.72 57.65 58.72 59.17 60.35 59.64 60.93 63.20 61.56 62.49 63.00 62.72 67.09 70.46 72.02 72.71 73.56 73.92 73.77 73.73 75.12 75.59 74.17 73.32 71.53 71.68 69.74 69.06 69.74 68.19 67.25 65.32 60.17 51.49 44.83 43.39 43.60 44.80
54.95 54.40 52.79 55.05 54.21 56.71 56.80 57.92 58.25 59.18 59.42 59.95 60.47 61.12 60.07 59.94 63.00 64.19 66.05 69.59 71.02 71.69 71.97 72.45 72.43 72.59 73.96 73.78 73.16 72.56 72.33 63.26 70.88 69.98 70.84 70.15 69.76 68.45 67.17 62.56 60.58 58.00 45.40 47.73
55.17 55.81 54.47 56.24 56.40 55.36 56.82 57.17 56.54 55.72 57.06 58.70 60.37 60.74 61.60 61.55 61.25 63.48 64.81 65.78 68.20 69.98 70.75 71.84 72.29 72.84 73.47 73.60 73.17 73.49 70.92 70.46 69.73 70.12 70.78 68.24 68.43 67.01 67.46 64.45 64.29 58.49 54.22 49.48
54.01 54.01 54.77 53.85 53.26 54.11 54.83 54.39 54.68 55.35 56.19 56.26 57.18 60.59 61.89 62.31 63.35 64.57 64.92 65.47 66.21 67.53 70.44 69.38 69.68 71.54 72.40 71.58 71.69 70.90 70.94 65.33 66.57 66.88 66.53 67.52 67.02 66.61 65.86 64.52 60.45 59.43 59.08 56.82
51.52 50.40 51.51 52.44 53.34 52.94 52.75 53.56 53.56 51.96 53.31 55.20 56.56 59.27 60.35 61.63 62.72 61.29 62.14 64.81 66.24 67.12 68.23 70.02 70.02 71.75 71.91 70.92 71.06 69.62 68.16 67.87 63.56 65.48 66.53 66.04 65.68 64.66 64.90 64.48 64.08 63.28 61.24 58.52
53.52 54.54 53.63 51.88 50.85 50.47 51.91 52.90 53.56 54.57 52.98 56.11 57.80 59.40 60.34 61.17 62.17 62.68 64.16 66.54 66.23 65.80 65.80 69.06 70.49 71.11 68.62 69.82 69.79 67.61 66.19 66.37 66.98 65.31 64.51 65.18 65.51 65.49 64.67 63.20 62.29 62.21 61.26 55.33
53.87 54.18 54.67 54.94 56.34 55.33 54.71 55.30 55.36 57.33 57.95 57.84 59.60 59.76 60.29 62.00 61.89 63.60 64.82 64.58 63.79 64.26 65.52 68.51 64.03 67.57 67.70 65.46 65.15 64.15 63.30 65.00 65.19 61.60 61.91 60.68 63.05 63.40 62.89 62.68 62.00 61.89 60.08 57.82
53.65 54.35 54.57 55.93 56.54 56.42 56.26 57.58 58.45 57.78 57.59 58.58 59.14 59.10 59.62 59.93 60.80 62.12 62.96 62.58 63.70 65.67 67.17 66.29 67.90 67.61 67.78 66.36 63.20 65.81 64.49 62.28 61.38 63.00 59.06 62.69 60.47 61.58 62.70 56.82 60.71 61.46 61.24 61.35
53.91 54.61 55.52 56.35 55.31 56.43 56.71 57.91 58.01 56.89 59.61 59.95 60.01 59.91 60.47 60.53 62.45 62.36 61.48 60.94 62.72 61.85 63.20 62.63 65.81 65.76 67.48 64.82 63.28 64.40 59.89 62.16 61.16 61.00 61.78 58.89 61.06 60.63 60.36 60.96 59.28 60.77 60.39 60.65
55.27 55.36 55.08 56.21 56.73 56.19 57.18 57.06 57.40 57.56 58.41 58.58 59.37 58.79 60.34 58.80 60.30 61.14 62.36 60.72 60.83 55.23 60.93 61.62 59.45 57.22 60.26 58.11 63.24 61.30 62.85 61.52 58.86 60.44 59.64 58.48 59.80 59.82 59.13 58.11 57.73 60.25 60.60 60.31
55.75 56.55 57.32 56.09 55.48 57.30 57.31 58.26 57.66 58.75 59.40 57.34 58.00 59.43 58.95 58.26 59.39 58.15 57.03 59.73 57.36 56.27 57.09 57.17 56.36 54.92 53.57 60.13 60.81 61.51 60.15 59.57 59.36 60.16 59.31 59.31 58.93 58.55 58.14 58.04 57.94 58.71 58.94 58.91
57.11 55.77 53.88 57.99 57.65 58.21 57.68 58.64 56.39 59.00 60.08 59.28 59.43 59.56 58.82 55.96 57.16 59.15 60.02 55.81 55.19 56.83 58.69 56.67 54.33 54.05 51.36 58.11 59.44 59.26 58.68 58.51 57.92 57.59 57.25 51.87 56.37 56.15 55.52 55.85 55.61 56.54 57.60 55.51
53.42 56.04 56.24 56.66 54.10 52.64 54.55 54.85 54.83 55.46 56.77 56.60 57.18 57.61 60.54 59.28 57.80 57.66 58.74 58.03 53.02 55.97 58.76 52.26 53.61 53.31 56.88 57.60 57.80 58.06 58.60 58.45 58.07 58.16 57.61 57.38 56.66 56.47 56.86 56.28 55.30 55.80 56.25 56.65
54.58 53.04 54.54 56.94 54.74 53.44 53.91 54.20 53.52 53.92 53.71 55.17 54.76 55.49 55.28 56.82 56.21 57.31 58.78 56.92 57.52 56.24 57.81 59.26 59.20 57.78 57.95 58.48 57.72 57.63 57.97 58.19 57.60 57.67 56.09 57.77 56.89 56.12 55.76 56.75 55.98 55.69 55.98 55.24
54.04 49.40 53.17 52.50 52.44 51.98 52.10 52.28 52.28 51.38 52.41 52.62 52.32 54.14 55.41 55.91 55.19 55.18 53.17 56.14 56.10 55.79 55.06 56.74 55.56 55.90 56.32 56.82 55.31 55.74 58.27 57.57 52.65 56.02 57.58 57.27 57.34 56.16 56.92 57.10 57.70 57.39 56.45 56.32

GFSNGP_sfc_wetblb_009.txt.gz
Wetbulb
48.12 49.86 49.40 48.46 49.07 48.90 46.59 46.16 42.80 44.34 45.30 48.13 51.43 57.47 58.28 59.25 60.52 61.21 62.34 64.33 64.49 67.03 67.67 69.29 70.15 70.85 71.67 72.52 73.58 75.57 75.65 75.67 75.37 75.89 76.17 76.16 75.99 75.85 74.61 74.40 73.77 73.36 71.42 71.45
45.95 49.86 49.62 48.03 49.94 50.74 48.94 48.62 47.80 47.90 47.39 50.44 52.40 53.49 59.56 59.47 58.74 58.37 62.46 65.91 65.49 66.42 67.44 67.70 68.98 69.86 71.18 72.05 73.34 74.45 74.82 75.02 75.32 75.40 75.34 75.58 75.61 75.37 75.18 74.29 74.07 73.69 72.18 71.13
41.59 47.80 48.10 44.99 48.04 49.50 50.49 50.46 49.54 46.19 49.28 50.73 51.29 52.70 55.86 59.08 60.15 57.46 59.55 64.15 65.48 65.79 68.41 68.42 69.21 70.14 70.42 71.73 73.08 73.30 73.88 74.78 74.79 74.69 74.69 74.73 75.12 74.68 74.78 74.56 74.83 73.89 72.11 70.77
41.73 44.19 38.42 47.89 52.87 53.06 51.88 52.84 51.75 50.55 51.40 53.02 53.11 54.92 56.63 57.08 57.21 57.18 60.03 61.43 64.14 67.55 67.29 70.26 70.32 70.44 71.23 71.56 72.03 72.33 72.31 73.65 74.28 74.57 74.44 75.05 74.95 74.61 74.97 74.95 74.27 72.86 71.15 69.75
39.67 41.01 44.13 49.63 51.86 50.88 49.70 49.23 54.51 56.47 58.01 57.18 57.13 53.52 52.84 57.04 58.43 57.00 60.15 59.61 60.61 63.49 67.96 70.23 71.35 70.96 70.51 70.34 70.86 71.08 70.95 71.82 73.48 73.97 74.42 75.05 74.59 74.41 75.00 74.48 72.91 72.02 70.56 68.02
40.54 38.66 38.92 46.22 55.22 58.57 56.25 47.61 59.34 59.69 58.72 58.75 58.36 51.06 51.25 60.80 62.83 59.97 60.08 59.10 59.08 64.25 63.19 69.58 70.29 71.67 70.33 69.81 70.31 69.85 70.77 71.91 73.39 73.97 74.61 75.00 74.71 74.41 73.37 72.46 71.42 71.55 69.82 67.66
43.45 40.76 45.78 53.78 57.40 58.41 46.83 49.19 58.29 59.65 58.96 58.94 56.04 58.02 60.38 62.19 63.00 64.36 64.06 62.99 60.18 63.89 66.20 69.70 70.57 71.85 70.37 70.25 69.80 71.65 71.45 74.19 75.08 76.00 75.68 74.60 73.14 71.59 71.04 70.72 71.21 70.88 69.45 67.41
44.42 42.81 41.04 58.13 56.96 52.91 55.25 58.81 61.15 61.40 61.67 58.67 58.95 60.51 61.26 62.59 61.48 63.56 66.16 63.76 71.71 68.15 69.70 71.66 71.28 72.57 71.50 70.48 71.65 74.74 75.92 76.66 76.04 74.43 73.56 72.25 70.68 70.66 70.32 70.38 69.12 67.46 66.79 66.32
43.81 46.01 55.55 58.31 55.95 58.69 59.48 60.31 61.41 61.51 63.55 63.18 62.29 63.74 65.12 63.89 64.49 65.49 67.38 69.83 71.66 72.44 72.85 73.61 73.09 73.56 73.54 74.55 75.46 75.74 76.19 74.93 72.83 72.16 71.36 70.52 69.89 69.63 69.67 67.64 67.21 66.66 66.10 65.19
49.72 50.65 54.56 56.34 58.56 62.01 61.22 60.24 60.29 61.97 62.12 61.28 59.92 60.81 61.02 62.61 65.79 67.72 68.24 68.98 71.00 71.92 71.52 72.18 73.77 74.36 74.58 74.83 75.35 75.53 73.88 72.29 71.03 70.14 70.08 70.38 69.53 68.85 68.41 67.80 67.26 65.86 65.43 65.54
49.65 54.17 56.44 57.83 59.45 60.45 60.53 60.27 59.25 59.60 59.99 59.34 59.11 59.04 59.53 59.17 60.70 63.67 67.67 70.12 71.43 71.43 72.78 72.61 73.53 73.95 74.18 74.61 74.65 72.20 71.09 70.50 70.20 70.17 69.95 61.54 54.84 56.68 62.40 53.38 60.57 65.86 66.51 65.50
47.75 52.35 52.69 54.35 55.86 58.30 57.64 57.61 57.70 57.30 58.41 59.16 58.00 57.32 58.42 57.97 58.65 60.61 61.01 64.78 70.26 71.26 71.85 72.30 73.17 73.15 72.90 72.48 71.69 70.38 69.33 69.31 69.49 69.06 62.93 59.78 57.98 53.71 45.95 46.25 45.02 45.76 50.89 59.22
52.38 53.40 53.42 54.04 54.75 56.62 55.46 55.99 57.01 57.13 57.41 56.76 57.07 57.61 58.18 57.86 58.42 58.65 59.79 59.46 67.25 69.60 70.68 70.84 71.91 71.76 72.00 71.71 70.91 69.62 68.93 69.20 68.91 66.10 64.63 62.46 60.43 58.53 53.49 48.88 44.96 43.64 43.96 50.05
55.12 54.40 51.98 52.82 51.45 54.49 54.86 55.28 55.50 56.71 57.48 58.20 56.66 56.44 56.10 56.73 57.90 58.62 59.72 60.34 66.01 68.96 69.28 68.36 68.72 70.75 71.30 71.32 70.59 70.04 69.76 63.00 68.80 67.53 66.09 64.88 63.64 60.92 58.05 56.16 55.40 52.43 44.02 44.80
54.30 54.75 53.96 55.03 54.19 53.99 55.40 55.28 54.19 54.08 54.28 54.59 58.57 59.25 59.06 57.93 57.20 59.39 61.59 62.49 64.57 67.41 69.11 69.36 69.32 69.75 70.84 70.99 70.44 69.48 69.03 68.83 68.97 68.43 67.71 65.31 65.45 64.54 61.20 59.19 56.81 51.86 47.65 45.50
54.17 53.73 52.90 51.93 52.67 53.99 53.50 53.48 52.63 52.95 54.05 54.66 55.44 58.67 59.79 60.27 59.89 60.22 61.15 62.45 63.29 62.96 64.36 67.18 68.54 69.51 70.48 70.37 69.71 69.63 68.34 64.87 65.94 67.28 65.79 66.18 65.48 65.16 62.70 61.55 55.20 53.06 52.53 50.32
50.46 50.16 51.60 51.00 50.94 51.53 52.70 52.41 51.73 52.57 54.40 54.82 56.34 57.83 56.82 56.44 59.17 60.55 61.37 62.74 62.41 63.87 64.77 65.10 65.16 67.23 67.99 67.69 66.26 65.80 65.02 62.91 62.98 63.72 64.02 64.14 62.81 60.83 62.88 60.46 57.30 55.69 55.93 52.18
52.88 52.22 52.01 52.01 51.72 51.69 52.20 54.03 54.87 53.93 53.97 56.26 57.67 57.37 57.18 57.58 56.73 58.58 60.99 61.77 62.09 62.84 63.96 63.33 63.64 65.45 63.20 63.49 62.37 64.17 64.08 62.06 61.88 61.45 62.33 61.52 59.97 59.30 59.11 60.03 59.02 58.35 56.94 51.55
54.26 54.04 54.19 52.38 51.03 51.22 53.04 54.73 55.31 56.35 56.36 56.44 57.98 56.58 57.79 58.33 58.66 59.58 60.24 59.49 59.93 59.58 61.49 63.97 63.82 65.19 63.21 62.36 62.09 62.00 61.37 61.54 60.93 60.26 60.23 58.27 58.90 58.40 57.61 57.71 58.43 57.16 53.91 51.42
53.04 54.19 53.99 54.92 55.66 55.32 54.81 55.95 56.30 56.33 57.47 56.97 57.04 56.51 56.64 57.15 58.68 58.77 59.62 59.07 58.77 60.11 61.34 61.84 63.41 63.02 61.03 61.40 61.96 61.28 61.55 60.92 59.92 59.43 59.23 57.70 57.24 56.93 56.50 55.33 57.83 56.63 54.52 53.80
53.49 53.98 54.12 54.88 55.40 55.95 56.85 56.68 56.84 55.03 56.25 57.85 55.50 56.12 56.43 57.54 58.29 58.38 57.44 56.18 57.68 57.90 60.36 59.05 57.73 60.78 60.83 60.72 61.29 60.83 60.52 60.37 60.30 58.85 58.94 57.84 56.95 55.86 56.04 57.40 57.33 58.50 57.18 56.44
53.71 53.27 54.36 55.18 54.71 54.51 55.54 55.95 56.01 56.25 55.03 55.28 56.82 56.21 56.65 56.37 57.01 56.79 56.83 54.73 55.48 55.50 56.23 53.77 53.34 55.49 56.28 58.85 58.72 58.32 58.88 58.83 57.65 57.61 57.63 57.58 56.27 55.79 54.88 56.02 54.71 55.14 57.06 57.84
52.94 54.13 54.29 53.53 54.71 54.81 55.70 55.41 54.90 56.11 56.17 56.25 54.50 54.66 54.25 55.30 55.86 54.11 52.53 54.73 55.40 53.63 53.46 52.11 53.58 53.56 54.72 56.71 56.20 58.36 58.46 58.41 57.26 56.60 56.17 56.08 54.88 53.96 51.88 52.23 53.19 54.15 54.78 54.52
52.02 52.50 52.76 52.50 53.35 52.75 51.65 52.50 52.85 54.36 54.15 53.59 52.57 53.14 53.55 53.64 54.58 56.07 55.03 53.74 52.97 54.84 53.38 52.92 53.34 53.10 53.17 55.02 53.85 54.06 56.23 55.98 53.47 54.12 52.96 50.12 51.59 50.91 49.32 48.69 48.93 49.90 51.13 50.66
52.40 51.96 51.69 50.73 50.23 50.99 51.42 53.09 52.15 52.06 53.20 52.54 53.05 52.99 54.64 54.84 53.43 54.44 56.10 54.69 53.72 52.94 54.79 52.12 52.82 53.10 52.99 54.17 54.94 54.16 54.63 53.64 52.00 53.81 53.61 53.05 51.66 50.51 50.21 49.69 49.09 49.12 49.42 49.48
51.05 49.73 49.39 48.44 47.81 48.76 49.55 49.38 48.29 49.55 49.71 48.84 49.81 51.82 52.68 52.46 52.50 52.69 53.16 52.88 53.86 53.17 55.09 55.08 54.77 54.09 53.53 53.36 53.81 53.59 53.59 53.90 54.36 54.50 52.24 52.43 52.49 52.03 51.79 50.01 50.23 48.40 48.93 48.79
48.78 47.27 47.54 46.94 47.39 47.59 47.86 47.13 46.63 47.74 48.15 48.65 48.70 50.66 50.71 50.37 49.36 49.08 48.11 49.09 50.36 51.01 51.90 51.56 52.68 51.59 52.70 52.84 52.35 52.00 52.23 52.71 49.51 52.61 53.38 53.24 52.72 53.24 53.74 52.68 52.28 53.05 51.41 50.83

GFSNGP_sfc_wetblb_012.txt.gz
Wetbulb
43.08 46.45 47.48 46.53 45.87 46.65 43.96 44.63 42.26 44.57 41.66 44.19 46.40 47.91 51.19 53.97 58.36 58.39 61.18 61.91 62.77 64.77 66.18 67.77 68.83 69.54 70.90 72.39 73.30 74.30 74.19 74.56 74.31 74.91 75.14 75.04 74.54 74.06 73.37 74.21 72.26 71.48 70.01 70.54
40.21 46.53 47.57 46.47 47.95 48.24 47.45 47.09 45.85 43.63 42.63 46.93 49.09 50.05 51.99 55.46 58.26 58.34 58.99 62.04 63.70 65.48 66.88 67.78 68.80 69.40 70.35 71.71 73.53 74.27 74.26 74.24 74.92 75.16 74.91 74.79 75.14 74.64 73.55 73.21 73.45 71.25 70.20 69.51
33.35 43.28 45.87 43.13 47.36 47.66 47.42 47.83 47.38 43.32 45.63 47.90 48.12 49.64 50.79 52.49 54.01 57.00 58.74 62.55 63.96 65.72 67.41 68.22 69.32 70.02 69.74 71.33 73.39 74.13 74.11 74.76 74.82 74.75 74.39 74.49 74.79 74.64 74.30 73.16 72.54 71.91 70.44 70.16
34.68 38.13 36.21 44.20 51.25 50.56 47.81 49.31 49.29 48.61 48.73 49.69 50.45 51.86 51.84 55.14 55.28 56.27 57.49 59.37 64.75 65.98 66.85 68.66 69.98 70.47 70.89 71.13 72.10 73.34 73.62 74.21 74.88 74.52 74.16 74.39 74.51 74.36 74.22 74.27 72.89 72.64 71.35 70.86
34.12 34.36 41.09 46.79 49.07 48.41 45.78 45.66 53.67 49.74 52.99 51.09 51.92 51.13 50.31 55.20 54.16 55.96 57.18 58.74 59.25 64.13 66.11 66.38 68.76 69.97 70.48 70.56 71.15 71.65 72.43 73.39 74.04 74.43 73.68 73.87 73.61 73.98 73.98 74.20 73.74 73.18 71.98 70.67
38.70 35.70 35.28 42.52 51.84 55.61 52.75 47.71 57.21 56.75 55.72 55.54 53.07 47.96 49.37 57.73 61.06 56.80 55.55 56.93 58.44 59.33 63.48 68.68 67.91 69.68 69.54 69.66 70.49 70.63 71.60 72.63 73.96 74.39 73.59 73.32 73.60 73.74 74.22 74.39 73.80 72.22 70.82 70.27
39.74 39.78 41.69 51.81 54.79 55.66 45.51 45.68 56.35 56.98 55.94 55.26 54.39 53.46 56.73 58.96 61.23 61.41 61.73 60.08 58.27 56.20 59.21 65.27 69.74 68.56 68.12 69.16 69.54 71.26 72.21 72.41 72.76 73.87 73.58 73.69 74.09 74.31 74.41 73.29 72.57 71.31 69.15 67.07
41.02 40.32 39.34 51.26 53.83 48.93 51.26 58.28 60.07 60.80 59.76 60.13 60.90 62.12 61.83 61.48 60.28 62.13 61.15 62.30 67.37 58.56 58.40 62.30 66.82 69.16 68.05 67.99 70.10 70.90 71.27 70.91 70.89 72.49 73.11 74.45 73.85 73.41 72.78 71.47 70.64 69.62 67.81 66.53
42.02 43.36 48.17 50.26 53.74 59.42 58.69 57.61 58.81 59.30 60.28 60.82 60.60 60.29 61.48 62.60 64.88 66.33 67.18 67.53 69.60 68.84 66.11 69.12 66.33 69.86 68.21 68.82 69.46 69.03 69.18 70.61 71.78 73.02 73.92 73.76 72.39 71.59 70.19 69.92 68.65 67.02 66.62 64.40
45.73 48.52 50.43 56.88 58.98 58.59 57.86 58.26 59.13 59.23 59.01 58.99 58.12 58.94 58.65 59.46 60.83 61.72 62.00 62.55 63.36 65.37 69.39 70.07 70.58 69.54 69.26 69.17 70.18 70.92 72.58 73.67 73.40 72.35 71.28 71.19 70.64 70.36 68.92 67.79 66.78 65.80 65.31 64.95
45.64 49.16 51.30 54.47 57.36 57.86 57.42 58.26 58.25 58.42 58.69 58.02 57.82 57.31 57.87 57.60 58.16 59.58 60.46 60.73 60.52 59.61 59.00 58.66 70.87 73.01 73.45 73.79 74.49 73.49 72.60 72.10 71.45 70.10 70.03 64.69 57.71 63.92 67.07 64.04 65.42 65.65 65.00 65.18
46.58 50.60 50.99 51.07 56.37 57.53 55.59 55.47 56.14 55.95 56.25 57.28 58.21 57.36 57.23 56.68 57.40 58.71 59.45 60.10 58.25 57.60 56.90 58.46 59.19 65.45 73.71 73.95 73.21 71.66 70.14 69.96 69.10 64.40 62.09 60.50 58.87 55.11 47.50 46.40 47.50 51.56 54.64 61.77
51.06 52.22 51.74 53.98 54.19 55.22 54.02 54.82 56.30 55.75 55.16 54.85 56.59 56.98 56.65 55.60 56.58 57.86 60.37 60.50 61.57 61.57 59.43 59.17 63.36 61.20 69.67 71.54 71.14 70.73 70.00 68.79 65.56 63.86 63.52 63.49 61.82 58.55 53.63 48.76 45.36 44.53 46.67 49.65
53.75 53.41 51.63 52.41 51.96 54.58 54.79 55.38 55.74 56.38 57.98 58.19 57.09 56.05 55.42 56.33 58.13 58.88 59.81 61.24 64.80 64.74 65.13 66.53 65.45 65.35 68.72 68.99 69.08 68.94 68.06 60.45 65.75 64.46 62.84 62.73 62.06 59.87 57.81 57.53 56.85 52.98 44.51 44.98
53.28 53.97 53.07 54.32 54.14 53.25 54.10 53.84 53.67 53.71 55.34 56.00 56.71 57.55 57.49 56.31 57.33 59.72 61.89 63.01 63.93 64.77 65.73 67.48 67.61 67.77 69.06 68.94 68.58 68.11 67.97 66.85 65.78 64.49 63.85 62.28 61.28 59.86 58.04 56.90 56.17 50.82 48.02 46.39
52.60 52.52 53.03 52.83 53.16 52.55 52.57 51.84 51.78 52.57 53.83 54.81 54.07 53.10 55.87 58.55 59.32 60.33 60.91 62.04 62.12 62.12 62.94 64.11 65.12 66.19 68.15 68.87 67.84 67.41 66.53 63.52 66.20 65.52 63.96 63.69 62.68 60.64 59.54 56.97 53.83 51.92 53.42 51.44
50.01 49.58 49.26 50.21 50.90 51.86 52.01 52.94 52.49 51.86 53.68 54.28 54.26 55.45 54.49 53.64 54.14 56.43 58.17 59.83 58.94 60.86 62.31 62.60 61.68 63.11 63.52 63.25 64.48 63.40 63.34 63.52 63.44 65.40 65.08 64.93 64.84 62.85 61.60 57.72 55.90 54.63 54.57 50.86
51.82 51.65 52.33 52.38 51.65 52.26 52.90 54.06 54.07 54.44 53.52 54.77 55.22 55.41 55.65 56.38 55.30 54.14 54.83 57.12 56.31 56.19 58.95 62.31 62.04 62.34 62.17 62.02 62.84 63.46 62.32 62.78 62.97 62.75 63.30 63.12 62.96 62.90 62.62 59.67 57.71 55.44 53.50 48.39
53.84 53.35 53.64 51.83 51.77 52.62 53.17 53.88 54.56 55.36 55.32 57.09 55.90 55.59 56.11 56.00 56.80 57.46 58.30 57.30 56.62 55.86 57.57 60.75 61.93 60.59 60.26 62.21 62.06 62.63 61.71 61.25 60.38 60.15 60.51 58.89 59.08 59.35 61.23 59.76 57.96 56.31 53.90 50.91
53.55 54.23 54.33 54.35 54.62 53.21 54.21 54.99 56.16 54.94 55.96 56.08 54.83 55.55 54.59 54.89 56.34 57.32 56.78 55.96 56.48 57.80 59.47 59.92 60.77 60.45 59.59 60.66 61.13 61.13 60.66 59.99 59.85 59.11 58.49 58.67 58.31 57.72 57.70 55.27 58.28 56.65 54.39 52.75
53.37 54.14 53.90 53.66 54.10 55.34 55.89 54.68 54.04 53.62 54.77 53.54 55.39 55.38 53.71 54.12 55.47 54.89 52.51 53.35 54.79 54.20 53.77 55.19 57.17 56.48 58.38 59.83 59.47 59.75 59.25 58.97 58.95 58.30 57.87 57.09 56.83 57.00 56.22 55.30 55.29 55.16 54.01 53.24
53.07 52.87 53.80 53.16 53.24 53.20 53.98 53.79 54.79 54.06 53.49 51.83 51.58 54.96 53.25 52.00 51.48 50.98 51.47 51.07 51.24 52.29 50.60 50.28 51.46 55.59 55.88 58.51 57.19 58.19 58.17 58.14 58.27 58.41 58.04 57.22 56.13 55.31 54.41 54.92 56.52 56.48 55.66 54.98
51.51 51.25 50.13 51.00 51.04 50.83 51.68 52.03 52.01 50.73 50.93 51.33 51.70 49.45 50.51 53.36 51.42 48.65 48.15 51.79 51.38 51.25 51.04 50.88 52.87 53.50 53.94 54.10 55.61 56.96 57.88 57.35 56.44 56.06 55.36 54.52 53.17 51.76 51.65 52.62 53.76 53.56 54.23 54.99
49.27 47.08 47.03 48.11 48.95 50.19 48.30 49.09 51.38 50.63 50.59 50.96 51.18 50.22 50.27 51.38 51.72 53.91 51.57 50.70 51.18 51.79 50.61 52.77 53.19 52.62 53.20 54.65 54.11 52.87 52.65 53.03 52.44 53.98 54.22 49.88 52.49 50.83 49.83 50.37 50.30 50.92 50.77 52.06
46.84 45.08 45.63 45.71 45.15 45.35 45.39 47.62 47.75 47.36 46.82 49.82 50.83 50.15 49.03 49.69 47.73 48.17 48.84 49.35 49.48 52.24 52.09 52.07 52.08 52.04 52.83 52.81 53.29 53.11 52.82 52.07 50.88 50.36 50.05 48.84 48.21 47.31 47.13 47.23 47.54 48.30 48.32 49.09
43.94 43.22 43.28 43.18 43.33 43.81 43.72 43.83 44.12 45.23 46.06 46.44 46.69 47.54 47.38 47.70 47.49 47.15 46.99 46.89 47.25 49.04 50.70 50.41 50.49 50.77 50.28 50.61 51.00 51.08 51.42 51.19 51.99 51.80 50.67 50.26 50.83 51.74 50.45 49.56 49.48 46.60 46.62 46.35
43.23 42.54 42.67 43.03 43.86 43.83 43.44 44.61 43.84 42.61 43.69 43.39 42.19 43.53 44.68 45.22 44.74 44.56 44.97 45.62 45.89 46.24 45.26 45.17 46.02 47.43 47.42 48.42 47.75 49.05 49.11 48.71 46.96 50.32 48.82 48.96 48.92 48.16 47.42 47.33 47.63 48.13 47.21 45.85

GFSNGP_sfc_wetblb_015.txt.gz
Wetbulb
37.87 41.15 42.55 43.24 43.31 45.14 42.01 43.81 41.21 43.77 40.49 44.01 46.15 47.34 48.76 50.18 51.58 56.68 57.82 59.43 61.30 62.16 63.67 64.72 66.08 67.74 69.03 69.88 71.13 71.57 71.35 71.91 72.13 72.71 73.19 73.04 72.64 72.14 72.16 71.92 71.61 70.87 70.01 70.29
35.73 42.03 43.55 42.60 44.69 45.78 45.57 45.41 44.27 44.53 40.37 45.92 48.63 47.52 47.24 48.91 50.59 53.15 56.66 57.85 59.29 63.14 64.03 64.59 66.12 67.41 68.49 69.80 70.75 72.14 71.69 71.83 72.47 73.08 73.18 73.23 73.06 72.58 72.02 71.69 71.73 70.46 70.03 69.70
30.09 38.48 39.30 38.63 44.07 45.62 46.40 46.19 45.75 42.80 44.25 45.88 46.20 46.66 47.10 48.51 50.38 53.11 53.96 56.27 59.40 60.63 62.15 64.74 66.33 67.99 68.16 69.92 70.93 71.99 71.72 72.39 72.73 72.83 73.01 73.27 73.42 72.94 72.22 71.56 72.09 70.17 69.73 69.56
30.45 34.14 31.59 42.52 47.41 48.85 47.09 46.73 46.46 45.29 47.02 47.80 48.76 50.46 50.17 49.80 50.12 51.98 54.47 56.56 59.25 61.87 63.06 65.30 67.31 68.47 69.03 70.02 70.75 71.40 71.90 72.18 72.94 73.10 72.96 73.40 73.55 73.19 73.01 72.29 72.46 70.48 69.84 69.31
30.04 30.96 38.04 44.22 47.55 47.02 45.78 44.85 49.60 47.11 48.10 48.22 48.81 48.41 48.26 51.24 52.15 53.35 54.77 55.99 59.29 63.48 64.27 65.66 67.22 68.58 68.84 69.04 70.23 71.27 71.42 71.87 72.75 73.49 73.09 73.50 73.24 73.41 73.81 73.35 72.13 71.81 70.99 70.26
32.42 31.02 32.02 40.46 49.33 53.08 50.68 43.70 55.45 52.35 49.26 48.81 48.33 44.85 49.60 54.54 57.18 55.25 54.21 54.19 57.76 61.90 63.20 63.50 66.31 68.56 68.43 68.27 69.36 70.53 71.93 72.40 73.18 73.84 73.40 73.16 73.44 73.69 74.42 74.36 73.09 72.68 72.01 71.41
34.67 32.88 38.76 47.03 53.92 53.92 41.94 43.66 55.57 55.80 54.64 50.50 47.80 49.11 52.29 56.67 58.17 60.79 57.32 58.42 57.12 55.59 60.47 63.98 64.91 66.70 67.49 68.07 68.35 70.58 72.06 72.97 73.19 73.90 73.89 73.88 73.72 73.94 74.09 74.12 73.62 73.01 72.53 71.96
36.18 35.82 34.55 53.07 53.76 49.65 52.53 56.18 58.58 58.41 58.32 58.66 59.11 60.99 62.44 63.47 64.25 64.06 64.01 65.56 68.25 67.33 64.39 61.12 60.68 63.88 66.74 67.71 69.59 70.20 70.99 71.32 72.05 72.93 73.84 73.51 73.35 73.62 73.84 73.83 73.21 72.63 72.00 68.25
40.56 41.23 47.21 51.55 53.19 57.70 57.19 56.36 58.12 58.13 59.74 60.23 60.14 59.71 60.16 60.60 60.85 60.46 60.15 59.37 59.97 59.90 61.52 61.66 68.30 65.32 63.15 66.48 68.80 69.77 70.08 70.15 70.53 72.31 73.21 73.09 72.94 73.27 73.30 73.31 72.46 70.95 68.36 66.73
43.77 47.35 50.65 53.72 55.24 56.37 56.93 56.37 57.19 57.86 58.01 58.41 57.80 58.56 58.18 58.81 58.89 58.64 58.89 58.51 58.13 57.61 56.67 56.05 59.53 63.51 64.97 67.97 66.18 66.62 68.48 69.34 69.99 71.21 72.05 72.84 73.44 73.80 73.25 72.41 71.35 69.11 67.64 66.21
45.14 48.35 51.73 54.05 54.69 55.67 56.10 56.26 56.49 57.49 57.89 57.36 57.03 55.90 55.54 55.72 56.46 57.62 57.87 57.90 57.50 56.82 56.66 56.47 58.31 59.71 59.91 59.20 61.94 65.66 66.50 67.64 68.98 70.82 72.13 70.48 61.93 68.88 72.13 68.20 68.00 67.57 66.91 66.28
41.64 49.69 50.08 51.59 54.23 55.32 54.36 54.43 54.06 56.02 56.21 56.79 56.55 55.23 55.88 55.82 56.56 57.38 58.18 58.62 58.35 58.10 57.10 56.58 59.02 63.62 62.45 61.60 62.04 66.19 69.05 71.09 71.24 71.61 63.50 61.22 60.16 57.36 50.07 53.70 55.33 54.24 54.79 61.97
49.96 51.58 52.46 53.30 54.07 54.77 54.22 54.47 57.06 56.33 55.54 55.35 55.32 56.28 56.42 55.84 56.88 57.60 59.87 61.15 61.23 61.32 62.16 61.05 62.43 64.19 62.88 62.02 62.06 60.03 68.84 71.09 67.59 63.43 64.07 65.20 66.31 64.61 59.94 55.49 48.37 44.93 48.62 52.07
53.30 52.38 50.96 53.11 51.96 54.17 55.48 55.74 55.93 56.21 56.55 56.83 56.78 57.08 57.82 58.71 59.45 59.65 60.16 61.24 62.88 63.34 64.04 65.36 65.93 61.84 60.61 61.79 63.32 61.59 58.98 57.14 65.76 65.72 66.42 66.24 65.43 63.97 61.83 61.92 62.06 57.63 46.54 46.49
53.31 52.50 52.48 53.19 53.57 53.57 54.12 55.35 53.73 53.56 53.77 54.21 57.13 57.90 58.10 57.22 57.13 57.47 59.43 61.53 62.23 62.57 62.62 62.99 63.53 64.66 62.30 64.84 66.20 65.05 61.86 63.57 64.63 64.74 64.12 61.64 61.22 60.36 59.89 61.62 58.74 52.31 50.48 47.36
52.80 52.30 52.55 51.77 52.00 52.15 52.26 52.26 53.13 53.72 54.44 54.52 54.16 53.18 53.72 55.67 55.97 55.66 56.48 56.96 59.78 60.80 61.48 60.34 60.11 61.69 65.41 66.56 66.65 65.00 64.29 60.73 62.72 62.69 61.36 60.81 60.12 59.16 58.52 58.20 56.28 55.11 55.78 52.44
50.00 49.59 50.16 49.91 50.59 51.01 51.35 52.23 53.09 53.27 54.49 54.69 54.60 55.40 54.96 53.10 52.67 52.83 53.85 54.45 55.24 59.39 61.57 60.78 60.39 61.31 62.26 63.94 64.04 65.67 65.44 64.66 61.87 63.59 62.10 61.14 60.61 60.04 58.61 56.82 55.80 56.36 55.90 52.28
51.86 51.47 51.82 51.58 50.61 49.98 51.11 52.36 53.87 54.56 54.36 55.26 55.66 54.91 55.17 55.06 53.78 54.34 55.22 55.98 55.20 55.73 58.64 59.94 59.74 60.66 61.56 60.90 61.90 61.95 62.50 63.07 63.41 63.23 63.19 62.60 61.62 60.91 59.10 58.43 57.53 56.62 53.62 48.13
53.40 52.74 52.62 52.61 52.31 52.20 52.34 52.71 53.85 54.89 56.24 55.68 55.50 55.36 55.43 55.16 54.84 54.49 54.75 54.57 55.03 55.80 57.42 59.15 60.04 59.54 60.04 61.69 60.88 60.63 60.49 59.80 59.73 60.46 60.68 58.49 60.96 61.81 60.67 58.83 57.34 55.30 52.91 50.31
54.12 53.97 53.66 53.87 54.34 53.74 54.64 55.54 55.00 54.47 54.81 55.58 54.22 53.87 54.05 54.13 54.13 53.09 52.80 50.00 50.20 50.95 53.40 54.93 56.36 57.70 58.22 60.14 60.55 59.81 59.14 59.00 58.63 58.29 59.75 59.80 59.38 59.19 60.04 55.82 57.92 56.12 54.73 52.67
53.07 53.70 53.60 53.32 53.32 54.02 53.32 53.22 52.43 51.09 53.07 55.33 52.90 51.36 50.39 50.51 51.18 50.83 49.39 47.94 49.24 49.41 51.86 53.58 53.66 54.41 57.40 58.78 59.69 59.51 59.04 58.96 57.87 56.56 57.34 57.71 57.49 58.18 58.53 57.86 58.21 56.72 54.40 53.46
50.18 50.60 51.19 51.27 50.46 50.23 50.85 50.87 50.33 51.01 50.45 50.90 52.73 51.36 50.60 49.61 48.36 48.43 48.61 48.46 51.51 50.77 51.81 51.74 52.78 54.94 55.36 58.58 58.05 58.00 57.80 58.39 57.74 57.06 55.25 55.15 55.32 54.78 55.53 55.98 56.08 55.44 55.09 54.17
45.38 45.98 46.48 47.61 47.85 48.19 48.78 48.11 48.49 49.22 48.59 47.98 47.41 47.72 47.95 46.72 46.93 46.34 45.75 49.00 50.71 50.55 52.39 51.96 53.03 53.66 53.81 53.86 53.93 53.64 54.67 55.87 56.06 56.84 57.26 56.88 56.08 55.86 55.74 55.66 55.49 56.38 55.98 55.37
44.11 44.29 44.34 45.45 45.80 45.24 44.93 46.08 47.94 48.86 47.84 47.04 45.95 45.98 44.63 44.88 44.37 45.85 48.57 49.98 49.88 49.94 50.11 50.52 51.38 52.17 52.65 53.09 52.79 52.35 51.84 50.39 49.56 50.00 51.21 48.43 52.51 52.50 53.09 53.04 52.86 53.10 54.78 54.26
42.42 42.70 42.34 42.70 42.14 41.86 42.89 44.73 46.10 45.47 44.22 43.70 44.10 44.72 44.32 45.05 44.04 45.03 45.62 44.96 45.57 45.77 45.63 47.40 49.28 49.39 50.28 50.76 50.85 50.85 51.17 50.77 49.00 49.44 49.30 49.23 48.63 47.32 47.15 46.41 45.29 46.57 49.24 51.64
40.51 40.64 41.55 41.60 41.47 41.79 42.72 43.43 42.03 42.50 42.28 41.19 41.48 42.33 42.88 43.17 43.37 43.65 43.60 44.19 43.61 43.53 42.68 42.95 43.49 43.18 43.44 43.91 46.65 48.65 48.85 50.51 50.16 49.25 48.64 48.39 47.79 47.28 46.67 46.34 45.59 44.81 44.61 44.43
39.22 39.87 39.87 40.22 41.52 41.81 41.84 41.10 40.14 39.29 40.32 39.83 38.51 39.38 39.65 40.21 41.16 41.56 42.02 41.91 42.06 42.28 41.64 41.27 41.57 42.18 41.76 41.73 42.10 42.80 44.75 46.67 44.28 47.10 48.44 48.30 47.70 46.92 46.51 44.61 44.84 44.51 44.02 43.06

GFSNGP_sfc_wetblb_018.txt.gz
Wetbulb
35.44 39.10 40.06 40.26 40.89 42.13 39.37 42.34 39.57 42.66 42.95 44.55 45.86 46.54 48.85 50.46 50.85 52.76 54.53 56.61 58.89 60.25 61.62 62.79 64.94 66.19 67.07 67.89 69.02 70.35 70.21 70.14 70.38 71.29 71.60 71.88 72.27 72.34 72.31 72.04 72.14 71.60 71.70 71.66
33.59 39.68 40.28 38.69 41.83 43.17 43.02 42.52 41.73 43.62 41.36 45.65 48.21 48.29 48.59 49.75 50.41 51.03 53.34 56.86 58.86 60.63 61.76 62.65 64.66 65.94 66.94 67.81 69.03 70.19 69.96 70.05 71.05 71.48 71.69 71.63 71.77 72.06 72.34 72.11 72.31 71.56 71.16 71.30
29.06 36.73 37.03 35.54 40.78 42.72 43.45 43.86 43.97 40.88 45.06 47.19 46.44 46.73 47.98 49.63 50.23 50.43 51.57 55.32 58.11 59.70 61.72 63.21 64.72 66.60 66.89 68.10 69.54 69.71 69.97 70.57 71.21 71.59 71.63 72.19 72.31 71.83 71.61 71.60 72.08 71.32 71.24 71.17
29.09 32.14 28.37 38.63 44.36 47.47 44.92 46.15 46.15 46.70 46.69 47.89 49.39 51.31 50.48 50.64 51.39 50.99 51.70 53.77 56.19 58.55 61.02 61.77 64.24 65.87 67.49 68.21 69.10 69.85 69.91 70.40 71.34 71.73 71.80 72.22 72.51 72.23 72.01 71.83 71.60 71.47 71.15 71.02
28.90 29.00 35.71 40.52 45.72 47.19 45.29 44.63 47.48 46.89 48.02 47.72 49.28 49.40 50.06 50.61 50.29 51.67 52.33 53.15 55.30 58.19 59.74 62.01 63.11 65.90 67.04 67.87 69.11 69.76 70.21 70.53 71.29 71.88 71.85 72.29 72.37 72.34 72.60 72.19 71.73 71.63 71.75 70.80
29.15 28.23 28.78 39.14 48.71 52.79 50.89 41.27 53.64 51.25 48.19 48.54 47.32 43.68 47.76 51.82 54.76 52.69 54.64 54.64 56.61 59.65 62.31 62.25 63.97 66.21 66.64 67.29 68.60 68.91 70.69 71.25 72.07 72.57 72.35 72.17 72.82 72.99 73.33 73.07 72.45 72.58 71.60 71.20
30.92 30.54 35.13 44.59 51.08 54.94 41.57 44.25 55.69 56.68 56.31 48.51 47.13 50.28 53.83 61.36 63.76 64.61 66.14 65.66 57.32 58.32 58.53 60.11 64.93 66.32 66.37 66.78 67.87 69.90 71.16 72.16 72.42 72.97 72.99 72.92 73.28 73.67 73.66 73.47 73.18 72.61 71.66 71.61
31.15 30.59 29.59 48.96 51.94 49.60 52.17 55.65 56.32 57.64 57.82 53.80 55.59 60.66 62.45 61.90 61.56 61.58 62.41 65.48 66.60 65.51 66.21 67.74 65.51 66.06 65.99 66.54 68.81 70.56 71.41 71.91 72.18 72.97 73.31 73.33 73.46 73.42 73.68 73.77 73.19 72.15 71.65 71.72
36.26 36.03 43.49 50.43 50.04 55.15 56.47 55.14 56.06 55.83 57.29 59.41 59.88 60.40 61.40 59.81 59.57 59.59 58.95 59.10 59.14 58.49 60.02 62.59 66.78 66.46 65.58 66.62 68.30 68.89 69.69 70.55 71.97 72.85 73.29 73.89 73.59 73.44 73.18 73.43 72.77 71.89 70.94 71.22
39.02 42.85 46.09 51.41 54.43 54.61 55.35 55.26 55.69 57.03 57.73 57.90 57.87 58.71 57.58 57.68 57.52 57.69 58.07 58.00 58.14 57.29 57.22 58.20 60.70 62.10 62.36 64.17 68.41 68.61 66.94 68.50 70.04 71.51 72.11 73.76 73.73 73.76 73.48 73.07 72.72 71.59 71.30 69.86
38.79 43.14 48.29 52.76 53.74 53.59 54.98 55.84 55.82 57.13 56.82 56.03 55.82 55.32 56.10 56.51 57.23 57.72 58.30 58.49 58.59 57.46 57.02 58.37 60.58 63.10 63.96 64.22 62.91 65.78 68.67 66.92 68.45 69.79 70.13 72.81 73.25 72.74 73.19 74.08 72.02 72.60 71.51 68.78
36.62 44.06 46.77 49.03 52.92 54.47 54.12 55.38 55.67 55.67 55.83 56.59 56.45 56.33 58.35 58.06 58.94 59.95 60.87 61.53 62.56 62.98 63.22 62.37 62.85 63.28 62.51 62.73 62.77 62.36 66.24 68.69 67.42 69.24 70.31 71.94 64.43 60.35 50.57 56.79 52.62 53.35 55.34 62.73
45.60 49.99 51.07 52.81 54.08 55.18 54.84 56.61 57.64 56.93 56.92 56.73 57.26 58.63 59.29 59.09 59.31 59.36 61.17 61.88 62.00 62.28 63.43 64.65 64.88 62.99 60.98 62.34 63.10 62.56 61.64 68.53 69.69 68.10 68.24 64.33 66.16 64.73 60.29 55.48 48.63 50.45 52.08 54.25
49.96 50.76 51.01 53.01 52.40 54.89 56.03 56.05 56.49 57.69 57.91 57.70 57.61 58.22 58.10 58.10 59.12 60.58 60.69 61.62 62.24 61.88 62.79 64.22 64.53 64.30 64.28 62.98 64.86 63.46 62.09 56.97 66.70 66.92 66.29 67.18 65.93 65.75 64.20 63.61 62.11 60.67 51.53 51.72
49.07 51.50 52.77 53.98 54.66 54.43 55.18 56.01 54.78 54.15 54.68 55.32 55.99 55.95 55.80 55.60 55.59 56.29 58.37 61.29 61.86 61.12 60.64 61.03 62.75 63.13 65.31 66.77 66.35 63.08 61.99 64.71 64.73 64.41 64.15 66.36 66.41 65.37 64.28 63.39 62.35 60.57 53.99 49.68
51.45 51.87 52.54 52.98 53.53 54.12 54.27 54.35 53.90 53.94 54.71 54.29 52.93 53.14 53.76 53.91 54.32 54.77 55.66 58.54 60.54 60.02 60.45 60.21 60.43 61.63 63.81 65.51 65.58 63.84 62.63 59.67 60.92 62.40 61.67 60.24 61.35 61.81 62.14 60.23 57.92 57.50 59.14 53.94
49.97 49.61 51.49 51.39 52.40 52.85 52.94 53.72 54.11 54.57 54.70 54.47 54.96 56.36 56.33 56.73 56.46 56.05 56.33 56.34 56.80 58.32 59.10 59.21 59.36 61.74 61.99 63.65 64.51 65.48 64.48 63.58 60.77 62.70 61.34 60.69 60.17 60.13 60.61 60.16 59.66 60.45 59.08 54.64
52.03 51.82 51.89 51.63 52.24 52.55 52.53 53.24 54.25 54.68 54.62 56.06 56.77 56.17 54.87 53.45 52.75 52.91 53.93 56.15 56.19 55.95 56.27 58.17 60.12 60.91 61.84 62.34 62.21 63.71 63.49 63.99 63.73 62.33 62.15 61.27 60.35 60.04 59.66 59.64 59.70 58.11 54.86 50.86
53.46 52.92 53.00 52.91 52.21 53.16 54.33 54.64 54.76 55.01 55.72 55.74 54.66 53.59 53.49 52.45 51.35 50.50 50.92 50.73 50.63 51.22 51.98 54.49 58.20 59.99 60.93 62.08 62.00 61.75 61.90 61.96 61.57 61.93 62.27 59.10 60.69 60.36 59.84 59.53 58.41 56.69 54.16 53.82
53.24 54.23 53.96 53.02 52.76 52.46 52.31 53.69 55.26 54.46 53.95 52.66 51.84 51.13 50.22 50.62 51.02 50.25 50.42 49.21 49.52 50.35 52.03 54.25 55.59 58.94 60.06 60.64 60.58 60.85 61.11 60.76 60.61 60.32 60.11 61.06 61.71 61.03 59.40 54.48 57.09 56.21 54.48 53.91
50.17 50.32 50.06 49.48 49.11 49.87 50.69 52.47 52.16 51.89 52.56 51.45 49.98 48.73 48.10 48.94 49.92 50.19 49.66 49.17 51.05 52.84 53.63 54.26 54.80 56.60 58.91 59.18 59.66 59.59 59.00 58.69 58.45 58.13 57.81 58.02 58.98 60.05 59.80 59.79 58.42 57.27 56.17 54.92
46.17 46.38 47.14 47.90 47.31 47.50 48.35 49.00 48.11 47.23 47.10 46.68 45.96 45.43 45.47 45.72 48.92 49.87 49.41 48.89 50.50 50.95 52.19 52.74 53.50 54.54 54.40 54.58 53.93 54.63 56.01 57.50 56.93 56.49 55.65 55.32 55.71 56.32 56.57 57.41 56.57 56.85 55.91 55.73
44.63 45.33 45.34 46.02 46.50 46.26 46.90 46.50 45.98 45.17 43.84 43.66 43.96 45.30 44.71 45.82 46.68 45.70 43.82 46.96 47.71 47.66 48.31 49.06 50.85 52.33 52.85 53.29 52.50 52.04 51.91 51.96 52.08 53.82 55.40 56.41 57.63 57.75 57.75 56.83 56.45 56.83 55.55 55.11
42.29 42.67 43.66 45.33 45.30 44.98 43.25 43.84 44.04 43.99 44.62 44.45 43.64 43.97 43.77 43.57 43.02 44.20 44.17 44.64 44.80 44.78 44.92 45.86 46.56 48.03 49.15 50.10 51.62 51.58 50.24 50.25 50.36 50.30 50.15 47.00 49.47 49.43 48.55 49.43 52.69 53.53 56.65 54.81
40.99 41.67 41.88 42.08 41.86 41.92 42.47 42.90 42.42 42.11 41.82 41.17 41.28 42.26 42.60 42.87 41.78 42.70 43.17 42.93 43.45 42.83 42.41 44.59 45.70 45.47 45.34 45.91 48.08 48.77 49.87 50.08 49.43 49.92 49.12 48.49 47.84 47.11 46.84 46.39 45.33 45.01 46.27 46.47
37.89 38.97 40.83 41.23 40.93 41.34 41.90 41.49 39.68 39.83 39.74 38.65 38.72 39.74 40.50 41.18 41.15 41.46 41.32 41.56 40.83 40.94 40.50 41.11 42.25 43.16 44.30 44.99 45.57 46.51 47.40 47.25 48.76 48.88 48.13 47.92 47.51 46.67 46.17 45.34 45.17 44.79 44.40 44.69
37.05 37.53 37.67 38.82 39.43 40.79 39.90 39.03 37.85 37.15 37.96 37.89 36.73 38.08 38.45 38.60 38.61 38.64 38.92 38.60 38.66 38.55 38.66 39.06 39.38 40.85 42.20 43.29 43.49 43.74 43.84 44.21 42.40 45.43 47.67 47.89 47.25 46.99 46.19 45.56 44.81 44.39 43.59 43.04

GFSNGP_sfc_wetblb_021.txt.gz
Wetbulb
42.35 42.90 43.41 43.47 44.01 45.42 45.39 47.53 45.82 47.53 47.95 50.92 53.46 55.06 56.74 58.14 59.75 59.94 60.14 61.79 63.83 65.10 68.61 69.79 70.20 71.02 71.44 72.05 73.18 73.74 73.68 73.47 74.02 75.24 75.83 75.95 75.83 75.99 76.31 76.48 76.23 76.57 76.61 76.67
39.38 42.47 43.11 42.04 44.35 44.98 45.57 46.16 46.42 46.97 47.21 52.97 53.85 56.55 56.92 57.66 59.01 59.91 60.76 60.78 62.80 65.58 67.69 68.27 69.67 70.59 71.14 71.74 72.62 73.59 73.63 73.33 74.21 75.06 75.65 75.57 75.87 75.98 76.21 76.09 76.27 76.29 76.02 76.31
36.39 41.37 41.87 39.12 43.73 45.06 46.19 47.97 47.82 44.80 49.60 53.00 52.92 54.50 55.52 57.40 59.48 60.33 61.62 62.86 64.13 64.59 66.94 69.01 69.33 71.09 70.79 71.59 73.02 73.11 72.09 73.85 74.60 74.94 74.99 75.28 75.71 75.89 75.43 75.55 75.93 75.78 75.90 76.11
36.21 38.82 32.36 44.42 49.16 49.86 48.87 49.66 50.35 50.28 51.49 53.09 54.66 57.54 58.92 59.79 59.28 60.36 61.14 61.83 63.78 62.62 66.04 70.16 69.45 69.69 71.96 72.02 72.74 72.94 73.35 73.90 74.53 74.70 74.51 75.17 75.07 75.23 75.56 75.79 75.45 75.54 75.46 75.84
33.37 35.60 40.50 42.75 46.43 50.04 50.29 49.07 55.12 55.03 53.43 53.36 54.85 56.13 58.18 59.47 59.56 60.55 61.84 63.23 62.99 62.74 63.95 69.31 69.87 71.70 72.28 72.14 72.52 72.88 72.94 73.46 74.30 74.62 74.54 74.98 74.68 74.71 75.30 75.45 75.48 75.43 75.90 75.78
35.74 31.61 31.82 43.41 49.38 54.36 55.01 45.31 57.23 58.23 59.10 58.14 54.62 50.76 54.92 61.49 59.89 59.26 60.16 61.01 61.79 63.73 65.40 67.00 68.56 69.45 71.48 71.05 71.97 72.34 73.27 73.77 75.07 75.68 75.33 74.98 75.38 75.58 75.88 75.81 75.37 75.23 75.62 76.02
33.65 33.29 38.61 46.20 50.81 57.31 46.06 47.81 58.09 59.07 59.65 60.05 59.07 56.06 61.09 63.60 63.38 66.49 67.00 63.10 63.29 66.32 68.55 69.02 70.13 69.79 71.07 71.90 71.83 73.13 73.87 74.75 75.48 75.78 75.50 75.95 76.17 76.14 75.99 75.81 75.29 75.35 75.19 75.46
34.13 31.65 29.81 47.24 49.60 46.51 55.11 58.56 59.48 60.18 59.59 59.00 61.81 63.32 60.82 65.62 67.24 69.14 69.09 67.72 67.69 69.52 70.26 70.86 70.67 71.64 71.45 71.85 73.41 74.16 74.50 75.04 75.84 76.16 75.67 75.76 76.33 76.35 76.38 75.49 74.72 74.57 74.52 74.42
37.63 37.58 45.72 49.16 50.52 56.35 58.68 58.07 59.35 59.63 60.04 59.83 61.63 63.58 64.30 66.10 66.94 67.21 66.91 67.38 70.42 69.92 68.85 69.83 71.42 72.58 71.67 72.49 73.19 73.88 74.23 75.06 75.61 76.35 76.47 76.73 76.27 76.03 75.28 75.30 73.70 73.19 72.43 72.00
40.16 42.67 45.20 48.34 51.86 55.34 58.17 58.31 59.39 60.39 59.49 60.52 61.85 63.18 64.49 64.40 64.03 63.73 63.82 63.61 64.37 65.52 66.16 66.73 68.64 69.21 69.89 70.26 73.36 73.76 73.79 74.69 75.48 75.24 75.73 76.70 75.87 75.93 75.41 74.65 73.13 73.40 72.65 72.10
40.88 44.11 46.71 48.14 50.38 54.30 57.23 58.91 59.94 59.06 59.40 59.74 61.63 61.34 62.18 61.78 62.17 62.80 63.20 63.66 64.98 66.20 66.66 66.42 67.73 67.63 67.73 67.96 68.61 69.04 71.35 73.01 73.20 73.88 74.50 75.67 76.43 76.42 75.84 76.53 74.17 74.29 74.40 73.54
38.37 45.95 46.28 47.44 52.59 56.11 56.47 58.41 58.86 58.20 59.78 60.53 61.40 60.12 60.85 60.47 61.59 62.63 63.30 65.73 66.47 67.45 67.51 66.74 66.17 66.28 66.94 67.98 67.62 67.61 68.12 68.42 69.00 70.82 72.24 73.49 74.85 74.77 53.46 52.42 56.16 56.54 57.12 67.33
44.87 47.97 48.47 50.88 52.49 54.87 56.66 59.43 58.84 59.59 61.51 61.00 61.31 60.77 60.27 60.47 61.86 60.64 63.21 63.23 63.13 64.18 65.22 67.02 68.06 68.08 68.78 68.97 69.27 68.15 67.79 67.42 68.37 68.09 70.73 70.64 73.15 72.68 70.01 61.98 48.02 50.74 52.01 53.10
48.13 46.79 45.25 49.68 50.14 56.15 57.97 59.61 57.80 59.99 60.06 60.68 60.92 62.08 62.48 62.12 62.98 63.61 63.81 65.05 65.74 66.07 66.57 67.79 67.06 64.50 66.49 68.87 68.04 68.23 66.83 57.75 67.93 63.49 63.20 65.69 67.63 69.14 70.06 64.82 65.81 58.75 50.18 54.32
45.35 46.97 47.40 51.41 53.32 54.95 56.96 58.95 56.69 56.81 57.39 56.41 57.71 58.48 60.05 60.06 60.71 61.13 63.57 64.89 64.60 64.17 64.11 64.86 65.34 64.91 66.86 68.71 67.50 66.82 66.66 66.88 66.63 64.18 62.63 60.29 60.54 59.76 59.87 64.44 66.36 60.74 56.00 52.78
47.80 49.73 50.25 50.41 53.02 53.88 55.54 55.64 54.83 55.68 57.02 57.17 57.25 58.46 59.51 60.12 58.91 59.07 61.28 62.76 62.39 61.99 63.29 64.04 64.22 65.37 66.73 66.65 68.06 66.43 67.06 59.64 62.88 67.59 65.85 65.10 64.83 63.38 58.83 59.66 60.25 60.82 60.72 56.80
44.96 45.64 49.46 50.75 52.88 54.05 54.68 55.70 56.65 57.07 58.50 58.35 58.49 58.84 58.67 57.12 56.26 55.93 57.58 60.07 59.89 59.47 61.38 62.86 63.98 66.13 66.48 67.06 66.43 66.16 65.16 65.30 61.37 66.01 65.25 64.87 63.73 64.16 62.41 60.57 60.01 60.48 61.04 56.50
52.30 52.78 50.46 50.27 53.15 54.02 54.61 55.73 56.87 57.35 56.90 56.97 56.47 54.96 53.46 52.38 52.15 52.75 55.76 56.97 58.73 59.34 59.14 61.49 63.08 65.90 66.08 65.58 66.55 65.73 64.68 64.77 64.27 63.76 63.71 62.84 63.61 63.05 61.88 61.63 60.98 59.39 56.02 53.03
53.44 52.68 52.03 53.74 55.21 55.59 55.62 55.31 55.62 55.66 55.55 54.26 52.94 51.11 52.03 53.17 54.13 55.15 55.65 55.20 55.99 56.59 57.65 61.09 60.79 63.39 64.18 62.58 64.39 65.48 65.81 64.52 63.00 62.95 63.33 59.69 62.28 61.63 61.19 59.94 57.80 57.06 57.10 58.51
48.70 50.67 52.03 52.21 53.17 52.69 52.23 52.66 52.85 52.94 53.37 53.16 52.47 51.57 51.09 51.53 53.72 54.69 54.44 52.45 54.21 55.40 57.78 58.23 60.76 60.66 61.99 61.99 61.57 62.54 62.74 63.60 63.64 63.84 63.62 63.28 63.76 62.33 60.85 55.98 59.01 59.38 60.46 61.56
47.08 47.89 48.19 48.14 47.89 47.31 47.23 49.13 48.32 47.31 48.66 50.59 51.32 51.99 52.16 51.34 51.13 52.05 52.58 50.99 51.45 54.22 55.36 55.59 56.31 57.51 58.07 59.50 58.92 58.21 58.84 57.42 59.74 60.15 59.84 59.66 61.79 62.23 61.46 61.19 60.61 60.38 58.89 59.39
46.26 46.37 46.19 46.33 46.19 45.18 45.49 46.01 46.97 47.33 49.14 49.42 49.87 50.39 50.25 50.07 50.66 48.46 48.17 48.73 49.72 49.40 51.84 52.71 53.55 53.89 56.09 56.47 57.34 56.55 56.32 54.49 53.50 54.28 57.13 58.03 58.31 58.07 57.98 57.44 56.70 56.40 57.56 58.77
45.04 45.57 45.66 45.28 45.05 44.42 44.82 45.41 46.04 45.97 45.16 45.57 47.04 46.69 46.07 46.04 46.88 46.70 44.85 46.85 48.23 47.57 50.22 49.68 49.38 50.79 51.96 55.98 54.90 54.59 54.69 52.81 52.01 51.42 50.87 50.99 51.58 52.99 53.42 51.77 53.40 56.48 56.04 56.02
45.33 45.49 46.24 46.39 46.20 44.84 42.94 43.86 43.96 44.26 44.84 44.53 45.29 44.97 46.28 45.36 45.13 46.82 46.54 44.87 44.81 46.40 46.94 47.92 49.08 49.14 49.80 50.14 51.38 53.36 52.76 54.53 54.74 54.13 53.11 47.95 51.34 52.12 53.22 52.60 49.58 47.67 48.57 48.28
45.00 45.14 45.54 45.56 44.92 43.98 44.28 44.10 44.01 43.86 43.66 43.94 44.21 44.74 45.36 45.51 44.29 44.45 45.02 45.04 43.51 45.13 44.94 45.84 47.34 48.23 49.53 49.33 49.74 49.06 48.60 50.62 51.43 53.01 52.66 52.18 51.90 51.46 50.90 49.96 48.38 49.49 47.83 47.42
43.19 43.56 43.65 43.61 43.72 44.93 44.53 44.25 42.24 42.96 42.89 41.59 42.12 42.71 42.97 43.29 43.05 43.68 43.43 43.15 43.37 42.95 43.95 44.44 44.40 46.27 47.12 46.70 47.27 47.35 47.63 47.03 48.92 49.16 48.34 49.08 49.03 48.56 48.40 49.14 49.78 49.69 48.73 48.63
42.00 41.01 44.19 43.59 42.98 41.87 41.75 42.21 41.35 40.66 41.59 41.22 40.05 41.42 42.09 42.06 41.57 41.63 41.18 41.25 40.70 41.02 41.89 42.63 42.41 42.53 43.73 44.54 44.77 45.67 45.90 46.33 42.69 46.40 47.16 47.86 47.74 47.24 47.72 46.78 46.03 46.51 48.74 49.20

GFSNGP_sfc_wetblb_024.txt.gz
Wetbulb
50.77 48.36 48.73 50.65 50.09 51.09 50.42 51.23 48.95 50.98 51.68 54.14 55.87 56.84 57.97 59.47 60.34 60.31 61.67 63.08 65.23 67.75 70.05 72.17 72.81 74.78 76.10 75.21 75.87 75.84 76.78 75.86 77.49 78.68 79.44 79.50 79.34 79.64 79.83 79.92 79.78 80.12 79.95 80.00
46.27 47.77 47.27 46.61 48.99 49.98 51.00 52.01 51.82 52.01 52.05 56.83 57.87 58.13 58.33 58.82 59.38 59.55 60.71 61.34 62.26 64.77 68.69 70.06 71.92 73.04 73.68 75.70 75.22 76.37 77.43 76.79 78.01 78.81 79.26 79.25 79.59 79.51 79.70 79.71 79.76 79.76 79.39 79.66
43.45 47.21 46.68 44.10 47.95 49.06 50.20 51.71 51.59 49.26 53.39 56.44 56.01 56.63 57.52 58.26 58.98 59.41 61.00 62.38 63.44 65.03 66.78 68.97 69.68 72.60 73.16 74.69 75.49 76.50 76.83 77.73 78.32 78.72 78.69 79.12 79.42 79.53 79.09 79.21 79.57 79.38 79.34 79.48
43.19 44.94 37.68 48.67 53.36 52.29 50.55 51.76 53.07 53.33 54.53 55.92 56.82 58.31 59.22 60.13 60.12 60.44 61.23 62.54 64.03 63.90 64.73 66.67 68.72 68.56 73.33 74.31 76.48 76.58 77.07 77.51 78.30 77.76 78.24 78.72 79.17 78.87 79.05 79.06 78.85 78.74 79.00 79.36
39.08 40.40 45.69 47.34 48.67 49.42 49.92 50.44 54.13 54.24 55.51 56.19 57.55 57.76 58.05 59.99 60.94 62.29 63.22 63.93 64.42 64.76 65.56 69.49 68.33 70.17 71.81 73.79 74.46 75.13 76.67 76.94 77.56 77.74 77.36 78.04 78.26 78.69 78.97 78.66 78.69 78.58 78.95 79.21
40.92 36.86 37.15 46.83 50.79 54.68 53.61 47.97 55.70 58.15 58.44 59.69 61.95 55.99 56.65 61.02 61.21 62.07 63.34 64.08 64.63 65.28 66.14 66.79 68.79 69.77 71.47 72.66 73.63 74.36 76.25 76.26 77.93 78.41 78.33 77.88 78.38 78.80 79.22 79.11 78.36 77.51 78.25 79.09
38.41 37.76 42.56 49.29 52.78 57.11 45.92 52.07 59.97 60.42 61.16 62.06 61.19 62.90 66.05 67.70 66.94 66.60 66.75 66.86 67.51 67.03 66.63 68.82 71.14 71.14 71.29 72.93 73.06 75.13 75.78 75.92 77.27 78.40 78.66 78.89 79.25 79.42 78.77 78.41 77.87 78.38 78.36 78.78
38.36 36.78 35.10 48.98 48.95 47.43 54.61 59.06 59.43 60.59 62.08 62.36 63.92 65.35 66.25 67.27 68.16 67.10 67.25 68.85 70.60 67.70 68.28 71.74 73.58 73.48 72.61 75.07 75.61 76.29 76.55 76.08 77.68 78.60 77.33 76.86 79.35 79.38 78.74 78.14 78.00 77.81 77.93 77.69
41.38 41.06 48.40 50.43 50.50 53.37 54.42 54.98 58.35 58.61 59.96 61.95 62.58 64.16 66.37 67.81 68.11 68.59 69.71 70.99 72.08 70.50 72.30 73.26 74.74 75.06 74.42 75.43 75.95 75.96 76.13 76.30 76.67 77.22 77.31 78.45 78.72 78.13 76.64 78.16 76.13 76.04 75.64 75.52
41.63 44.25 47.12 49.10 51.15 52.70 54.49 54.83 56.85 59.19 59.89 61.71 61.74 64.19 66.25 68.11 68.58 69.12 69.32 70.13 71.77 71.94 70.93 72.11 74.94 75.95 76.44 76.23 76.34 76.52 76.21 76.58 76.89 76.93 76.57 77.29 76.76 76.76 76.37 76.10 75.80 75.42 75.34 75.61
42.66 45.92 47.22 48.80 50.71 52.31 53.48 56.56 58.16 59.39 61.23 62.30 62.72 62.33 66.78 67.54 67.50 68.52 68.35 68.87 70.11 70.09 70.38 70.24 71.19 71.20 71.45 72.09 73.21 75.24 76.02 76.00 76.60 76.45 76.77 76.88 77.62 76.77 76.37 78.19 74.94 76.31 76.00 76.20
40.27 46.84 46.83 48.06 51.75 53.85 53.89 54.74 57.11 58.59 60.34 63.18 61.54 62.56 63.69 63.68 64.91 66.44 67.24 68.66 68.96 69.11 69.55 69.46 70.05 70.80 72.07 72.61 72.72 71.95 71.67 71.10 71.65 72.64 73.72 75.07 75.22 76.22 54.81 57.65 53.01 50.65 50.95 66.18
46.38 50.18 50.16 51.59 52.46 53.26 53.59 54.59 56.54 59.14 62.35 61.29 62.02 62.96 63.21 63.69 64.81 62.78 65.92 66.12 66.65 67.15 68.94 70.44 68.32 67.06 68.50 72.18 71.86 71.39 71.11 72.07 72.37 69.42 73.17 72.47 72.58 73.09 72.90 67.49 52.10 51.74 49.02 48.66
48.36 48.19 47.09 49.94 49.87 52.74 54.92 56.79 57.87 60.92 60.99 60.60 62.89 63.23 63.12 64.11 64.97 66.00 67.14 68.01 69.00 69.39 69.60 69.73 67.52 66.23 69.43 71.11 71.18 71.20 70.23 59.98 69.89 69.85 70.88 71.73 71.96 71.14 70.64 70.16 70.08 71.89 59.49 51.56
45.92 46.58 47.23 49.78 51.39 51.10 54.11 58.15 57.80 57.62 57.18 57.36 62.77 63.49 63.36 63.89 63.95 64.79 66.52 67.08 67.30 67.27 67.31 67.80 68.22 68.38 68.02 71.26 70.88 70.02 69.67 69.41 68.96 67.78 66.84 64.77 68.01 67.95 67.01 66.96 66.01 66.30 60.73 54.56
45.49 45.93 47.14 49.43 51.12 51.29 53.82 55.20 51.67 56.21 57.09 58.39 59.64 61.36 63.14 63.99 63.70 63.70 64.24 64.99 64.00 63.67 65.01 66.06 67.31 68.17 70.00 68.64 69.70 68.96 68.48 61.02 62.54 68.73 68.36 68.45 68.04 67.88 65.88 66.23 65.57 63.37 60.32 58.00
43.84 43.63 46.63 49.75 52.24 53.30 52.74 52.12 54.38 56.17 57.70 58.71 58.85 58.21 57.97 58.66 60.66 61.05 62.32 63.65 63.83 64.26 65.19 64.44 65.86 67.58 68.20 69.62 68.44 67.54 67.67 66.30 61.49 65.59 65.31 65.78 67.14 66.69 66.64 65.42 63.90 64.68 63.85 58.74
48.29 49.11 51.47 53.42 52.62 52.56 53.57 56.64 57.08 56.49 57.04 57.10 56.26 57.42 58.59 58.57 58.74 57.86 59.92 61.91 62.36 61.68 62.61 63.99 65.58 66.61 66.43 68.29 68.53 68.30 66.73 64.71 64.72 64.63 64.91 64.39 64.23 64.34 64.93 65.06 65.27 64.88 65.03 59.79
51.21 50.61 52.76 52.82 52.20 53.10 52.38 52.17 53.34 53.84 54.65 55.18 54.89 55.19 56.20 56.34 56.94 57.98 59.84 59.72 59.44 58.86 59.00 62.22 60.77 63.14 63.81 63.40 65.75 67.09 66.99 67.13 65.00 65.31 65.74 61.60 63.04 62.51 61.74 60.64 59.60 58.99 60.68 58.12
48.83 49.12 47.71 47.53 47.90 48.82 48.64 50.40 51.68 51.78 53.76 52.93 52.75 52.49 53.99 56.32 57.06 56.57 56.26 55.13 56.33 56.73 57.98 59.36 62.48 61.87 62.71 61.99 61.42 63.97 64.35 64.64 63.69 63.76 63.42 64.62 64.74 63.63 63.17 57.89 59.80 59.83 59.91 60.10
46.83 47.58 46.82 46.46 46.57 47.97 48.65 51.13 51.43 50.23 51.92 52.74 51.32 49.52 47.90 48.98 52.21 55.21 53.81 51.27 53.55 56.50 55.71 56.81 58.09 60.29 60.47 61.45 61.83 60.99 60.20 60.64 61.27 61.54 61.00 60.79 61.12 60.60 60.24 60.37 60.51 60.15 60.32 60.53
46.16 46.57 46.74 46.25 45.70 45.02 45.68 46.12 47.50 49.80 49.90 49.21 49.65 49.76 50.70 51.74 51.51 50.04 51.08 51.31 51.92 50.56 53.87 53.94 55.12 53.85 58.14 58.35 60.10 59.41 59.17 57.89 56.73 56.01 53.91 55.55 55.78 54.43 55.16 55.24 56.07 54.96 55.18 56.57
47.77 47.56 48.37 49.14 47.54 46.06 46.39 46.36 45.41 46.75 46.48 46.52 49.30 48.48 48.22 48.68 48.87 45.88 45.21 49.14 50.30 49.09 52.54 51.62 50.43 51.68 52.56 57.03 58.04 58.01 58.55 57.39 56.71 54.65 53.82 53.68 53.28 53.46 51.80 50.05 51.66 50.82 50.16 49.99
48.95 48.67 47.57 48.15 48.92 48.63 47.40 47.97 47.95 47.39 47.31 47.81 47.34 47.31 48.07 46.84 46.53 48.38 48.21 46.57 46.48 48.82 48.06 49.20 50.06 49.92 51.06 54.58 54.09 54.81 54.86 56.06 56.85 56.77 57.04 50.67 55.89 55.06 54.42 54.99 52.88 49.23 48.64 47.73
48.86 49.60 49.67 48.92 48.60 47.75 47.77 47.57 47.39 46.92 46.02 46.35 47.18 47.55 47.37 46.17 44.60 45.33 46.86 47.06 45.10 47.62 48.40 46.63 47.96 48.86 51.54 51.95 52.23 51.81 51.86 52.27 51.54 54.27 54.37 54.13 54.21 54.35 54.91 54.87 53.90 53.90 53.92 51.65
46.75 47.63 48.22 48.02 47.55 48.31 48.30 47.54 45.75 46.02 45.54 44.62 45.37 45.50 45.77 45.97 45.70 44.88 45.43 44.37 45.79 45.71 46.70 46.68 46.05 48.00 49.00 49.02 50.11 50.35 50.67 50.20 51.11 51.12 51.02 51.62 51.59 50.89 50.54 50.75 51.56 52.45 53.45 53.73
45.32 43.12 46.98 46.97 46.86 46.21 46.00 45.65 45.03 44.01 44.29 44.42 43.59 44.50 44.58 44.58 44.13 43.80 42.74 44.21 44.08 44.13 44.41 44.68 45.09 44.47 46.20 46.61 47.55 48.03 48.51 48.77 44.63 49.39 50.38 50.46 50.57 50.40 50.40 49.92 48.70 47.26 46.31 47.28

GFSNGP_sfc_wetblb_027.txt.gz
Wetbulb
52.66 53.74 53.78 52.17 51.28 51.92 51.34 52.78 50.21 52.60 53.01 55.69 57.42 58.92 59.95 61.31 61.98 61.89 63.83 65.19 66.29 67.16 69.40 71.97 74.81 77.04 77.43 76.26 77.66 77.67 78.30 78.12 78.19 79.86 80.67 80.90 80.70 80.64 80.92 80.90 80.82 80.97 80.72 80.68
50.59 52.79 51.57 50.62 53.13 52.64 52.49 52.66 53.10 53.34 53.88 58.46 59.46 59.89 59.74 59.95 60.10 60.32 61.18 62.54 64.48 66.15 67.81 70.50 71.90 74.99 76.59 77.80 77.19 77.62 78.60 77.99 79.11 79.67 80.44 80.65 80.88 80.87 81.08 80.57 80.73 80.85 80.48 80.13
46.77 51.23 50.64 47.32 51.53 52.92 53.58 54.25 54.04 51.57 55.54 58.65 57.92 58.12 58.82 59.61 60.54 60.61 61.09 61.88 63.18 64.29 65.07 68.64 70.62 72.57 73.61 77.28 78.01 77.71 77.96 79.23 78.68 79.80 79.81 80.41 81.12 80.93 80.35 80.34 80.94 80.54 80.21 80.36
45.88 49.24 42.04 51.53 55.48 54.63 53.31 54.66 55.82 55.96 57.16 58.15 58.42 59.94 60.61 61.13 60.97 61.50 62.11 62.93 63.68 63.54 65.02 67.11 67.21 67.43 73.15 73.58 78.28 78.36 78.50 78.25 79.52 79.16 79.95 80.43 80.43 80.20 80.62 80.51 80.20 80.23 80.15 80.63
43.37 45.43 48.78 50.76 53.32 53.13 52.08 52.14 55.86 55.45 56.55 57.10 58.25 58.89 59.29 61.03 61.77 62.34 62.94 63.71 64.29 64.71 65.41 69.61 67.64 68.69 69.83 73.09 76.41 78.03 77.93 78.85 78.81 79.67 79.67 79.94 79.59 79.83 80.40 80.09 80.01 79.81 80.37 80.28
44.26 42.09 42.48 50.38 53.29 54.77 55.41 49.36 56.57 56.54 56.68 57.33 58.65 55.29 59.27 67.10 67.95 67.07 65.12 66.23 66.26 65.52 66.24 66.48 68.89 68.35 68.44 69.46 73.67 77.02 77.95 78.81 79.64 80.15 79.83 79.77 79.86 80.22 80.49 80.54 80.01 79.67 79.87 80.31
41.05 41.01 46.46 53.13 55.63 56.44 47.25 53.18 61.46 59.19 59.60 60.57 60.07 63.26 66.61 68.24 68.60 69.46 69.69 69.77 69.62 70.26 69.91 69.43 70.25 69.76 72.94 73.06 73.33 76.27 77.35 78.56 79.99 80.33 80.35 80.43 80.35 80.77 80.66 80.40 79.66 79.75 79.53 80.11
41.44 39.77 39.07 52.51 52.00 50.17 53.84 57.21 57.81 59.68 60.01 59.77 62.62 64.26 65.25 66.79 68.34 69.78 69.90 69.77 68.46 69.32 71.31 70.90 71.00 72.56 75.22 75.90 77.83 79.64 79.50 79.03 79.73 80.41 79.10 78.78 80.66 80.51 80.68 80.19 79.56 79.18 79.24 78.79
42.91 43.85 51.13 53.14 52.40 54.39 54.62 54.68 56.34 57.89 59.65 60.31 60.50 62.53 64.11 65.49 68.72 70.05 70.22 71.01 71.68 71.77 72.00 72.85 75.47 75.67 75.26 79.30 79.06 79.72 79.59 79.98 80.23 80.41 80.05 80.34 80.23 80.11 78.51 79.41 77.28 77.27 76.77 77.05
44.03 47.24 48.58 50.67 52.74 53.51 53.86 54.08 55.62 56.66 57.78 60.39 60.42 63.02 63.80 66.13 69.66 70.33 70.64 70.64 71.33 72.36 72.74 73.80 76.55 76.74 77.41 77.98 77.78 77.52 77.82 78.97 79.00 78.72 78.50 79.36 77.83 78.09 77.09 76.78 76.45 76.32 75.86 76.56
44.13 47.03 48.63 49.92 51.42 52.20 53.12 54.27 54.98 57.64 59.20 59.79 60.49 62.27 64.37 65.86 69.51 69.99 70.00 70.11 71.87 72.73 72.71 72.69 73.88 73.73 74.39 74.97 77.18 77.01 77.36 77.35 77.70 77.21 77.52 78.26 78.67 77.13 77.04 78.70 75.02 76.86 76.78 76.47
41.75 48.47 48.58 49.49 52.24 53.12 52.14 53.39 55.99 56.77 56.95 59.03 60.98 62.55 64.82 65.63 68.02 69.27 69.18 70.03 70.79 71.60 71.54 71.63 72.39 72.47 73.40 74.49 74.38 74.46 75.77 76.14 75.71 76.32 76.83 76.94 76.75 77.34 64.94 62.89 58.12 53.45 50.37 61.89
46.43 49.79 49.89 52.00 52.79 53.79 52.70 54.48 55.16 55.67 56.58 56.74 60.26 63.84 65.34 65.03 66.49 64.52 66.69 67.70 68.82 70.48 69.70 69.50 68.18 69.83 72.83 73.68 73.85 73.36 73.18 73.43 72.63 68.99 72.33 72.91 73.73 73.77 73.40 68.25 55.08 54.18 50.37 48.20
49.16 48.57 48.62 50.59 49.71 54.00 53.90 54.18 54.42 55.24 55.78 56.68 60.56 64.16 63.65 63.69 65.05 66.05 66.94 69.46 70.62 69.55 69.52 69.56 68.82 70.26 72.23 72.87 73.62 73.13 71.48 60.09 72.06 71.52 72.41 72.52 72.29 72.04 71.83 70.25 69.08 69.62 57.01 53.54
48.89 49.78 49.03 51.29 51.78 52.65 53.25 54.14 54.43 55.61 57.66 59.62 62.24 61.89 63.05 62.73 64.36 66.01 68.37 68.66 68.22 67.74 68.15 68.57 68.21 69.45 71.53 71.31 71.50 70.22 70.40 70.56 70.92 69.69 68.53 66.97 70.76 71.04 70.30 69.24 68.26 67.00 66.81 59.35
48.02 47.79 48.19 49.37 50.28 50.83 51.57 53.15 52.46 53.67 58.24 58.36 60.43 60.51 63.11 63.67 63.45 63.70 64.86 66.47 65.53 64.53 66.56 67.04 67.96 69.61 70.26 70.97 71.07 70.12 68.58 63.29 64.38 69.76 69.14 69.82 69.86 69.32 68.66 67.48 67.03 66.53 65.13 63.84
43.28 43.18 43.98 45.12 49.05 49.88 50.86 53.75 53.48 57.19 56.16 57.93 58.22 59.42 61.68 60.94 61.22 62.07 62.58 64.79 65.56 65.08 65.61 66.95 68.05 70.06 70.73 70.48 69.50 68.54 68.05 67.72 62.83 68.51 67.78 67.48 67.51 67.45 67.19 67.20 66.84 65.76 65.04 60.75
46.41 46.85 47.90 48.79 49.86 51.45 53.65 56.10 56.75 55.49 56.08 58.34 58.06 57.99 58.16 57.97 58.20 59.47 60.51 62.18 63.01 63.42 63.65 65.53 66.97 67.59 67.67 69.20 69.21 69.05 67.99 67.02 66.25 65.17 65.46 65.81 65.12 65.11 64.84 64.28 64.41 63.67 63.72 63.41
49.97 49.15 50.79 52.06 54.20 54.23 52.53 53.60 52.54 51.80 52.42 55.30 55.44 54.56 55.58 55.84 55.74 55.40 55.71 56.26 57.71 59.15 61.03 64.55 61.59 63.98 64.68 63.42 66.06 67.01 67.02 65.19 64.88 64.10 65.51 62.63 64.90 64.25 63.14 61.79 61.28 61.54 61.78 62.80
47.50 47.70 47.59 48.41 50.26 50.47 50.31 51.04 51.39 50.52 50.28 49.00 49.25 50.27 49.98 53.10 53.59 53.11 52.55 52.94 56.74 56.94 59.17 60.05 63.09 63.64 63.39 63.12 62.28 64.43 64.31 63.00 62.58 62.37 61.85 62.29 61.78 61.56 61.66 57.08 59.79 59.89 59.68 60.51
47.36 46.81 46.56 46.63 46.37 47.93 49.39 49.65 49.60 47.99 47.64 48.94 49.36 47.38 47.05 47.38 48.27 50.21 50.24 49.27 52.06 53.56 55.97 56.83 58.19 61.09 61.82 61.88 61.79 61.88 61.92 61.35 61.39 61.30 60.04 59.31 59.49 58.95 58.85 58.32 57.82 55.51 54.79 54.37
50.04 48.37 47.22 46.72 45.94 46.01 48.09 48.50 49.55 50.38 49.71 48.64 47.81 47.28 46.79 47.87 48.35 47.79 49.31 48.40 49.31 49.83 53.05 54.11 54.30 53.94 58.46 59.56 60.34 60.38 59.82 59.43 59.16 58.92 57.91 57.25 56.26 55.86 55.07 54.99 54.47 52.98 52.86 52.06
49.36 49.38 49.83 48.06 47.80 47.88 47.78 48.63 48.13 47.16 47.65 49.50 49.48 49.39 48.16 47.45 48.46 47.57 46.19 49.22 49.12 47.47 51.40 51.71 50.19 51.16 53.21 57.63 58.04 58.51 58.89 58.95 58.28 57.76 56.04 54.93 54.89 55.32 52.69 51.83 52.14 50.93 51.44 50.03
49.00 50.47 49.93 50.39 50.08 48.60 47.82 48.30 48.46 49.26 49.20 48.10 47.31 48.09 47.68 46.46 46.49 47.88 48.14 46.70 46.11 47.78 46.72 48.07 48.83 49.97 51.41 54.42 54.48 54.96 54.91 55.85 55.61 55.99 56.58 51.12 56.63 56.82 56.69 56.34 55.58 55.61 54.81 52.89
48.47 49.39 49.85 49.38 48.49 48.21 49.59 49.07 48.16 48.42 48.22 48.16 48.19 48.59 48.28 48.17 45.61 46.13 46.41 47.18 45.62 47.69 48.28 46.80 47.48 49.04 49.95 50.94 51.70 52.68 52.69 52.61 52.43 54.37 54.36 53.97 53.84 53.21 53.15 53.05 52.60 52.33 53.82 54.30
46.41 47.21 47.93 48.85 48.20 48.31 48.82 48.62 46.88 47.39 47.51 46.02 46.65 47.18 47.45 47.46 47.05 46.71 47.26 45.88 46.18 45.46 45.24 45.84 45.62 47.39 47.22 48.05 49.53 50.05 50.28 49.71 51.31 52.06 51.85 52.65 52.85 52.60 52.11 51.30 50.57 50.07 50.20 50.29
47.09 43.97 47.74 47.50 47.74 47.32 46.89 46.30 45.82 44.94 45.53 46.49 45.90 46.55 46.25 46.35 45.53 45.19 44.46 46.12 46.03 45.88 45.91 45.63 45.36 44.72 45.97 46.61 46.99 47.49 47.77 48.30 44.12 48.31 50.32 50.71 51.30 51.40 51.23 51.49 51.34 50.67 50.04 48.91

GFSNGP_sfc_wetblb_030.txt.gz
Wetbulb
51.56 53.38 53.86 51.70 51.12 51.87 51.48 53.10 50.16 52.11 52.55 56.04 59.09 60.08 61.51 63.15 65.30 65.80 66.96 68.67 70.41 70.82 71.51 72.95 74.16 75.09 75.79 75.92 76.01 76.53 76.04 77.14 77.24 77.90 78.62 78.40 78.20 78.40 78.75 78.11 78.23 78.19 78.22 78.37
50.01 52.79 53.15 51.48 52.16 52.12 52.06 52.10 52.80 53.19 53.41 58.20 60.91 62.60 62.23 62.82 62.86 63.35 64.64 66.33 68.55 70.86 72.67 74.21 75.98 75.76 75.90 76.23 76.80 76.96 76.30 76.27 77.01 77.52 78.01 78.65 78.45 78.50 78.65 78.47 78.48 78.69 78.25 78.21
45.80 51.24 51.54 49.13 52.46 52.47 52.70 53.55 53.22 51.85 56.29 59.19 59.35 60.30 61.12 61.58 62.05 62.24 61.83 63.19 66.39 69.29 71.24 72.98 73.84 77.66 76.41 76.44 77.41 77.69 76.91 77.22 77.24 77.54 77.59 77.95 78.71 78.67 78.10 78.40 78.70 78.29 78.46 78.54
44.74 48.76 41.72 52.24 56.44 55.60 53.80 54.20 55.35 56.12 58.24 60.52 61.20 62.24 62.31 62.51 61.69 62.47 62.92 65.63 68.71 64.57 67.88 71.41 69.46 70.84 75.31 77.46 77.71 77.16 77.99 77.71 78.76 78.36 77.66 78.23 78.19 78.31 78.55 78.71 78.68 78.30 78.36 78.78
43.26 44.50 49.45 51.91 54.39 53.87 53.04 53.54 56.79 56.56 58.10 58.62 59.39 60.10 60.60 61.55 61.88 62.51 65.53 66.57 67.17 65.95 67.20 72.42 70.67 71.83 72.56 73.18 76.77 76.73 76.34 77.24 77.58 79.03 78.23 78.18 78.19 78.27 78.77 78.79 78.43 78.72 78.70 78.76
43.92 41.81 41.24 50.80 55.20 56.79 56.62 49.76 60.46 58.41 56.77 57.35 57.94 53.48 61.51 67.31 68.13 68.51 69.15 70.35 71.16 70.92 71.23 70.93 76.33 72.49 74.31 72.97 75.29 75.63 76.23 76.76 78.24 77.79 78.23 77.94 78.40 78.55 79.21 79.32 78.84 78.94 78.71 79.01
41.52 41.54 47.39 51.98 55.02 56.89 48.55 50.28 59.44 60.61 60.30 59.76 60.35 63.29 65.48 66.32 67.17 68.93 70.00 70.97 72.23 72.45 71.46 75.92 75.74 74.10 75.65 76.58 74.09 76.36 77.19 78.06 78.46 79.22 78.21 78.48 79.18 79.52 79.30 79.24 78.86 78.60 78.50 78.89
41.81 40.72 39.13 52.16 53.43 50.54 54.92 56.33 56.91 58.27 59.29 59.80 60.88 62.35 63.83 64.67 65.92 68.07 69.88 70.67 70.69 72.04 72.42 74.52 76.72 76.33 75.18 77.04 79.98 80.31 79.86 78.02 78.82 79.80 78.54 78.80 79.18 79.68 79.42 78.96 78.26 78.04 78.11 78.10
43.18 44.11 54.18 53.18 52.59 54.42 55.21 54.80 54.89 56.15 56.60 58.02 59.82 60.81 62.93 64.53 66.20 69.60 71.42 72.03 71.96 72.73 74.78 77.44 78.31 79.08 78.19 80.30 81.74 81.37 82.23 80.20 79.55 80.46 79.41 79.05 79.13 78.71 78.33 78.65 77.94 77.45 77.24 76.95
44.18 47.41 48.83 50.48 52.36 53.37 54.17 53.59 54.54 54.99 55.78 59.12 58.98 60.03 61.09 64.12 65.32 68.32 71.45 71.33 70.87 72.07 74.01 76.54 78.69 79.17 79.88 80.81 81.87 81.36 82.01 81.45 80.91 80.31 78.90 79.29 79.09 78.68 78.07 77.45 77.22 77.01 76.54 76.49
44.02 47.20 48.97 49.81 51.50 52.26 52.63 53.46 53.48 54.76 55.50 57.90 57.83 58.11 60.15 62.95 65.21 66.59 69.68 71.46 73.14 73.84 74.12 73.69 74.59 74.89 75.35 76.44 78.12 78.88 79.89 79.83 80.34 79.09 78.59 78.90 78.85 77.42 78.03 78.29 75.22 77.02 76.83 76.57
40.57 47.74 49.06 50.58 52.11 53.20 52.15 52.25 53.51 53.64 54.83 57.27 57.38 58.33 59.79 63.91 65.92 66.66 67.87 69.66 71.26 72.62 72.51 72.52 72.57 72.64 74.43 75.36 76.64 77.87 78.23 77.62 77.03 77.01 77.73 77.21 77.30 77.37 66.15 61.56 56.38 49.13 49.85 62.29
43.75 47.57 48.73 50.81 51.75 52.85 52.61 53.69 53.95 54.23 55.27 55.54 56.23 56.80 58.48 62.35 65.52 64.27 66.90 68.40 69.29 70.90 69.76 70.31 70.44 71.71 73.15 74.25 75.31 75.87 76.10 77.90 73.66 72.79 75.46 77.18 77.23 77.64 76.07 62.08 51.48 50.59 47.50 46.59
47.20 47.48 46.59 49.14 49.25 52.56 53.15 54.37 55.00 55.13 55.51 55.20 55.63 57.90 57.76 62.14 64.03 65.82 67.32 68.70 69.88 69.62 69.09 69.14 69.67 70.65 73.12 74.37 74.92 74.12 72.73 60.92 73.07 73.17 73.11 72.27 71.45 71.43 71.51 70.94 71.59 69.27 57.66 54.18
43.24 45.57 46.70 49.62 50.86 52.24 53.64 54.00 53.00 52.88 53.85 54.96 56.67 59.69 60.15 61.34 62.84 64.51 67.77 67.55 67.90 68.21 68.36 69.33 68.88 69.82 72.54 72.59 71.96 70.58 72.79 70.99 71.38 70.01 69.49 68.79 71.98 72.35 70.18 70.35 69.28 68.70 68.19 60.56
43.27 43.78 46.12 46.41 49.16 51.17 51.77 51.92 51.51 51.89 52.77 54.11 55.12 57.35 59.52 62.02 62.86 64.22 65.87 65.68 65.49 64.40 66.15 67.48 68.99 70.18 72.63 71.87 71.38 69.05 68.15 63.04 65.44 70.67 69.93 71.05 70.50 69.94 69.22 69.20 68.47 67.23 66.11 63.55
42.43 43.81 44.71 47.68 48.73 50.43 50.94 52.02 52.01 51.96 53.76 54.51 56.47 59.37 60.45 61.69 62.33 62.36 61.91 62.86 62.78 62.90 63.17 64.40 66.52 68.67 71.54 71.10 70.34 68.91 67.85 68.01 65.31 68.04 67.27 67.18 67.11 66.61 66.54 66.23 66.09 65.58 64.74 60.55
49.09 48.80 49.18 49.41 49.11 49.81 50.56 52.08 52.65 54.05 55.11 57.07 57.65 57.69 59.66 58.82 59.04 57.24 60.46 60.59 60.73 60.88 61.68 63.40 65.60 65.76 65.70 66.95 68.76 68.38 67.58 66.31 66.20 65.70 65.54 64.77 63.76 62.97 62.38 62.03 61.79 61.64 61.87 60.66
47.17 48.97 49.58 49.73 51.16 51.05 51.73 50.77 51.23 51.40 51.67 51.43 52.18 50.98 51.99 52.61 52.18 52.75 52.73 51.79 52.76 53.38 55.74 63.61 61.58 62.23 62.73 63.00 64.48 65.18 65.13 63.85 63.74 63.15 62.42 60.96 62.66 62.70 61.63 60.45 58.69 57.56 57.86 59.19
46.97 46.80 47.42 47.47 48.38 49.43 49.36 49.94 50.07 49.06 49.33 48.79 48.13 46.89 47.30 49.43 49.80 49.55 49.54 47.74 49.32 50.81 52.46 54.09 56.10 62.39 62.59 62.46 62.69 64.07 62.83 62.15 61.26 60.54 60.21 60.12 59.75 59.45 58.71 54.07 56.13 55.38 55.07 54.79
46.94 46.89 46.24 46.17 46.35 46.53 48.39 48.82 48.33 46.60 47.23 48.08 46.87 45.61 45.00 46.02 46.76 47.29 46.04 45.62 47.89 50.57 49.95 50.82 52.03 54.80 60.83 61.32 61.35 61.03 60.78 60.44 59.62 58.82 58.15 58.11 57.60 56.92 56.46 55.09 55.29 54.84 53.79 53.49
48.99 48.12 47.17 46.89 46.78 45.92 46.67 46.12 47.89 48.33 47.51 46.85 46.87 47.51 47.49 46.08 46.51 46.44 46.60 45.26 47.71 49.03 48.74 48.39 49.53 53.20 57.83 58.22 57.57 57.90 58.16 58.12 57.66 58.00 57.31 56.46 55.37 54.58 54.10 53.87 53.14 52.66 52.25 51.59
49.00 48.90 48.29 48.06 46.77 47.08 46.72 46.42 46.16 45.95 44.98 45.88 46.56 46.98 46.08 46.30 46.55 44.59 42.15 46.76 47.45 47.39 48.09 47.10 49.72 51.68 53.82 55.37 55.47 55.58 56.43 57.02 56.22 56.28 56.13 56.42 56.37 55.35 54.65 54.34 54.46 53.98 53.77 52.72
49.54 48.77 50.02 49.30 48.26 47.17 46.21 46.99 47.84 48.09 47.44 46.50 46.05 46.31 46.43 44.91 44.75 46.22 46.54 46.70 46.75 46.70 45.35 46.33 48.95 49.98 51.41 53.06 52.95 52.64 52.31 54.24 54.89 54.81 54.50 49.95 54.46 54.26 53.49 52.92 53.25 52.96 52.64 51.40
48.53 49.44 49.21 48.53 48.10 47.54 48.31 48.88 47.77 46.79 47.32 47.42 48.12 47.77 46.91 47.20 45.60 45.28 46.45 46.13 45.48 46.73 45.86 46.53 47.97 49.10 50.06 50.16 50.55 50.49 50.45 50.50 51.42 52.95 53.01 53.03 52.17 51.50 50.93 50.21 49.11 49.27 49.88 49.89
47.22 46.71 47.76 49.07 47.07 46.52 46.98 46.92 44.94 44.94 46.01 45.49 45.66 46.10 45.94 45.88 46.18 46.40 46.72 46.61 46.37 45.83 45.56 45.38 46.06 47.22 47.44 47.52 47.76 48.16 48.00 47.13 48.33 50.11 50.30 51.08 51.34 51.16 50.88 50.52 50.03 49.26 48.32 47.88
47.08 44.79 46.99 46.70 46.78 46.25 45.78 45.35 44.40 43.23 43.41 45.05 43.99 45.18 45.16 44.95 44.95 44.92 44.86 45.66 45.79 45.98 46.14 46.02 45.87 46.33 46.36 46.24 46.94 47.18 47.33 47.34 43.91 47.30 47.67 48.59 48.89 48.70 49.48 50.06 49.73 49.43 48.75 47.74

GFSNGP_sfc_wetblb_036.txt.gz
Wetbulb
36.63 40.37 42.77 43.61 45.92 47.93 43.95 44.51 42.45 43.79 43.57 46.00 49.16 53.00 52.33 53.60 54.96 59.54 64.84 66.27 67.08 67.46 67.93 68.53 68.54 68.92 70.21 71.17 72.38 73.53 73.29 73.18 72.96 73.08 73.92 74.10 73.66 72.85 72.68 73.13 73.70 71.69 72.70 73.13
33.74 44.85 46.07 45.42 48.23 48.48 47.09 47.00 44.32 43.96 44.80 47.83 52.37 54.52 54.53 55.80 58.30 59.99 64.40 66.76 67.78 68.35 68.62 68.73 68.70 68.91 69.93 70.37 71.69 73.15 73.09 73.07 73.71 73.85 73.70 73.80 74.26 74.16 73.29 72.84 72.34 73.53 73.16 74.06
30.77 41.85 46.24 41.92 45.46 47.76 47.53 47.49 47.71 42.60 46.42 52.13 53.79 57.27 57.25 53.35 55.82 57.47 62.73 66.80 67.99 68.49 68.96 69.42 69.45 69.67 69.32 70.21 71.34 72.43 72.88 73.20 73.79 73.91 74.08 74.16 74.32 74.33 74.28 74.03 73.73 71.98 72.59 73.73
31.36 38.25 36.06 43.01 48.40 49.25 50.27 50.06 50.08 52.07 53.33 56.28 59.46 60.60 61.21 62.33 58.70 60.56 61.49 60.99 60.17 64.57 67.35 68.92 69.95 70.18 70.18 70.50 70.55 70.76 71.39 72.94 73.66 74.19 74.09 74.52 74.60 74.18 74.48 74.62 74.73 74.30 72.93 72.95
31.38 35.46 40.91 43.13 44.51 45.53 44.67 45.80 49.13 49.68 57.23 59.88 60.52 60.71 59.71 62.23 64.13 62.22 62.16 62.47 62.96 64.41 62.72 62.94 70.37 71.18 70.74 70.17 70.44 70.52 70.60 70.99 73.23 74.11 74.29 74.36 74.08 74.28 74.55 74.69 74.36 74.66 75.14 74.30
32.06 33.39 34.37 40.45 46.49 52.65 51.69 40.67 49.17 51.68 55.87 57.53 56.31 53.76 55.35 60.98 65.29 66.35 64.53 63.33 62.89 62.59 64.06 64.75 63.48 67.29 70.89 70.58 70.67 70.25 70.68 71.40 72.13 73.42 74.16 74.10 74.37 74.41 75.12 74.99 74.86 75.10 74.69 75.46
35.48 36.93 39.32 44.77 47.15 51.79 40.27 42.16 49.83 50.36 51.97 53.38 55.10 56.27 58.41 61.66 62.64 66.78 67.47 66.69 66.44 67.69 65.45 63.17 63.59 64.96 66.54 68.55 70.93 72.14 72.36 72.11 72.36 72.63 73.42 74.50 74.66 74.95 74.95 75.10 75.02 74.88 74.98 75.22
36.97 35.19 34.69 47.33 46.48 40.01 44.58 48.40 48.69 50.58 51.44 50.98 51.51 53.24 57.50 60.91 61.34 62.87 64.78 67.31 69.74 71.06 70.83 71.46 69.48 67.45 68.74 69.03 70.23 70.16 71.15 71.63 72.82 73.89 73.62 74.06 73.86 74.25 74.68 74.61 74.64 74.60 74.53 74.86
37.06 38.12 44.63 48.40 46.28 47.97 48.21 47.65 49.51 48.99 50.04 51.25 50.99 50.82 52.01 58.80 59.85 60.44 62.30 64.05 66.49 68.77 69.43 70.34 70.49 70.39 69.29 69.90 71.65 71.78 70.98 70.46 71.31 72.44 73.83 74.17 74.18 73.69 73.71 74.48 74.24 74.16 74.32 74.40
36.75 41.24 41.56 46.65 47.76 47.26 47.68 47.95 51.01 51.01 48.38 50.95 49.58 50.40 49.91 51.71 59.55 60.05 60.89 62.19 64.36 65.61 68.24 68.09 69.14 69.74 69.67 70.02 70.81 71.06 71.03 71.77 71.19 71.80 72.31 73.07 74.53 75.10 74.81 74.69 74.60 74.59 74.70 74.81
35.05 37.74 41.77 45.13 45.17 45.52 45.93 48.39 50.62 51.70 51.08 51.16 49.48 48.75 49.17 49.23 52.51 59.98 60.89 61.92 62.85 63.88 65.77 66.89 67.17 67.33 67.78 69.31 69.65 69.73 70.13 72.77 72.86 72.55 72.02 73.02 65.62 65.05 73.69 74.85 73.10 75.19 75.41 75.41
32.55 37.82 36.88 38.81 44.00 45.45 44.94 45.75 50.12 49.89 49.64 50.43 50.20 48.83 51.79 51.83 52.77 59.41 60.63 61.87 62.90 63.79 65.61 66.20 66.72 66.78 67.36 68.49 69.04 68.55 68.89 71.71 72.48 72.87 73.48 73.39 66.27 59.70 51.04 48.52 49.18 49.91 52.03 58.32
39.36 42.23 41.69 41.84 43.34 44.73 44.44 46.79 50.15 49.75 49.90 49.31 51.26 51.09 52.96 53.75 56.97 58.39 59.96 60.19 60.85 62.32 64.45 65.17 65.02 65.76 66.76 68.05 67.88 67.14 67.28 65.64 70.60 70.16 73.09 72.56 64.94 61.82 58.98 57.23 49.67 46.27 46.72 48.29
46.07 44.21 42.23 43.07 41.46 44.68 46.19 49.13 50.09 50.50 51.67 51.56 51.14 52.03 52.26 53.52 54.16 56.61 58.64 59.87 62.11 63.05 64.45 64.80 64.58 64.65 67.27 66.78 65.40 65.63 65.76 61.07 67.87 67.32 69.14 71.34 65.00 62.08 61.03 60.09 59.20 58.58 52.78 49.97
46.09 46.37 44.56 44.92 45.62 44.41 45.00 46.26 48.24 49.46 50.29 50.36 51.19 50.26 53.24 52.07 52.27 55.37 58.29 60.69 62.89 64.15 64.63 65.16 64.49 64.03 66.16 65.99 64.36 63.43 64.66 65.94 65.82 66.25 65.53 65.24 67.08 65.01 65.11 62.23 60.48 59.78 59.64 55.18
45.74 46.08 44.04 44.32 44.94 43.90 43.34 44.33 44.86 46.01 48.50 49.72 49.31 49.66 50.23 52.96 53.41 55.23 58.21 58.22 57.57 56.92 58.62 61.11 60.33 61.10 63.15 64.67 63.80 63.35 63.08 60.41 61.61 62.87 62.67 62.64 63.44 63.55 62.91 60.94 60.24 59.54 58.23 57.09
42.33 41.75 43.86 43.08 42.59 42.80 43.65 44.73 45.70 47.14 49.18 50.08 51.56 53.16 53.05 53.62 53.14 53.56 53.84 53.40 51.49 50.22 50.41 52.10 54.94 58.98 60.78 64.41 62.97 62.67 62.45 61.27 60.20 60.64 60.28 59.50 59.75 59.81 60.10 60.10 58.97 57.81 55.43 52.52
43.98 44.51 45.07 46.44 48.40 44.88 46.77 48.81 48.24 48.20 49.04 50.81 49.53 49.65 49.88 50.88 47.50 47.10 47.93 50.30 50.03 50.65 50.64 50.73 53.37 59.30 64.19 62.54 61.79 61.88 61.83 60.83 60.06 59.44 58.83 57.44 56.72 56.98 56.33 55.47 54.92 54.42 54.28 52.99
44.17 43.67 44.19 44.34 45.97 47.10 46.55 46.19 45.91 46.71 47.03 48.03 48.35 48.11 48.99 47.78 47.06 46.41 46.81 48.17 47.08 47.71 48.98 52.76 57.55 60.37 61.85 61.36 61.51 61.23 60.31 59.51 58.04 56.39 55.85 55.14 55.19 54.35 53.52 52.82 52.25 51.98 51.82 51.57
43.82 44.06 44.13 43.60 44.03 43.95 44.10 45.51 45.75 45.32 45.73 45.52 45.27 44.54 44.07 44.78 47.66 47.03 46.63 44.61 45.35 47.21 50.98 52.90 54.74 56.57 60.50 60.76 59.94 58.75 58.10 57.27 56.47 55.13 54.36 52.91 51.89 51.45 51.03 48.92 50.66 50.43 50.07 49.71
43.97 43.93 43.29 43.07 42.93 43.45 44.06 44.55 44.50 43.49 44.16 44.66 43.52 42.89 43.39 44.23 44.73 46.06 45.54 44.28 44.81 47.17 51.91 53.51 52.37 52.59 55.39 57.18 57.37 57.33 56.40 55.47 54.41 53.34 51.89 50.82 50.13 49.45 48.59 47.92 47.53 47.45 47.07 46.64
44.65 44.08 43.76 43.47 42.36 42.63 43.58 43.45 43.50 43.40 43.38 42.81 43.27 43.57 42.64 41.84 43.29 43.87 44.43 43.43 45.17 46.97 50.04 51.54 51.88 52.29 52.09 53.61 54.25 54.29 53.98 53.26 52.54 52.21 51.57 50.81 49.97 49.26 48.37 47.58 46.49 46.02 45.43 44.72
44.75 44.46 44.27 43.91 43.23 43.27 44.45 44.12 43.01 42.14 41.82 42.32 41.44 41.44 41.79 42.90 42.89 41.27 40.08 43.84 44.75 46.33 48.07 49.84 50.28 50.07 48.91 47.42 49.00 52.72 52.28 52.25 52.36 50.88 49.62 49.25 48.99 47.89 46.58 45.29 44.59 43.66 41.78 40.52
44.50 44.59 44.74 45.27 45.16 44.20 42.73 43.67 44.15 43.98 44.15 44.47 43.87 44.05 42.49 39.93 41.80 44.13 44.94 44.63 45.28 45.20 46.99 47.71 48.30 48.66 47.39 45.91 45.38 46.18 49.96 50.32 49.07 48.37 47.76 45.46 46.19 45.32 44.96 44.81 43.67 42.71 42.53 41.39
42.35 42.02 42.94 42.81 41.57 41.09 41.02 39.57 39.46 40.40 41.37 40.31 41.61 42.46 42.70 43.71 42.59 43.50 44.50 44.54 45.15 44.74 44.45 46.95 47.69 46.88 44.37 44.41 44.36 44.61 45.57 46.05 45.90 45.38 45.97 45.83 44.89 43.82 43.51 43.70 43.75 42.84 41.88 41.16
40.12 40.42 39.25 38.61 38.29 38.84 38.23 38.42 37.66 39.36 40.19 39.29 39.55 40.37 41.63 41.75 42.04 42.15 42.76 43.22 42.52 43.08 43.88 44.61 44.25 44.20 44.35 44.08 44.01 43.94 44.14 44.21 43.57 42.65 42.22 41.71 42.73 44.47 44.12 43.82 43.01 41.42 40.11 39.30
37.91 39.79 38.71 37.55 38.04 38.25 38.22 38.45 37.77 37.61 38.67 38.54 38.50 40.40 41.20 41.49 40.95 40.85 42.06 41.09 41.43 41.35 41.35 42.07 42.87 43.43 43.31 43.47 43.27 43.22 42.53 41.81 40.79 41.61 41.06 40.23 40.17 40.43 41.70 42.28 41.14 39.85 37.79 37.76

GFSNGP_sfc_wetblb_039.txt.gz
Wetbulb
32.19 34.13 35.12 35.72 37.29 40.25 39.95 42.63 40.95 41.14 40.64 45.54 46.84 46.97 51.34 53.34 52.41 52.98 60.82 64.26 65.18 65.35 65.43 66.94 67.48 68.09 69.26 70.64 71.71 71.71 71.38 71.70 71.78 72.30 72.67 72.15 71.44 71.27 72.48 72.74 71.46 71.14 71.51 72.39
29.89 36.43 36.06 35.90 41.99 44.53 44.65 44.05 42.53 42.22 42.83 45.48 49.71 55.36 57.57 53.44 52.25 56.09 61.17 63.34 64.46 65.82 66.35 66.81 67.43 67.69 68.61 70.13 71.77 72.30 71.67 71.41 72.12 71.95 72.43 72.25 72.05 71.57 71.06 71.90 72.92 72.19 70.73 71.32
25.72 37.30 41.00 38.53 41.51 44.55 45.39 45.10 44.41 41.10 44.42 50.65 54.53 57.81 58.59 59.64 54.24 55.35 60.49 63.02 64.03 65.80 66.74 67.29 67.82 68.20 68.15 69.58 71.32 72.12 71.67 71.88 71.99 71.96 71.60 72.24 72.61 72.41 71.75 71.02 71.46 71.76 72.31 71.59
25.59 34.21 35.20 40.00 45.55 46.43 46.21 46.19 47.22 48.65 51.42 55.32 57.94 59.43 60.95 61.78 62.05 58.75 60.47 63.44 65.37 66.93 67.60 67.98 68.83 68.72 68.70 69.94 70.02 71.19 71.64 71.82 72.34 72.40 72.07 72.07 72.41 72.67 72.78 72.55 71.67 71.39 71.18 71.70
26.04 32.98 40.16 41.65 43.32 42.12 41.06 42.57 47.21 47.68 52.51 58.59 60.56 61.24 60.46 61.46 64.67 62.15 59.62 60.42 63.55 67.39 67.78 68.13 68.62 68.96 68.54 69.06 69.42 70.13 70.98 71.71 72.31 72.74 72.72 72.88 72.54 72.48 73.13 73.27 73.37 73.14 72.81 71.75
27.87 34.35 33.13 39.54 44.49 46.98 48.19 38.41 47.46 49.29 48.72 55.97 58.89 55.45 57.45 59.96 62.76 65.77 67.54 64.96 61.77 63.48 65.46 67.16 67.56 68.73 68.17 68.12 68.53 68.54 70.23 71.59 72.68 73.12 73.06 72.92 73.51 73.51 73.72 73.89 73.67 74.06 74.03 74.25
31.16 36.79 38.70 43.13 45.53 47.58 36.00 38.15 47.15 49.52 49.77 48.85 51.32 55.57 59.17 59.36 60.16 63.39 66.52 69.46 69.62 65.95 62.92 61.63 64.80 69.28 68.44 68.48 68.29 69.59 69.83 70.06 71.15 73.07 73.32 73.91 73.91 74.10 73.97 73.74 73.82 73.56 73.48 73.94
37.54 35.89 34.10 45.45 44.97 38.47 40.60 46.61 47.31 48.77 50.67 49.93 50.41 51.89 56.15 58.71 59.04 61.11 62.95 65.63 68.86 68.84 68.96 69.54 68.96 68.04 67.20 69.14 70.62 69.13 69.23 69.34 69.99 70.77 73.17 73.56 73.61 73.93 73.79 73.71 73.42 73.25 73.02 73.37
36.41 36.91 44.33 47.55 46.27 45.37 45.56 44.32 45.51 48.68 49.63 51.37 50.36 51.47 52.22 53.83 58.40 60.23 62.20 63.76 66.29 67.93 67.93 68.58 69.21 68.95 68.48 68.15 70.71 69.76 69.49 69.84 69.98 70.57 71.02 72.05 72.73 72.77 73.07 73.29 73.17 72.96 73.05 72.86
35.93 38.45 40.08 45.14 46.17 44.83 45.26 44.94 46.20 48.65 50.21 50.93 49.83 51.53 53.27 53.79 58.43 59.41 61.41 62.78 64.54 66.22 66.29 65.84 66.42 67.25 67.81 68.44 69.40 69.71 69.69 70.00 69.57 70.66 71.07 71.73 72.54 72.65 72.67 72.67 72.64 72.66 72.84 72.87
35.89 38.04 41.42 44.25 43.32 43.96 44.88 45.83 46.17 46.80 49.66 50.54 52.03 53.79 55.62 55.58 57.12 57.89 58.58 60.81 62.39 63.60 65.15 65.06 65.48 65.93 66.96 68.11 68.70 68.51 68.78 69.97 71.09 70.25 68.83 68.74 58.71 60.64 70.08 71.87 69.95 73.30 73.68 74.18
33.68 39.05 38.96 39.84 43.54 45.23 44.41 44.90 45.79 45.72 48.48 50.53 51.67 52.05 54.57 54.56 55.45 56.41 56.76 57.55 60.14 61.21 62.59 64.46 64.58 65.10 66.02 67.08 67.36 66.87 66.90 66.94 68.20 71.16 70.48 66.08 59.52 57.70 48.84 46.87 46.49 49.23 53.76 61.72
40.39 43.52 43.29 43.69 44.18 45.97 44.61 45.34 46.99 46.85 49.05 49.80 50.96 51.29 53.91 51.52 51.72 53.83 54.00 56.25 59.08 61.02 61.79 63.66 63.58 63.77 65.97 66.05 65.74 64.74 65.23 65.36 64.67 68.35 71.95 65.64 61.22 61.30 59.20 55.78 48.68 45.06 45.33 45.77
45.50 45.78 44.35 44.95 43.16 45.62 46.30 46.43 47.54 48.20 49.97 50.86 50.70 50.77 53.70 51.51 50.53 52.21 54.42 57.32 60.00 62.27 63.40 63.84 63.69 63.36 64.92 64.49 63.28 63.08 62.60 56.92 65.43 67.23 71.23 65.44 61.93 60.60 61.44 60.78 59.35 57.95 50.04 47.81
43.87 45.23 44.93 45.66 44.28 44.36 46.01 45.71 44.94 48.14 49.78 50.11 50.63 50.05 50.59 51.55 51.85 52.06 55.98 57.50 58.48 59.65 59.45 62.71 62.12 60.76 61.42 63.55 62.95 62.89 63.35 62.99 63.46 64.64 67.04 62.82 63.06 61.19 60.59 60.31 59.78 59.58 59.82 54.90
43.25 43.68 44.32 44.50 44.62 45.25 45.55 44.73 43.65 44.03 47.11 49.56 50.22 49.92 52.34 52.07 52.38 54.76 54.89 52.99 53.17 54.08 52.60 53.92 56.84 57.11 58.65 62.70 61.88 61.29 60.62 58.60 60.42 63.34 64.74 65.38 63.47 61.41 60.85 59.71 58.71 58.07 57.22 57.33
40.92 39.91 41.12 43.27 46.63 42.62 43.52 42.91 43.50 44.11 48.74 50.30 51.15 52.83 53.15 52.94 51.87 51.97 51.71 51.87 50.46 49.79 49.66 49.87 51.85 54.07 57.37 62.47 61.51 60.25 59.43 59.59 59.15 59.98 60.62 61.42 61.04 60.22 59.53 57.98 55.92 54.72 53.83 50.96
43.75 43.36 42.88 42.88 43.89 45.23 46.02 46.29 47.22 47.45 47.80 50.16 49.71 49.50 49.47 49.74 49.29 47.25 48.78 47.65 49.51 50.54 50.48 50.54 52.43 55.36 60.92 61.52 61.17 60.27 59.23 58.73 58.16 57.91 58.33 57.77 57.01 56.55 55.80 55.07 54.27 53.31 52.47 51.03
42.99 42.41 42.99 42.78 43.65 43.81 43.52 43.75 44.20 45.04 45.65 46.34 46.73 46.37 47.31 47.97 48.05 47.87 47.99 47.02 47.63 49.01 50.87 50.51 54.49 59.30 59.47 61.22 60.46 59.53 58.43 56.82 56.16 55.56 55.34 53.75 53.91 53.42 52.63 51.81 51.18 50.74 50.31 49.72
42.71 43.13 42.80 42.59 43.02 42.53 42.20 43.43 43.45 43.05 44.10 44.03 43.92 43.38 43.37 44.12 44.84 46.71 46.97 45.23 45.17 45.83 47.81 52.50 54.37 55.82 56.22 58.74 59.34 58.99 57.56 56.05 54.93 53.17 52.53 52.17 51.50 50.61 50.07 47.82 49.07 48.44 47.77 47.50
42.08 42.31 41.74 41.32 41.04 42.13 42.43 42.41 41.94 41.03 41.48 41.90 41.92 42.04 41.94 42.35 43.63 44.20 43.07 44.34 45.54 47.88 50.15 53.31 53.43 54.85 54.73 56.86 56.76 55.76 54.55 53.65 53.02 52.05 50.51 49.57 49.09 48.31 47.36 46.41 45.69 44.90 44.09 43.39
41.68 41.68 41.83 42.45 41.96 40.65 41.81 42.08 41.75 41.21 40.95 41.32 40.85 40.24 40.55 41.22 42.03 42.77 44.15 42.84 44.76 48.38 50.16 50.01 52.39 54.79 55.13 55.38 54.01 53.50 53.04 52.22 51.14 49.86 48.05 47.37 46.33 44.93 44.24 43.64 42.73 41.90 40.97 40.83
41.78 41.31 41.74 41.86 41.36 42.41 43.00 41.85 41.59 41.82 40.84 41.24 41.35 40.03 39.56 40.10 40.75 40.08 40.57 44.16 45.42 46.98 48.03 47.34 48.64 50.31 52.57 53.64 53.08 52.28 51.22 50.99 50.76 50.83 49.97 49.17 48.16 46.48 44.04 41.89 40.32 39.31 38.39 37.44
42.34 41.73 42.09 43.11 43.03 42.41 41.64 42.34 43.60 43.25 43.70 41.55 41.88 42.93 41.34 40.01 40.63 42.79 44.53 45.13 45.59 45.68 46.13 46.43 46.24 47.65 48.28 49.98 50.77 49.86 49.02 48.29 47.60 47.07 46.61 44.58 45.20 43.95 43.27 41.67 40.88 40.41 40.18 38.86
38.26 38.74 39.59 40.29 40.20 39.15 37.83 37.47 37.86 40.51 41.89 40.62 41.49 42.66 43.35 43.99 42.26 43.37 44.06 43.93 44.64 45.28 44.94 45.90 46.78 46.30 44.76 45.40 44.78 44.54 44.51 45.10 45.88 46.59 46.31 45.54 44.69 44.28 44.12 42.77 41.76 40.32 38.56 37.43
35.18 34.51 34.62 36.09 37.60 35.69 35.67 35.93 36.03 37.00 37.04 37.37 39.10 40.88 42.32 41.95 43.28 43.78 44.21 44.38 44.10 45.15 45.11 44.88 44.69 43.98 43.35 43.06 42.38 42.31 41.95 41.56 41.72 42.26 43.63 44.18 43.50 42.70 41.91 40.94 38.39 36.77 35.77 35.51
34.66 36.36 33.79 34.67 35.10 34.95 35.24 36.41 35.73 35.68 36.23 36.66 37.24 38.78 39.92 40.38 40.26 42.53 43.25 42.93 42.16 41.67 42.18 42.63 42.77 43.58 43.06 42.59 42.24 42.06 41.58 40.98 39.86 40.91 40.73 40.92 40.89 40.99 40.65 39.79 38.90 37.72 35.68 35.20

GFSNGP_sfc_wetblb_042.txt.gz
Wetbulb
33.12 33.90 34.21 33.44 34.16 36.40 35.63 38.86 41.07 42.13 43.07 46.93 48.26 48.38 47.44 49.51 51.11 52.16 55.62 61.09 63.24 64.38 65.40 66.35 67.09 67.42 68.74 69.13 69.42 69.75 69.75 70.41 70.29 71.14 71.64 71.78 72.21 72.99 72.30 71.11 71.31 71.57 71.83 72.17
29.96 33.27 33.61 32.26 36.67 37.74 38.49 40.93 41.26 42.01 41.25 48.32 47.91 53.65 58.11 58.71 58.96 54.20 54.06 56.39 62.79 65.16 65.79 65.73 66.91 67.41 68.32 69.15 69.52 69.99 69.49 70.04 71.08 71.39 71.46 71.25 71.17 71.37 72.74 72.60 72.15 71.76 71.59 71.84
24.08 33.57 34.66 31.56 37.24 41.64 43.82 44.82 43.45 39.94 44.41 51.04 52.23 58.41 58.63 59.76 61.07 61.50 57.17 54.50 58.16 64.71 65.87 65.98 67.18 68.05 67.91 69.39 70.62 70.33 70.07 70.66 71.37 71.73 71.71 71.77 71.91 71.39 71.10 71.85 72.84 72.31 71.79 72.01
26.36 29.57 30.68 39.24 45.06 46.91 44.17 43.74 46.07 46.46 48.09 54.90 55.61 59.73 60.46 60.15 60.95 61.94 62.47 59.70 60.88 65.25 66.17 66.29 68.00 68.44 68.59 69.94 70.93 70.70 70.46 70.83 71.73 72.03 71.76 72.21 72.31 71.97 71.57 71.59 71.50 72.39 72.72 72.55
25.29 27.71 38.67 41.26 42.16 41.52 40.78 41.46 44.97 45.81 48.14 51.27 57.92 59.43 59.86 59.81 60.94 62.83 66.12 60.78 62.58 65.30 66.38 66.73 67.59 68.19 68.45 69.61 71.01 71.19 71.00 71.29 71.71 72.05 71.65 71.80 71.87 72.19 72.56 72.30 71.74 71.46 71.90 72.28
30.19 28.13 34.38 38.40 42.96 46.44 45.63 37.83 45.54 46.06 48.15 48.10 56.64 53.68 56.64 59.00 61.15 63.38 66.81 66.74 63.53 65.13 65.88 66.08 67.25 68.08 68.37 68.80 69.73 70.58 71.19 71.74 72.45 72.67 72.34 71.92 72.14 72.35 73.09 73.49 73.16 73.26 72.58 72.86
30.58 31.11 37.89 42.05 45.03 45.53 37.80 37.60 45.03 47.19 47.96 48.47 48.88 51.26 53.88 60.20 61.72 64.28 66.54 68.16 66.16 65.68 66.01 66.21 67.62 67.93 67.71 68.42 68.45 70.25 71.77 72.39 72.77 73.12 72.91 73.26 73.22 73.48 73.15 73.42 73.65 73.70 73.80 74.37
35.39 36.48 35.13 45.55 43.11 37.98 40.78 44.48 44.46 45.64 47.69 49.15 52.25 55.86 55.95 58.71 60.26 61.97 64.05 66.45 68.18 68.00 67.82 67.58 67.61 67.97 67.41 67.53 69.23 69.55 70.53 71.59 72.32 72.87 73.41 73.63 73.56 73.88 73.99 73.76 73.27 73.39 73.59 73.77
34.16 35.91 40.66 46.07 42.74 44.07 44.91 43.89 44.34 44.43 47.85 51.33 52.68 55.06 55.83 56.37 57.60 59.27 61.07 63.03 66.39 66.31 66.99 68.23 69.26 70.10 69.51 70.19 72.35 70.00 69.06 69.42 70.14 72.21 72.99 73.77 73.65 73.55 73.46 73.94 73.34 73.19 73.15 73.15
36.53 38.23 40.42 44.13 44.76 44.40 45.15 45.08 46.12 46.75 47.28 50.05 52.54 54.40 54.72 54.07 55.61 56.38 58.14 60.68 62.86 65.40 65.40 65.56 67.19 68.44 69.05 70.15 71.49 70.65 70.25 69.99 69.94 70.04 70.69 72.92 73.62 73.96 73.69 73.31 73.12 73.38 73.52 73.38
36.06 38.67 41.41 44.24 43.58 44.29 45.12 46.46 47.17 47.47 47.31 48.65 50.87 51.91 52.55 51.46 52.10 53.81 55.83 58.33 62.00 62.63 64.17 64.38 65.92 66.90 68.04 68.97 69.86 69.96 71.17 72.78 71.29 71.28 70.88 69.35 60.76 62.43 71.39 72.23 70.22 73.58 73.80 74.44
34.78 40.17 39.81 40.81 44.15 45.85 44.65 44.75 46.22 46.70 46.72 48.03 50.21 50.72 52.63 51.66 51.54 52.25 53.23 56.49 60.45 63.23 63.40 64.38 65.02 66.56 67.44 67.82 67.87 68.38 69.00 69.27 71.53 71.29 70.32 64.97 62.53 59.17 47.97 46.36 46.34 51.07 57.05 66.15
40.29 44.29 44.39 45.41 46.56 47.56 45.58 46.30 46.83 46.68 47.54 46.70 49.71 50.60 52.89 51.45 52.21 52.39 54.65 55.48 57.00 61.23 63.54 64.54 64.59 64.66 66.05 65.74 66.12 66.68 67.17 67.49 67.10 69.35 68.23 64.51 63.68 62.49 59.37 53.64 46.77 44.42 43.35 45.62
43.76 43.67 41.96 43.84 42.85 45.95 46.10 46.78 47.77 47.46 47.60 48.00 49.68 51.52 50.78 51.47 53.10 53.81 54.47 55.63 55.89 59.72 60.32 62.64 63.44 61.70 61.65 64.92 65.14 65.10 65.43 56.10 66.96 71.75 68.90 65.08 64.10 63.07 63.40 62.96 60.89 59.00 48.37 47.86
42.83 43.51 43.00 44.94 45.60 45.15 45.22 45.68 45.11 45.82 48.18 48.63 50.15 51.31 50.79 51.57 52.29 53.92 56.86 55.23 54.64 55.91 55.84 56.33 58.52 60.14 59.31 63.20 63.96 64.47 64.70 64.43 65.89 69.13 66.19 62.53 63.33 62.37 61.96 61.24 60.63 59.85 60.56 55.00
42.87 42.67 43.20 43.91 44.14 44.46 44.95 45.42 44.31 44.38 45.89 46.82 47.29 49.00 51.49 53.86 53.49 54.43 56.30 54.86 52.70 52.71 52.91 52.46 53.74 55.93 56.95 61.53 63.52 62.64 61.97 59.02 61.65 65.69 64.21 62.94 62.26 62.34 61.99 61.14 60.29 59.66 59.72 59.68
40.71 39.47 41.05 41.70 42.33 43.40 43.62 46.05 45.30 44.86 46.52 49.90 50.86 51.27 51.43 51.43 52.58 50.80 51.33 50.99 50.17 51.17 51.88 51.57 52.19 53.95 56.24 59.33 62.92 61.70 61.10 61.10 59.89 62.90 62.90 62.19 61.79 60.72 59.76 58.34 56.51 54.64 53.06 51.02
42.09 43.03 42.90 42.58 42.42 42.39 42.48 43.38 43.89 44.39 44.98 46.58 47.81 47.69 47.86 47.34 46.90 47.79 48.27 49.14 50.58 50.60 51.99 51.58 52.08 55.45 58.51 61.18 62.24 60.87 60.00 59.75 59.96 59.37 59.41 59.26 58.78 58.14 56.81 55.16 53.71 52.17 50.91 49.18
42.11 40.93 41.77 42.34 42.81 42.07 41.64 41.35 41.54 42.16 43.51 43.99 43.95 43.51 43.98 44.32 44.82 45.99 48.13 47.50 46.64 47.05 50.03 49.19 52.43 56.13 58.50 61.88 60.99 59.90 58.67 58.39 57.38 56.44 55.68 54.13 54.80 54.39 53.39 52.60 51.58 50.75 50.36 49.78
41.62 41.63 41.49 41.02 42.50 42.33 41.32 42.20 42.05 41.73 41.86 41.77 42.14 42.23 41.75 42.19 43.27 43.93 44.05 45.54 45.04 45.37 47.57 50.19 53.70 54.65 57.96 61.82 59.49 58.48 57.64 57.40 56.42 54.89 53.59 52.34 51.44 50.21 49.37 46.94 48.59 47.92 47.31 46.90
41.98 42.05 41.42 41.18 40.43 40.77 41.33 41.67 41.39 41.19 41.22 41.06 40.30 40.06 40.35 41.02 41.87 43.28 42.81 41.85 44.36 46.87 49.72 50.62 51.83 54.23 56.35 59.00 57.13 56.17 55.39 54.16 53.02 52.27 50.97 49.25 47.76 46.74 45.96 45.57 44.88 44.09 43.21 43.09
41.75 41.51 41.88 41.91 41.30 40.38 41.19 41.11 41.12 41.86 41.82 41.20 40.92 40.77 40.51 40.02 41.12 42.18 43.78 43.07 45.10 46.78 46.46 46.72 48.52 53.67 56.52 56.61 54.51 53.67 52.43 50.93 49.75 48.59 47.51 46.86 45.56 44.36 43.22 42.07 41.09 40.60 40.48 40.63
41.33 41.40 41.56 41.34 40.93 40.90 42.26 42.14 41.78 41.83 40.84 41.02 41.14 41.01 40.30 40.67 41.44 39.93 39.48 43.63 45.43 45.92 45.33 45.83 48.12 51.97 54.14 53.85 53.03 52.20 50.78 49.54 48.33 47.30 46.08 44.93 42.94 41.77 40.78 40.08 39.97 39.85 38.96 38.45
41.54 41.99 41.96 43.09 42.84 42.23 40.71 39.84 42.10 42.54 42.52 41.67 41.77 42.42 42.15 40.84 41.15 43.05 43.27 44.05 44.74 45.11 45.53 45.85 46.05 46.69 49.51 50.89 50.43 50.14 49.93 48.65 46.32 44.53 43.68 42.19 42.49 42.11 41.66 41.16 40.22 39.70 38.76 38.07
40.24 40.55 41.13 40.69 40.80 40.24 36.57 36.63 37.85 41.65 42.18 41.09 41.79 43.18 43.75 44.59 42.33 43.24 43.96 43.79 44.26 43.74 44.02 46.32 45.82 45.01 43.81 44.25 46.04 47.64 47.42 46.64 46.07 45.55 45.04 44.31 43.74 43.20 42.78 42.08 41.11 39.37 38.09 37.35
35.80 35.62 34.83 36.67 37.22 35.97 35.83 36.81 36.21 36.76 37.60 38.34 39.66 41.98 43.17 43.08 43.87 44.47 44.45 44.19 43.86 43.52 43.40 44.10 44.71 44.31 43.50 43.10 43.07 43.02 43.97 45.43 45.85 45.02 44.26 43.86 42.87 41.98 41.26 40.38 39.90 39.46 39.30 38.72
35.03 36.21 35.41 35.75 35.68 35.53 36.71 36.93 36.53 36.51 37.15 37.51 37.92 39.47 41.14 42.22 42.78 42.98 43.50 43.99 44.18 43.01 43.15 43.16 43.27 43.77 43.04 42.76 42.41 42.22 41.86 41.85 41.21 42.99 42.82 42.24 41.88 41.06 40.23 40.07 40.03 39.79 39.85 39.68

GFSNGP_sfc_wetblb_045.txt.gz
Wetbulb
35.05 36.17 35.65 35.70 36.16 38.01 37.91 43.67 45.43 48.53 49.91 52.66 55.66 57.15 58.11 58.77 58.54 58.21 58.97 63.39 67.36 67.99 68.99 70.32 71.41 71.91 72.54 72.90 73.34 73.30 73.39 73.12 73.42 74.33 75.14 75.49 75.70 75.83 75.43 75.69 75.98 76.18 75.82 75.77
31.96 35.30 35.59 34.59 37.66 38.77 39.62 41.34 44.85 47.67 49.97 55.91 57.42 58.09 57.08 58.92 61.99 62.70 63.62 62.49 64.69 68.11 69.43 69.87 71.13 71.26 71.78 72.37 72.90 73.79 73.48 73.39 74.42 74.74 74.96 75.08 75.70 75.79 75.69 75.57 75.91 76.01 75.51 75.60
27.93 34.64 35.14 33.24 37.48 39.34 41.39 45.48 46.28 45.06 51.17 54.35 56.31 60.33 60.87 61.67 63.03 63.43 64.69 66.53 66.57 64.54 69.47 70.38 71.23 72.19 71.63 72.28 73.47 73.14 73.23 74.17 74.68 74.92 74.79 75.15 75.79 76.10 76.19 75.69 75.61 75.75 75.11 75.39
28.34 31.03 25.88 40.67 48.45 45.21 46.83 46.91 49.44 51.34 52.31 55.29 58.74 62.59 62.82 61.91 61.29 62.46 64.65 66.14 67.72 67.42 66.46 71.09 71.25 71.69 72.68 72.87 72.99 73.06 73.28 73.89 74.73 74.87 74.71 75.42 75.56 75.43 75.96 76.12 76.18 75.70 75.51 76.04
27.21 29.23 33.58 42.66 45.23 46.14 47.48 43.47 47.79 48.74 52.43 56.25 60.64 63.70 63.01 60.97 59.94 62.15 64.25 65.58 68.93 69.72 64.69 71.17 71.61 72.75 72.87 72.96 73.12 73.12 73.08 73.57 74.59 75.05 75.00 75.29 74.95 75.21 75.39 75.05 74.96 75.40 75.77 75.91
29.54 27.38 29.00 40.05 44.78 48.42 49.01 42.50 46.13 48.88 49.91 55.52 60.33 57.85 58.38 57.84 59.09 63.70 66.34 69.79 68.92 67.90 66.70 70.98 72.05 72.29 72.49 72.48 73.04 72.82 73.76 74.25 75.34 75.81 75.50 75.57 75.96 76.08 76.45 75.86 74.95 74.97 74.98 75.94
29.04 27.91 31.14 42.13 46.36 48.22 41.96 41.11 45.16 46.82 48.39 55.15 54.36 55.05 56.25 58.66 59.48 62.70 64.94 68.56 69.61 69.92 70.75 71.56 72.66 72.58 72.19 73.12 73.10 74.10 74.58 75.02 76.00 76.33 76.26 76.59 76.77 76.98 76.15 75.67 76.14 75.81 75.17 75.89
30.60 28.40 26.71 42.81 45.52 41.68 44.11 45.51 46.16 46.91 47.81 53.68 53.29 53.02 53.83 54.83 55.98 59.35 63.37 66.43 70.29 69.92 70.62 72.02 72.71 72.72 72.46 72.90 75.28 76.17 76.41 75.96 76.32 76.49 75.53 75.58 76.56 76.27 76.26 76.25 75.66 75.61 75.64 75.55
33.38 33.22 38.05 43.58 44.04 47.11 47.26 45.21 45.42 45.62 47.49 51.30 51.31 51.27 52.22 51.65 52.81 55.39 60.47 65.82 68.17 70.29 70.85 71.86 72.13 73.28 72.41 73.05 75.23 75.64 76.17 76.21 76.08 76.54 76.17 77.13 76.25 75.98 74.92 75.72 74.94 75.00 74.83 74.92
35.32 38.21 40.49 43.53 45.43 47.27 46.64 45.65 46.93 47.84 47.72 49.06 50.25 51.78 51.45 52.14 52.42 53.09 56.06 62.88 67.16 68.58 69.14 70.09 72.31 73.47 73.47 74.81 74.18 74.60 75.18 75.69 76.11 75.92 75.52 76.45 75.75 75.75 75.49 75.25 74.83 75.07 75.10 75.03
36.81 39.35 41.20 43.41 44.51 46.35 46.73 47.34 46.90 47.56 48.36 48.01 49.06 50.60 52.22 52.61 53.04 54.37 54.66 56.25 64.14 66.40 67.72 68.39 70.82 70.95 71.63 73.03 75.12 73.78 73.67 74.05 74.33 74.58 74.56 75.44 76.50 72.84 75.75 76.97 73.26 75.65 75.94 76.22
34.62 40.33 41.02 42.15 46.00 47.79 46.05 45.85 46.69 46.74 46.95 48.73 48.84 50.34 52.42 53.16 55.00 55.57 55.52 56.00 58.37 62.99 66.78 67.55 68.41 68.73 69.39 69.79 71.54 74.00 75.24 74.23 73.07 73.25 73.10 74.39 69.90 64.59 47.83 48.16 46.79 51.00 55.89 69.63
39.96 42.89 43.76 44.37 45.75 46.87 46.07 46.84 46.75 47.00 47.46 47.16 49.21 51.23 52.12 53.09 55.09 55.51 57.26 57.01 56.89 57.96 60.84 66.28 67.01 66.38 67.32 69.29 69.87 70.71 70.71 69.71 72.79 69.92 72.21 71.73 70.69 69.84 65.32 54.66 46.41 43.86 44.11 48.82
43.54 43.07 41.48 44.60 44.59 46.92 46.59 47.26 48.09 47.74 48.84 50.00 49.58 50.67 52.44 53.93 55.09 55.52 55.86 56.91 57.64 58.14 58.52 60.33 63.72 64.58 64.48 68.04 69.21 70.34 70.48 56.92 71.90 72.63 71.61 70.09 70.17 71.35 70.24 67.94 66.81 61.64 49.60 48.24
43.26 43.56 43.35 45.31 47.41 46.41 47.51 47.53 46.19 46.18 46.97 47.45 49.18 50.74 52.38 54.31 54.70 55.05 55.70 56.24 56.86 56.86 56.73 57.32 58.57 60.11 61.82 64.86 68.46 68.33 69.54 71.07 72.78 70.48 69.17 68.34 71.06 70.75 70.59 67.76 64.78 60.23 59.65 54.34
42.31 42.33 42.89 42.30 42.89 43.47 44.10 45.71 45.57 46.03 47.05 49.05 50.66 50.84 52.07 53.11 54.28 54.37 53.86 53.87 53.92 53.91 54.63 55.34 56.61 57.34 59.62 62.47 66.86 68.18 68.43 61.01 64.47 65.81 65.83 67.45 68.56 68.31 67.82 67.12 65.41 64.78 63.33 61.93
40.31 38.81 40.37 40.57 40.92 41.64 42.12 43.11 43.55 44.70 45.91 46.19 47.19 47.83 47.57 48.38 49.23 50.25 52.18 53.42 54.15 55.18 55.95 55.36 52.91 54.85 56.79 60.02 64.11 67.33 67.20 65.87 62.27 66.04 64.56 64.17 64.14 63.83 62.87 61.43 58.93 56.82 55.20 53.27
43.73 43.53 42.76 42.41 41.76 41.85 41.51 42.21 42.39 42.79 43.55 45.35 45.49 45.63 44.71 44.41 44.78 45.54 47.90 50.92 51.82 52.76 55.00 52.68 53.21 54.14 57.27 59.07 62.59 66.36 65.93 65.83 64.74 64.60 64.32 63.13 61.63 59.62 57.42 55.76 54.39 53.16 52.15 50.63
43.96 43.18 43.25 43.06 43.15 42.94 42.78 42.11 42.32 43.08 43.72 44.26 43.95 42.81 43.30 43.45 44.66 44.94 45.76 46.85 44.81 46.21 48.84 51.03 52.97 55.61 56.94 58.83 60.14 64.91 65.08 64.32 62.15 61.06 60.14 56.58 58.35 57.56 55.17 53.77 52.57 52.33 51.91 51.86
44.00 44.40 44.26 43.41 43.66 43.40 42.80 43.75 44.09 42.87 43.04 43.61 43.96 42.24 41.56 42.31 43.67 44.20 44.96 43.73 44.65 45.57 48.14 49.03 51.22 53.63 56.88 58.75 59.96 61.91 62.60 62.71 60.12 58.39 57.58 56.76 55.54 53.80 51.10 48.37 49.91 48.96 48.58 48.52
44.91 44.92 44.71 44.94 44.58 44.54 44.20 44.45 43.56 42.08 43.17 42.41 42.16 41.98 41.79 42.40 43.15 43.20 42.35 42.10 44.97 47.17 47.62 48.18 49.18 49.54 52.35 57.03 58.71 60.38 59.86 58.83 56.75 54.88 53.23 50.92 49.73 49.07 48.18 47.81 46.68 46.03 45.22 45.27
46.38 45.82 45.69 45.78 45.72 45.91 46.65 46.04 44.70 44.33 44.12 44.07 43.04 42.02 41.71 41.48 42.09 42.54 43.59 42.76 44.97 46.27 46.76 46.82 48.33 50.89 53.16 56.30 57.82 58.02 58.06 55.63 54.42 52.24 50.22 49.03 47.55 46.02 44.64 43.49 42.53 41.75 41.35 41.35
47.58 47.24 46.89 46.76 46.68 47.23 47.94 47.02 46.03 44.84 44.20 44.17 43.87 43.41 42.48 42.03 42.36 40.92 40.05 44.13 44.89 45.45 46.69 46.09 47.21 50.68 53.57 55.38 54.65 53.79 52.12 51.23 50.35 48.95 47.25 45.22 43.88 43.35 42.15 41.24 40.07 39.86 39.87 39.83
47.09 48.43 47.91 48.50 48.49 47.02 43.90 44.75 45.01 46.29 45.37 45.27 45.12 45.28 44.36 43.15 43.66 44.64 44.61 44.27 44.28 44.07 45.33 46.19 46.17 46.89 48.11 51.17 51.16 48.61 46.89 45.66 44.77 43.83 43.01 41.09 41.30 41.74 41.02 40.11 39.86 38.84 38.84 38.32
46.35 45.47 45.08 46.31 45.39 43.29 43.82 44.06 44.36 45.12 45.92 45.68 45.40 45.83 45.89 46.04 44.19 44.99 45.39 44.07 43.99 44.34 43.29 45.65 46.11 45.23 44.54 46.53 46.58 45.78 45.14 44.96 44.54 44.24 43.54 42.34 41.65 41.09 40.37 40.04 39.34 38.72 38.19 38.23
45.16 44.14 44.20 44.78 43.36 44.05 44.45 44.63 43.05 43.67 43.79 43.69 45.16 46.04 47.27 46.54 46.35 46.22 46.17 44.50 43.32 43.57 42.70 42.89 44.19 44.75 43.71 43.87 43.75 44.56 44.65 44.12 43.68 42.81 42.33 41.93 41.39 40.74 40.24 40.47 40.50 40.32 39.20 38.60
44.28 41.51 44.31 43.81 44.32 44.44 43.85 43.18 43.60 43.15 43.60 43.95 44.10 46.32 46.37 47.61 46.18 45.53 44.57 45.76 43.91 43.70 44.99 43.91 44.04 44.54 44.54 43.66 43.46 43.57 43.36 43.06 42.14 42.80 42.58 42.10 42.23 41.64 40.55 40.26 40.55 41.58 40.73 40.41

GFSNGP_sfc_wetblb_048.txt.gz
Wetbulb
39.01 39.39 39.40 38.87 38.61 41.16 42.03 44.55 42.66 47.07 49.09 52.97 57.08 57.66 59.07 60.79 60.77 60.97 62.02 64.66 68.19 69.32 71.24 73.89 74.75 76.21 75.94 74.82 75.82 75.51 76.36 74.57 75.84 77.22 77.54 77.72 78.07 78.05 77.53 78.13 77.55 77.88 77.62 77.36
36.29 39.32 39.06 37.06 38.66 39.45 41.23 42.85 44.32 45.99 47.10 54.19 58.47 60.21 59.37 59.70 61.09 61.70 64.07 64.09 64.38 68.24 70.38 71.72 73.15 75.35 76.29 76.55 75.92 76.27 77.25 76.19 77.31 78.02 78.21 78.08 78.52 78.79 78.49 78.30 77.93 77.80 77.54 77.53
32.25 37.57 37.30 33.88 38.15 39.81 41.09 44.21 45.21 43.29 49.89 55.85 57.82 59.49 60.73 61.77 62.31 64.25 65.92 67.05 68.48 68.27 68.83 70.97 72.37 74.51 75.13 76.56 76.70 76.44 77.25 77.25 77.72 78.12 78.04 78.35 78.64 78.94 78.46 78.40 78.13 77.76 77.53 77.80
32.99 35.52 26.31 38.15 43.32 43.54 42.42 44.09 47.47 48.74 51.38 54.54 58.86 61.54 65.80 66.06 65.25 65.74 66.73 67.82 69.15 70.06 71.06 69.99 71.97 72.97 74.73 75.30 77.11 76.90 77.03 77.24 78.01 78.22 77.90 78.52 78.63 78.65 79.09 78.26 78.46 77.98 77.58 78.73
30.37 30.65 35.21 38.11 41.95 44.65 42.36 42.99 47.40 50.60 52.75 54.30 58.63 61.99 64.83 65.59 65.21 65.73 67.45 68.66 70.07 71.20 71.70 73.19 71.15 72.84 74.43 74.12 75.28 76.21 76.58 77.23 77.98 78.21 77.84 77.79 77.93 78.14 78.24 77.86 77.95 77.85 77.80 78.74
33.48 27.04 24.97 37.35 37.89 40.88 48.09 40.31 52.81 54.42 56.17 56.12 58.67 56.73 60.77 63.54 64.20 64.97 67.12 68.88 69.99 72.35 73.66 73.20 73.53 72.07 73.11 73.54 74.16 75.49 76.41 77.22 78.47 78.64 78.32 78.13 78.29 78.55 78.91 78.14 77.55 77.44 77.49 78.56
30.97 29.72 32.95 39.45 39.67 41.39 35.57 43.96 51.72 51.92 52.85 58.65 58.95 58.10 58.13 58.71 60.09 62.41 64.54 67.50 71.47 72.93 72.74 73.16 73.13 71.90 74.73 74.76 74.46 76.19 76.03 76.27 77.76 78.58 78.83 78.94 79.27 79.44 79.02 77.90 78.11 78.27 77.89 78.90
32.29 28.65 26.17 41.18 38.41 37.04 46.20 48.05 46.80 47.72 52.16 53.08 52.95 53.04 53.30 54.56 54.31 57.09 61.06 68.22 72.60 71.88 71.32 71.82 71.84 74.32 75.89 75.13 76.43 77.69 77.79 77.46 78.25 79.13 77.18 77.25 79.40 78.96 78.54 78.32 78.01 78.36 77.72 77.37
33.48 34.86 40.71 39.57 39.09 46.60 47.08 46.58 46.23 47.70 51.79 51.91 51.10 51.00 51.96 52.42 52.83 54.00 56.33 63.33 70.85 72.58 72.17 73.17 74.16 75.06 74.28 77.33 77.18 77.68 77.42 78.18 78.02 78.16 77.83 79.38 78.40 78.21 77.12 77.98 76.91 76.21 76.17 75.98
33.65 37.90 37.22 41.65 44.33 46.95 47.83 46.60 47.59 49.28 49.08 51.11 51.15 52.15 52.39 53.09 53.65 53.83 55.14 56.44 65.45 69.60 71.34 72.80 74.41 74.76 75.35 76.43 78.29 77.43 76.94 77.53 77.53 77.22 76.84 77.80 77.57 77.60 76.84 76.52 76.11 76.20 76.11 76.06
34.66 36.16 39.55 43.13 43.69 46.54 46.86 47.93 47.54 48.79 49.39 48.66 51.90 53.25 52.99 53.65 54.58 55.22 55.58 56.36 58.23 64.06 68.15 69.05 70.83 72.05 74.29 76.15 76.53 76.30 76.54 76.78 77.20 77.27 76.83 77.06 77.84 72.89 76.95 78.94 73.24 76.68 77.00 77.41
33.97 38.71 39.15 39.61 45.12 47.23 46.64 45.98 47.18 47.52 48.36 51.04 51.16 51.48 53.22 54.17 55.71 56.02 55.84 56.85 57.43 58.68 63.46 66.94 68.21 69.99 71.69 74.12 75.87 75.02 74.66 74.98 75.75 76.14 76.68 76.65 76.36 73.68 49.26 48.72 46.34 47.39 51.25 66.75
38.97 42.84 44.22 45.74 46.05 46.87 46.64 47.31 48.13 48.39 50.06 48.76 50.04 52.03 53.56 55.50 56.57 56.43 55.80 56.82 57.36 58.31 60.75 64.56 65.42 66.18 68.70 72.99 74.38 75.27 73.46 76.78 75.00 73.49 75.22 73.60 73.50 73.04 71.63 67.43 48.13 45.38 44.31 48.35
43.13 42.85 41.19 43.24 42.28 45.29 47.68 47.99 48.79 48.96 48.77 49.78 53.24 54.07 54.19 54.83 56.06 56.86 55.21 57.36 59.00 59.48 60.22 62.27 62.58 63.11 65.93 67.87 72.90 73.44 74.11 63.58 77.21 75.00 73.45 73.26 69.38 65.43 65.51 67.53 71.08 73.79 52.67 51.10
42.99 43.55 43.29 43.85 43.86 44.06 45.33 46.61 46.73 47.59 48.93 50.68 50.97 51.85 52.65 52.88 53.37 55.55 57.07 57.46 57.94 58.17 59.04 59.07 59.54 61.00 64.39 66.02 66.76 72.17 72.14 72.24 72.83 72.02 71.71 68.61 66.72 65.68 65.29 66.57 71.28 64.14 61.37 54.65
43.55 43.21 43.64 42.27 41.80 42.11 43.23 42.81 42.60 43.47 45.82 46.44 47.40 48.18 49.36 52.14 52.44 54.04 56.09 57.16 56.34 55.83 57.91 57.81 58.36 59.61 62.57 65.65 65.81 69.19 69.89 62.23 64.67 69.86 69.47 72.00 72.75 71.70 71.30 71.32 67.58 65.20 64.33 63.39
41.40 40.63 41.07 41.28 41.49 41.78 41.82 43.24 43.36 43.40 44.34 44.73 46.00 47.03 47.43 49.30 51.60 52.13 52.86 54.37 55.10 54.87 56.81 56.39 57.06 58.20 61.63 64.04 65.06 65.11 70.28 69.45 63.00 66.51 66.07 67.01 69.72 70.75 71.74 68.63 65.90 62.12 61.59 60.22
45.91 45.24 44.39 43.35 42.46 42.41 43.23 43.69 43.27 44.13 43.64 44.77 45.63 46.86 46.10 45.41 46.12 47.61 48.83 51.68 51.99 51.52 52.23 54.33 55.56 56.75 60.56 62.62 64.24 65.89 67.33 68.21 68.64 66.91 64.69 62.84 61.73 63.15 61.86 61.24 59.59 59.09 59.16 57.98
46.83 46.07 45.79 45.48 45.10 44.77 44.96 44.50 43.39 43.93 43.99 44.75 44.89 44.28 44.45 44.78 45.30 46.32 48.87 47.20 47.10 47.05 48.72 52.52 52.46 55.62 56.84 59.37 60.58 66.22 64.97 66.51 66.37 66.41 64.24 59.33 61.09 59.63 59.07 58.58 57.65 56.90 58.58 59.51
47.00 47.16 47.25 47.02 47.24 46.73 45.60 46.27 46.50 44.13 44.54 43.51 43.67 42.86 42.50 43.42 45.82 46.23 47.07 45.24 46.17 47.19 49.22 50.56 52.64 54.98 57.16 59.00 58.53 63.71 65.43 63.67 64.85 64.89 63.82 62.13 61.05 57.68 54.92 51.67 54.49 54.21 54.01 56.17
47.45 47.57 47.25 47.41 47.45 48.22 47.72 47.47 46.69 46.07 44.27 44.46 42.30 41.74 41.89 43.21 44.71 45.15 44.10 42.23 45.94 47.50 48.26 48.85 50.31 52.20 54.60 55.87 59.56 64.67 61.56 61.19 59.89 57.87 58.77 57.63 55.59 53.86 52.59 51.64 51.39 51.02 50.57 50.82
48.54 48.02 47.84 47.87 47.80 47.44 48.36 48.13 47.68 47.16 46.82 45.20 44.37 44.49 43.61 42.76 43.21 44.13 44.71 44.01 45.56 45.91 47.19 48.14 48.13 49.82 54.13 55.05 60.20 63.35 62.64 60.90 59.81 55.42 52.91 53.03 51.59 49.64 48.14 47.28 46.33 46.52 46.36 46.75
48.50 48.20 47.98 47.73 46.73 47.50 47.67 47.36 47.65 47.87 46.96 46.91 45.49 44.08 43.54 43.81 43.94 41.63 40.77 44.57 45.37 45.35 47.11 47.06 49.18 51.69 53.80 57.06 56.70 56.56 53.45 51.24 50.69 49.16 48.50 46.33 45.65 45.70 44.55 42.91 42.44 42.56 42.03 42.08
48.27 48.11 48.17 48.26 48.15 46.50 45.53 46.77 47.58 48.17 48.40 47.19 47.26 45.87 44.78 43.29 44.49 45.14 44.45 43.99 44.45 44.37 45.94 46.69 47.94 47.98 47.50 47.04 46.08 45.60 46.07 46.00 46.92 45.21 43.19 41.07 41.15 40.41 41.58 41.07 39.95 39.89 39.68 39.54
48.02 48.14 47.58 47.41 46.05 45.46 46.36 46.90 46.97 47.14 47.53 48.00 47.57 46.83 45.98 46.13 45.54 46.37 44.49 43.51 44.15 44.06 45.09 46.19 46.46 46.30 45.43 44.84 44.20 43.30 42.55 41.80 42.17 41.78 42.13 41.34 40.95 41.46 40.10 39.11 39.36 39.10 39.35 40.25
48.49 46.40 47.08 47.15 46.20 46.24 46.17 46.26 45.56 46.03 46.40 46.19 46.93 47.39 46.65 46.50 46.04 46.29 46.06 44.35 44.00 44.05 44.89 44.94 44.85 44.59 43.87 43.40 43.23 42.81 42.39 41.92 41.69 41.73 41.40 40.74 41.12 40.56 41.16 40.33 40.50 40.13 39.30 39.31
47.36 40.34 47.03 46.71 47.01 46.54 46.00 45.93 45.64 45.53 45.77 46.40 45.97 47.69 47.60 46.45 45.70 46.33 45.68 45.36 44.43 44.35 44.29 45.69 44.98 43.77 43.29 42.53 42.23 41.70 41.63 42.08 41.18 42.10 42.22 41.60 41.52 41.62 41.80 41.41 41.37 41.07 41.14 41.26

GFSNGP_sfc_wetblb_051.txt.gz
Wetbulb
41.82 42.49 42.29 41.56 42.39 43.72 43.41 45.35 43.71 48.02 48.95 54.17 56.88 58.00 59.66 60.99 61.94 62.33 62.77 65.70 67.81 70.01 73.06 75.47 75.92 76.97 77.08 75.79 76.57 75.76 76.14 75.56 76.49 77.70 77.70 77.98 77.78 79.04 79.20 79.65 79.81 80.33 80.11 80.01
39.34 42.35 41.77 39.89 41.77 42.29 42.23 42.81 45.30 47.59 48.12 54.66 56.32 57.74 58.68 60.29 61.52 61.98 63.03 64.43 66.18 68.72 70.75 73.39 75.89 76.84 77.32 76.88 77.02 76.66 76.85 75.96 76.78 77.75 77.94 77.74 78.02 78.73 79.44 79.62 79.86 80.12 79.91 79.86
35.15 41.33 40.59 36.78 40.79 41.64 42.54 43.81 43.17 41.46 47.75 52.35 52.82 54.65 56.67 59.96 61.69 61.63 63.14 64.58 66.26 66.21 69.29 70.82 72.90 76.40 76.76 77.56 77.59 77.44 77.69 77.26 77.64 78.27 77.91 78.27 78.51 78.97 79.04 79.38 79.98 79.97 79.84 80.04
35.23 37.84 28.73 40.90 45.12 44.18 42.58 43.89 45.29 45.72 46.88 49.72 52.19 55.14 56.79 62.40 66.82 67.33 67.73 67.17 68.77 69.53 69.88 70.26 71.79 73.16 75.73 76.87 78.14 78.08 77.47 78.52 78.03 78.83 78.39 78.95 78.99 78.93 79.18 79.40 79.35 79.41 80.00 80.25
32.57 33.31 37.70 40.15 42.50 41.95 40.97 40.22 46.94 47.09 49.33 49.29 51.52 53.49 55.02 60.09 67.92 67.99 68.80 69.73 70.49 71.56 71.90 72.90 71.74 72.54 75.78 75.69 78.27 77.86 78.24 78.39 78.62 78.97 78.84 79.21 78.87 79.13 79.54 79.54 79.57 79.56 80.17 80.34
36.12 30.11 27.77 39.80 44.09 46.52 44.38 37.32 47.51 49.24 49.65 49.74 50.72 48.06 53.39 65.40 68.22 68.19 68.99 69.94 70.76 71.98 72.73 72.98 73.58 73.44 72.48 74.41 76.01 77.20 78.25 78.28 79.33 79.35 79.42 79.06 79.49 79.75 80.28 80.07 79.77 78.91 79.43 80.53
35.50 32.08 36.22 43.43 44.11 44.99 32.51 38.90 49.07 51.26 52.75 50.74 50.79 54.03 59.01 63.37 64.46 65.52 68.09 69.36 71.19 72.26 72.34 73.49 74.77 74.34 74.23 74.83 75.43 77.72 78.88 79.47 79.96 79.77 79.92 80.02 80.40 80.48 80.34 79.91 78.73 79.77 79.36 80.11
34.38 31.64 29.23 44.28 43.08 36.30 43.81 43.29 41.82 49.56 54.19 55.40 59.15 60.67 59.26 59.06 60.44 62.40 63.59 65.62 69.04 73.30 74.23 75.01 75.49 76.40 75.93 75.16 77.15 79.11 79.02 78.94 79.52 80.21 79.29 79.03 80.39 80.37 80.40 80.06 79.59 79.77 79.57 79.30
37.27 36.94 43.93 44.37 42.29 44.24 42.62 42.34 43.44 51.14 57.18 59.46 58.02 57.31 57.11 56.15 58.18 59.30 59.14 63.13 65.57 71.67 74.80 73.97 75.92 76.85 76.52 75.73 79.62 78.91 79.05 78.72 79.41 80.09 79.93 80.23 79.75 79.75 78.58 79.66 77.10 77.06 76.90 76.27
34.35 39.61 41.29 42.02 41.68 43.45 44.32 44.87 48.68 49.46 52.11 55.10 54.44 54.64 53.93 54.90 54.73 56.22 57.46 58.06 60.66 67.08 73.74 74.06 76.24 76.24 76.74 80.76 79.97 79.63 78.91 78.73 79.25 79.08 79.06 79.62 78.62 78.45 77.22 76.67 76.52 76.06 75.79 75.41
35.20 37.80 38.00 41.23 43.57 43.74 45.98 48.20 48.55 49.47 50.76 51.66 53.46 54.08 53.91 54.65 54.38 54.81 55.96 56.82 58.38 61.41 65.39 67.75 71.45 73.78 76.65 78.16 79.35 77.84 78.52 78.60 77.98 77.81 77.33 78.37 79.58 76.46 77.51 71.99 71.69 76.36 75.34 74.73
33.43 37.45 39.13 39.54 42.84 46.15 46.70 46.60 48.54 49.94 49.22 50.22 52.13 53.09 55.15 55.01 54.91 54.94 55.10 56.74 56.70 58.95 61.09 61.77 63.52 64.41 66.25 69.08 77.97 77.23 76.92 76.09 76.71 76.52 76.66 77.03 73.75 71.91 51.76 56.15 49.02 48.47 49.11 61.80
37.82 41.54 41.00 42.68 42.56 45.83 47.24 47.81 48.94 48.54 49.21 50.90 53.20 54.56 55.29 55.15 55.46 55.25 55.25 56.32 57.25 57.96 59.05 60.71 60.78 62.35 65.74 66.86 71.90 76.20 75.46 77.97 77.00 74.72 75.90 76.66 76.12 74.87 72.90 63.16 47.95 46.50 49.03 49.58
44.01 43.32 39.79 41.41 40.72 44.50 45.14 46.90 48.96 49.18 49.81 50.11 51.07 52.73 53.58 54.01 55.96 55.41 55.42 56.68 57.23 57.37 57.73 58.53 58.83 59.81 63.38 67.59 67.89 75.92 77.14 63.01 76.92 75.96 76.33 76.61 76.52 76.84 75.37 73.93 71.93 71.78 51.99 54.44
43.65 44.49 43.00 43.51 43.49 43.52 44.78 44.89 44.14 44.81 46.10 47.08 49.71 49.91 51.42 52.07 52.31 54.07 56.30 56.85 57.49 57.28 56.76 57.64 57.18 58.77 61.61 65.24 66.30 70.62 76.13 76.15 76.45 77.02 76.42 74.38 74.64 72.76 71.52 71.33 70.95 68.41 65.86 57.86
44.68 44.34 43.99 43.06 43.08 43.52 43.13 42.93 42.10 43.40 44.88 45.82 46.63 47.43 48.45 51.24 51.94 53.43 53.79 55.46 54.20 52.83 54.79 57.41 56.50 58.15 61.51 63.93 67.10 67.96 71.27 63.66 66.92 71.37 70.77 70.93 71.00 70.59 69.10 68.96 67.95 67.88 66.08 64.80
44.53 42.91 43.23 42.06 42.65 42.98 42.24 43.47 43.50 43.77 44.31 44.72 45.21 46.61 47.07 46.87 47.60 49.24 50.69 52.51 53.30 53.53 52.68 53.80 53.92 56.29 60.74 61.77 62.96 67.60 69.48 69.31 65.24 72.21 72.05 71.66 70.26 69.98 70.29 70.83 67.99 66.34 65.06 62.50
47.50 47.15 46.46 45.70 43.79 43.71 44.49 44.23 44.08 44.20 44.00 45.12 45.33 44.92 45.17 46.00 45.85 46.58 47.40 49.29 50.18 52.23 53.12 53.35 53.19 55.36 58.33 59.45 59.99 66.59 68.15 67.74 66.75 65.95 66.25 67.19 66.73 68.86 67.84 65.33 63.40 62.04 60.85 57.78
47.88 46.52 46.81 46.08 46.56 46.71 45.57 45.01 44.57 44.50 44.29 44.01 43.67 43.46 44.27 44.79 45.73 45.91 48.01 46.33 46.76 46.44 48.05 51.08 51.11 53.60 55.63 58.49 58.41 64.28 68.13 68.00 66.39 64.11 62.41 59.94 63.81 64.06 62.48 62.79 61.61 60.51 61.34 60.85
48.08 47.99 47.76 47.11 47.16 46.58 45.99 47.60 46.16 45.79 45.19 44.55 43.74 43.26 43.50 44.37 45.61 45.40 45.52 45.11 45.27 45.37 48.40 50.74 51.90 52.25 53.78 58.30 58.15 58.16 64.79 66.62 66.49 65.47 65.31 62.85 58.74 57.13 57.41 53.59 57.99 57.20 58.49 59.89
48.75 48.52 47.37 47.75 46.77 47.72 47.29 46.97 46.12 45.54 46.54 45.90 44.40 43.40 43.09 43.72 44.56 44.88 43.11 42.52 44.97 46.47 47.93 49.75 51.02 52.71 53.68 55.78 58.09 64.04 64.25 65.66 64.00 63.90 62.32 60.87 58.68 54.81 53.39 54.17 53.92 52.85 52.95 54.01
47.80 46.94 47.77 47.97 46.90 46.81 48.56 48.20 47.10 46.48 46.33 46.58 45.65 45.36 44.39 43.34 43.15 43.88 43.97 43.12 44.87 46.51 47.39 48.88 51.17 52.74 53.59 55.80 57.04 61.62 62.67 59.79 59.55 58.01 56.34 55.71 54.92 53.02 49.24 47.82 47.18 48.26 48.91 50.36
49.18 48.97 48.20 48.46 47.52 47.59 48.54 48.54 47.78 47.30 46.27 46.83 46.43 46.42 45.71 45.54 44.68 41.17 40.49 44.43 45.68 46.46 47.04 47.97 48.55 48.55 48.33 48.78 50.82 51.46 48.91 50.55 52.14 51.06 49.80 48.74 47.13 46.79 44.99 44.71 43.18 42.24 41.84 41.88
49.21 48.61 48.38 49.15 48.82 48.03 46.84 48.13 48.63 49.44 49.27 48.46 48.65 49.01 48.13 45.90 45.67 44.43 44.39 44.87 45.75 45.61 45.58 45.80 45.82 45.66 44.58 43.18 42.69 42.79 44.11 45.09 44.35 43.85 42.12 41.43 43.53 42.71 41.88 41.32 40.22 40.02 40.01 40.43
49.54 49.21 49.56 48.33 47.73 46.53 48.04 48.82 48.60 48.54 49.19 49.29 48.90 48.59 49.91 47.71 45.70 44.96 43.79 44.63 45.13 44.33 43.99 44.82 44.96 44.28 42.78 42.11 41.60 41.09 40.82 40.62 41.34 42.15 41.74 41.32 40.89 40.72 40.53 40.07 39.22 38.92 38.83 39.02
49.38 47.60 47.84 48.69 47.73 47.41 47.39 47.41 46.59 47.21 47.95 47.19 47.53 48.01 49.50 48.91 47.01 47.94 45.35 44.51 45.20 44.46 43.99 43.96 43.59 43.30 42.93 42.54 42.22 42.16 42.29 42.07 41.78 41.35 41.19 41.42 41.36 41.44 41.14 40.91 40.74 40.42 40.75 40.61
49.13 42.13 48.37 47.68 48.71 47.88 47.22 47.17 46.92 46.57 46.72 47.23 47.41 47.88 48.41 49.47 47.70 46.98 45.84 46.28 45.75 46.06 46.64 46.98 45.67 44.90 44.81 44.46 44.54 44.01 43.12 43.11 41.48 42.57 42.41 41.94 41.98 41.74 41.03 41.31 41.71 41.84 41.73 41.31

GFSNGP_sfc_wetblb_054.txt.gz
Wetbulb
41.61 42.61 42.99 42.67 42.60 43.49 42.79 43.59 43.08 46.36 47.54 52.50 52.48 54.71 57.42 60.14 61.53 62.66 64.08 64.65 66.80 68.16 68.93 73.15 73.76 74.04 74.31 74.83 74.54 74.93 74.91 74.82 75.10 75.94 75.60 75.23 75.20 75.78 75.23 76.34 77.06 77.75 77.46 78.09
38.65 42.26 42.62 41.32 42.81 43.18 43.67 44.04 44.15 45.61 45.95 52.09 54.30 56.15 56.94 58.77 59.78 59.41 60.67 64.46 66.34 65.24 73.53 72.79 74.50 74.44 74.66 74.67 74.80 75.02 74.49 74.38 75.30 75.70 75.62 75.65 75.11 75.80 76.23 76.00 76.91 77.37 77.56 77.63
34.11 39.93 40.48 37.09 42.12 42.64 43.33 44.97 44.41 41.50 46.67 50.70 50.33 52.20 54.52 55.29 55.49 57.11 59.67 60.21 67.17 68.58 69.48 70.63 74.06 75.47 74.92 75.05 75.80 75.08 74.88 74.97 75.08 75.87 75.92 75.44 76.23 75.35 76.07 75.80 76.71 76.94 77.43 77.90
34.77 37.38 28.29 40.94 46.63 46.27 43.77 44.71 45.78 45.89 47.03 48.96 49.92 51.07 52.50 54.26 55.08 56.96 59.49 60.48 70.22 67.51 70.77 72.17 70.45 71.85 76.67 76.47 75.75 75.61 74.91 75.50 75.33 75.91 75.62 76.14 75.65 75.86 75.32 76.44 76.23 76.79 77.31 77.84
32.76 32.46 36.77 40.02 43.78 43.50 42.47 42.59 46.32 46.12 47.74 48.86 49.81 50.53 50.63 54.13 55.72 57.16 58.94 62.68 70.13 70.77 71.39 73.09 73.16 73.74 76.02 76.73 75.93 75.70 75.41 75.55 75.55 75.67 75.76 75.70 75.36 75.35 75.77 76.44 76.74 76.73 77.46 77.85
36.50 30.54 27.78 39.06 44.55 46.24 45.78 37.32 46.79 46.80 46.52 47.04 48.65 44.73 48.99 54.31 54.48 58.93 67.00 69.33 69.55 70.59 71.22 71.77 72.97 73.67 73.58 75.08 76.46 74.88 75.49 76.02 76.99 75.93 76.47 75.64 75.91 75.93 76.49 76.91 76.92 77.33 77.26 77.98
35.12 33.43 36.31 43.76 45.55 46.92 34.01 37.44 47.71 48.22 48.28 48.18 46.33 50.41 54.69 56.91 55.88 65.40 66.18 67.66 69.51 70.19 70.92 72.53 73.64 74.00 73.31 73.67 74.60 77.02 76.50 77.38 77.30 77.22 76.57 77.26 77.28 77.43 77.20 77.26 77.37 77.12 77.07 77.67
36.08 33.07 29.54 45.84 45.03 39.61 44.14 46.98 46.81 46.49 46.91 47.32 48.47 51.09 54.17 56.42 61.15 63.51 64.44 65.47 67.38 68.72 70.05 73.95 75.42 73.90 73.08 73.73 75.70 77.38 77.98 76.83 78.25 78.29 77.47 78.10 77.74 77.93 77.91 77.53 77.32 76.96 77.24 77.54
34.69 36.51 43.34 44.72 43.71 46.08 46.42 45.03 45.44 45.47 46.86 47.78 48.30 50.72 51.42 59.50 61.30 61.54 60.68 62.29 64.29 66.95 70.55 76.09 75.12 76.37 73.59 74.81 76.63 79.00 78.26 76.77 77.90 78.37 78.39 77.88 77.99 77.62 77.52 77.89 77.13 76.71 76.64 76.41
34.74 39.88 40.62 42.21 42.61 43.23 44.29 44.07 44.29 45.26 46.63 48.07 48.47 50.91 56.97 57.28 56.67 56.85 58.19 58.32 59.75 63.47 66.24 66.60 68.33 71.09 76.87 76.54 77.64 77.88 77.17 77.34 77.51 77.99 77.48 77.85 78.42 78.24 77.70 77.25 77.00 76.76 75.98 76.36
35.24 38.02 38.87 40.94 41.96 42.97 43.78 45.20 44.90 46.99 49.03 49.41 50.83 54.67 54.84 54.20 54.15 55.51 56.40 57.38 58.52 60.62 61.24 61.64 64.61 68.39 70.89 72.00 76.97 75.99 77.48 77.20 77.06 77.52 76.73 77.55 77.58 77.79 77.76 78.09 75.65 76.68 76.77 76.36
32.75 38.37 36.53 38.13 41.69 42.04 42.31 45.14 47.15 48.52 49.37 50.78 52.05 53.82 53.80 53.61 54.70 55.38 56.29 57.64 57.02 57.07 57.81 58.46 60.48 64.06 67.14 69.48 71.47 78.08 76.80 76.98 76.61 76.96 77.12 77.35 76.37 73.27 51.28 54.57 49.80 52.87 56.37 69.52
38.78 42.47 41.53 41.14 42.35 42.97 43.80 46.11 48.01 48.46 48.79 48.23 50.73 53.68 55.12 54.52 55.43 55.78 56.65 56.67 55.77 55.99 56.70 57.22 57.71 60.58 62.50 65.69 69.11 73.68 76.98 76.75 76.97 74.80 76.60 76.40 75.89 72.62 68.62 59.21 46.68 45.45 46.17 50.71
44.10 42.30 39.60 40.56 39.50 42.45 42.29 43.59 46.34 46.92 47.63 47.73 47.87 50.11 52.31 52.49 53.76 54.45 54.84 56.13 56.84 56.30 55.89 57.20 55.83 57.04 58.79 62.95 65.27 69.36 76.24 66.77 76.62 75.87 75.85 76.45 75.76 74.64 72.44 69.92 69.84 67.76 53.85 53.09
43.86 44.53 43.27 44.21 44.00 42.77 43.27 42.76 42.31 43.08 45.07 46.10 47.53 47.37 49.16 49.70 50.57 51.61 53.37 53.98 55.27 53.52 53.61 54.96 53.75 54.64 57.38 60.37 62.53 68.91 70.58 71.11 72.91 75.66 75.27 74.92 76.28 75.64 75.31 74.60 74.30 71.41 66.62 58.86
45.24 45.05 44.18 42.74 43.16 42.83 42.06 41.65 40.81 41.86 42.95 44.58 44.74 46.07 47.36 48.04 48.77 49.81 50.22 51.13 50.69 50.48 51.65 52.80 53.01 53.33 56.13 58.95 61.01 66.83 68.14 63.99 66.08 71.87 73.04 74.61 74.80 73.61 74.10 72.76 71.66 69.01 69.10 67.71
43.30 41.65 42.82 42.91 42.78 42.95 42.49 42.62 42.77 42.38 42.10 43.00 43.67 45.22 46.00 46.64 46.37 47.77 47.33 48.71 49.73 49.98 49.58 50.39 51.62 53.06 55.37 57.92 59.46 62.28 67.82 67.41 64.38 68.81 70.16 71.21 72.47 71.14 70.78 69.77 69.31 68.91 68.14 66.24
46.70 46.09 45.70 45.24 44.48 43.88 43.47 44.14 43.75 42.99 42.01 42.64 43.90 44.63 44.57 44.13 44.03 44.55 45.90 46.25 47.13 47.19 47.31 48.93 51.01 52.28 55.88 57.38 57.94 62.08 66.45 65.52 65.82 64.64 67.44 67.71 67.57 69.22 67.42 67.66 65.51 63.71 63.24 60.79
47.61 46.66 46.80 46.60 47.02 46.11 45.13 45.07 44.66 44.59 44.57 44.16 43.48 43.67 44.34 44.11 44.25 43.91 44.99 44.25 43.93 43.56 45.38 48.31 51.37 53.65 56.11 57.12 56.85 61.57 66.86 64.87 63.50 62.63 62.01 59.00 60.47 61.51 62.66 63.49 63.33 64.21 65.00 64.77
48.84 48.00 48.10 47.79 48.23 47.13 46.16 46.71 46.45 45.05 45.08 44.44 44.17 43.38 42.82 43.31 44.57 43.62 43.95 43.13 44.04 44.40 47.52 49.24 51.10 51.55 53.34 55.90 56.70 59.63 65.08 64.63 64.15 62.11 58.71 57.47 56.67 55.75 54.87 51.75 54.79 55.47 57.45 56.64
48.79 48.90 48.25 47.47 47.59 48.33 48.07 47.66 46.81 45.90 46.07 46.11 44.85 44.15 43.91 42.82 44.16 44.13 42.66 41.93 44.42 46.74 47.93 49.53 50.08 50.73 54.03 55.99 56.82 57.86 61.45 60.49 58.61 61.28 58.70 56.87 55.13 54.47 53.78 53.97 53.03 53.93 54.03 53.84
48.90 47.89 48.38 47.76 47.77 47.75 48.62 48.58 48.37 47.75 47.36 47.12 46.77 46.30 44.22 42.80 42.21 42.81 44.19 43.64 45.70 46.60 45.77 45.70 46.92 48.78 50.38 51.26 51.03 50.57 54.79 55.48 53.82 52.28 50.88 52.81 51.52 49.68 48.94 49.24 48.85 50.23 49.39 47.94
49.37 49.36 48.33 48.32 47.87 48.00 48.64 48.38 48.51 48.88 47.67 48.61 47.11 45.86 44.05 43.16 42.28 41.34 40.94 44.03 44.71 45.05 44.37 44.41 45.75 45.93 45.70 44.48 44.84 44.97 44.77 44.75 45.13 45.89 45.30 44.92 44.26 43.50 43.65 42.48 41.31 41.71 42.27 42.52
49.04 49.09 49.26 49.66 49.51 48.20 47.50 48.90 49.20 49.66 49.38 49.22 48.03 47.82 46.51 43.53 42.25 43.99 44.30 44.33 44.19 43.76 43.80 43.76 43.91 44.00 43.20 41.81 42.28 42.44 42.24 41.78 41.40 41.18 40.20 39.80 40.81 41.14 40.96 41.65 41.78 41.57 41.00 40.71
50.04 49.67 49.37 48.51 47.78 46.66 49.30 49.72 48.97 49.26 48.31 48.66 46.68 48.30 47.57 46.18 43.13 43.85 44.86 44.66 44.75 44.75 43.97 44.43 44.19 43.66 41.97 41.45 40.99 40.98 41.24 41.52 41.94 41.98 41.00 40.09 39.75 39.08 39.06 38.74 38.72 38.66 39.05 39.87
49.87 48.57 48.29 49.32 48.31 47.63 47.03 47.44 46.48 46.99 47.96 46.90 47.52 47.14 47.86 47.10 47.08 46.46 46.61 45.92 45.88 45.57 45.13 45.11 45.33 45.23 44.28 43.32 42.60 42.27 41.69 41.34 41.07 40.78 40.56 40.70 40.62 40.72 40.64 40.64 40.71 40.69 40.51 40.53
49.62 44.23 48.44 48.42 47.74 47.77 47.06 47.22 46.65 45.79 46.99 46.98 47.20 48.03 47.15 47.93 46.81 46.08 45.86 46.56 46.85 46.37 46.74 46.64 46.66 45.92 45.96 45.70 44.96 44.60 43.67 43.15 41.58 42.88 42.21 41.18 40.77 40.45 40.74 41.07 41.28 41.26 41.29 41.28

GFSNGP_sfc_wetblb_057.txt.gz
Wetbulb
37.36 39.46 39.92 39.31 39.34 40.76 38.39 37.84 32.35 38.33 40.22 44.00 47.78 48.97 52.06 53.58 54.28 54.88 56.58 62.50 63.00 62.88 63.35 67.28 66.53 67.77 70.03 71.89 71.82 73.29 73.28 73.33 72.84 72.59 72.46 72.42 71.04 70.71 68.86 73.47 72.48 74.06 73.98 74.84
34.75 39.26 39.34 37.81 40.22 41.24 41.20 41.38 40.32 40.80 40.45 43.56 46.17 47.40 47.71 47.81 49.23 50.18 51.33 55.54 57.00 59.64 61.86 66.69 66.75 66.02 66.05 69.95 72.00 72.26 73.22 73.23 73.39 72.98 72.59 72.37 72.40 72.67 70.70 70.33 74.09 73.45 73.69 74.06
29.55 37.06 37.18 33.08 38.00 39.90 41.09 42.78 40.75 36.98 40.70 44.81 44.44 46.48 46.07 47.05 49.37 50.10 50.47 52.57 56.99 58.46 65.63 65.80 64.71 66.25 65.56 65.60 72.72 72.19 72.15 73.27 73.34 73.03 72.88 72.28 72.45 72.06 72.68 70.65 71.75 73.83 74.30 74.48
29.57 32.44 24.17 36.70 43.07 43.69 42.01 43.01 43.96 43.82 43.84 45.11 45.23 46.60 47.73 48.34 48.90 51.29 53.26 55.56 62.94 61.48 68.25 68.90 69.10 66.74 66.78 66.93 68.43 72.07 71.79 72.22 73.05 73.06 73.01 73.21 72.94 72.16 72.41 73.27 72.02 72.42 73.68 74.55
26.29 27.93 33.22 37.14 40.12 39.87 37.87 37.76 44.05 42.93 44.68 46.16 47.58 47.33 45.93 51.81 51.91 52.89 53.57 55.55 61.59 59.24 65.42 68.63 67.56 66.06 66.33 66.45 66.04 65.51 71.56 71.80 72.78 73.09 72.88 73.24 72.28 72.73 72.42 73.13 73.25 73.03 74.08 74.48
33.21 25.45 23.78 34.17 42.04 44.67 42.56 32.34 43.94 44.87 44.29 44.05 44.60 39.05 43.06 49.30 50.29 52.47 53.41 54.57 60.22 60.81 64.93 66.83 68.63 66.53 65.18 65.39 64.84 66.78 68.32 72.51 73.03 73.19 73.45 73.12 73.18 72.86 73.84 72.98 73.01 74.15 73.59 74.66
32.91 32.08 34.30 39.26 41.80 46.02 33.20 32.97 43.19 44.29 43.71 43.09 40.50 42.02 45.96 48.89 50.00 52.21 53.10 54.53 62.45 64.23 64.89 66.93 69.41 70.21 68.60 67.74 65.73 71.28 72.34 73.60 73.71 73.25 73.44 73.72 73.91 73.91 73.70 73.65 73.20 73.23 73.76 74.28
32.91 31.28 26.88 41.12 40.65 35.77 39.15 41.06 41.68 42.63 43.61 42.93 43.69 44.77 45.57 48.05 49.63 51.62 52.65 56.13 62.95 62.41 63.18 65.95 69.63 69.43 69.49 69.44 71.06 72.60 73.24 73.06 73.27 73.57 73.66 74.33 73.77 73.92 73.66 73.49 72.91 72.93 73.51 73.93
32.70 33.00 39.51 41.62 40.00 41.72 41.76 39.89 40.30 41.32 43.09 44.10 42.97 43.72 45.27 46.42 49.62 51.35 57.16 58.89 60.19 60.02 60.73 64.56 66.36 66.96 68.40 69.52 71.56 72.28 73.91 73.03 73.94 74.72 73.67 74.62 73.89 73.63 73.46 73.68 73.28 73.44 73.47 73.53
33.14 38.45 38.62 39.82 41.02 42.31 41.92 41.61 42.04 41.99 43.26 43.77 42.69 44.54 44.90 47.06 49.35 55.43 56.56 56.45 58.00 58.25 61.54 62.08 61.67 62.98 66.56 68.83 70.03 71.70 72.86 74.15 73.56 74.28 74.10 73.98 75.24 74.80 74.69 74.30 73.93 73.70 73.87 73.69
35.16 37.97 39.34 40.17 40.06 41.02 41.12 41.24 42.62 44.37 43.69 43.55 44.24 45.28 47.58 49.26 52.61 54.68 56.10 57.07 57.26 57.46 57.66 57.80 58.81 60.66 62.91 64.00 66.31 68.38 72.31 74.40 74.13 74.87 73.57 74.61 75.30 75.26 75.42 75.88 74.21 74.83 74.74 74.96
32.35 38.97 38.45 38.65 41.38 41.85 40.31 40.66 42.39 43.11 45.64 46.78 48.67 48.81 48.85 50.38 54.72 55.37 55.63 56.36 55.95 55.89 56.49 56.95 57.06 57.60 58.81 60.06 62.50 65.84 69.66 73.23 74.53 74.30 74.69 75.18 74.55 67.22 50.12 52.54 51.43 56.32 61.81 71.46
39.09 42.24 42.52 42.59 42.71 43.07 41.69 41.50 42.18 43.16 44.85 46.83 47.33 47.42 47.26 53.09 55.17 55.37 55.69 55.83 55.19 54.73 54.36 55.53 54.90 54.97 56.40 57.68 60.67 63.32 67.81 72.68 74.77 72.47 74.83 74.65 74.48 72.52 68.37 57.79 47.82 45.46 46.37 54.71
44.16 43.28 40.96 42.03 41.27 42.72 42.94 42.35 43.14 43.28 43.82 45.33 46.13 47.24 47.71 49.83 51.73 51.36 51.09 52.73 53.38 53.06 52.92 53.35 53.81 53.44 54.42 55.07 58.71 61.33 66.28 63.41 73.33 74.16 74.44 74.78 74.79 73.58 71.45 66.93 67.36 65.54 51.26 51.01
43.26 44.24 43.01 44.38 44.50 43.47 43.68 43.15 41.26 41.60 41.42 42.07 44.19 45.00 46.01 46.49 47.35 47.60 48.54 49.07 50.23 51.25 50.30 50.79 51.78 51.78 52.76 53.94 57.38 59.52 65.60 68.13 71.17 71.76 73.53 72.90 74.87 73.05 69.67 69.25 69.07 67.65 62.04 55.25
44.71 43.92 43.95 43.24 42.84 43.54 42.58 41.13 40.05 40.13 40.41 40.73 41.90 43.18 45.05 45.96 45.41 46.72 45.85 46.53 45.66 46.39 46.45 47.42 48.62 50.55 52.59 53.44 56.14 58.76 63.23 64.29 64.64 71.28 72.20 71.75 73.51 73.15 70.21 70.25 69.88 66.73 66.66 64.87
41.17 40.59 41.65 41.79 42.82 42.61 42.40 42.45 41.64 41.02 40.88 40.63 41.84 43.30 44.44 44.56 43.88 43.88 45.40 45.15 45.58 46.13 46.61 46.94 47.65 50.77 52.54 54.65 55.55 56.04 62.75 65.79 63.93 68.40 68.35 69.46 69.10 68.46 70.11 71.30 68.42 66.97 65.14 62.12
44.57 44.25 44.85 44.58 43.32 42.79 43.16 43.76 43.53 43.33 42.50 42.46 42.90 42.99 42.94 42.99 42.28 42.69 43.67 44.95 44.45 45.07 46.74 47.96 49.41 52.45 53.16 54.20 55.64 55.86 63.31 63.46 62.93 62.57 62.59 63.47 65.66 66.12 65.21 64.54 63.95 63.17 62.74 60.45
47.54 45.99 46.46 47.13 45.33 44.61 44.19 43.64 43.30 44.02 43.86 43.33 42.94 42.00 43.03 43.27 43.08 43.19 43.72 43.96 43.63 43.76 46.02 48.69 51.78 52.15 52.83 55.13 57.18 56.78 63.56 61.41 60.14 59.84 59.66 58.71 60.60 62.81 62.95 63.82 63.05 61.73 62.05 60.75
47.58 47.75 47.36 46.74 47.26 45.17 44.57 45.41 44.58 44.17 43.85 44.73 44.47 43.23 41.85 42.21 43.16 43.31 43.80 42.68 43.44 44.91 45.79 47.38 48.87 49.80 52.08 55.91 57.83 60.73 62.01 59.27 57.86 56.44 55.64 55.40 55.94 55.64 56.06 55.15 58.15 57.01 56.82 56.58
47.95 48.21 47.46 45.75 45.69 46.32 46.21 46.03 45.20 44.27 44.61 44.87 43.67 42.41 41.63 42.39 43.09 42.97 41.38 40.63 43.11 45.09 45.38 46.15 46.78 47.07 49.72 49.71 52.67 53.40 52.90 51.53 54.58 53.89 53.30 51.97 50.65 51.05 51.43 52.31 52.73 53.47 53.67 53.26
46.88 46.21 46.95 46.81 46.17 46.35 46.44 46.49 45.60 45.60 45.34 44.81 43.36 42.46 41.44 41.42 42.06 42.36 42.50 41.42 43.34 44.93 44.26 44.27 45.09 47.43 46.52 47.25 45.27 44.98 45.75 45.89 45.27 45.15 45.05 46.19 45.55 44.77 43.59 44.23 45.11 45.40 45.41 45.15
47.30 46.95 46.85 45.29 45.26 46.17 47.60 45.76 46.19 46.22 45.61 45.07 42.94 41.79 41.10 41.22 41.64 40.07 39.30 42.86 43.54 43.96 43.41 43.55 45.04 45.40 45.14 43.17 42.47 42.26 41.79 40.73 40.92 41.58 42.35 42.53 42.34 41.66 41.43 41.39 41.75 42.08 42.19 42.77
46.71 47.77 46.89 48.03 46.16 44.90 44.37 46.16 46.93 46.94 45.99 45.57 43.91 43.64 41.55 40.85 41.79 43.03 43.56 44.51 44.52 43.94 43.43 43.52 43.59 44.00 43.18 41.56 41.33 41.52 40.82 40.13 40.15 40.02 39.47 39.16 39.50 39.71 40.39 40.66 40.80 41.64 41.36 41.14
48.27 47.46 47.36 46.55 46.14 43.81 45.95 46.16 45.64 46.39 44.88 44.99 44.12 43.38 43.32 43.58 42.25 43.09 43.83 44.16 45.63 44.47 43.73 45.87 44.82 43.83 41.68 40.80 40.25 40.11 39.98 39.94 40.30 40.26 39.72 39.24 39.13 39.01 39.15 39.17 38.94 39.07 39.16 39.50
47.35 46.19 45.40 46.89 45.26 44.40 45.47 45.65 43.96 44.83 45.20 43.27 43.77 44.61 44.20 44.03 44.36 44.68 44.71 45.23 45.18 45.26 43.67 44.26 44.46 43.36 42.46 41.99 41.53 40.81 40.30 39.89 39.63 39.47 39.66 39.96 40.05 39.85 39.88 40.28 40.54 40.70 40.59 40.83
47.61 45.38 46.44 45.08 46.64 44.97 45.35 44.87 43.94 43.17 44.94 45.01 43.57 44.97 45.06 44.47 44.34 44.69 45.08 44.94 43.89 43.23 43.49 42.95 43.00 43.81 42.54 42.10 41.05 40.97 41.32 40.82 40.28 40.58 40.30 40.10 40.13 40.21 40.16 40.45 40.74 40.93 40.79 40.87

GFSNGP_sfc_wetblb_060.txt.gz
Wetbulb
31.78 36.77 37.55 36.99 37.35 38.48 34.65 33.28 29.99 34.22 34.97 38.01 40.79 43.98 45.33 48.14 50.45 58.16 61.99 63.54 59.19 59.72 59.82 61.17 63.90 65.36 66.85 68.40 70.43 71.30 70.57 70.67 70.03 71.24 71.62 70.31 68.88 70.24 69.25 70.01 69.56 70.43 72.08 73.29
31.99 37.59 37.59 35.78 38.26 39.00 38.68 38.77 37.83 38.14 35.79 40.64 42.05 44.90 45.75 48.10 49.14 50.45 52.11 55.48 57.02 59.42 62.83 64.79 64.43 61.85 66.73 67.20 68.65 71.78 71.19 71.06 71.52 70.90 71.46 71.29 69.98 68.97 69.24 68.57 70.83 70.09 72.35 73.25
25.14 34.35 34.53 30.30 35.34 37.52 38.14 39.19 37.58 33.94 37.74 41.17 42.19 43.93 45.06 47.43 50.65 51.28 51.78 53.42 54.00 57.62 65.21 66.43 66.28 66.10 64.96 65.77 67.47 68.33 71.52 71.92 72.06 72.12 71.32 71.06 71.13 69.94 69.02 68.66 67.91 71.13 70.36 72.56
27.07 30.33 21.84 32.55 39.66 40.56 38.66 40.47 40.97 40.53 42.52 43.69 43.69 44.96 47.38 48.29 47.86 48.44 50.56 51.16 51.70 53.43 59.72 65.68 66.30 67.16 66.69 67.04 66.96 66.58 67.08 71.59 72.44 72.43 71.90 71.67 71.12 70.92 70.55 70.52 68.35 67.99 71.88 71.30
27.70 23.80 30.16 35.60 37.68 37.41 36.05 35.44 42.31 40.64 42.43 43.75 43.98 44.59 43.92 47.50 48.70 49.13 50.07 50.40 51.88 53.54 58.43 65.52 65.08 66.75 67.25 67.60 67.35 66.46 66.21 65.88 70.62 72.94 72.34 71.89 71.14 71.05 71.35 71.62 71.09 69.02 70.69 73.08
31.10 25.54 22.27 32.61 38.26 41.83 41.40 29.83 39.83 40.57 40.06 40.33 41.60 35.66 39.12 45.03 47.92 49.28 50.39 51.01 51.37 53.53 60.54 64.72 68.14 66.78 65.18 66.35 67.57 64.77 65.85 65.97 67.01 70.71 72.78 72.16 72.08 71.68 72.02 71.73 71.70 72.11 70.91 71.10
31.38 29.19 32.90 36.92 39.66 42.76 28.82 30.72 39.36 39.75 39.39 39.25 37.63 39.58 42.78 45.24 46.01 48.59 49.38 50.49 52.43 54.76 62.51 64.61 65.99 65.66 64.23 64.55 64.29 65.68 66.85 66.40 67.20 68.15 71.46 72.87 72.79 72.99 72.51 72.04 71.84 72.04 71.97 72.06
29.00 28.77 25.84 39.71 39.33 33.50 36.57 38.78 39.75 39.14 39.37 38.97 39.97 41.81 43.41 44.20 44.27 46.20 47.76 49.96 57.07 57.79 60.09 63.26 65.92 67.05 68.26 67.22 67.91 66.22 65.60 65.74 66.67 68.56 71.26 73.02 72.74 72.99 72.74 72.29 71.55 71.14 71.65 72.18
32.46 28.89 36.86 37.98 37.70 39.66 40.49 38.91 38.98 39.03 39.55 40.82 40.74 41.18 42.56 42.78 43.65 45.36 47.72 50.25 57.20 58.19 57.68 61.66 64.67 64.28 63.82 66.66 69.67 69.90 69.86 70.21 70.00 72.23 72.69 72.82 72.53 72.36 72.24 72.21 72.12 71.55 70.88 71.05
33.31 34.91 35.84 39.11 41.57 41.89 41.51 40.14 40.12 40.39 41.27 42.67 41.62 43.26 42.30 42.65 43.66 45.29 47.99 49.91 56.08 56.58 58.31 59.18 59.60 60.90 60.86 63.90 65.04 65.26 66.48 68.28 71.97 72.35 72.35 72.31 72.98 72.67 72.58 72.11 71.75 71.82 71.62 71.38
34.54 36.64 38.42 39.58 40.48 42.06 41.83 42.27 41.24 41.89 42.48 42.29 44.91 43.45 42.91 43.55 44.34 46.93 48.79 52.34 55.27 56.31 55.57 56.52 57.22 58.04 58.61 60.04 60.72 61.48 62.69 65.76 69.97 72.35 70.82 72.23 72.78 72.63 72.80 73.36 71.92 72.23 72.20 72.57
30.00 35.80 36.42 37.85 40.76 43.48 41.67 40.98 41.93 41.17 41.54 42.85 44.50 45.90 47.16 46.59 46.98 47.41 49.21 53.72 54.66 54.07 55.67 56.17 55.67 55.05 56.01 55.96 57.07 58.44 60.32 63.52 68.73 72.74 72.60 73.29 72.12 67.43 51.67 53.89 56.27 56.55 58.16 68.36
37.04 39.69 40.25 41.96 42.59 44.36 42.16 41.92 42.35 42.03 42.63 42.23 43.28 45.07 45.82 45.87 47.46 51.20 51.48 55.17 54.51 52.64 52.10 53.21 53.11 53.85 54.35 54.24 54.84 55.23 57.69 61.04 64.99 67.63 73.46 73.03 73.42 71.12 69.78 58.92 47.48 46.59 50.40 53.12
42.34 41.11 39.80 40.87 39.75 43.65 43.53 43.47 43.35 42.90 42.71 41.77 42.45 43.97 45.13 45.37 46.07 47.23 47.68 49.66 51.17 51.01 51.61 51.89 52.24 52.79 53.17 53.18 53.30 54.06 56.57 55.88 61.08 66.29 72.25 73.56 73.94 73.62 71.88 71.09 69.65 67.35 50.22 54.39
41.34 42.38 42.10 42.07 42.75 42.98 43.40 43.64 41.36 40.68 41.19 40.93 42.15 42.42 43.73 43.69 44.10 45.20 46.13 46.67 47.67 47.67 47.35 46.94 47.68 48.89 50.95 52.25 52.85 53.36 55.56 58.17 64.09 67.17 70.90 71.99 74.20 74.10 72.52 70.22 71.02 71.00 59.99 53.48
41.11 41.18 41.20 40.99 42.16 42.38 42.63 42.69 40.79 40.69 41.16 41.11 41.36 42.17 43.21 44.03 44.34 44.56 45.55 45.58 44.13 44.10 45.01 44.52 46.58 47.55 50.39 52.45 52.56 53.53 55.63 56.83 58.49 65.32 69.23 70.36 70.81 71.22 68.82 68.71 69.30 67.26 66.54 66.90
39.32 37.18 38.45 38.82 40.43 40.74 40.94 43.00 41.75 42.28 41.73 41.26 41.64 42.41 43.05 42.98 43.09 43.35 43.82 45.15 45.22 43.93 46.19 46.71 46.76 49.19 52.65 53.42 52.89 53.34 55.10 56.41 62.50 65.05 66.36 68.96 69.64 70.59 68.69 68.91 68.60 66.92 66.08 62.71
42.81 42.64 41.20 41.27 41.28 41.24 41.21 42.69 43.04 42.72 42.06 42.96 43.44 42.44 42.12 41.92 41.04 42.32 43.40 44.66 44.84 45.57 45.80 46.60 48.75 50.49 51.24 52.74 53.35 53.86 55.88 57.79 62.24 62.26 63.35 65.52 66.97 66.56 66.74 65.29 63.76 62.63 62.24 61.58
45.65 43.86 43.90 44.14 43.68 42.56 42.61 41.84 42.07 43.18 43.30 44.01 43.71 42.00 41.93 41.97 42.07 41.94 43.01 42.77 42.34 42.23 43.61 45.88 50.04 49.22 50.63 51.92 54.09 57.17 57.67 60.05 58.81 58.56 59.30 59.44 62.76 63.96 64.62 64.01 63.33 62.45 62.65 62.36
45.60 45.38 45.36 44.84 44.90 43.11 42.74 43.90 43.57 42.62 43.27 43.29 43.58 42.14 41.17 41.38 42.51 40.81 41.38 41.00 41.79 42.93 44.93 45.97 46.73 47.54 48.92 49.40 53.12 51.82 57.47 56.39 54.57 53.28 53.95 55.36 56.53 57.03 56.71 55.62 59.64 59.44 59.26 58.76
45.57 45.89 45.42 44.89 43.78 43.83 43.73 44.51 44.60 43.80 44.10 43.10 41.05 40.89 40.65 41.07 41.97 40.86 39.67 39.26 41.97 44.33 44.86 45.96 46.03 45.88 46.49 46.87 47.01 48.42 48.25 47.82 47.71 48.73 47.79 46.76 47.86 50.25 51.19 51.35 51.58 52.43 52.67 52.99
43.26 43.46 43.10 43.46 42.40 43.03 42.73 43.11 44.64 45.53 43.72 42.02 41.51 41.13 40.71 40.47 41.09 41.40 41.96 41.10 42.79 44.64 43.98 43.95 44.61 46.57 45.26 45.53 43.41 44.77 43.57 43.59 45.14 44.19 44.36 45.08 45.26 43.33 44.48 45.35 44.45 45.22 46.16 46.43
42.81 42.99 43.53 41.81 41.28 41.16 42.31 42.14 43.87 43.64 43.10 41.77 41.03 40.31 39.83 41.08 41.57 40.43 39.90 43.70 44.17 44.00 42.97 43.36 44.90 45.13 44.21 42.21 41.73 40.97 41.01 40.67 39.95 39.82 40.89 41.96 41.77 41.85 41.59 41.33 42.48 43.17 42.68 42.82
41.03 42.58 43.77 42.39 40.38 38.75 40.55 40.96 42.68 42.79 42.29 42.76 41.84 41.37 40.62 40.46 41.66 43.39 44.03 45.18 45.39 44.27 43.38 43.66 43.47 43.36 42.80 41.13 40.54 40.75 40.29 40.05 40.03 39.88 39.93 39.50 39.72 40.30 40.47 40.39 40.52 41.34 41.62 41.42
43.08 43.33 45.24 43.15 41.31 38.54 40.66 41.51 41.58 41.02 40.69 40.47 40.54 41.25 41.34 42.14 41.72 42.87 44.23 44.46 45.56 44.47 44.01 44.60 44.22 43.69 41.60 40.53 39.82 39.59 39.66 39.88 40.32 40.53 40.16 39.42 39.14 39.10 39.41 39.61 39.69 39.99 40.09 40.49
41.75 41.13 41.74 43.45 43.88 41.33 40.76 41.00 40.23 40.45 40.46 40.08 40.89 41.60 42.33 42.10 42.50 42.60 43.71 44.70 42.99 43.46 42.54 43.09 42.82 41.88 42.19 41.97 41.23 39.97 39.22 39.22 39.59 39.72 39.42 39.71 39.88 39.86 40.10 40.33 40.22 40.17 39.82 40.01
43.14 42.16 41.47 42.37 43.96 42.96 40.72 40.33 39.37 39.01 40.84 40.17 40.82 43.02 42.12 41.95 42.54 42.72 43.51 43.48 42.71 41.42 41.39 41.03 41.56 42.60 40.99 40.70 40.95 41.44 41.22 40.62 39.47 39.72 39.90 39.95 40.07 40.22 40.20 40.20 40.08 40.08 39.95 39.39

GFSNGP_sfc_wetblb_063.txt.gz
Wetbulb
30.47 34.33 35.60 34.89 35.93 36.78 32.65 31.63 28.79 32.10 33.12 37.33 39.08 40.39 43.00 48.15 50.83 52.23 54.47 53.05 54.68 58.70 60.29 63.82 64.63 63.26 64.47 66.11 68.31 69.01 68.49 69.06 69.43 69.87 69.34 68.53 68.23 68.68 68.82 68.79 67.82 67.55 69.52 72.63
30.54 35.40 35.60 33.87 36.61 37.40 37.10 36.95 36.28 36.31 34.19 39.57 42.00 43.17 46.01 46.45 48.10 47.58 49.10 51.08 53.46 53.54 55.00 59.15 64.60 66.01 63.89 64.35 66.88 69.43 68.63 68.31 69.46 69.76 70.22 69.10 68.18 67.80 68.23 68.35 68.76 67.22 67.99 69.39
24.46 32.41 32.80 28.28 33.79 35.65 36.08 37.52 36.28 32.66 35.56 41.46 41.14 42.76 43.51 43.50 44.95 45.80 47.01 47.93 49.08 52.07 54.71 54.47 62.18 65.93 65.77 65.46 66.50 68.80 69.29 69.14 69.19 69.50 69.68 70.19 69.55 68.11 67.55 68.02 68.21 68.31 68.73 69.67
24.58 28.02 18.94 30.44 37.75 39.26 37.55 39.78 40.22 40.18 40.91 41.34 41.31 42.90 44.42 44.29 44.01 45.15 46.94 47.03 48.34 49.46 52.00 53.65 59.02 63.52 66.35 67.09 65.71 66.44 69.33 69.92 70.14 70.12 69.43 70.09 70.28 69.33 68.18 68.09 67.97 67.19 67.67 68.82
23.38 20.62 28.75 34.07 35.88 34.72 33.83 34.48 38.94 37.93 39.10 40.27 41.32 42.50 42.49 44.55 45.02 44.97 46.32 47.44 48.54 50.52 50.67 52.77 59.84 66.49 66.71 66.06 66.87 66.48 66.72 68.43 70.85 71.16 70.73 70.09 70.06 69.94 70.10 68.81 68.16 68.12 67.40 67.56
28.13 22.43 21.98 31.64 37.29 40.29 39.24 30.45 38.15 38.38 37.61 37.93 39.02 34.61 38.81 42.89 44.32 44.87 46.75 47.28 48.71 50.07 52.21 56.55 60.71 64.71 65.58 65.07 66.60 66.93 66.56 66.20 66.50 69.74 71.58 71.25 70.98 70.56 70.77 70.58 69.69 69.76 68.52 67.66
30.32 30.38 31.17 36.16 38.22 40.48 29.22 29.75 37.62 38.74 37.64 37.17 35.77 39.59 40.40 42.46 42.97 45.17 46.06 47.28 48.72 49.74 53.00 57.81 60.60 62.99 64.21 64.88 64.81 66.26 66.84 66.04 65.95 66.41 66.83 71.56 71.96 71.54 71.12 70.63 70.84 70.39 70.41 69.59
28.09 25.56 20.52 38.43 37.70 30.40 34.18 37.69 39.46 38.67 38.80 37.90 38.84 40.02 41.54 42.43 42.64 43.73 44.58 46.01 47.69 48.06 50.41 56.81 60.04 61.08 62.83 63.44 65.97 69.19 69.30 65.75 65.46 65.54 67.60 69.30 69.60 71.76 71.38 70.94 70.14 70.09 70.02 70.53
27.53 26.56 34.58 37.34 36.30 40.96 41.44 39.04 38.66 38.66 39.54 39.75 39.10 39.55 42.73 43.06 43.53 43.86 43.93 44.70 46.60 47.85 49.67 55.55 59.62 61.86 61.88 61.86 62.95 64.93 64.52 65.58 67.94 69.29 66.92 67.39 68.76 70.09 71.51 71.61 70.81 70.36 69.97 70.00
29.64 31.57 34.40 36.27 38.25 39.76 42.31 41.05 41.30 41.52 41.45 40.77 39.51 40.85 42.44 44.70 44.06 43.97 45.09 44.86 46.56 47.58 49.49 53.47 58.71 61.60 60.69 60.59 61.72 61.08 61.60 63.47 64.62 65.81 68.41 71.65 71.47 71.07 70.83 71.44 71.12 70.85 70.41 69.95
33.93 34.32 35.66 38.03 39.12 40.11 41.27 43.24 41.88 42.34 42.14 41.31 41.65 41.92 42.65 44.83 46.07 46.59 47.50 47.92 47.90 48.40 49.46 53.64 57.99 58.82 59.46 59.27 57.97 57.32 58.72 61.26 62.12 64.53 67.90 70.92 71.67 70.92 71.40 72.28 70.93 71.35 71.40 71.41
28.84 34.05 33.60 34.33 39.38 41.68 41.33 42.26 42.25 41.76 41.22 42.60 42.84 42.05 43.24 43.29 45.40 45.57 47.02 47.31 48.18 48.33 49.53 53.50 56.30 56.79 57.29 56.10 55.35 54.88 56.50 59.45 60.43 61.96 64.27 67.88 71.01 69.83 52.37 56.02 55.01 55.42 56.22 66.40
34.80 36.83 37.80 39.30 41.18 42.78 41.93 42.89 43.51 42.49 42.10 41.26 42.15 41.89 42.29 42.91 44.97 45.89 46.47 46.60 47.13 48.85 51.00 54.59 53.01 53.10 53.85 53.31 52.93 52.89 53.59 56.18 58.39 59.26 62.32 64.97 69.09 71.45 69.62 60.14 48.56 50.01 48.74 51.46
39.47 37.68 38.14 40.24 39.16 41.22 42.62 43.34 44.96 42.54 43.19 42.61 42.31 42.23 42.61 42.64 43.97 43.75 44.37 46.11 46.47 47.33 51.90 50.66 50.44 51.15 51.66 52.17 51.76 51.79 52.53 52.75 55.86 57.56 60.06 63.59 67.31 71.10 72.38 70.21 69.54 68.80 54.87 53.28
40.42 40.93 41.27 40.93 40.33 41.04 42.17 43.25 42.38 39.94 41.82 41.52 42.28 41.94 42.37 42.16 41.80 42.73 44.91 45.76 46.15 45.94 46.72 45.08 46.36 46.22 48.78 49.61 50.33 50.80 51.67 54.19 56.84 58.37 60.25 62.56 66.01 69.34 72.71 71.47 71.21 70.48 64.77 53.64
40.40 40.40 40.28 39.66 40.05 40.08 40.92 41.25 40.91 39.63 40.25 40.42 41.84 42.17 42.31 42.89 42.97 43.05 44.57 45.05 43.96 43.81 45.02 45.28 45.58 46.49 47.66 48.52 50.03 51.18 52.01 54.17 55.22 56.38 57.46 61.69 64.21 67.90 71.68 72.12 71.31 71.16 69.25 69.02
37.71 37.19 37.27 37.50 38.10 38.70 39.65 40.99 41.62 40.52 41.27 40.90 42.15 43.33 42.26 41.99 41.83 41.70 42.73 44.52 44.36 44.58 46.15 46.25 46.05 48.11 49.12 50.68 51.10 51.73 52.40 53.84 54.93 56.20 57.04 61.98 64.73 67.96 71.36 70.65 70.24 70.56 69.66 65.70
42.40 42.14 39.72 39.45 39.66 40.09 40.76 41.67 41.61 41.88 42.30 41.84 43.24 44.01 41.89 41.04 40.37 41.10 41.10 42.49 43.08 43.04 44.29 45.54 45.82 47.06 49.87 49.43 50.73 52.35 53.47 53.43 55.04 56.18 59.53 63.56 65.28 68.23 69.79 69.57 69.48 68.21 64.25 59.74
43.61 43.26 43.29 42.82 42.37 41.87 41.42 41.30 40.92 41.45 43.36 42.19 42.03 40.99 41.28 41.16 41.25 40.25 40.74 41.05 40.77 40.47 42.12 44.49 47.60 48.24 47.91 49.70 52.40 52.49 52.22 55.04 56.28 58.49 59.71 59.16 64.03 66.54 67.49 68.41 66.63 64.98 64.62 62.67
43.89 44.18 44.20 43.88 44.37 43.34 42.26 41.94 41.81 43.27 42.07 40.64 40.34 40.47 39.75 40.30 40.48 40.35 40.37 39.60 40.58 42.36 44.24 44.42 46.08 46.05 46.22 47.55 49.76 48.65 49.02 51.36 53.90 52.48 51.64 53.04 55.11 56.60 58.41 56.18 63.24 63.69 63.85 62.49
44.69 44.95 44.53 44.46 43.78 43.70 43.36 42.27 42.15 42.46 40.99 40.13 39.02 39.39 40.48 41.40 41.84 41.65 39.94 38.33 41.00 43.84 44.01 45.50 45.08 44.94 45.67 44.68 44.12 45.37 45.05 45.89 45.85 47.33 46.37 45.92 46.99 47.51 47.89 48.45 49.93 53.97 54.83 53.65
42.75 42.84 43.73 42.98 41.89 40.57 41.55 41.46 42.31 43.57 40.81 39.49 39.44 39.81 40.07 40.82 41.56 42.23 42.42 41.22 42.12 44.29 43.22 43.25 44.07 45.89 44.64 44.12 41.83 41.68 42.45 42.07 41.74 43.53 44.05 44.70 43.01 43.00 44.30 44.84 45.74 46.84 47.76 48.72
41.58 41.88 41.98 41.62 40.69 38.87 40.57 41.07 42.62 42.71 40.58 39.33 39.27 39.48 39.36 40.89 42.04 41.06 40.01 42.84 43.09 43.25 42.44 42.67 44.33 44.54 43.73 41.38 41.35 40.75 40.48 40.28 40.43 40.51 41.01 41.98 43.24 42.47 41.50 41.72 42.44 42.98 44.30 44.55
40.92 40.81 39.90 40.76 39.70 38.18 38.78 40.30 41.48 41.75 41.86 41.15 40.78 40.67 40.05 39.94 42.08 44.12 44.79 45.05 44.29 43.29 42.75 43.24 42.87 43.20 41.98 40.22 40.43 39.97 39.52 39.94 40.19 39.99 41.12 40.69 41.89 41.20 41.22 41.76 41.83 42.32 42.71 42.12
44.88 44.85 43.79 40.89 38.43 37.76 38.60 39.91 40.09 39.05 39.12 38.86 40.32 40.68 41.13 41.20 40.83 42.52 43.33 43.72 44.41 43.86 42.38 43.30 43.68 42.62 40.30 40.07 39.57 39.37 39.40 39.57 39.79 40.32 40.52 40.50 40.40 39.91 39.78 40.37 40.25 40.68 41.32 41.67
43.93 43.01 42.59 41.06 38.51 39.03 39.48 39.66 38.93 38.88 39.06 39.06 39.91 41.63 42.01 42.05 41.80 41.98 42.67 44.08 41.64 42.75 42.71 42.49 41.66 41.45 41.11 40.49 40.05 39.68 39.55 39.91 40.19 40.19 40.30 40.22 39.70 39.48 39.40 39.50 39.94 39.91 39.86 39.89
42.20 42.39 42.16 40.85 42.80 41.29 39.84 39.15 38.74 39.11 39.97 39.03 39.68 40.90 40.94 41.33 41.97 41.96 42.92 41.63 40.54 39.95 39.99 40.72 41.23 41.46 41.35 41.26 40.98 41.07 40.83 40.27 39.75 40.27 40.59 40.10 39.86 39.65 39.34 38.98 38.82 38.64 38.77 38.79

GFSNGP_sfc_wetblb_066.txt.gz
Wetbulb
30.44 34.44 34.93 34.12 34.76 35.61 31.90 31.79 29.68 31.95 34.04 36.93 38.96 40.78 43.57 45.36 46.86 47.31 47.79 49.92 50.98 52.14 53.75 54.80 60.72 66.44 66.86 65.79 67.90 68.51 68.69 68.87 68.56 68.92 69.12 68.81 68.77 69.33 70.11 69.35 69.47 69.72 69.93 72.10
28.89 34.52 34.26 33.04 35.50 36.47 35.99 36.03 34.88 35.18 34.96 40.16 41.98 43.92 43.70 43.39 44.81 45.17 46.00 47.16 49.04 50.22 52.27 52.73 56.16 59.12 65.32 66.10 65.57 68.33 68.20 68.40 69.83 69.90 69.70 68.87 68.57 68.61 69.19 69.77 69.45 68.87 69.18 70.24
22.24 31.19 30.97 27.34 32.26 34.27 35.49 36.79 35.85 32.16 36.14 40.65 39.94 40.96 41.70 42.52 43.23 43.92 44.81 46.29 46.87 48.56 50.35 51.63 53.86 58.03 62.59 65.86 67.56 66.61 68.04 68.68 69.00 70.14 70.01 69.83 69.48 68.75 68.35 68.59 69.64 69.10 68.55 69.11
23.60 24.34 18.03 28.88 36.97 37.64 37.02 38.73 38.36 38.95 38.65 39.18 39.19 40.52 41.95 44.39 42.59 42.59 43.57 44.92 45.97 47.25 49.25 50.58 52.78 58.18 64.35 67.04 67.11 66.82 67.66 69.20 69.42 69.40 69.67 70.07 70.29 69.14 68.57 68.68 68.61 68.63 69.17 69.24
21.77 17.91 27.14 32.95 34.86 33.69 32.80 33.69 37.56 36.83 37.67 38.39 39.37 40.35 41.88 44.04 43.51 42.66 43.29 44.77 46.11 47.67 49.10 50.17 52.64 58.64 63.60 65.66 66.49 67.40 67.33 68.28 70.37 69.72 69.46 69.70 69.81 70.16 69.81 68.92 68.50 68.78 68.94 68.99
23.10 22.49 21.76 31.01 36.82 39.10 38.15 30.54 36.92 37.67 37.04 36.93 37.59 32.30 37.98 42.01 42.78 42.82 44.06 45.04 45.74 47.25 48.32 49.03 50.89 57.40 61.07 62.20 65.37 65.73 67.31 67.87 68.32 69.17 70.94 70.08 69.61 70.29 70.87 70.71 69.51 69.41 69.27 68.95
26.46 25.70 29.73 35.28 37.71 40.26 27.79 29.27 37.01 38.14 37.81 37.65 35.54 37.74 40.14 42.08 42.22 43.60 44.19 45.59 47.08 47.16 46.86 47.90 50.27 53.50 57.94 59.82 62.12 66.87 68.61 68.33 67.46 67.35 68.12 71.69 71.70 71.27 71.26 71.07 71.10 70.18 69.56 69.92
28.50 25.25 19.18 38.17 36.77 30.95 33.47 36.71 38.36 38.29 38.62 37.79 39.19 40.02 40.66 41.42 41.50 42.62 43.98 46.53 47.23 46.10 46.17 47.71 49.58 51.41 55.09 58.55 62.69 66.35 65.82 66.51 67.18 67.33 67.17 68.91 69.87 72.07 71.80 71.03 70.43 70.34 70.29 70.36
25.21 24.74 33.34 37.43 35.87 38.49 39.19 38.20 39.21 39.56 39.64 40.24 40.23 40.10 40.81 40.50 41.41 43.25 45.52 46.86 46.79 45.63 46.08 47.72 49.40 50.83 52.86 57.57 63.91 63.89 64.47 63.94 64.25 66.04 68.21 68.07 68.00 68.62 71.34 71.71 70.82 70.29 70.15 70.09
27.97 30.87 33.50 35.90 38.17 39.82 40.33 39.47 41.11 41.48 41.16 41.23 40.17 40.95 40.80 41.27 42.01 43.88 45.90 46.69 46.88 46.69 46.64 47.32 49.53 51.02 52.44 56.68 61.86 61.99 61.44 62.09 63.37 63.64 64.14 66.80 69.52 68.27 68.20 70.88 70.86 70.82 70.33 70.32
33.85 33.55 34.49 36.52 38.34 39.60 40.01 41.27 41.79 43.39 42.34 40.65 41.28 41.40 42.03 42.36 42.92 43.93 44.88 46.59 47.44 46.65 46.47 47.66 49.96 50.71 51.84 54.95 59.83 59.49 58.83 60.20 62.10 62.98 63.56 64.31 67.96 70.01 70.55 69.68 69.87 71.53 71.52 71.67
28.22 33.51 33.56 34.41 38.94 41.11 40.41 40.82 42.15 42.46 41.13 42.88 42.54 41.46 41.64 41.40 42.29 43.03 43.97 45.89 46.15 46.26 46.45 47.32 48.92 50.27 51.77 54.67 58.22 56.85 56.64 57.80 59.44 61.58 62.06 63.42 64.22 66.58 58.69 56.64 52.33 52.12 56.68 66.91
34.56 36.06 36.97 38.74 40.29 41.77 41.31 42.19 43.30 43.36 42.74 41.92 42.33 42.90 42.60 41.65 42.12 43.74 44.25 44.55 45.15 45.41 46.47 46.91 47.96 51.45 52.67 56.00 55.74 54.26 53.74 54.99 56.72 56.91 59.61 61.20 62.47 63.69 65.02 66.08 52.35 49.63 48.18 49.27
38.07 38.86 37.29 39.44 38.94 41.53 42.10 43.03 44.05 43.99 44.02 42.57 42.19 43.00 42.67 42.26 42.90 42.69 43.07 44.02 45.01 45.75 46.01 46.49 47.46 47.62 51.36 53.52 52.94 52.52 52.86 51.40 53.85 55.27 57.25 60.02 61.93 63.36 65.53 66.77 69.78 70.20 54.65 53.80
38.95 39.65 40.12 40.15 40.59 41.00 41.74 42.07 41.53 41.60 42.15 41.28 42.02 42.32 42.98 42.47 41.68 42.13 43.90 43.88 44.49 45.24 45.28 46.05 46.31 46.81 48.71 49.25 49.18 49.73 50.88 52.19 53.21 54.47 56.20 58.44 61.11 61.94 63.19 63.95 66.88 71.07 70.13 54.53
40.36 40.27 40.29 39.82 40.55 40.70 40.53 40.57 40.20 40.65 41.39 41.32 42.18 42.52 43.42 43.67 42.79 42.55 42.99 43.42 42.19 42.01 44.15 44.55 45.21 47.48 48.35 49.10 49.01 49.17 49.98 51.89 52.46 53.18 54.61 56.58 59.18 60.95 62.42 64.40 66.15 69.90 71.86 71.43
38.48 37.44 38.10 38.34 38.69 39.11 39.33 40.63 40.91 40.61 41.22 41.87 43.37 42.65 42.99 42.52 41.89 41.17 42.08 41.83 41.83 42.32 43.81 44.09 44.08 46.90 46.86 47.88 47.87 49.03 49.93 50.63 52.13 52.71 53.72 55.55 57.63 60.29 61.67 63.26 65.26 69.36 70.97 71.09
41.60 41.15 40.98 40.65 39.73 39.46 40.32 41.40 41.94 41.49 42.27 44.32 42.12 40.63 40.87 40.15 39.28 39.51 39.93 40.98 41.36 41.75 42.34 43.86 44.92 46.13 47.22 48.21 49.26 49.80 49.77 50.86 51.47 51.56 53.62 55.13 57.32 60.61 62.02 63.16 65.23 67.76 70.58 69.52
42.75 42.14 42.31 42.30 41.90 41.42 41.61 42.00 41.56 41.63 43.66 41.01 40.21 39.98 41.36 41.39 41.39 41.22 41.51 40.44 39.50 39.05 41.11 44.08 46.35 47.46 46.43 47.65 49.42 49.99 50.56 50.82 50.62 51.64 52.96 54.20 56.14 58.58 62.47 63.18 64.78 67.31 69.90 66.56
43.91 44.23 43.72 43.53 44.93 43.38 43.20 44.09 42.59 41.91 41.18 40.35 40.46 39.53 40.52 41.37 42.05 42.19 41.18 40.09 39.96 40.83 42.57 43.48 44.65 44.56 45.82 46.27 48.50 47.83 48.73 49.43 49.60 51.93 54.25 53.98 56.08 58.66 60.68 57.89 62.92 66.35 66.75 64.14
44.08 44.88 44.80 44.58 44.31 44.75 44.13 43.21 42.23 42.01 40.81 40.52 39.73 39.40 40.03 41.62 42.49 42.45 40.12 38.67 40.76 43.01 41.91 43.23 43.04 43.55 45.17 45.73 44.16 44.16 44.36 44.40 45.62 45.58 46.63 45.83 46.41 48.03 49.59 51.15 53.32 56.06 55.11 51.94
43.59 43.50 44.49 44.53 43.67 42.73 42.11 42.14 42.48 42.96 40.65 40.15 40.09 40.44 40.63 41.23 42.06 42.12 42.77 41.29 41.69 43.78 42.12 41.31 42.26 44.03 43.81 44.45 42.78 42.28 42.52 41.97 41.60 41.84 41.99 43.65 43.34 43.01 44.29 46.01 47.42 47.93 46.06 44.62
44.15 43.98 43.71 42.27 42.48 42.64 41.26 41.39 43.01 42.90 41.36 40.25 39.65 40.15 40.82 41.66 42.57 41.72 39.45 43.19 42.88 42.53 41.98 41.77 43.33 43.57 42.99 41.02 41.43 41.43 41.36 41.06 40.82 40.69 40.76 41.00 41.68 42.42 42.12 42.29 43.60 44.42 42.76 41.46
41.53 42.17 43.07 43.24 42.61 41.60 40.49 41.10 43.36 42.64 41.95 41.37 41.54 41.23 40.88 40.23 41.96 44.58 45.03 44.66 44.56 42.64 42.08 42.82 42.59 42.53 41.48 40.00 40.45 40.27 40.10 40.54 40.40 40.36 40.08 39.97 40.05 40.66 41.59 42.58 42.02 41.00 40.07 39.63
44.03 44.96 44.99 44.17 42.43 40.80 41.95 43.16 42.07 41.68 41.60 41.01 41.13 41.99 42.44 43.74 41.67 43.11 43.12 44.56 44.28 43.20 42.04 43.22 43.16 42.51 40.27 39.45 39.06 39.04 39.92 39.45 39.95 39.74 38.94 38.70 38.63 39.04 39.79 40.15 40.87 41.43 41.00 41.13
41.00 42.85 44.05 43.42 42.20 41.17 42.07 43.25 41.12 40.50 40.53 40.82 42.55 42.60 42.48 43.22 43.07 42.90 43.11 43.44 42.60 43.62 43.00 42.71 42.32 41.45 41.06 40.69 39.61 37.99 38.04 39.17 39.55 38.60 38.36 38.44 37.64 37.19 37.76 38.22 38.79 39.59 40.37 40.99
40.32 41.60 42.35 42.43 44.26 43.68 43.65 42.54 41.18 40.81 41.40 41.11 41.54 42.54 43.16 42.76 42.34 42.04 42.49 41.84 40.99 41.21 41.96 42.68 42.96 42.55 42.22 41.85 40.90 39.97 38.85 37.76 36.96 37.74 37.74 37.16 36.65 36.33 35.96 35.53 36.56 37.96 38.60 38.74

GFSNGP_sfc_wetblb_069.txt.gz
Wetbulb
39.48 39.91 40.32 39.67 39.22 40.14 39.88 40.38 39.76 40.50 41.37 43.77 46.83 47.23 47.67 48.98 49.82 49.02 47.60 48.13 48.70 49.24 50.86 52.52 54.76 59.75 65.32 68.35 68.93 70.90 71.73 71.66 71.71 72.90 72.73 71.55 72.23 74.76 74.21 74.08 74.14 74.97 74.47 74.94
36.57 39.20 39.43 37.84 39.16 39.56 39.67 40.23 40.62 41.26 41.03 45.48 46.84 48.32 48.38 48.32 48.58 48.47 48.67 48.38 47.97 48.58 49.60 50.26 52.44 55.02 60.73 65.86 67.73 69.04 69.34 71.18 73.14 73.67 74.07 73.72 73.67 73.21 74.68 74.23 74.02 74.56 73.83 73.97
33.61 37.15 37.14 34.55 37.78 38.84 40.35 42.47 41.91 39.90 42.28 44.71 44.92 45.36 45.82 46.59 48.03 47.34 47.51 48.48 48.89 48.45 48.22 49.60 50.86 52.48 58.21 63.80 67.75 68.49 68.99 69.47 71.80 73.18 73.40 73.89 73.49 73.65 73.78 73.83 74.37 73.67 73.82 74.13
34.61 35.20 27.76 37.22 41.41 40.64 40.92 41.22 43.06 43.42 42.50 42.80 43.02 44.62 46.35 48.28 47.23 47.14 47.17 47.78 48.83 50.03 49.99 50.24 50.67 51.47 55.66 60.99 63.66 66.61 70.04 69.15 70.97 72.27 72.50 73.57 73.35 73.17 73.38 73.42 73.76 73.82 73.61 74.37
33.38 32.10 34.11 36.36 38.57 38.29 38.72 37.49 40.31 40.21 41.63 42.56 43.51 45.35 46.61 47.37 47.63 46.98 47.31 48.25 49.16 50.68 51.62 52.64 52.27 51.52 51.69 55.90 60.26 62.45 67.16 69.87 71.39 72.20 72.16 72.57 72.57 73.66 73.44 72.75 72.71 73.25 73.39 74.00
35.44 30.38 29.16 37.05 39.45 42.03 42.17 35.93 40.36 40.73 40.48 41.17 42.13 40.28 45.01 47.00 46.55 46.57 47.85 48.41 48.80 50.51 52.30 52.77 53.01 52.19 51.43 52.50 56.59 60.22 62.95 67.66 69.81 71.43 70.96 72.82 72.92 73.34 73.86 73.88 72.89 72.79 72.60 73.49
35.65 33.93 36.24 40.74 40.86 43.36 34.15 36.15 40.92 41.06 40.84 40.55 39.49 41.39 43.83 45.75 45.97 47.17 47.41 47.87 49.54 50.67 51.58 52.57 53.25 53.16 51.81 51.29 51.95 57.49 62.05 67.31 67.63 68.71 70.64 71.17 71.80 74.45 73.74 73.55 73.69 73.67 73.00 73.56
33.50 31.17 29.44 42.90 40.26 37.06 40.35 41.79 41.87 41.91 41.57 40.63 42.24 43.37 44.37 45.33 45.70 46.39 46.29 47.19 49.03 50.18 51.02 52.39 53.22 53.00 52.69 52.30 52.73 56.71 60.01 65.07 65.88 66.84 68.22 70.13 71.58 71.35 74.16 74.38 74.02 73.61 73.73 73.15
36.52 37.02 40.92 43.66 42.44 44.17 43.50 41.58 42.42 42.36 42.11 42.53 42.45 42.97 43.81 44.41 45.26 45.63 46.39 47.29 48.76 49.27 50.69 51.75 52.86 53.22 52.55 54.26 54.84 54.57 59.17 63.77 63.69 65.34 67.16 68.62 70.62 71.11 71.01 71.37 72.89 73.26 72.51 72.42
35.72 40.32 40.39 42.69 43.97 44.40 44.82 43.61 44.15 44.07 43.50 43.93 43.16 43.65 43.45 43.91 43.45 44.45 44.39 44.64 46.66 47.80 48.56 49.26 51.39 52.22 52.59 53.73 55.52 54.06 55.63 60.89 62.63 62.74 64.43 66.72 67.60 69.48 70.23 70.50 70.94 71.71 72.32 72.19
38.10 41.00 40.86 42.26 43.98 45.10 44.97 45.46 44.93 45.81 45.94 45.40 44.15 43.65 44.17 43.99 43.24 43.09 43.09 43.65 44.41 45.62 47.04 48.84 50.69 50.95 51.86 52.49 53.67 54.57 53.56 58.00 60.63 61.15 62.54 64.84 66.09 67.16 69.81 71.58 70.23 71.02 72.45 73.42
39.52 43.41 43.65 43.00 45.18 46.07 45.06 44.88 46.25 46.38 46.13 46.90 46.58 45.45 45.22 44.45 44.17 43.44 43.88 44.97 45.04 45.64 46.22 47.27 48.84 49.42 50.90 52.58 53.53 54.82 54.22 55.90 58.03 58.83 60.62 62.76 64.52 64.62 57.27 55.66 54.33 53.62 54.52 61.65
43.17 45.19 44.92 45.79 46.35 46.98 45.96 46.41 47.14 47.19 47.61 46.55 47.20 47.01 46.39 45.78 46.48 46.19 44.97 45.32 44.92 45.00 45.79 45.71 46.51 47.49 50.15 51.63 52.06 54.13 54.42 56.51 56.93 56.48 58.11 59.59 62.06 64.04 63.35 62.48 53.26 50.72 49.09 50.54
45.22 44.32 43.04 44.50 45.04 47.25 47.35 47.70 47.39 48.20 48.12 48.18 47.98 48.09 47.17 46.46 46.52 45.37 44.73 44.65 45.53 45.21 44.79 45.08 45.56 47.60 49.35 50.46 51.14 50.85 53.12 52.42 55.07 55.60 56.17 57.63 59.38 62.69 64.07 63.83 64.82 66.80 55.96 53.12
44.17 45.54 46.67 47.00 47.48 47.23 47.55 47.59 46.89 46.71 47.42 47.56 48.14 46.86 46.45 46.01 45.16 45.16 44.91 44.32 44.01 43.93 44.17 44.13 43.95 45.32 47.76 49.22 49.45 49.49 50.46 51.27 53.09 54.17 54.93 55.94 57.07 58.94 62.64 63.49 63.89 64.57 66.75 61.76
45.65 45.35 45.21 45.04 46.44 47.06 47.15 46.97 45.87 46.44 47.28 47.35 46.93 46.18 46.58 45.44 44.05 43.93 43.69 43.49 41.01 40.24 41.45 42.92 43.19 45.16 47.78 48.27 48.19 47.85 49.27 50.82 51.51 52.60 54.01 55.13 56.02 56.60 58.70 61.12 62.72 63.77 64.77 67.29
43.94 43.36 44.46 44.70 46.03 46.70 46.64 47.47 47.44 47.53 47.70 47.06 45.93 45.61 45.09 44.17 43.27 42.53 43.00 43.01 42.84 42.05 42.66 42.66 42.66 44.69 46.48 46.87 46.66 47.42 47.98 48.86 50.83 52.53 53.41 54.00 53.66 54.83 57.48 60.12 61.95 63.45 64.85 66.39
48.51 49.11 48.78 48.09 47.27 45.97 46.95 47.11 47.65 48.08 47.66 47.59 45.51 45.02 44.16 42.89 42.03 42.17 43.16 43.97 42.18 41.71 41.94 42.71 44.03 45.05 46.33 47.24 47.58 48.00 48.41 48.97 49.82 49.55 51.12 52.44 53.91 55.25 56.41 58.37 61.93 63.59 64.20 64.56
49.06 48.71 48.87 48.08 48.11 48.09 48.34 48.02 48.16 48.92 48.23 46.84 45.49 44.61 44.54 44.82 44.10 44.48 45.30 42.58 40.77 39.21 40.68 43.01 44.47 45.26 44.78 46.76 48.05 48.30 48.66 48.44 49.07 50.06 51.08 51.29 53.00 54.36 55.53 56.45 59.49 63.51 65.45 65.08
49.58 49.91 49.64 49.15 49.60 48.71 48.55 49.88 49.65 48.33 47.76 46.73 45.67 45.01 44.40 45.27 45.20 45.30 44.13 41.42 42.14 41.29 43.16 42.60 43.21 42.71 43.80 45.77 47.44 47.08 47.22 47.65 48.48 49.37 50.66 51.54 52.58 53.90 55.18 53.47 57.41 61.93 65.21 66.10
48.98 49.58 49.36 49.29 49.06 49.80 49.87 50.38 48.98 47.81 47.20 46.48 45.63 45.06 45.45 46.08 45.13 45.67 42.35 40.19 43.03 43.43 43.33 43.67 42.31 42.31 43.88 45.36 44.32 43.86 43.88 44.92 45.83 47.42 48.07 49.41 50.68 50.53 51.86 53.08 53.89 55.91 59.65 61.25
47.97 47.66 48.18 48.83 48.69 49.08 49.82 49.23 48.92 49.07 47.35 46.41 46.26 46.03 45.89 45.63 46.03 46.40 45.15 42.60 44.19 44.12 42.87 42.12 42.17 43.72 42.26 42.69 41.08 41.74 42.46 42.58 42.81 43.15 43.86 45.55 45.96 45.78 46.49 47.03 48.80 47.97 47.12 46.74
48.03 47.30 47.16 45.70 45.84 46.36 47.41 47.90 48.56 48.92 47.44 46.61 45.98 45.90 45.74 46.19 46.60 45.64 43.67 45.03 45.81 43.94 42.69 42.41 43.72 43.62 42.17 39.09 38.53 38.33 40.22 41.12 41.14 41.22 41.60 42.68 43.87 44.18 43.42 43.26 43.44 42.73 41.72 41.19
47.31 47.61 46.09 47.17 46.62 45.75 44.71 46.26 48.26 49.02 48.19 47.43 46.97 47.26 46.66 46.18 46.78 48.20 48.89 46.37 44.22 43.55 43.07 43.36 43.11 42.96 41.56 38.21 36.40 35.91 35.91 37.08 39.04 38.83 40.01 40.44 41.71 43.32 42.64 41.53 40.73 40.88 41.06 40.50
46.60 46.45 45.27 43.61 40.99 43.69 42.76 45.26 46.93 47.37 47.18 47.09 47.38 48.33 48.10 48.97 46.45 46.90 46.98 47.61 44.13 44.44 43.82 43.72 43.58 42.94 41.02 39.78 37.98 35.06 35.34 35.58 34.68 36.60 37.19 38.96 39.35 39.93 40.55 40.76 40.99 41.24 41.57 41.17
46.28 46.45 46.70 46.02 44.49 43.11 43.65 46.53 45.92 46.54 46.87 46.60 47.87 48.85 48.98 48.54 47.89 47.72 46.97 45.60 46.19 44.61 45.04 44.48 44.46 43.66 42.69 41.18 40.06 38.60 35.83 34.94 35.40 33.38 33.49 35.43 38.26 38.90 38.85 39.34 39.67 39.68 39.80 39.91
45.88 43.80 46.18 46.07 46.88 45.05 45.45 45.04 45.22 45.62 46.90 47.63 46.65 47.12 46.96 46.71 46.50 46.12 44.39 45.71 45.60 45.52 45.48 45.91 44.83 44.09 43.78 42.77 41.71 40.51 39.81 36.63 35.38 35.14 33.22 33.53 34.95 36.67 37.15 37.37 37.34 38.18 38.74 38.21

GFSNGP_sfc_wetblb_072.txt.gz
Wetbulb
43.45 43.89 44.78 44.44 43.81 44.28 45.97 47.32 46.45 47.70 47.56 50.33 51.93 52.13 52.88 54.25 53.55 49.41 49.25 50.03 50.92 50.49 51.08 53.39 53.77 54.87 59.18 64.85 68.29 72.01 72.61 73.82 74.13 74.85 75.39 75.49 75.74 76.32 76.50 76.36 76.20 76.39 76.28 76.74
42.38 43.56 44.06 42.62 43.44 43.56 43.84 44.92 46.85 48.35 46.37 51.49 52.37 53.34 52.68 52.98 53.02 52.61 51.81 50.53 51.18 52.13 51.82 51.51 52.64 53.31 55.32 57.90 64.22 67.51 71.39 71.99 73.22 75.37 75.63 75.52 75.66 75.28 76.31 76.40 76.44 76.44 75.77 75.53
41.10 42.44 41.74 39.52 43.85 43.43 44.61 46.04 46.64 45.25 48.43 49.92 49.83 49.75 50.09 51.02 52.60 52.23 51.98 52.77 53.28 51.29 51.24 53.10 53.96 55.59 53.83 55.92 61.18 63.18 65.03 71.31 72.73 73.19 74.63 75.37 75.90 75.75 75.24 75.10 76.35 76.70 76.04 76.00
43.70 41.15 33.71 42.82 46.32 45.79 45.47 45.89 47.90 48.08 47.66 48.09 48.54 49.83 51.17 53.10 51.50 51.29 51.62 52.13 53.13 53.91 54.13 53.79 54.35 54.18 56.54 56.85 57.85 60.01 62.40 66.57 70.69 72.25 73.14 74.32 75.35 74.99 75.62 75.69 75.48 76.11 76.41 77.31
38.49 38.42 40.05 40.83 43.31 43.68 44.29 43.20 46.04 46.35 46.48 47.32 48.43 49.79 51.35 51.81 51.64 51.25 51.71 52.55 53.12 54.20 54.96 56.74 57.54 55.96 55.33 54.36 54.06 55.54 58.77 62.10 66.70 67.50 72.21 72.86 73.71 74.90 74.60 74.97 75.29 75.30 75.62 76.56
39.98 36.19 33.93 43.24 44.24 46.60 46.72 41.07 46.11 46.40 45.93 46.12 47.99 44.76 48.58 50.77 50.91 51.35 52.33 52.88 52.88 53.60 54.65 55.98 57.49 57.89 57.19 57.23 55.13 53.79 55.18 58.32 62.02 67.71 68.04 70.22 73.27 75.35 76.98 75.70 75.19 75.05 75.39 76.19
39.86 38.18 41.84 45.25 45.19 47.58 37.62 41.46 46.72 46.42 46.67 46.65 45.95 47.14 48.98 50.41 50.59 51.69 51.88 52.15 52.98 53.45 53.87 55.61 57.03 57.10 56.69 57.77 57.84 57.68 56.74 57.33 59.93 64.99 67.11 66.48 70.10 74.85 74.77 76.05 76.61 75.95 75.03 76.24
41.10 37.76 34.47 47.65 45.02 41.72 46.29 47.23 46.73 46.46 47.06 46.62 46.77 47.02 48.01 49.03 49.42 50.35 50.74 51.36 51.99 51.97 52.98 54.87 56.17 56.16 55.90 56.33 58.15 58.73 58.19 56.01 56.67 59.45 64.58 64.74 68.49 67.86 72.97 75.90 75.80 75.65 76.53 75.20
41.79 43.48 46.04 49.04 47.17 48.53 47.41 46.86 46.54 47.13 46.91 46.89 46.01 46.82 47.72 47.99 48.93 49.26 49.61 49.74 50.12 49.66 50.28 52.15 54.42 55.35 54.48 56.12 57.29 57.42 57.58 58.43 56.85 59.23 62.41 65.35 66.81 68.04 66.84 72.33 73.22 75.13 75.67 73.91
41.18 44.56 45.78 48.03 48.36 48.40 48.28 47.65 48.17 47.78 47.67 47.62 46.65 47.55 47.40 48.21 48.39 48.42 49.13 48.81 49.49 48.17 48.64 49.53 52.20 53.47 54.53 55.65 56.43 56.24 55.89 57.27 58.71 56.31 58.79 63.12 63.73 65.53 66.85 66.26 70.38 71.95 72.87 74.51
43.51 45.64 45.80 47.40 48.69 49.16 48.68 48.70 48.14 48.14 48.14 47.70 47.89 47.59 48.04 48.23 48.54 48.95 49.58 49.28 48.60 47.63 47.10 48.53 50.53 50.81 51.59 53.24 54.05 53.74 54.95 55.85 57.50 59.10 59.30 61.16 63.27 64.19 66.18 66.96 66.04 70.35 72.77 74.17
43.50 47.92 47.49 46.35 49.84 50.14 48.72 48.17 48.85 48.23 48.19 49.08 48.85 48.43 49.05 49.14 49.59 48.88 49.07 48.05 47.18 48.84 47.45 47.54 48.84 49.55 51.49 51.93 50.87 51.23 52.70 54.43 56.04 58.21 59.21 60.21 61.00 61.93 56.89 55.52 54.57 52.98 51.76 57.21
47.76 49.66 49.53 49.42 49.88 50.45 49.32 49.67 50.07 49.75 49.79 48.99 49.55 49.70 49.67 47.94 48.03 48.92 47.72 47.27 47.73 47.14 46.43 47.47 47.30 47.02 49.03 51.43 49.57 49.78 49.40 52.20 54.57 54.23 58.80 59.70 60.16 59.99 59.88 61.62 51.48 50.01 49.50 49.87
50.82 49.63 47.31 48.46 47.68 50.12 50.20 50.55 50.07 50.45 50.56 50.78 50.64 50.98 49.83 49.55 50.10 49.33 47.17 46.56 48.23 47.23 46.83 46.22 45.54 45.71 47.60 49.25 49.28 49.31 49.26 48.73 51.81 53.77 54.35 56.54 58.74 59.40 59.69 61.10 62.54 64.75 55.69 53.08
49.87 49.95 49.58 50.65 50.26 50.48 51.10 50.75 49.79 49.45 49.92 50.05 51.29 50.38 50.02 49.45 48.64 48.13 47.24 46.98 47.39 46.94 44.85 44.57 44.69 44.37 46.13 47.14 48.68 48.54 48.98 49.27 50.33 52.72 54.82 54.55 56.58 57.27 57.99 59.20 61.23 63.17 65.58 60.73
50.28 49.90 49.56 49.06 49.41 49.99 50.22 49.87 49.11 49.08 49.53 50.17 50.03 50.07 49.91 49.75 48.93 48.21 46.48 46.45 45.02 45.47 45.85 43.85 43.55 44.16 44.86 45.53 46.28 46.04 47.09 48.73 50.05 51.35 52.12 53.20 55.54 56.60 57.88 58.16 59.37 61.26 62.77 64.63
47.98 47.70 48.03 47.66 48.59 49.30 49.84 50.48 50.37 49.81 49.74 50.23 50.42 50.51 49.79 48.54 48.40 47.74 46.57 46.91 47.21 47.32 46.00 44.11 43.04 44.24 45.35 45.14 44.86 45.63 46.28 47.72 48.85 49.09 51.94 52.08 53.69 55.00 56.97 57.20 57.36 59.95 61.84 63.17
49.63 50.29 50.77 50.26 49.82 50.11 50.37 50.85 50.95 50.63 50.10 51.10 51.40 50.54 49.25 47.75 46.87 46.88 46.90 47.54 47.38 47.22 45.85 45.02 44.77 45.73 45.82 45.37 45.38 45.66 46.22 46.95 48.39 48.51 49.62 50.41 51.07 52.65 53.60 56.16 57.68 58.60 61.10 62.54
51.93 51.53 51.69 52.10 52.13 51.83 51.71 51.19 51.81 51.50 51.63 51.85 51.23 49.80 49.07 48.31 47.97 46.65 47.00 46.47 45.44 45.70 45.62 45.73 46.04 45.03 43.58 44.10 45.68 45.59 45.96 46.51 47.76 48.26 48.80 49.41 50.53 51.38 51.97 53.53 56.10 58.32 60.67 61.91
52.57 52.76 52.95 52.47 53.25 52.70 51.94 52.63 52.88 52.28 52.02 51.82 51.10 49.81 48.84 48.30 48.45 48.30 47.38 45.54 43.69 46.19 46.61 45.02 44.47 43.30 43.46 44.17 45.50 45.27 45.87 46.22 46.73 47.68 48.60 49.27 49.90 50.32 51.64 50.28 54.00 57.91 59.80 61.52
51.60 51.66 51.75 52.06 51.82 52.70 52.75 53.21 52.48 51.72 51.86 52.04 50.65 49.53 48.60 48.92 49.58 49.19 47.29 45.17 44.54 47.36 46.43 44.69 43.37 43.01 43.65 43.84 42.44 41.73 42.17 43.44 44.33 44.88 45.85 46.88 48.37 49.53 50.57 52.05 53.87 55.65 56.95 59.48
51.26 50.76 50.82 51.40 51.51 51.23 52.04 52.79 52.70 52.30 51.75 51.35 50.87 49.87 48.68 48.70 48.96 48.62 49.32 48.06 47.65 45.02 46.51 44.53 43.54 44.19 42.83 42.45 39.52 38.67 38.85 40.12 42.15 43.00 43.09 43.96 45.10 46.36 48.28 50.09 51.60 53.75 56.04 57.46
48.87 48.94 49.91 49.50 49.36 48.52 48.52 49.61 52.10 52.13 50.56 51.07 49.97 49.25 48.71 48.87 48.56 47.11 45.44 49.11 48.76 46.06 46.80 46.24 44.67 44.07 43.39 40.22 38.73 38.52 38.15 37.11 36.82 38.96 38.91 40.50 42.29 43.67 45.60 46.83 48.26 49.27 48.01 46.91
48.72 47.39 48.16 48.72 48.84 48.28 48.37 48.21 49.49 50.15 50.65 50.99 50.18 50.23 49.62 48.63 48.08 47.58 49.89 47.07 44.93 45.46 46.49 46.21 45.25 44.26 42.98 41.64 40.37 38.84 38.03 37.60 36.61 36.40 36.91 36.70 39.37 41.44 44.09 43.45 43.36 44.03 43.01 42.14
48.61 48.57 48.65 47.65 45.80 44.54 43.16 47.30 49.96 47.88 48.84 49.42 49.58 50.18 50.70 50.40 48.97 48.92 49.37 49.88 44.40 45.56 47.39 44.91 44.49 44.56 44.55 43.01 41.41 40.24 38.53 36.60 37.27 37.25 36.33 35.38 34.96 37.05 40.84 42.23 42.21 42.23 42.17 42.14
47.99 47.62 48.39 48.28 47.44 43.24 43.63 45.87 47.09 45.86 47.81 47.77 48.52 49.48 49.82 49.34 48.38 47.51 47.82 47.15 47.91 46.42 47.53 47.21 47.30 44.85 46.14 44.42 43.08 41.47 40.27 39.13 36.09 35.45 37.05 36.39 35.42 34.15 35.56 38.98 40.09 40.84 41.07 41.14
48.98 44.20 47.26 47.70 47.33 46.56 45.62 46.09 46.58 46.77 46.94 47.38 47.31 49.52 50.51 48.17 47.18 46.72 45.66 47.19 46.34 46.11 46.98 47.47 47.35 46.59 46.60 45.09 44.34 43.30 41.86 41.54 38.61 36.70 34.53 34.64 35.45 34.35 33.07 34.87 35.38 36.50 38.19 38.88

GFSNGP_sfc_wetblb_075.txt.gz
Wetbulb
46.67 47.05 48.70 48.87 48.45 48.18 48.36 50.24 48.41 50.13 51.48 53.73 55.22 56.11 54.09 52.23 51.49 51.39 51.49 51.93 52.35 52.60 52.96 54.33 56.24 56.31 57.24 61.72 65.39 68.16 69.92 72.35 74.29 76.22 76.87 75.81 77.35 78.59 78.28 78.56 78.35 78.15 78.11 78.37
43.81 46.00 46.16 44.96 46.59 46.74 48.07 49.06 50.22 51.75 51.17 55.50 55.90 56.57 55.95 56.25 55.11 51.78 51.56 52.74 52.86 53.13 53.78 54.39 54.74 56.95 57.63 58.25 60.91 64.68 65.55 69.65 73.96 75.02 75.39 76.94 77.24 77.30 78.45 78.34 78.82 79.09 77.54 77.80
42.22 45.21 43.52 40.99 45.45 46.56 47.50 48.98 50.43 49.46 52.10 54.75 53.83 54.00 54.10 55.59 55.05 54.25 54.66 53.70 54.36 54.82 55.57 55.92 56.17 56.90 57.55 58.97 59.41 60.57 62.42 64.17 67.41 71.52 74.16 74.56 76.49 76.49 77.04 77.15 78.15 78.96 78.39 77.83
43.66 45.80 36.37 44.59 48.79 48.44 47.32 48.93 52.13 52.28 52.70 54.13 53.62 53.73 54.63 55.67 54.32 53.55 54.18 54.74 55.73 55.97 56.11 56.19 57.42 57.74 59.18 59.72 59.61 59.33 60.02 59.50 62.10 64.62 69.26 72.32 74.85 74.93 76.14 76.32 76.16 77.52 77.69 78.87
41.49 42.33 44.57 44.94 46.11 45.50 46.48 45.54 50.16 51.00 51.16 51.77 52.32 53.54 53.36 54.17 53.76 53.60 54.22 55.10 55.67 56.33 56.64 58.24 58.94 59.81 60.10 59.50 59.56 59.72 59.02 58.98 59.89 61.52 64.83 67.97 68.15 73.17 77.03 76.26 75.82 75.87 76.81 78.30
43.69 39.27 37.80 45.58 48.19 50.23 49.87 43.53 49.88 51.09 50.06 49.81 50.63 47.15 51.23 53.05 53.25 53.65 54.57 55.43 55.25 55.98 56.85 57.36 58.62 59.36 59.31 59.23 59.63 59.83 58.58 59.53 60.14 59.98 62.65 67.21 67.94 67.10 72.06 76.07 75.87 75.66 76.05 77.18
43.07 41.25 45.02 48.83 48.62 49.74 39.95 44.19 50.43 50.46 50.14 49.83 49.70 50.75 51.82 52.47 52.60 53.64 54.09 54.44 55.05 55.46 55.62 56.70 57.86 58.12 58.14 58.75 58.92 60.32 60.87 61.02 61.70 61.67 60.94 63.14 67.55 68.14 68.81 71.50 75.13 75.65 75.06 76.66
43.78 41.61 38.72 50.41 48.07 44.44 49.68 51.59 51.00 50.32 50.26 49.42 50.24 50.18 50.63 51.03 51.26 51.99 52.21 52.75 53.39 53.25 53.63 54.84 55.82 56.14 56.51 57.35 59.29 60.00 59.97 59.96 60.60 61.63 61.83 60.15 64.32 67.34 67.86 69.21 70.20 74.07 75.79 75.67
45.15 45.23 50.90 51.65 50.26 52.93 52.80 51.39 49.94 50.56 50.05 49.25 48.69 49.38 49.85 50.43 50.76 51.17 51.43 52.32 52.93 52.76 52.69 53.91 54.79 55.17 54.47 56.58 57.90 58.29 58.45 58.55 59.23 60.12 61.18 62.68 61.49 64.67 64.74 69.04 67.91 68.61 72.60 73.30
44.22 48.00 48.54 50.71 51.20 51.08 50.54 50.26 50.75 50.56 49.97 49.69 49.39 50.15 50.32 50.73 50.67 51.11 51.94 52.20 52.62 52.16 52.19 52.26 53.83 54.36 54.30 55.02 56.08 55.85 55.62 56.47 57.34 58.05 58.88 60.61 61.59 59.83 61.55 62.70 65.30 66.19 69.31 72.65
45.95 48.35 48.80 50.32 51.41 51.19 50.58 50.78 50.48 50.83 50.48 50.19 50.47 50.16 50.80 51.69 51.67 51.13 51.33 51.88 51.65 50.84 51.15 51.88 53.13 52.94 53.76 54.45 54.32 53.46 53.97 53.96 55.06 56.66 58.05 60.16 62.34 61.66 61.25 62.94 62.73 64.97 67.01 69.06
45.06 50.34 50.23 50.08 52.21 52.75 51.17 50.43 50.99 50.52 50.41 51.10 50.84 49.94 50.91 51.69 51.65 50.93 51.24 51.54 50.58 50.74 50.48 51.86 51.56 51.74 52.48 52.55 52.50 51.52 51.46 52.27 53.35 54.46 56.08 57.59 59.18 60.91 54.49 53.02 51.36 49.64 49.24 56.45
50.11 53.14 52.36 52.49 52.11 53.14 51.74 51.69 52.01 51.62 51.75 50.65 51.44 51.39 51.14 52.15 51.74 51.13 52.07 51.18 50.14 48.60 50.21 50.41 50.40 50.40 51.19 50.33 49.78 49.89 48.11 50.29 51.11 51.42 53.61 55.63 56.84 58.35 59.58 60.02 49.36 48.38 47.37 48.91
53.63 52.32 50.40 50.92 49.78 52.08 52.33 52.39 52.01 52.64 52.61 52.31 52.04 52.38 51.76 51.52 51.86 51.52 51.04 50.87 50.69 49.97 49.40 48.88 49.08 48.62 49.81 49.21 48.65 48.04 47.51 47.61 49.72 49.73 51.35 52.97 54.87 56.55 57.92 59.00 59.48 61.21 55.06 49.74
51.51 52.89 52.27 52.97 52.30 52.19 52.59 52.50 51.30 50.79 51.21 51.52 52.60 51.25 50.75 49.31 49.19 51.29 51.45 51.01 50.22 48.85 47.61 47.23 47.04 47.03 48.53 47.38 46.66 46.01 46.68 47.93 48.08 49.13 50.50 51.14 53.20 55.29 57.05 57.62 58.99 59.89 61.29 57.71
50.53 50.54 52.22 50.73 51.62 51.63 51.92 51.61 50.86 50.86 51.41 51.52 51.54 50.70 50.81 50.61 50.09 50.90 50.89 50.37 48.35 46.66 47.03 46.97 46.54 47.07 47.16 47.91 47.16 45.94 45.72 46.88 47.83 48.29 47.58 48.76 51.47 52.86 54.82 56.45 57.16 58.81 59.26 60.01
47.16 47.38 49.53 49.54 50.05 50.81 51.20 51.87 52.15 50.83 51.46 51.45 51.03 52.12 51.49 50.92 51.06 50.14 49.96 49.96 49.88 48.65 48.35 47.56 46.90 48.67 48.46 47.34 46.39 46.34 45.65 45.82 46.90 47.31 47.49 48.50 50.38 51.16 53.30 54.70 56.32 58.62 59.22 60.18
52.95 52.51 51.98 50.92 51.19 50.75 51.02 51.13 51.41 51.35 51.42 52.40 52.35 51.83 51.59 50.09 49.48 49.41 48.56 48.85 48.20 49.21 49.64 49.16 47.57 47.81 47.52 45.91 45.10 45.10 45.18 45.59 45.82 45.45 46.09 47.03 48.81 49.92 49.97 52.68 54.52 56.12 57.78 59.72
53.15 53.16 53.22 52.98 52.35 51.75 51.95 51.28 51.85 52.41 51.94 52.84 52.49 51.57 51.96 51.04 50.68 49.55 48.88 47.92 47.20 47.40 47.49 49.12 47.14 46.74 45.34 45.54 46.32 46.05 45.25 44.67 44.76 45.15 46.18 46.67 47.97 48.65 48.92 49.69 51.71 53.63 55.60 57.27
53.23 53.12 53.17 52.57 52.63 51.72 51.36 52.52 53.51 52.63 52.72 52.91 52.69 52.23 51.23 51.18 50.06 49.60 49.99 48.71 48.70 47.73 48.66 48.33 47.53 46.70 46.46 45.72 45.70 44.46 43.82 42.80 42.87 42.68 43.97 45.92 46.83 47.90 48.37 47.06 49.49 51.22 54.19 55.60
52.64 52.98 53.09 53.37 52.80 53.50 53.31 53.44 52.94 52.88 52.74 52.10 51.24 52.18 51.41 51.85 51.42 50.17 48.95 46.86 48.57 50.49 48.57 47.14 47.48 46.36 45.37 45.24 42.21 40.49 40.62 39.54 39.70 39.85 41.93 42.83 43.71 44.92 45.90 46.58 49.44 51.23 52.13 53.44
50.77 49.92 50.08 50.35 50.95 52.06 53.07 52.98 53.99 53.56 50.34 53.29 52.50 52.24 51.36 50.67 50.09 49.71 50.58 49.66 50.36 44.19 48.09 47.96 47.39 46.36 46.21 44.83 42.35 40.54 39.82 39.74 38.99 38.86 38.45 39.77 40.50 41.67 43.02 44.03 45.18 48.41 50.83 51.74
50.72 50.49 50.48 50.01 50.05 50.57 51.61 51.84 52.30 52.50 50.39 50.45 51.83 51.37 50.65 50.07 49.21 47.32 46.29 50.82 50.30 46.13 48.25 48.28 45.65 45.38 45.03 46.12 44.48 41.75 40.44 38.94 38.06 37.79 37.96 37.66 38.03 38.66 40.17 41.70 43.15 45.02 47.32 49.11
49.64 49.68 50.16 50.45 49.80 49.89 48.49 49.79 50.89 52.16 50.86 49.69 52.05 51.83 50.73 48.55 49.57 50.56 50.75 47.71 45.84 45.82 48.46 48.24 46.76 44.89 44.84 45.57 44.83 42.63 40.64 39.06 37.36 37.76 37.63 37.17 37.56 37.22 37.40 39.69 42.39 44.50 45.62 45.99
49.59 49.96 49.98 49.49 48.30 47.99 48.51 47.90 48.26 48.44 49.31 49.53 49.94 49.65 50.57 51.38 51.20 50.47 50.51 50.44 47.39 47.87 49.73 46.27 45.37 45.20 47.94 47.18 45.41 43.03 41.50 40.43 38.72 37.93 36.71 37.00 36.27 36.61 36.13 36.28 39.54 42.34 43.18 43.32
48.83 48.17 47.58 50.20 49.19 47.30 46.60 45.74 44.88 47.34 49.31 45.93 47.03 48.65 49.59 50.29 50.56 50.71 50.37 48.99 49.39 47.98 49.06 50.44 50.05 49.07 48.59 47.96 46.24 44.23 42.97 40.97 39.69 38.13 36.89 36.31 35.04 35.00 35.82 35.63 34.36 35.97 40.29 41.14
48.65 45.48 47.77 49.14 49.35 47.18 45.09 45.26 44.29 45.78 47.10 47.26 47.23 48.34 48.66 49.28 48.72 47.99 47.36 47.83 48.07 48.14 48.51 48.52 47.96 47.57 47.79 47.27 46.24 46.47 45.28 43.40 40.32 39.18 37.56 36.87 35.92 35.84 35.98 35.59 35.21 34.67 34.35 35.52

GFSNGP_sfc_wetblb_081.txt.gz
Wetbulb
45.48 47.31 46.18 44.67 45.14 46.82 43.51 43.05 44.29 48.23 48.25 49.56 50.01 49.63 51.32 51.77 51.84 51.58 52.17 52.52 52.87 53.68 55.10 57.78 57.44 57.05 57.98 59.40 60.77 62.94 64.38 64.50 65.83 68.92 67.05 67.86 69.78 72.43 74.01 74.63 74.70 74.37 73.77 74.16
40.79 46.40 45.86 43.79 45.82 47.41 47.25 50.21 50.06 50.74 48.85 52.96 52.04 51.71 51.70 52.14 51.85 50.56 49.75 52.69 53.44 54.41 54.99 55.68 56.86 56.94 57.59 57.31 60.12 60.62 60.02 61.10 63.85 65.64 68.38 69.59 69.92 70.81 72.05 72.87 73.97 74.69 73.39 73.79
35.43 45.03 45.06 39.14 43.63 44.44 49.15 51.94 50.11 46.42 48.42 51.49 50.18 51.31 50.86 51.51 52.17 51.15 51.40 51.38 51.46 51.95 53.22 53.57 54.12 56.71 57.10 58.95 59.24 59.12 59.43 59.31 60.45 62.47 63.37 66.29 68.78 68.26 67.72 71.49 72.54 73.31 73.73 74.05
35.42 39.93 32.13 42.62 48.69 47.82 46.26 51.47 52.04 51.22 51.25 52.84 52.95 52.43 51.92 51.55 50.67 51.23 51.64 51.80 51.38 52.05 53.30 53.93 54.92 56.02 57.07 59.49 60.19 59.49 59.20 59.79 60.43 60.91 60.58 62.01 66.11 66.58 66.22 68.20 69.93 72.41 72.34 73.09
34.87 33.83 39.58 44.38 46.78 44.73 44.01 46.83 52.90 51.26 51.75 51.85 51.65 50.07 48.11 51.57 51.65 51.01 50.92 51.07 51.18 52.21 54.43 54.17 54.30 55.91 56.50 57.06 58.25 57.56 58.60 59.14 60.71 61.60 60.86 60.65 60.89 62.20 65.98 66.80 67.93 69.89 72.59 72.61
38.76 35.74 31.39 40.78 46.56 49.80 48.53 41.07 52.41 51.99 50.73 50.29 50.39 42.88 44.49 49.87 51.13 51.00 51.25 51.15 51.00 52.20 52.73 52.14 51.97 53.03 53.69 54.44 55.84 55.39 56.86 57.61 58.82 59.29 59.01 58.70 61.21 61.42 61.95 65.75 66.06 66.96 69.05 70.11
36.88 35.55 41.20 45.99 47.67 49.30 38.58 41.20 48.86 50.94 50.10 49.05 45.12 46.08 48.12 50.27 50.22 50.65 50.24 49.91 51.14 50.92 50.22 50.79 51.58 52.11 51.83 52.62 51.91 53.96 55.09 55.74 56.77 57.55 57.45 57.36 57.82 58.78 60.48 60.90 62.76 65.20 65.91 67.81
36.96 33.94 32.81 49.04 47.63 42.48 46.18 47.54 48.29 48.47 48.84 48.01 48.05 48.79 48.91 49.00 48.70 49.20 48.78 49.40 50.48 49.43 49.57 50.81 51.26 50.60 50.04 50.12 52.04 52.74 53.37 53.83 54.27 54.80 55.70 56.17 55.78 57.00 58.42 60.13 59.88 60.56 63.20 65.11
40.15 39.81 46.88 49.30 48.32 49.48 49.75 47.73 48.41 47.74 48.71 48.17 48.03 47.76 47.86 47.24 47.34 47.91 48.56 48.63 48.74 47.65 48.28 50.10 50.56 50.12 48.41 49.69 51.28 51.20 50.97 51.15 51.12 52.36 53.33 53.70 52.44 52.62 54.08 54.72 56.89 57.35 57.87 59.50
41.32 45.13 47.35 48.40 50.00 50.30 50.48 48.66 49.68 49.28 48.36 48.37 47.26 47.34 46.96 46.70 46.80 46.92 47.68 47.23 47.36 46.73 47.21 47.62 49.62 49.38 48.75 49.90 50.02 48.55 47.20 47.55 48.42 48.57 49.32 50.14 51.69 52.87 53.38 54.06 55.35 56.86 56.98 58.41
42.15 44.68 46.11 48.46 49.83 49.55 48.69 50.00 49.84 49.71 48.75 47.83 48.06 47.20 47.61 46.70 46.84 46.58 47.29 47.24 47.08 46.34 46.11 46.68 47.63 48.02 48.17 48.37 47.45 45.62 45.29 45.80 45.87 46.59 46.39 47.68 49.06 49.80 50.75 51.85 51.57 50.92 51.99 54.05
40.79 48.00 47.43 47.78 49.98 50.59 48.46 47.87 48.97 47.75 47.61 49.51 48.99 47.74 48.24 47.74 46.99 46.68 46.77 47.56 46.77 46.29 45.83 46.49 46.61 46.45 46.80 46.79 46.13 44.63 43.84 44.37 44.75 44.91 44.99 46.07 46.06 46.98 48.92 47.50 46.78 45.76 45.07 46.28
46.29 49.58 50.65 50.73 51.78 53.40 49.59 49.07 50.08 49.11 48.72 48.01 48.71 48.73 48.23 48.11 47.34 49.85 47.32 48.84 45.92 46.17 46.35 45.61 45.39 45.05 46.30 46.58 45.52 44.10 42.09 42.39 43.15 44.10 44.34 44.78 45.55 45.82 45.40 47.74 47.86 46.31 45.11 45.87
49.43 48.79 48.04 50.00 49.65 50.93 52.85 51.34 51.72 50.32 50.10 50.06 49.59 49.30 48.99 48.46 47.80 47.83 47.54 47.15 47.10 46.97 45.40 45.18 44.96 44.51 45.66 45.62 44.76 43.75 44.04 46.67 44.35 43.34 43.25 43.54 44.01 44.68 45.03 44.85 44.85 46.23 46.95 46.58
50.71 50.86 49.51 49.87 50.51 50.66 52.58 52.36 49.19 48.41 49.04 48.93 49.48 48.90 48.57 47.18 47.22 47.08 47.43 47.41 46.63 45.40 44.80 44.61 44.16 44.07 45.21 44.92 44.17 43.42 42.99 43.03 43.51 44.42 45.33 44.75 44.59 44.37 44.89 45.02 44.95 45.87 47.43 47.06
49.60 49.53 50.66 50.35 48.63 50.53 49.80 50.65 48.26 47.44 48.38 49.05 50.01 48.48 49.15 48.48 48.04 47.67 47.50 46.41 43.98 43.34 43.35 44.08 43.48 44.76 44.78 43.68 42.15 41.62 41.69 45.45 45.00 42.69 43.27 43.01 43.57 43.84 43.74 43.64 44.30 44.96 45.31 46.30
46.71 47.80 48.61 48.26 48.57 49.29 49.64 49.44 49.07 48.75 49.37 48.59 48.34 49.39 50.72 49.86 47.74 46.97 46.70 46.48 46.21 44.73 44.99 44.13 44.01 44.13 43.86 42.77 41.61 41.19 41.20 41.10 44.72 41.84 42.36 42.67 43.64 43.65 43.86 43.73 43.73 44.64 45.48 46.71
50.24 50.40 49.62 49.00 49.09 49.19 48.59 49.64 49.24 49.59 49.97 51.56 51.21 50.68 48.71 48.80 46.96 46.68 47.21 47.06 45.74 44.51 45.27 45.63 44.49 43.86 43.67 42.62 41.80 40.80 39.31 38.68 38.82 38.80 39.60 39.51 40.12 40.08 40.07 41.36 42.46 43.29 44.63 46.12
52.01 51.54 51.33 51.42 50.88 50.12 49.29 48.81 49.46 50.72 50.69 51.20 51.03 49.43 49.72 49.19 48.78 48.52 47.78 46.12 44.86 44.00 44.83 45.51 48.85 45.67 42.98 44.01 43.42 40.57 39.20 39.01 38.85 38.25 38.54 39.40 38.38 39.51 39.40 39.56 39.76 41.04 42.90 43.79
51.12 51.07 51.42 52.01 51.97 51.29 50.56 51.72 51.22 51.26 51.74 51.39 49.89 49.22 48.39 50.24 50.56 49.77 47.96 46.19 45.56 45.61 47.32 45.84 44.55 43.02 43.47 43.85 45.81 41.04 39.97 39.15 38.72 38.77 39.63 38.80 37.60 38.18 38.38 38.22 38.20 38.93 39.96 41.11
50.42 50.99 50.64 50.16 49.74 50.48 51.12 50.08 50.99 50.44 51.06 50.69 48.33 48.30 48.82 49.68 49.31 50.30 47.36 45.87 46.61 48.44 46.54 49.69 44.01 43.55 43.65 43.79 42.88 41.34 42.51 41.20 39.34 38.26 38.03 38.16 37.23 36.78 36.58 37.46 37.41 37.57 37.26 38.16
48.80 48.63 48.58 48.39 47.78 48.08 48.87 49.30 49.26 49.11 50.10 49.48 50.68 49.66 48.90 48.31 49.02 48.71 49.04 48.02 49.59 49.55 47.16 44.52 44.06 47.19 44.45 47.76 41.67 41.41 42.05 40.83 39.70 38.28 37.66 38.36 37.20 36.56 35.96 36.09 36.41 36.50 36.24 36.87
47.16 47.45 47.25 46.98 46.63 46.97 47.78 47.69 47.32 47.40 47.94 47.46 47.42 48.02 48.76 49.60 50.28 46.88 45.42 49.36 49.78 48.82 46.05 44.66 48.03 50.34 49.13 43.06 42.54 42.84 41.59 40.53 40.30 37.89 37.29 38.62 37.04 36.67 36.05 35.75 35.56 35.87 35.66 35.64
46.73 46.73 46.68 47.74 48.14 46.88 45.37 45.33 45.87 46.14 46.30 46.23 47.95 48.54 48.07 47.65 47.04 48.10 48.34 49.33 49.77 48.53 45.58 45.66 47.22 49.20 48.51 42.78 42.86 43.19 41.94 40.94 39.44 37.90 37.12 38.64 36.56 36.22 36.05 35.67 35.12 35.55 35.17 34.95
47.28 47.63 47.71 46.96 45.17 43.92 43.85 44.80 44.45 45.15 45.45 45.21 46.89 48.31 49.99 49.04 46.92 47.92 48.81 48.32 47.80 47.90 45.87 48.06 49.70 49.06 44.72 43.29 43.79 44.12 43.56 41.32 40.16 38.26 39.26 38.06 36.22 36.22 36.09 35.53 35.32 35.16 34.96 34.75
46.23 47.03 46.99 46.42 45.05 44.33 44.55 45.31 45.18 46.08 46.01 45.07 46.37 48.60 48.99 49.50 49.27 48.79 47.82 48.22 47.01 47.03 45.90 45.63 45.80 45.42 45.14 45.27 45.11 43.95 42.87 42.86 40.62 38.55 39.08 38.40 37.75 37.14 36.35 35.39 35.16 34.98 34.44 34.05
45.62 45.42 46.20 45.24 44.76 43.65 44.58 44.94 45.54 45.45 45.50 45.50 45.48 46.86 47.72 48.02 48.20 47.64 46.80 45.89 45.44 46.36 45.69 46.32 46.30 46.31 44.59 43.18 43.65 43.25 44.88 44.66 42.45 40.39 39.53 38.10 38.23 37.66 36.90 36.22 35.27 34.73 34.33 33.60

GFSNGP_sfc_wetblb_084.txt.gz
Wetbulb
44.32 43.93 43.74 42.57 43.27 44.48 38.99 41.60 42.80 45.27 45.65 46.46 47.63 48.15 48.60 49.53 51.60 51.04 50.97 51.71 53.05 54.57 56.11 56.75 57.41 59.18 59.95 61.07 62.48 64.87 65.34 65.77 65.92 67.62 67.42 68.70 68.43 67.26 67.66 70.55 72.36 70.26 69.94 70.35
39.81 46.42 44.76 41.95 44.34 46.53 48.97 50.87 48.86 47.63 44.96 49.18 49.32 49.93 48.70 49.42 50.62 51.01 51.46 52.34 53.29 54.44 55.45 56.49 56.65 56.64 59.84 59.25 59.91 60.87 60.66 61.31 63.20 64.87 65.73 66.41 68.43 67.91 68.12 68.34 71.00 72.18 71.78 72.15
33.27 42.73 44.00 37.81 41.43 43.43 48.31 51.83 49.53 45.25 46.99 49.03 48.30 49.62 50.16 50.16 50.75 50.94 51.96 52.61 53.38 54.08 54.63 54.94 56.76 57.91 56.71 58.03 59.46 59.28 59.50 60.01 60.39 60.68 60.97 61.89 65.38 67.22 66.14 66.86 68.86 70.53 71.51 71.50
32.73 37.11 31.61 41.98 46.94 46.41 47.90 49.87 49.76 48.49 48.81 49.48 49.63 50.41 49.93 51.08 50.23 49.87 50.35 51.75 52.58 54.26 54.22 54.97 56.40 56.80 57.86 58.63 58.81 59.17 59.48 60.28 60.20 60.23 60.50 61.31 61.94 62.24 63.48 66.34 66.90 67.87 69.63 70.75
31.81 30.59 37.24 43.83 45.09 43.84 41.76 44.31 51.04 49.33 49.91 50.61 49.94 49.56 46.80 50.17 50.25 49.38 48.36 48.93 50.34 51.90 50.70 50.61 51.33 53.21 55.20 55.43 55.81 56.02 56.30 57.34 58.36 59.09 58.85 59.31 60.46 61.22 62.27 63.48 63.18 64.66 65.92 68.09
33.31 30.88 28.89 38.26 46.15 48.48 48.89 39.60 49.83 50.54 48.82 47.92 48.38 41.72 44.13 48.72 49.88 48.99 49.21 49.92 49.53 49.80 50.37 50.55 50.41 52.60 51.51 50.90 51.57 51.86 53.01 54.49 55.76 56.91 56.67 56.45 56.98 58.34 60.67 61.42 62.54 63.65 64.27 65.85
33.08 31.94 38.35 44.35 46.35 48.42 36.61 38.19 48.56 50.17 49.22 48.33 43.82 45.06 46.06 48.92 48.12 48.22 49.08 49.08 49.34 49.38 48.75 48.88 49.66 49.94 48.82 48.85 49.01 50.44 51.90 52.77 53.43 53.77 53.94 54.30 54.90 55.41 56.67 58.16 59.86 61.72 62.84 64.62
32.25 28.78 29.35 47.10 46.85 40.66 42.78 44.16 46.42 47.41 46.41 45.61 46.54 47.58 47.59 47.65 46.89 47.64 47.77 48.36 48.75 47.66 47.97 48.24 48.61 47.98 47.11 47.90 49.08 49.50 49.68 49.41 49.74 50.59 52.04 52.82 52.15 52.51 53.19 53.25 54.36 56.06 57.87 59.54
36.39 35.85 43.62 45.92 45.88 46.74 47.41 45.77 45.22 47.31 48.70 47.71 47.26 46.69 46.84 45.72 46.01 45.95 46.73 46.01 46.48 46.68 46.91 47.66 47.87 47.08 46.57 46.94 47.24 46.92 45.97 45.55 46.19 47.71 48.14 48.66 48.66 50.00 50.77 51.58 51.67 52.42 53.24 53.34
37.89 42.38 43.31 45.09 47.15 48.16 47.59 47.50 47.61 47.73 47.11 47.50 45.57 46.17 45.82 44.32 45.29 45.63 45.10 44.89 45.25 45.60 45.36 44.94 46.13 46.56 46.09 46.00 45.64 44.77 43.62 43.60 44.16 43.77 44.60 45.07 47.36 48.81 48.73 49.13 49.36 49.12 48.76 49.19
37.72 41.11 42.94 46.55 46.97 47.36 47.20 48.70 48.36 47.42 47.40 47.43 46.20 45.57 45.10 45.23 44.82 45.08 44.66 44.58 45.30 44.54 44.22 44.43 45.09 44.76 44.82 44.77 44.29 42.84 42.54 42.54 42.07 42.73 41.66 42.18 43.87 45.05 46.69 47.18 47.53 47.02 48.23 48.58
37.14 43.18 42.29 42.86 45.97 47.69 46.35 47.14 47.19 46.62 45.79 47.06 46.23 45.43 46.33 45.03 45.26 45.13 44.62 44.89 43.84 43.57 44.23 43.66 43.92 44.17 44.42 44.33 43.36 41.45 40.84 41.15 41.08 40.82 40.92 41.89 42.16 43.29 45.89 45.85 45.10 43.86 43.20 44.00
43.37 45.77 46.76 48.54 51.21 50.67 47.04 45.85 47.60 46.37 46.83 46.23 46.47 46.40 46.60 44.75 44.32 47.06 45.49 44.46 44.07 44.15 43.80 43.16 42.73 42.77 43.17 43.60 42.98 41.80 39.92 40.61 40.51 41.44 40.84 40.86 41.17 41.21 41.69 44.04 45.08 43.51 42.56 43.13
47.47 46.57 44.26 47.13 46.06 49.83 50.12 49.15 50.03 47.62 47.49 47.55 47.04 47.11 47.05 45.41 45.74 45.33 45.44 44.81 45.19 44.03 43.08 42.96 42.82 42.57 43.50 43.26 42.34 41.69 40.78 44.51 40.82 40.66 40.88 40.88 41.18 42.17 42.66 42.29 41.80 42.67 44.14 43.83
47.35 47.39 46.19 46.52 47.47 47.98 49.32 49.57 47.18 46.94 47.04 46.33 46.91 46.89 46.84 45.58 44.86 45.15 45.98 45.61 46.05 43.68 42.94 42.73 42.49 42.33 42.54 42.52 41.32 40.09 39.82 39.92 40.32 40.22 40.50 41.92 41.47 41.71 42.18 41.84 41.67 42.07 43.03 43.48
47.69 47.24 46.71 46.46 46.42 47.00 47.49 48.33 46.85 45.42 46.17 46.55 46.73 45.77 46.07 47.17 46.56 46.27 45.88 45.20 43.01 42.14 42.51 41.97 42.02 43.13 42.99 41.49 40.09 39.33 39.55 44.10 43.08 39.58 40.31 40.76 41.32 41.31 41.39 41.27 41.37 41.74 42.10 42.72
43.23 42.85 43.54 44.35 45.75 46.73 46.51 49.66 48.97 48.55 47.09 47.24 47.04 46.84 47.40 46.39 46.02 44.78 45.08 45.04 44.13 43.71 42.88 43.11 42.97 42.77 42.63 41.19 40.31 40.04 39.28 38.33 42.14 37.67 37.41 37.86 38.42 38.16 38.40 37.90 37.87 38.55 39.18 41.11
46.69 46.90 47.31 46.36 46.41 47.00 47.25 49.65 49.89 49.40 49.33 50.06 49.98 46.58 45.87 46.49 45.77 45.77 45.75 44.62 42.68 42.23 43.14 43.59 43.75 42.36 42.23 41.29 40.59 39.90 38.61 37.46 37.39 36.87 37.00 36.87 37.19 38.96 37.74 37.53 37.95 38.40 38.56 39.74
48.49 48.49 48.33 49.55 49.03 48.22 48.06 47.30 50.25 50.21 50.57 50.39 49.93 48.49 47.88 47.75 47.09 47.31 46.18 44.26 43.18 42.21 42.88 43.61 48.89 45.84 41.37 42.84 42.46 39.50 38.52 38.03 37.73 37.00 37.01 38.55 36.69 38.47 38.06 37.73 37.65 37.84 38.01 37.70
48.24 48.80 48.86 48.67 51.00 50.08 49.68 49.08 49.40 48.71 49.59 51.01 50.34 48.95 48.68 49.34 50.37 49.12 46.66 44.09 44.74 45.82 45.02 44.62 46.90 41.76 41.35 42.26 47.82 39.92 39.27 38.43 38.15 37.20 37.13 36.41 36.00 36.73 37.86 37.40 37.13 36.99 37.20 37.52
47.61 48.34 47.24 47.73 48.84 50.15 50.45 49.87 50.53 49.44 50.42 50.93 49.76 48.70 48.60 49.38 49.76 50.07 48.08 44.75 46.16 46.31 45.60 48.04 44.07 41.72 41.14 42.42 44.62 40.01 38.80 38.50 38.00 37.39 37.09 36.13 35.80 36.64 36.92 35.93 36.57 36.39 36.45 36.80
43.83 44.39 44.67 44.90 45.12 45.74 46.69 45.83 45.18 45.29 46.20 48.64 49.46 49.27 47.48 47.99 48.72 49.18 49.33 48.34 49.58 49.48 48.01 47.70 44.79 44.94 42.24 49.21 40.24 39.61 39.39 39.16 38.78 38.12 36.67 35.98 34.99 35.76 36.41 35.05 34.74 35.60 35.53 35.45
42.22 42.78 43.43 43.54 43.20 43.15 43.69 42.77 42.95 43.38 43.26 43.63 44.06 45.02 45.52 46.02 46.33 45.93 45.58 48.86 49.45 49.67 49.01 47.79 46.96 48.62 50.36 45.60 40.41 39.97 39.69 39.50 38.92 37.99 36.46 35.35 34.96 35.51 35.85 35.16 35.40 35.33 35.08 34.91
41.46 41.84 42.67 43.06 42.26 40.79 39.48 40.39 41.35 41.75 41.91 43.19 43.60 44.37 44.56 43.78 46.56 46.42 47.07 48.56 48.77 49.01 48.84 48.35 47.43 49.57 49.88 41.95 40.56 39.86 39.94 39.87 38.87 37.89 36.45 37.29 34.52 36.20 36.13 35.52 35.15 35.30 35.10 35.10
42.55 42.92 42.31 41.20 39.73 39.14 39.14 40.57 41.22 42.05 43.34 43.84 43.34 43.58 45.32 45.60 45.14 44.77 46.91 48.66 48.56 48.73 47.25 48.30 49.41 50.03 45.59 41.31 40.39 40.39 40.82 40.48 40.00 38.84 36.36 35.23 34.54 35.59 36.28 35.66 34.90 34.88 35.15 34.97
42.21 42.12 41.35 40.60 39.48 39.43 41.09 40.86 40.17 42.61 43.65 43.32 44.29 47.32 47.07 47.19 47.19 47.27 47.87 47.69 46.94 47.00 47.47 43.88 45.00 46.20 43.67 42.21 41.79 41.84 41.03 41.04 40.81 39.63 37.00 35.79 34.92 37.55 37.29 36.63 35.64 35.59 34.82 34.45
41.79 42.19 40.05 39.50 39.56 39.32 39.79 41.10 40.72 39.99 42.12 41.62 44.17 47.10 47.12 47.21 45.80 46.23 46.76 46.41 45.65 44.77 43.66 44.14 43.71 44.79 42.80 42.28 42.55 42.28 41.02 40.67 40.51 39.04 36.31 35.43 35.45 37.77 37.77 37.92 37.52 36.44 35.31 34.71

GFSNGP_sfc_wetblb_087.txt.gz
Wetbulb
42.08 43.04 42.65 41.27 41.50 44.07 38.49 39.13 40.12 43.17 44.99 48.71 48.04 47.41 47.84 48.93 50.84 50.72 51.21 53.16 54.48 55.42 56.37 57.53 59.14 60.20 61.85 63.40 64.84 66.36 66.70 66.72 66.33 67.24 66.86 67.78 67.74 67.44 67.72 67.99 69.61 71.19 69.66 68.44
38.66 46.76 43.46 40.97 43.63 43.45 47.80 47.72 46.13 45.21 42.50 47.45 48.17 48.18 47.81 49.08 49.97 49.52 50.65 51.74 53.46 54.89 55.37 56.15 56.84 59.13 60.51 60.14 60.82 61.53 62.10 63.44 64.91 65.39 64.91 64.97 67.62 67.17 66.73 66.95 67.92 68.10 69.95 70.28
34.06 39.31 44.74 39.70 40.85 41.59 45.71 48.93 46.96 43.40 45.17 47.81 46.63 47.32 47.10 48.00 49.64 50.18 51.96 52.58 53.37 54.14 55.05 56.11 56.58 56.55 56.87 58.19 59.21 59.59 59.61 60.57 61.33 61.72 61.32 61.33 62.01 62.70 64.91 65.73 65.85 66.21 67.22 69.68
32.82 35.40 30.63 41.87 47.11 47.13 47.51 48.20 47.90 47.12 47.39 48.35 47.87 48.05 48.20 49.62 51.25 51.48 52.17 53.21 53.40 53.57 53.64 54.45 56.64 57.66 57.60 58.05 57.82 58.26 58.21 58.92 59.89 60.73 60.57 61.12 61.57 61.10 61.47 62.76 62.44 63.10 64.02 65.12
30.24 30.11 35.75 41.69 44.27 43.73 43.29 43.22 48.80 47.68 48.35 48.67 48.64 47.71 46.24 49.61 50.46 50.50 49.61 51.20 50.74 51.20 52.28 53.56 54.26 54.39 53.57 53.30 53.63 53.61 54.21 54.84 56.10 56.61 56.45 56.49 56.26 57.79 59.48 60.21 61.07 61.95 63.35 63.86
32.02 30.19 28.61 37.38 45.20 46.99 45.70 39.04 49.45 49.53 48.45 47.59 47.85 41.71 43.44 47.51 48.38 48.72 49.49 49.71 49.23 49.48 50.08 50.10 49.54 50.12 49.78 49.64 50.40 50.25 51.30 52.02 53.26 53.61 54.79 54.33 54.01 55.08 56.83 57.81 59.73 61.66 62.17 63.24
32.20 29.70 36.00 43.12 46.30 47.95 38.43 36.79 48.08 50.60 49.47 48.64 46.50 44.44 46.12 47.43 47.17 48.19 48.22 48.26 48.43 48.56 48.19 47.99 48.02 49.27 47.77 47.38 47.12 48.73 49.29 49.08 49.39 49.77 50.88 51.71 52.93 52.43 53.09 53.99 55.24 56.41 59.12 60.78
30.07 27.75 28.28 45.08 45.09 38.04 41.56 43.40 45.86 49.20 49.72 49.04 44.63 46.81 47.14 46.99 46.44 47.08 47.06 47.61 47.95 46.90 46.18 46.34 47.13 47.69 45.96 45.45 45.95 46.43 46.30 46.20 46.22 46.39 47.71 48.31 48.04 50.08 51.77 51.64 51.44 52.27 51.97 53.90
35.24 34.14 40.85 43.85 44.03 44.77 44.34 43.97 44.27 45.42 46.16 46.45 47.19 47.28 46.91 45.65 45.62 46.60 46.94 46.87 47.13 46.82 45.80 45.63 46.18 46.00 44.21 44.17 44.91 44.67 43.76 43.52 43.60 44.21 44.56 44.97 45.20 46.17 47.63 48.48 48.73 48.30 48.57 48.92
37.47 40.76 42.24 44.56 45.23 45.47 45.51 45.59 46.96 48.02 49.31 49.94 48.64 47.84 45.55 45.13 45.24 44.97 45.46 45.67 45.86 44.99 44.16 44.12 44.89 44.89 44.19 44.00 43.87 43.18 42.30 41.94 42.21 41.87 42.04 42.11 43.78 45.15 44.65 45.43 46.07 46.54 47.02 46.35
36.13 39.44 41.84 45.10 45.41 45.46 46.48 47.09 47.10 47.82 48.31 48.36 47.85 45.71 44.99 44.05 44.62 44.68 44.07 44.30 45.04 43.71 43.61 43.33 43.25 43.11 43.46 43.12 42.34 41.06 40.95 41.26 40.63 40.92 40.14 40.97 41.76 42.18 43.36 43.86 44.13 43.73 44.62 45.05
36.27 40.42 40.48 41.07 44.56 47.07 45.99 46.30 46.62 45.78 45.27 46.28 47.71 46.15 46.14 44.74 44.87 44.12 43.50 43.43 43.10 43.02 43.19 42.71 43.04 42.94 42.98 42.76 41.67 40.01 39.71 39.99 39.97 39.84 39.84 40.57 40.17 40.15 43.90 44.18 43.94 42.78 42.05 42.56
42.20 43.99 44.86 45.86 48.27 48.89 46.49 46.13 46.67 45.88 45.95 45.27 45.19 46.21 45.78 44.29 44.21 45.65 43.78 43.49 43.23 43.33 42.84 42.57 41.88 41.48 42.33 42.24 41.52 40.12 38.34 38.81 39.24 40.01 39.71 39.42 39.62 39.52 39.34 41.54 44.01 42.93 41.94 42.06
45.87 45.94 43.12 46.61 45.74 49.13 50.09 49.79 48.80 46.62 46.17 47.52 46.62 46.51 46.04 44.91 45.10 44.75 44.26 44.98 44.14 43.60 42.71 42.03 41.35 41.11 42.48 41.80 40.70 39.42 38.07 43.43 38.35 38.49 38.93 39.34 39.58 39.73 40.03 39.94 39.99 40.59 42.24 41.86
45.99 46.07 45.02 44.93 46.30 47.06 47.93 48.32 47.17 45.78 46.09 44.87 46.63 46.56 45.82 44.13 44.72 44.88 45.25 44.39 44.74 43.38 41.88 41.47 41.31 41.40 41.74 41.39 39.52 38.38 38.33 38.50 38.36 37.97 38.23 39.47 38.62 39.19 39.49 39.00 38.68 38.46 39.15 40.48
46.43 46.24 46.13 44.85 45.40 45.97 46.27 45.90 45.34 45.17 45.01 45.69 46.07 46.45 46.86 46.50 45.98 45.88 44.73 44.38 42.62 41.87 42.29 41.63 41.12 42.02 41.52 40.33 39.00 38.40 38.29 43.43 40.38 36.49 36.68 36.59 36.83 36.78 36.46 36.21 36.15 36.54 37.03 37.29
42.62 41.25 41.86 42.36 44.80 44.80 45.48 47.29 46.42 46.53 46.21 46.21 46.36 47.69 47.62 47.71 46.14 44.92 44.46 45.11 45.30 44.02 43.38 42.69 42.32 42.21 41.52 40.12 39.25 38.85 37.93 37.33 41.49 36.34 35.98 35.92 35.88 35.64 35.74 36.32 36.01 36.19 36.35 38.15
44.76 43.75 45.59 45.20 44.98 45.57 46.28 47.19 47.57 47.93 49.03 50.83 50.93 49.17 46.89 45.65 44.70 44.60 45.17 45.13 44.39 42.21 42.97 42.90 42.80 42.58 41.38 40.22 39.38 39.01 38.04 36.84 36.81 36.52 36.50 36.19 35.96 35.75 35.53 35.78 35.99 35.76 36.05 37.12
46.94 47.18 47.18 47.56 46.90 47.18 47.10 46.57 47.56 47.94 48.12 49.31 50.13 49.30 48.96 47.21 46.61 46.60 46.41 45.11 43.59 43.13 43.11 42.48 48.19 45.99 41.28 42.00 41.79 38.59 38.16 37.15 36.97 36.74 36.62 38.19 36.13 35.76 35.17 34.87 35.54 35.97 36.07 36.07
47.52 47.67 47.90 47.25 48.14 48.99 49.62 49.72 47.40 47.19 47.62 48.48 50.30 49.63 48.74 49.51 48.61 47.63 46.00 44.52 44.93 46.11 47.36 44.92 47.66 43.35 41.71 42.29 48.42 38.93 38.49 37.75 37.45 36.87 36.60 35.97 35.37 35.27 35.06 36.42 35.70 35.38 35.48 35.29
46.56 46.52 46.32 46.44 46.10 48.19 50.02 49.43 48.66 47.39 47.03 47.46 48.36 48.79 49.18 49.71 49.34 49.09 47.12 44.74 46.38 47.61 45.66 47.70 47.96 45.54 43.63 43.50 47.07 40.20 38.84 37.95 37.17 36.85 36.71 36.47 35.60 34.78 34.23 35.45 35.91 35.28 34.37 34.74
45.24 44.80 43.20 43.56 44.52 45.21 44.99 44.22 43.53 44.51 44.35 43.11 45.79 47.12 46.94 47.43 47.19 47.61 49.23 49.10 49.05 49.12 47.56 47.39 47.74 47.56 44.55 48.76 41.67 39.83 39.00 38.16 37.47 36.90 36.14 36.02 35.21 34.08 33.72 34.26 35.18 35.16 35.51 35.09
41.01 41.81 42.42 42.02 41.21 39.63 40.09 40.56 40.54 41.03 41.07 40.92 41.18 41.71 43.34 45.37 44.95 46.20 46.98 48.53 48.67 48.62 47.89 47.76 48.41 48.97 48.96 46.92 41.64 39.44 38.84 38.45 38.07 37.20 36.80 36.35 35.32 34.23 33.56 33.69 34.17 35.88 35.31 34.87
40.51 41.24 40.70 40.25 39.93 39.39 38.09 38.95 39.89 41.02 41.04 41.26 41.27 41.71 41.46 42.00 43.12 45.29 44.63 47.96 49.16 48.99 48.60 48.48 49.57 50.55 50.60 46.19 41.60 40.01 39.36 38.64 38.48 37.61 36.80 38.24 34.97 33.53 33.03 33.32 33.78 36.30 35.59 35.10
41.54 40.77 39.83 38.86 37.92 37.43 37.60 39.23 39.42 39.96 40.20 40.50 45.34 44.34 42.74 42.47 43.82 44.09 45.60 46.63 48.50 49.02 48.35 49.80 50.46 50.24 47.89 44.59 42.55 41.28 40.07 38.98 38.96 38.21 37.04 36.75 36.25 34.49 33.23 32.85 33.69 36.14 35.68 35.18
40.15 39.76 39.45 38.55 37.93 37.82 38.72 38.75 37.88 39.30 39.91 44.60 45.72 47.23 46.99 43.30 43.27 43.48 45.84 48.25 48.92 48.78 46.19 44.12 45.47 46.17 44.17 42.67 41.94 40.90 39.91 39.62 38.98 38.13 38.59 37.63 35.92 34.67 33.77 34.07 35.27 37.00 36.49 36.42
39.40 39.70 38.07 37.91 37.87 38.06 38.63 39.21 38.18 39.05 40.30 41.52 44.38 46.10 46.41 46.40 44.90 44.33 44.99 44.99 45.44 45.41 45.31 46.48 45.01 45.36 43.77 42.78 41.62 40.97 40.45 39.88 39.76 39.83 36.91 35.94 34.55 34.51 33.97 34.45 36.61 38.17 37.49 36.79

GFSNGP_sfc_wetblb_090.txt.gz
Wetbulb
41.27 41.87 41.23 40.82 40.86 42.46 41.82 36.73 38.86 41.06 44.43 47.46 49.08 48.22 48.20 49.55 52.14 52.71 53.57 54.96 56.35 57.01 58.42 59.61 60.93 62.34 63.96 64.30 65.79 67.76 67.63 67.67 67.06 67.02 67.72 68.50 68.21 68.50 68.49 68.81 69.24 71.01 71.56 70.89
38.37 42.63 43.91 41.77 42.74 44.52 47.43 47.26 45.64 45.24 44.75 48.32 48.90 48.43 48.16 48.99 49.69 50.78 52.24 53.59 54.92 55.66 57.14 58.31 59.28 60.67 61.73 62.19 62.53 63.89 63.81 64.78 66.11 65.37 64.38 65.06 66.46 66.82 67.16 67.22 67.71 68.99 69.19 70.69
34.06 38.55 43.80 39.58 41.42 44.38 46.13 47.84 46.16 42.43 44.37 47.38 46.51 48.06 47.97 48.59 49.45 49.88 51.05 52.44 53.80 54.57 55.42 56.07 56.66 58.14 58.82 59.67 60.93 60.99 60.86 61.44 62.08 62.46 61.79 62.21 62.92 63.24 64.50 63.92 64.77 64.90 65.71 66.55
33.56 34.28 30.43 40.57 46.71 48.39 46.96 47.67 47.80 46.48 46.90 47.51 47.24 47.79 48.43 50.13 49.92 50.63 51.56 52.60 53.01 53.16 54.64 56.38 56.95 56.29 56.39 56.62 56.44 56.75 56.47 56.80 58.09 58.93 59.02 60.29 60.58 59.93 61.33 62.13 63.09 63.43 63.93 65.24
30.46 29.12 34.80 40.61 42.43 42.41 42.31 43.86 48.12 46.39 47.18 47.50 47.97 47.97 47.56 50.26 51.02 50.24 52.29 51.77 51.96 53.79 54.31 54.12 53.55 53.82 52.87 52.89 53.22 52.72 52.58 53.06 54.43 56.25 55.43 55.76 55.99 57.36 58.13 58.93 60.74 61.33 63.09 63.41
30.80 29.04 28.18 35.82 44.33 48.33 46.47 37.15 48.79 48.50 47.61 47.27 47.57 42.22 44.23 48.54 49.53 50.89 50.92 51.37 51.41 51.73 52.57 51.34 51.26 52.09 51.11 50.60 50.45 49.48 50.15 50.62 51.80 53.09 53.34 53.44 54.05 55.12 56.75 57.29 58.62 61.23 61.62 60.91
31.74 29.27 34.96 41.64 45.22 47.34 37.21 37.82 48.40 50.45 49.24 47.92 46.65 47.29 47.37 48.13 48.50 49.40 49.30 49.17 49.69 49.54 48.88 49.06 49.55 49.43 47.73 47.53 46.99 48.15 48.75 48.82 48.87 48.98 50.19 50.30 52.37 52.77 53.43 54.51 54.94 55.10 55.65 56.88
29.24 28.38 28.28 44.31 44.62 38.74 41.88 45.21 47.65 50.29 49.61 48.66 46.06 47.07 47.82 48.20 47.65 48.03 47.94 48.25 48.47 47.25 46.91 47.73 48.34 47.54 45.93 45.71 46.50 47.16 47.02 46.75 46.58 46.61 47.18 47.42 48.82 49.15 50.59 51.05 51.24 50.20 51.87 52.47
33.67 33.31 39.91 42.63 42.90 45.15 44.54 45.30 47.30 48.33 48.63 47.72 46.67 47.30 47.49 46.94 47.32 48.18 48.00 47.32 47.56 46.51 46.11 46.83 47.18 46.78 45.17 45.46 46.12 45.71 45.06 44.63 44.82 45.38 45.49 46.13 46.01 46.54 46.87 48.05 48.00 47.86 48.41 47.27
37.20 40.41 42.64 44.41 45.48 46.18 46.74 46.54 47.65 48.10 48.48 49.64 48.90 48.12 47.32 47.29 47.43 47.66 47.54 46.79 47.17 46.07 45.62 45.40 46.02 45.97 45.59 45.48 45.29 44.58 43.84 43.58 43.85 43.96 43.77 44.31 45.10 45.33 44.82 45.07 44.64 44.97 45.50 45.18
36.14 39.05 41.91 44.65 46.22 46.32 47.03 47.92 48.22 48.65 49.22 49.37 48.87 47.86 47.91 47.16 46.64 47.16 46.86 46.82 46.53 45.76 45.25 44.88 44.95 44.74 44.94 44.53 44.25 43.02 42.91 42.86 42.73 43.01 42.77 43.26 43.71 43.58 44.23 45.09 44.35 44.06 44.62 44.90
35.85 41.02 41.47 42.20 45.01 47.58 46.30 46.94 47.51 47.29 47.10 48.76 48.87 47.50 47.71 46.91 46.58 46.12 46.30 46.07 45.01 45.14 44.99 44.28 44.25 44.35 44.26 44.14 43.68 42.87 42.42 42.50 42.67 42.29 42.52 42.65 42.56 42.67 43.76 43.68 43.19 42.00 41.47 42.69
42.01 42.67 43.52 46.48 48.67 49.12 46.78 46.85 47.53 46.60 47.18 46.07 46.70 46.94 46.92 46.32 45.81 46.49 45.91 45.92 45.19 45.31 45.08 44.26 44.22 43.96 44.35 43.88 43.24 42.20 41.59 42.05 42.02 41.97 42.21 41.90 41.70 41.11 40.34 42.48 42.99 41.95 40.96 41.38
44.92 45.93 43.94 46.87 45.73 49.24 49.73 50.39 49.72 47.83 46.27 47.12 47.61 46.94 47.05 45.90 45.55 44.86 44.93 45.95 45.89 45.41 44.55 44.16 43.71 43.09 44.21 43.75 42.96 41.76 42.40 42.47 41.38 41.21 41.29 40.51 40.63 40.89 40.93 39.76 39.00 39.58 40.71 40.45
45.73 45.80 44.92 45.53 46.47 47.46 48.58 48.30 48.02 46.90 46.86 45.84 47.81 47.05 46.49 45.13 45.18 45.38 46.53 45.97 45.35 44.81 44.05 43.48 42.84 42.86 43.81 43.00 41.79 40.81 41.07 40.95 40.29 40.10 40.47 40.30 40.02 39.63 39.44 39.00 38.52 38.64 39.33 39.80
45.70 45.74 46.03 46.28 45.97 46.20 46.82 47.19 46.36 45.80 46.27 46.04 45.37 46.00 46.68 47.34 47.36 47.42 46.72 44.81 43.94 43.38 43.94 43.33 43.06 43.68 43.51 42.36 41.33 40.68 41.61 42.37 40.01 39.44 39.43 39.17 39.21 38.78 38.58 38.29 38.12 38.02 38.14 38.28
43.61 42.45 42.70 42.81 44.84 45.41 46.00 47.10 46.77 46.53 46.64 45.55 45.16 46.29 46.71 46.85 47.17 47.05 45.65 45.60 46.56 46.33 45.46 44.36 44.02 44.13 43.71 42.28 41.45 40.81 41.04 43.11 41.50 39.69 39.54 39.44 39.29 38.67 38.44 38.35 37.97 37.80 37.80 38.96
45.32 45.04 45.26 45.38 45.35 45.50 46.34 47.37 47.42 47.83 47.74 48.90 49.08 47.36 46.46 46.53 45.46 46.35 46.44 46.67 46.37 45.33 44.93 45.44 44.91 44.44 43.87 42.42 41.87 41.32 40.43 40.29 40.15 39.95 39.83 39.67 39.88 39.62 39.12 38.69 38.21 37.71 37.78 38.57
46.53 46.63 47.34 47.59 47.15 46.73 47.16 47.30 48.28 49.32 49.30 49.33 48.98 48.49 48.65 48.52 47.15 46.62 47.51 46.79 45.38 44.26 44.78 45.11 48.00 46.99 43.81 43.63 43.04 41.35 40.65 39.80 39.86 40.09 40.10 40.20 40.56 40.15 39.79 39.21 38.60 38.15 37.93 37.49
47.66 48.09 48.38 48.21 48.99 48.66 48.13 48.88 48.79 48.62 48.54 48.64 48.49 48.60 48.68 49.56 49.49 48.03 47.81 46.29 45.96 46.46 48.90 45.78 47.49 45.83 44.11 44.21 48.16 41.80 41.45 40.98 40.64 40.34 40.02 40.04 39.98 40.08 39.90 38.37 38.61 38.13 37.30 36.91
46.27 46.64 46.86 47.63 46.05 45.90 44.40 44.74 46.30 46.32 46.13 47.58 47.73 48.11 48.85 49.89 50.06 49.79 46.74 45.08 46.91 48.27 48.49 48.05 47.30 46.37 44.50 43.82 48.19 42.29 41.32 41.22 40.88 40.81 40.49 40.64 40.52 40.31 39.97 39.49 38.98 38.25 37.30 37.19
43.82 43.53 43.50 43.81 43.26 42.18 42.28 42.06 42.27 42.45 42.48 42.66 43.19 44.02 46.30 48.17 49.03 49.24 48.15 47.61 49.48 49.57 48.88 48.13 47.89 48.52 46.01 49.26 45.91 44.14 42.43 41.61 41.60 41.15 40.41 40.49 40.27 40.24 39.95 39.64 38.79 38.38 37.46 37.46
41.20 42.24 41.86 41.32 40.68 40.15 40.48 40.99 41.46 41.73 41.43 41.60 41.74 42.12 41.79 43.71 45.86 46.67 46.89 49.97 50.76 49.74 48.32 47.72 48.89 49.82 48.84 47.59 44.86 44.30 43.27 42.42 42.04 41.58 41.26 41.20 40.87 40.71 40.40 39.91 39.40 38.16 37.71 37.56
40.66 41.07 40.49 40.42 40.27 39.86 39.62 40.35 40.90 41.39 40.95 41.26 41.56 42.60 42.20 42.07 43.52 45.86 47.70 48.24 49.08 48.81 48.84 48.89 49.15 50.13 49.07 47.27 46.28 45.29 44.92 43.22 42.79 42.71 42.29 40.04 41.38 40.87 40.10 40.01 39.20 39.05 38.16 37.70
41.60 40.55 40.42 39.28 38.94 39.17 39.78 40.44 40.54 40.64 41.08 45.69 45.87 45.81 47.53 45.10 43.53 45.51 46.42 47.32 48.22 49.08 48.79 49.41 49.78 50.03 48.37 46.21 45.28 45.39 44.87 44.08 43.64 43.54 43.23 42.29 41.81 41.17 40.51 39.99 39.39 39.07 38.58 38.50
40.48 40.15 39.35 39.72 40.23 40.43 40.75 40.66 40.29 41.09 42.45 42.38 44.51 46.05 47.93 46.42 45.43 46.09 47.50 47.88 49.69 48.78 48.57 49.51 49.73 49.52 48.00 47.26 46.80 46.84 46.02 44.49 43.28 42.93 42.79 43.15 42.62 41.97 41.08 40.07 39.68 39.14 39.33 39.14
39.77 39.30 39.12 39.65 39.75 39.96 40.04 40.44 40.68 41.20 42.29 42.18 42.43 45.23 45.80 45.86 46.22 47.09 47.14 48.13 48.53 48.53 48.12 48.54 48.59 48.01 47.25 46.78 46.27 45.60 44.58 44.48 42.44 44.09 43.49 42.80 42.67 42.41 41.08 40.67 40.51 40.27 39.80 39.80

GFSNGP_sfc_wetblb_093.txt.gz
Wetbulb
46.79 47.63 48.29 48.10 49.63 50.64 46.89 46.91 47.63 49.05 50.58 54.04 56.12 56.65 56.71 57.61 55.81 56.33 57.78 58.35 59.19 59.69 60.56 62.04 63.61 65.78 67.25 68.34 68.58 68.43 67.84 67.66 67.73 68.79 70.33 71.16 71.58 71.73 71.90 72.76 73.49 75.25 75.46 75.31
44.07 46.55 48.24 46.39 49.36 51.84 51.17 50.59 50.46 50.60 50.73 53.51 57.47 56.20 54.73 56.57 55.20 55.63 57.31 57.35 57.71 58.40 59.49 59.98 60.89 62.58 63.35 64.16 65.40 68.49 68.25 67.73 67.95 68.69 66.37 66.27 69.88 70.57 70.58 70.62 71.09 71.95 72.99 73.08
41.88 44.89 47.05 44.30 46.88 48.79 50.10 51.87 51.61 49.74 52.32 54.56 53.77 54.46 55.56 56.28 56.99 55.98 56.52 56.58 56.43 56.77 56.70 57.82 59.14 60.27 60.66 61.72 62.73 62.64 63.15 63.60 64.21 64.33 64.87 64.15 64.59 65.98 67.04 67.48 67.91 67.97 68.50 70.15
42.61 44.95 38.01 45.66 50.25 51.31 50.28 51.30 52.66 52.25 52.31 54.85 55.26 56.19 56.15 57.05 57.09 56.70 57.26 57.63 57.97 58.11 57.28 56.52 56.87 56.88 57.40 58.17 58.81 58.62 58.11 58.24 59.26 60.33 61.00 62.80 63.41 62.65 62.98 64.49 65.50 66.19 66.59 67.55
41.49 41.27 42.55 45.03 46.26 46.54 47.03 48.16 52.71 51.93 52.61 53.61 53.95 54.62 53.59 56.29 57.53 57.36 57.57 58.15 58.68 59.63 57.66 55.46 54.73 54.86 54.45 53.39 53.77 54.67 54.60 55.18 56.53 56.84 57.20 57.93 58.06 59.69 60.98 62.60 63.39 64.60 65.04 67.19
42.12 38.41 36.24 43.95 48.02 50.82 50.41 45.22 53.57 53.72 53.67 53.27 53.75 52.47 54.63 55.60 56.45 56.63 56.75 56.02 56.31 55.45 54.92 54.54 54.32 53.74 52.34 51.41 50.89 50.31 51.43 52.33 53.38 53.33 54.26 54.47 55.96 58.07 59.67 61.78 62.61 62.98 61.50 60.83
42.07 41.04 42.62 47.61 49.50 50.95 43.20 45.70 52.72 54.38 55.03 54.47 53.68 54.79 55.57 56.31 56.35 56.74 55.44 55.29 54.93 55.87 53.88 51.94 52.87 54.31 52.03 51.96 50.32 50.86 51.14 52.84 53.22 53.76 51.62 53.48 55.50 56.42 56.38 57.10 58.23 58.89 58.37 58.54
40.76 39.77 37.85 49.52 49.65 45.80 49.03 52.07 52.29 55.45 55.60 54.69 53.15 53.50 54.31 55.30 54.92 55.14 55.18 55.24 56.42 55.44 55.17 55.27 55.26 53.39 51.36 50.10 50.88 51.36 51.32 51.81 51.98 52.24 52.14 51.41 53.37 53.85 53.97 53.90 54.02 55.52 55.76 55.34
44.11 44.59 47.99 50.16 50.80 52.09 51.93 51.68 53.24 54.00 56.57 56.03 53.42 53.08 53.64 54.15 54.33 54.60 54.75 54.36 54.78 54.34 53.68 53.61 53.73 54.16 52.63 51.60 52.19 51.93 51.66 50.91 51.18 51.59 51.07 51.69 51.72 51.86 52.39 52.18 50.80 49.43 50.77 51.91
46.09 48.80 49.56 51.06 52.03 52.19 52.80 52.88 53.60 53.94 55.45 55.22 53.88 53.34 53.28 53.51 53.78 53.55 53.58 53.26 53.47 53.27 52.53 51.79 52.57 52.53 52.08 51.47 51.56 51.20 50.47 50.06 50.29 50.34 50.07 50.51 50.71 50.71 50.18 50.12 50.11 50.48 49.62 48.29
46.17 47.81 48.94 51.53 52.42 52.92 52.45 53.30 53.61 53.66 54.65 55.43 54.80 53.81 53.62 53.16 53.01 53.14 53.00 53.18 53.39 53.07 52.65 51.92 51.96 51.35 51.13 50.70 50.79 49.73 49.63 49.40 49.50 49.73 49.65 49.15 49.02 49.21 49.58 48.75 48.19 49.22 48.54 49.14
46.34 51.41 52.16 51.29 53.41 53.61 52.62 52.85 53.83 53.93 53.59 54.85 55.32 54.57 54.77 52.95 52.06 52.36 52.09 52.53 52.75 53.20 52.69 51.69 51.31 50.73 50.52 50.34 50.00 49.47 48.58 48.77 49.10 49.21 49.14 48.77 48.51 47.37 43.58 43.96 42.87 41.28 41.44 44.36
50.34 51.47 52.04 52.33 53.27 53.59 52.73 52.69 53.01 53.50 53.75 54.42 54.76 55.10 54.61 54.55 53.96 52.72 52.89 52.59 51.54 51.33 52.60 51.74 51.07 50.51 50.56 50.16 49.74 49.20 48.21 48.39 47.53 48.13 47.85 47.18 47.20 47.30 46.25 44.31 42.62 40.73 39.94 40.67
51.02 51.68 50.50 52.55 52.40 54.39 54.46 54.07 52.73 53.44 53.94 53.60 54.05 54.22 54.38 54.17 53.56 53.06 53.01 53.43 53.59 53.24 52.43 51.83 51.39 50.85 50.71 50.22 49.12 48.76 48.41 45.33 47.38 46.79 46.63 46.44 46.48 46.30 46.72 46.04 45.70 45.62 41.83 41.09
51.59 52.17 52.39 54.21 53.68 53.91 53.95 53.42 52.77 52.70 52.82 52.48 53.17 53.35 53.14 52.80 52.71 52.90 54.27 54.45 53.79 52.91 52.08 51.69 51.06 50.77 50.95 50.05 48.68 47.81 47.66 46.83 46.33 46.03 45.85 44.99 45.59 45.56 45.59 45.34 45.21 44.97 46.10 43.73
52.18 52.05 51.26 51.90 52.35 51.98 51.91 51.96 51.74 52.11 52.33 52.75 52.77 52.95 53.26 53.40 53.52 53.32 54.17 52.18 51.53 51.09 51.77 51.45 51.28 51.57 50.88 49.86 48.21 47.43 47.35 45.06 45.11 45.80 44.90 45.30 45.39 45.34 45.01 44.89 44.65 44.45 44.35 43.64
49.87 49.41 50.59 50.63 50.65 51.25 51.63 52.73 52.81 52.61 52.54 52.63 52.60 53.11 52.92 52.57 52.48 52.76 53.05 52.78 52.20 53.52 53.12 52.09 51.80 52.02 51.05 49.90 48.00 47.08 47.03 46.08 45.24 46.23 45.95 45.97 45.86 45.17 44.92 44.86 44.26 44.30 44.11 43.02
52.48 53.35 53.13 52.99 51.66 51.71 51.98 52.31 52.76 52.69 52.79 53.14 53.76 53.18 52.24 51.61 51.46 52.14 52.39 52.34 50.51 52.57 53.32 53.10 53.20 51.67 50.69 49.99 48.66 47.60 47.62 47.18 46.56 46.43 45.87 45.79 46.12 46.63 46.31 45.97 45.17 44.42 44.23 43.87
52.18 51.78 52.77 52.99 53.24 52.98 52.58 52.85 53.08 53.31 53.39 53.41 53.35 52.88 53.74 53.31 52.93 52.75 52.93 51.60 50.50 49.99 52.26 52.67 52.15 51.25 50.46 50.15 49.02 48.00 47.20 47.05 46.84 46.60 46.39 45.21 45.66 46.85 47.15 47.58 47.08 46.50 45.03 43.95
51.81 52.94 53.26 52.96 53.12 53.01 52.48 52.72 52.84 52.46 52.35 52.67 53.16 52.79 52.94 53.66 54.17 53.65 52.05 50.95 51.45 51.19 51.62 51.64 50.18 51.21 50.09 50.14 49.59 48.51 47.41 47.11 46.97 46.82 46.52 46.62 46.62 46.85 47.22 42.62 45.42 46.50 45.97 44.75
51.93 52.04 51.51 50.44 49.39 49.37 48.90 49.14 48.97 48.44 48.77 48.96 49.37 50.63 51.95 53.15 53.84 53.95 52.05 48.02 49.39 49.89 49.74 50.25 48.50 49.62 47.31 48.20 48.59 46.43 47.19 46.53 47.10 46.98 46.95 46.75 46.97 46.44 46.94 47.06 46.93 46.50 46.04 45.37
49.95 49.35 49.38 49.18 48.49 47.41 47.70 47.79 47.73 47.57 47.74 47.77 47.97 47.94 47.89 48.46 50.67 51.12 53.22 52.87 52.08 50.01 50.82 49.56 48.76 49.67 46.98 49.08 48.34 45.18 45.26 46.65 47.59 47.97 47.64 47.64 47.33 47.20 47.12 47.33 46.98 47.06 46.77 46.14
48.84 48.72 48.40 48.05 47.62 46.74 47.26 47.24 47.24 47.78 47.51 47.74 47.45 47.22 46.50 46.81 47.86 47.45 47.41 53.49 53.67 51.10 51.96 50.74 49.18 49.83 49.36 48.63 47.19 46.85 45.74 45.58 46.55 47.89 48.31 48.40 48.04 47.90 47.78 47.57 47.72 47.44 47.29 46.66
48.21 48.32 47.61 47.45 47.11 46.71 46.15 46.68 47.22 47.58 47.78 48.77 48.42 48.52 47.49 44.82 46.86 49.82 50.38 50.16 48.95 50.63 52.54 53.12 50.98 50.50 50.66 48.71 46.27 45.68 45.93 47.55 47.82 48.55 48.94 43.72 48.61 48.42 48.10 47.63 47.47 47.92 47.63 45.44
48.40 47.96 47.43 46.56 46.28 46.02 46.72 47.71 47.77 47.56 47.65 48.28 48.86 49.78 49.90 48.40 45.99 48.28 50.53 51.35 49.06 49.96 51.84 50.80 49.76 50.11 49.84 48.13 46.57 46.24 46.60 47.48 48.86 48.83 50.04 49.45 49.23 48.90 49.01 48.70 48.34 47.90 47.63 47.49
47.89 47.50 47.11 47.45 47.09 47.33 48.27 48.45 47.49 48.27 48.03 47.01 48.22 49.16 49.65 50.44 49.41 48.97 50.82 49.73 51.87 50.59 50.97 50.83 50.53 49.76 47.52 46.72 46.44 46.41 47.12 48.68 48.56 48.75 49.49 50.41 50.23 50.01 49.74 49.37 48.80 47.97 47.25 47.29
47.39 44.43 46.70 46.72 47.41 47.92 47.95 47.46 47.09 47.26 47.73 48.16 48.16 49.34 49.51 49.39 49.43 49.86 49.00 51.37 50.90 51.24 49.95 50.43 50.24 49.50 48.64 48.30 48.41 48.31 49.08 50.02 48.02 51.43 51.59 50.31 50.54 50.64 50.65 50.22 49.54 48.99 48.55 47.95

GFSNGP_sfc_wetblb_096.txt.gz
Wetbulb
50.69 51.22 51.16 51.02 50.92 50.79 50.57 51.43 49.47 51.82 52.79 58.92 61.50 62.35 62.64 61.68 62.10 61.68 62.86 63.98 62.45 61.56 63.03 64.35 67.64 71.19 71.73 71.36 71.52 72.51 70.51 69.21 69.93 70.91 71.46 72.25 73.66 74.53 75.79 76.11 76.11 76.91 76.99 77.15
48.48 50.44 50.79 50.47 52.38 52.05 51.53 51.70 51.96 53.12 53.24 58.98 63.24 64.02 62.83 62.09 59.47 61.27 61.92 62.83 62.32 61.17 61.92 62.30 62.75 65.54 69.17 70.63 70.74 72.42 70.48 70.00 70.08 71.33 70.94 70.59 71.46 72.60 73.05 73.62 74.43 75.58 75.52 76.07
45.09 48.83 49.57 46.70 50.37 51.69 53.11 54.40 54.47 51.18 57.28 59.78 60.19 60.43 61.71 62.22 61.64 61.72 62.28 62.72 61.42 60.42 60.50 61.25 61.23 62.44 62.70 63.67 65.50 65.93 66.65 66.88 67.12 68.05 68.84 67.90 66.02 66.79 69.88 71.27 72.15 72.01 73.20 74.13
45.45 47.59 40.01 49.50 53.66 53.52 53.07 53.96 55.68 56.40 57.43 59.31 60.43 61.90 62.97 63.81 63.32 62.07 61.96 59.84 61.27 59.06 59.15 58.52 57.67 57.57 60.37 59.95 60.77 61.17 61.65 61.21 62.67 63.99 65.05 66.12 65.26 65.56 66.87 68.13 71.36 71.79 71.03 71.13
44.72 44.64 47.41 48.61 50.43 50.96 50.35 51.63 55.60 56.43 57.56 59.90 61.41 60.82 59.63 62.01 63.46 63.64 63.79 63.67 61.73 61.25 58.49 57.16 56.50 56.75 55.73 56.56 57.82 57.02 58.40 59.24 58.66 58.96 60.26 62.89 64.29 66.17 68.19 69.12 69.33 69.53 70.34 67.01
45.93 42.58 40.53 48.76 50.99 53.46 53.66 47.94 55.83 57.71 58.00 58.24 59.61 56.63 59.25 61.68 62.76 62.74 63.04 63.62 63.41 60.69 56.52 55.37 54.78 55.30 53.57 52.56 52.66 52.71 54.46 55.69 57.13 58.45 58.51 58.69 60.32 60.21 63.15 64.23 66.53 67.45 67.19 64.18
45.49 43.49 46.50 51.30 52.39 53.84 45.82 48.25 56.19 58.72 59.05 59.14 58.66 57.78 60.70 61.78 61.54 61.75 61.90 61.70 61.44 60.33 57.98 56.67 55.26 53.29 51.86 51.45 50.36 51.02 52.74 53.53 54.75 55.10 55.87 57.09 58.41 59.00 60.79 64.05 64.34 64.27 63.82 63.21
46.58 43.59 40.89 52.78 52.26 48.71 53.09 55.99 56.41 58.67 59.49 59.13 59.00 59.03 60.30 60.66 60.09 59.84 59.67 59.66 58.61 56.78 54.67 53.90 55.98 56.84 53.28 51.26 52.28 53.36 53.87 53.70 53.88 55.33 55.32 56.92 57.94 57.55 60.00 59.79 60.11 61.77 61.18 59.53
47.07 48.48 53.63 55.29 54.99 56.01 56.39 55.87 56.57 57.74 59.36 59.73 58.41 58.84 59.41 59.35 59.48 59.61 59.49 58.28 59.11 58.89 58.72 58.57 57.02 55.51 52.96 53.10 54.87 54.69 53.49 53.20 53.69 54.75 57.96 58.03 57.66 55.31 55.07 57.85 57.36 56.08 56.94 57.45
48.41 51.69 52.54 54.46 55.51 56.08 56.59 55.71 56.37 58.20 59.61 59.99 58.71 59.18 59.19 59.34 59.42 59.51 59.73 59.35 59.60 59.00 58.05 57.18 58.02 57.81 57.80 56.42 56.38 55.79 54.45 54.11 54.48 55.43 56.09 57.52 57.60 57.51 57.45 55.97 55.93 56.34 56.08 54.63
49.82 52.25 53.68 54.82 55.70 55.69 55.60 55.98 55.80 57.67 58.61 59.05 59.54 59.13 59.29 59.19 59.33 59.40 59.35 59.17 59.12 58.71 57.93 57.26 57.49 57.09 56.45 56.14 55.74 54.95 54.04 54.50 54.45 54.48 55.14 54.69 54.87 53.65 54.93 51.78 49.49 54.42 54.97 55.85
48.11 51.99 52.89 52.06 56.15 57.20 55.68 55.30 56.03 56.10 56.68 58.35 59.18 59.30 59.67 59.48 59.95 59.51 59.17 59.29 58.65 58.55 58.13 57.60 57.06 55.98 55.66 55.46 54.84 54.00 53.33 53.22 53.70 53.92 53.90 54.35 53.07 50.49 43.77 43.88 42.18 41.19 40.97 44.42
52.80 55.99 55.23 56.39 56.47 57.34 56.15 56.28 56.58 56.52 57.52 57.12 58.09 59.11 59.70 59.78 59.94 57.62 58.90 58.31 56.68 56.70 57.70 57.57 56.43 55.50 55.66 55.00 54.28 53.46 52.77 53.48 52.22 50.55 52.97 52.51 52.52 52.11 48.67 43.74 42.36 40.75 40.40 40.56
55.82 55.73 54.05 55.37 54.77 56.80 56.89 56.82 54.59 57.03 57.53 57.96 58.32 58.21 58.66 59.17 59.64 58.76 58.60 59.19 59.21 58.60 57.91 57.32 56.18 55.41 55.66 54.62 53.88 53.21 52.89 46.51 51.79 51.99 51.48 51.25 51.89 52.33 52.69 51.34 50.56 49.14 41.64 43.10
55.42 56.48 55.76 57.36 57.49 56.93 56.97 55.76 54.69 54.80 55.79 56.54 57.85 56.88 57.51 57.64 58.23 58.82 59.75 59.97 59.46 58.59 57.68 57.01 55.93 55.86 56.04 54.56 53.14 52.60 51.78 50.51 51.36 50.97 51.05 50.13 50.95 51.13 51.23 51.36 51.50 51.03 50.53 42.95
55.92 55.62 55.53 55.61 55.67 55.61 54.86 54.12 53.14 54.23 54.91 55.40 55.28 56.03 56.70 57.43 57.98 58.66 59.32 59.89 58.29 56.87 57.64 57.33 56.61 57.02 56.04 54.42 53.28 51.99 51.96 49.41 50.02 50.15 48.55 49.66 49.80 49.67 49.62 50.32 49.99 50.76 50.29 48.92
53.80 53.07 53.78 53.68 53.95 53.76 53.44 54.89 54.97 55.17 55.20 55.05 54.69 55.44 56.03 56.28 56.96 57.08 57.84 58.69 59.08 58.55 58.99 58.13 57.00 57.79 56.07 54.58 53.17 51.58 51.31 49.36 49.77 50.28 49.78 49.80 49.80 49.53 49.63 49.66 50.01 51.00 49.66 44.46
56.18 56.11 56.65 56.30 54.62 53.76 53.62 54.20 54.79 55.11 55.49 55.54 55.80 55.55 55.09 55.06 55.32 56.13 56.87 57.77 57.87 57.49 58.08 58.94 58.42 57.51 56.00 54.69 53.35 51.88 51.12 50.40 49.54 50.25 50.20 49.67 49.72 50.04 49.66 49.56 49.64 49.85 50.34 46.54
56.31 56.09 56.00 55.40 55.17 54.72 54.41 54.82 55.78 55.85 56.35 56.02 55.32 54.95 55.00 55.19 55.84 56.24 56.79 56.52 56.07 55.55 56.14 58.04 56.68 56.41 56.13 54.92 53.72 52.39 51.49 51.30 50.39 50.36 50.17 48.67 48.91 50.09 50.01 49.87 49.93 50.11 50.76 50.38
55.50 56.19 56.25 55.90 56.32 55.60 55.43 55.88 55.99 55.87 55.79 55.12 54.87 54.92 54.14 54.35 55.12 54.98 55.61 55.18 55.83 55.98 57.29 57.36 56.70 54.46 55.80 54.80 52.85 53.02 52.09 51.58 50.93 50.47 50.20 49.75 49.70 50.05 50.17 45.14 48.44 49.54 49.46 49.60
55.80 56.02 55.77 55.31 54.43 54.25 53.59 53.18 53.19 52.66 52.15 52.21 51.86 51.68 52.10 53.12 54.32 54.77 53.75 52.46 55.84 57.07 56.34 54.48 55.43 52.85 53.02 53.83 53.01 52.18 51.86 50.97 51.08 50.72 50.13 49.28 50.12 49.62 50.01 49.96 49.74 49.54 49.46 49.48
55.20 53.60 52.83 52.79 52.73 51.83 51.69 51.81 51.38 51.38 50.84 51.11 51.42 51.63 51.21 51.21 51.91 52.15 53.63 52.92 55.37 52.13 55.16 55.06 55.05 53.86 51.34 52.36 50.04 49.25 48.25 50.32 49.79 50.84 50.67 50.27 50.18 49.91 49.67 49.86 49.62 49.80 50.01 50.04
53.65 53.00 52.34 51.34 50.93 50.95 51.03 51.15 50.75 50.56 50.51 51.01 50.15 49.73 49.52 48.74 49.49 49.03 49.18 53.67 54.15 53.61 54.82 55.03 53.74 52.07 51.55 50.28 49.25 47.98 45.92 45.97 47.13 48.33 50.51 50.73 50.57 50.48 50.13 49.93 50.35 50.38 50.46 50.48
52.07 51.70 51.66 51.94 51.43 50.27 49.06 50.05 50.47 50.90 51.21 51.15 51.30 50.30 50.84 48.40 48.22 48.53 50.60 50.73 49.31 51.24 54.52 54.62 52.62 50.39 50.64 50.79 48.30 47.60 45.86 46.01 46.73 48.37 49.74 44.99 48.98 49.31 50.36 50.43 49.98 50.51 50.97 49.37
52.08 52.13 52.02 50.77 49.62 49.42 49.82 50.57 50.31 51.20 51.71 51.92 51.12 51.46 52.06 51.55 48.61 49.70 51.09 51.82 49.74 50.30 54.23 52.08 51.66 50.96 51.84 49.90 49.40 49.58 47.52 46.73 46.61 46.61 48.09 48.82 48.86 49.36 50.46 50.64 50.67 50.88 50.90 50.92
52.02 51.16 51.02 50.92 50.15 49.97 50.50 50.55 51.08 51.70 50.31 49.97 50.61 51.32 51.53 51.56 52.27 51.14 52.25 50.67 51.97 51.50 53.56 53.00 53.41 53.09 51.97 50.14 48.08 47.18 46.95 47.16 46.75 47.16 47.61 48.22 50.80 51.28 50.67 51.06 51.05 51.24 51.28 51.18
52.29 48.08 50.10 49.70 50.28 50.39 50.93 51.35 50.08 51.05 50.45 50.07 49.59 51.56 50.70 50.92 50.26 52.15 50.16 52.38 52.00 52.49 51.47 50.97 48.91 48.33 48.14 47.97 48.19 47.67 47.74 47.86 46.97 48.89 50.30 51.34 52.06 52.04 52.04 51.89 52.08 52.29 52.34 51.48

GFSNGP_sfc_wetblb_099.txt.gz
Wetbulb
51.66 53.09 52.87 50.97 50.13 51.13 50.92 52.61 50.40 51.53 53.69 60.63 63.62 64.17 65.17 64.78 64.09 63.52 64.54 64.93 64.12 65.19 66.45 69.30 71.39 71.89 72.19 71.94 71.73 72.64 72.01 72.41 72.20 70.68 71.48 72.06 71.87 73.52 74.26 75.86 75.87 76.39 76.43 76.82
50.32 51.99 51.87 50.36 51.96 52.23 51.82 51.88 52.38 52.37 55.69 62.97 65.52 66.39 65.30 64.82 64.79 64.68 64.44 64.90 64.84 63.25 63.96 64.19 66.57 71.51 72.85 73.02 71.86 72.92 72.76 72.22 72.53 72.87 73.54 73.01 73.44 72.97 73.39 74.31 74.61 75.79 75.87 76.27
46.07 51.35 51.06 47.87 51.88 52.19 52.60 53.79 53.12 52.08 56.88 61.57 63.18 64.08 65.17 64.69 64.58 64.32 64.77 64.12 63.87 63.80 63.27 63.02 62.59 64.92 67.30 69.88 72.84 72.25 71.33 70.89 71.47 71.63 71.46 71.70 72.24 72.22 70.34 71.78 74.30 73.89 74.31 72.27
48.90 49.08 42.81 50.53 55.21 55.75 54.09 55.66 56.54 57.79 59.61 61.25 63.01 64.70 65.85 66.61 66.01 65.10 64.16 64.02 64.60 63.32 61.19 60.06 58.99 60.41 61.84 62.00 65.35 67.32 66.90 66.43 66.76 67.37 67.89 68.57 69.51 69.52 67.33 69.56 71.69 72.73 72.56 70.41
43.57 42.00 47.73 51.13 52.98 53.06 52.58 53.24 57.03 57.97 59.21 61.48 63.45 64.48 63.51 65.99 66.62 65.67 64.96 65.25 64.78 63.70 60.88 58.56 56.85 56.27 57.78 58.46 58.51 58.64 62.01 62.32 63.30 64.70 66.08 66.77 66.60 69.20 69.32 70.56 70.91 71.42 71.16 69.06
48.91 42.22 42.10 46.49 53.51 55.60 54.84 50.03 57.54 58.42 59.32 60.84 61.89 58.15 61.15 65.10 65.70 65.54 65.00 64.28 63.37 61.72 58.53 56.92 55.96 56.30 54.92 54.35 56.33 54.80 54.69 56.31 61.95 61.01 61.32 63.08 65.11 66.08 67.77 69.05 69.39 69.42 66.49 66.80
47.42 45.42 45.15 53.39 54.10 55.34 46.52 48.49 58.15 59.17 60.01 60.74 60.80 61.86 64.08 65.27 64.41 64.95 64.17 63.33 62.09 60.72 56.94 55.39 55.56 55.17 53.85 53.16 51.25 53.07 53.96 55.77 56.30 58.11 58.81 59.95 60.94 61.32 62.26 65.51 67.43 67.62 66.46 65.33
47.89 43.06 43.09 54.59 53.32 49.88 56.05 57.65 58.67 60.06 60.70 60.91 61.53 62.27 63.60 63.66 63.22 63.65 62.98 62.52 62.92 61.79 60.50 57.54 56.42 54.31 52.21 52.16 54.56 53.69 54.55 54.51 55.78 56.69 57.30 58.17 59.76 60.26 62.29 62.72 63.13 64.11 64.76 63.72
49.71 50.27 56.08 56.94 57.29 58.40 58.70 57.88 58.02 59.27 60.70 61.81 60.70 61.64 62.84 62.76 62.69 62.72 62.63 62.09 61.78 60.26 58.87 58.52 59.28 60.45 53.21 53.40 54.61 54.47 54.49 54.21 54.65 56.25 57.30 57.92 59.76 59.11 58.59 59.95 59.43 60.64 60.10 59.68
50.89 53.44 53.37 55.07 56.64 57.23 57.89 57.42 57.85 59.40 60.51 61.02 60.32 61.72 62.23 62.68 62.40 62.08 62.14 61.57 61.71 61.01 59.70 59.04 58.06 57.46 56.72 58.54 58.47 57.07 56.41 55.29 55.38 55.42 56.50 58.29 57.15 57.91 58.48 57.85 57.40 58.16 57.14 57.48
51.80 54.10 54.91 55.43 56.45 57.03 56.83 56.91 56.44 58.05 59.48 60.35 60.88 61.05 62.23 62.11 62.46 62.36 62.11 61.93 62.06 60.20 60.18 59.86 60.28 60.11 59.11 57.52 56.62 55.50 56.06 55.98 55.68 55.52 54.87 56.72 56.45 52.28 53.56 51.75 48.58 50.78 57.36 56.77
50.69 54.45 55.05 54.86 57.70 57.44 56.38 56.10 56.81 56.62 57.58 59.76 61.31 60.85 61.71 61.88 62.71 62.57 62.08 61.83 61.31 61.24 60.82 60.10 60.02 59.31 58.92 58.69 58.40 57.59 56.21 56.05 55.61 56.00 56.02 56.09 55.15 52.45 43.04 43.48 42.46 41.29 41.02 44.13
54.06 56.73 57.03 57.18 57.78 58.55 56.99 57.09 57.69 57.37 58.13 57.50 59.42 61.65 61.50 61.06 61.87 59.82 62.29 61.88 61.29 61.16 61.25 60.82 59.90 58.76 58.73 58.38 57.56 56.86 55.72 56.71 55.64 51.72 55.15 54.66 54.67 53.71 50.75 44.46 42.67 41.46 40.56 40.75
57.77 57.81 55.28 56.74 55.99 57.78 57.61 58.08 57.11 57.99 58.55 58.87 59.08 59.12 59.67 60.51 61.31 61.83 61.29 62.06 62.06 61.50 60.82 60.88 59.89 58.71 59.06 58.15 57.16 56.32 55.90 48.62 54.65 53.57 54.32 54.13 53.79 53.91 54.16 52.49 51.26 49.66 42.00 44.48
57.43 57.95 57.45 58.90 58.21 58.08 58.44 57.99 56.57 56.20 57.16 57.72 58.64 58.29 58.84 58.64 59.55 60.87 61.74 62.09 62.17 61.34 60.85 60.82 59.71 58.99 59.43 58.28 56.85 55.95 54.79 53.41 52.62 53.80 53.57 52.39 53.31 53.17 52.70 53.07 53.23 52.67 50.99 43.14
57.58 57.55 57.28 57.34 57.45 57.46 57.00 56.17 55.26 55.90 56.40 56.16 56.23 56.82 57.74 58.82 59.42 60.05 60.95 61.43 60.29 59.53 60.72 60.83 60.03 59.82 59.53 58.18 56.66 55.20 54.83 50.25 52.35 52.74 52.07 51.61 51.76 51.64 51.43 51.90 51.95 52.03 52.03 51.91
56.11 55.11 55.72 56.30 55.94 56.60 55.64 56.49 55.93 55.83 55.96 56.08 55.67 56.51 56.88 57.03 57.34 57.97 59.18 60.16 60.90 61.34 61.76 61.58 60.73 61.13 60.01 58.32 56.52 54.98 54.12 52.75 52.12 51.99 51.66 51.38 51.51 51.28 51.44 51.18 50.98 51.28 51.15 46.03
58.15 57.50 57.64 57.31 55.97 55.24 55.39 55.53 55.79 56.10 56.58 56.45 56.98 56.39 56.03 55.85 55.80 56.81 57.63 58.83 59.14 59.52 60.56 62.05 61.52 61.23 59.65 58.51 57.03 55.21 53.83 52.81 50.40 51.15 52.08 51.93 51.58 51.66 51.30 50.88 50.80 50.57 50.56 47.01
58.24 57.73 57.28 57.42 56.78 56.50 56.16 56.05 56.30 56.76 56.65 56.30 55.95 55.34 55.89 56.13 56.18 56.30 56.99 56.81 56.59 56.30 57.66 59.74 59.39 58.80 58.33 58.65 57.13 55.54 53.96 53.26 51.73 51.40 52.23 50.97 51.00 51.82 51.44 51.28 51.21 51.11 51.08 50.47
57.81 58.19 57.00 56.64 57.17 56.60 56.18 57.27 56.63 56.36 56.36 56.03 55.50 54.90 54.49 54.85 55.15 55.69 55.89 53.34 55.93 56.17 58.70 57.94 58.87 58.60 58.99 57.58 56.86 55.42 54.56 53.54 53.04 52.28 52.33 51.83 51.52 51.14 51.79 47.38 51.09 51.55 51.40 50.74
57.14 56.85 56.67 57.67 57.17 57.36 56.60 56.96 56.20 55.30 54.47 53.85 53.37 52.95 53.15 54.01 54.22 54.21 53.14 51.78 55.42 56.76 58.00 56.81 57.51 58.03 58.49 57.15 55.24 52.86 52.21 53.49 53.47 53.08 52.75 51.79 51.94 51.72 52.20 52.32 51.69 50.65 50.93 51.24
56.72 56.86 57.13 56.85 55.89 55.06 54.77 54.82 53.61 53.82 53.22 52.60 53.03 53.37 52.88 52.71 53.24 53.35 54.56 53.47 54.59 53.08 56.54 56.76 56.77 56.24 56.54 56.25 55.33 53.06 50.82 49.16 51.19 53.05 52.94 52.79 51.98 52.21 52.16 52.36 52.08 51.81 51.80 51.66
56.69 56.83 56.15 55.52 54.15 53.63 53.07 53.79 52.64 52.97 52.83 52.28 52.33 52.13 51.58 51.92 51.75 50.21 49.18 53.60 53.54 51.38 54.58 55.58 54.97 53.93 53.51 55.33 55.46 54.61 53.22 49.08 47.89 47.74 50.29 52.26 52.12 52.27 52.35 51.43 51.70 51.99 51.73 51.13
56.32 55.90 54.89 54.30 53.59 52.42 50.95 52.25 52.47 52.92 53.70 53.10 53.12 53.48 52.40 51.38 51.79 52.72 52.88 50.20 49.58 51.11 53.30 55.26 54.21 52.24 51.86 53.63 54.54 54.19 52.11 47.99 47.18 47.91 48.35 46.17 49.44 51.08 51.21 51.49 50.99 51.70 51.64 49.69
55.12 54.07 53.51 52.87 51.59 51.16 52.07 52.35 51.94 52.28 52.06 52.45 52.31 52.60 52.52 53.52 51.43 52.47 53.37 53.68 51.53 51.37 53.45 52.41 51.94 51.12 53.26 53.93 54.20 51.88 49.76 47.92 46.70 46.98 47.97 47.89 47.87 48.67 49.28 50.47 50.29 50.25 50.81 51.19
53.46 52.62 53.03 53.14 52.16 52.03 51.84 51.49 51.05 52.61 51.30 50.20 50.90 51.08 50.75 53.26 53.11 52.84 54.24 51.79 54.56 52.54 54.03 54.58 54.45 54.01 53.95 53.50 52.09 50.56 50.17 49.25 46.93 46.84 46.52 46.96 47.27 47.81 48.53 49.51 49.64 50.47 51.11 50.61
53.50 49.89 52.57 51.50 52.24 51.89 52.46 51.64 50.85 50.12 49.58 50.25 49.72 51.42 51.25 51.39 52.56 50.56 49.30 53.24 52.95 51.55 51.22 51.46 51.72 49.75 50.70 50.88 50.11 49.50 49.09 48.35 46.44 46.95 46.71 46.50 47.11 47.49 48.67 49.92 50.71 52.33 51.87 51.80

GFSNGP_sfc_wetblb_102.txt.gz
Wetbulb
50.83 51.59 52.58 51.91 50.16 50.22 50.26 50.37 49.18 51.84 55.63 59.16 61.90 63.91 64.99 64.94 65.54 65.59 65.68 66.11 68.33 67.47 68.68 71.10 72.08 72.51 73.14 72.56 72.35 71.51 70.92 71.43 71.65 72.38 71.06 71.19 72.15 71.72 72.80 72.46 73.13 73.79 74.44 75.77
50.07 52.24 52.40 50.56 52.37 50.84 50.99 51.43 51.76 53.47 57.17 60.01 60.37 62.87 64.31 64.08 63.13 63.88 64.62 65.43 65.40 66.03 67.43 66.41 69.08 71.42 71.71 71.54 71.34 72.77 72.17 71.33 72.21 72.67 72.70 72.43 72.03 71.58 71.11 71.00 72.02 72.59 72.32 73.45
47.52 51.01 51.41 48.00 51.72 52.06 51.61 52.86 52.87 53.31 57.68 58.64 55.65 57.22 63.78 64.38 64.36 64.53 64.03 64.17 64.50 64.37 64.30 63.77 64.29 67.53 68.09 72.51 73.12 73.02 72.92 72.97 72.46 72.16 72.97 72.43 72.45 72.35 71.96 71.13 70.68 70.41 70.92 68.25
46.14 48.14 42.08 50.56 56.05 55.01 54.98 54.21 58.70 58.78 58.49 60.78 60.98 64.92 65.26 66.58 65.67 64.61 63.79 63.50 63.91 63.14 61.91 60.27 60.73 61.96 62.20 63.83 68.02 68.45 68.18 70.40 70.67 71.30 70.53 70.62 70.60 70.10 70.10 71.01 69.28 69.84 69.47 67.02
42.39 41.67 45.76 50.62 52.72 52.87 52.93 52.89 57.39 58.50 60.13 62.09 62.58 64.61 64.17 66.85 66.89 65.03 64.41 64.43 63.85 63.00 60.72 58.78 57.69 59.16 59.24 59.04 58.88 61.62 62.32 62.94 65.50 67.29 67.24 67.45 68.12 69.52 70.18 69.75 68.09 70.01 70.54 67.63
46.93 42.17 39.84 48.51 53.12 56.76 56.07 46.35 55.76 58.52 60.02 61.04 62.05 57.77 60.89 64.95 65.64 65.40 63.24 62.63 61.66 60.01 58.66 57.17 56.34 57.23 56.53 56.97 56.65 55.13 55.30 56.97 61.56 62.87 64.45 65.15 65.61 66.07 68.13 69.94 70.92 68.16 66.84 65.03
41.85 42.19 45.79 51.57 53.94 56.13 45.93 49.46 57.88 59.18 60.49 61.71 60.68 62.41 63.96 64.07 63.59 64.53 64.09 62.30 61.20 58.82 56.78 55.61 55.81 55.49 53.98 53.63 53.27 54.98 56.06 56.83 57.07 58.33 60.89 62.45 63.76 64.55 65.33 65.61 69.32 67.66 66.01 63.10
48.49 44.18 41.60 54.99 53.75 48.83 55.42 58.30 59.58 60.39 61.39 61.45 62.10 63.94 63.84 63.45 62.70 62.72 61.97 61.64 61.29 58.28 56.27 56.40 56.53 55.77 54.20 53.42 54.54 55.34 55.15 55.61 57.68 58.28 58.98 57.82 61.44 62.34 63.66 63.61 64.62 65.08 65.86 65.59
50.28 49.74 56.31 57.57 58.42 60.06 59.74 58.48 58.74 59.79 60.89 61.95 61.22 62.20 63.45 62.57 62.72 61.91 62.43 62.23 62.48 60.38 58.29 57.10 57.35 56.16 53.82 53.64 56.24 55.65 55.44 55.50 54.61 56.41 57.43 58.85 59.52 59.28 60.20 60.70 59.52 61.45 61.58 62.22
51.86 54.51 55.08 55.85 57.09 57.78 58.77 57.99 58.34 59.65 60.43 60.90 60.67 61.80 62.59 62.93 62.49 62.21 62.04 61.49 61.10 59.89 58.73 58.36 59.96 60.42 56.35 56.02 55.78 55.91 55.68 55.60 55.04 55.57 55.20 57.77 57.42 58.55 57.47 58.77 58.59 59.90 60.42 59.68
51.38 54.81 55.29 55.56 56.27 57.43 57.19 56.96 56.59 58.38 59.92 60.47 61.24 61.39 62.42 62.66 62.37 62.06 62.12 62.27 62.03 61.63 60.25 59.18 59.19 58.18 58.91 60.05 60.04 58.10 57.62 56.79 57.17 56.92 56.13 55.92 47.50 45.74 50.40 42.84 43.71 47.29 49.22 54.36
49.15 56.41 57.57 55.27 57.77 57.77 56.94 55.83 56.57 56.77 57.61 60.08 60.77 60.94 62.30 61.62 61.75 61.06 61.30 62.27 62.09 62.67 61.78 61.18 61.45 61.00 60.83 60.04 59.83 58.34 56.55 55.58 55.78 56.12 55.82 57.26 53.82 49.08 43.27 43.25 42.43 41.04 41.02 44.80
54.29 57.09 57.20 57.13 58.52 58.74 57.17 57.18 58.01 57.60 58.84 57.42 59.88 60.64 60.91 61.52 61.95 59.54 61.81 61.94 62.99 63.04 62.92 62.01 61.75 60.56 60.93 60.86 60.07 59.79 58.84 61.66 57.69 55.80 57.25 57.15 57.18 54.99 49.38 42.97 43.20 41.35 40.80 41.19
57.46 57.97 56.06 57.22 56.45 57.90 57.55 58.34 58.33 58.07 59.03 58.58 58.98 59.12 59.67 61.89 60.96 61.07 61.61 60.61 62.37 62.93 62.13 62.51 61.80 60.75 61.35 60.12 60.34 59.81 58.45 50.00 56.90 57.00 54.90 57.68 57.22 56.24 55.95 49.88 47.74 45.64 41.93 44.67
57.51 58.16 58.00 58.65 58.65 58.64 58.61 58.67 57.03 56.63 57.49 57.69 58.43 58.23 58.74 58.49 60.52 61.40 62.72 62.64 61.90 60.82 61.64 61.54 61.40 61.40 61.80 60.42 59.58 58.09 56.64 55.77 54.83 54.75 56.76 54.98 56.27 55.36 54.22 54.97 55.94 51.01 47.41 42.35
58.03 58.16 57.50 57.48 57.75 58.13 57.61 57.04 55.83 56.00 56.60 56.64 56.77 57.40 58.28 58.95 59.40 60.01 61.48 62.49 61.42 60.16 60.76 60.09 60.37 60.14 61.69 60.36 59.50 56.84 57.02 54.56 53.70 54.57 54.23 53.85 53.31 52.94 52.91 53.95 54.17 54.12 52.65 51.11
56.36 55.49 56.24 56.16 56.47 57.27 57.22 57.39 56.49 55.93 56.56 55.81 56.11 57.34 57.26 56.73 57.24 57.86 59.91 59.17 61.88 59.28 61.70 59.87 59.73 61.11 62.06 60.49 58.81 56.75 55.88 55.44 53.23 52.82 53.05 51.66 52.21 52.29 52.49 52.43 52.10 52.56 51.80 46.66
59.12 58.21 58.33 59.19 55.86 56.00 56.16 56.37 56.15 55.98 56.04 57.19 57.52 56.66 55.98 55.85 56.23 57.66 58.57 59.57 59.79 59.86 61.00 60.32 59.66 59.50 58.91 59.12 58.95 57.55 56.78 55.60 53.00 51.92 52.84 53.20 52.51 52.91 52.55 52.38 52.07 52.02 48.52 44.75
59.09 58.61 58.26 58.46 57.31 56.93 55.74 56.28 56.42 57.04 57.02 56.45 55.73 55.25 55.78 55.63 57.10 57.09 57.26 56.55 55.79 56.01 56.71 59.48 58.67 60.69 59.70 57.23 58.56 56.44 56.66 55.25 53.63 51.83 52.17 52.34 52.58 52.68 52.19 51.99 51.80 51.99 51.52 47.79
58.57 58.57 58.59 57.77 57.01 55.91 56.59 57.84 57.25 56.72 57.00 56.29 55.39 54.53 54.08 54.29 56.12 55.84 56.02 55.37 56.30 55.95 57.43 57.78 58.53 58.59 61.03 60.29 58.58 56.99 54.94 54.18 53.51 52.47 52.28 52.38 52.13 51.80 52.16 49.00 51.41 51.77 51.69 51.58
58.06 57.07 57.35 57.49 57.53 58.20 57.83 57.53 56.24 55.26 55.39 54.66 53.19 52.71 53.04 53.69 54.18 55.04 54.41 51.48 55.96 57.65 55.97 56.26 57.76 57.54 57.52 57.80 57.34 56.57 54.91 54.12 51.65 53.76 51.52 51.78 52.75 51.61 51.93 52.29 51.93 51.48 51.80 52.04
57.53 57.15 57.36 57.03 56.55 56.35 56.55 55.94 54.75 53.77 52.80 52.63 53.04 53.02 52.40 52.39 52.80 52.71 54.52 52.79 53.36 51.57 53.83 54.90 56.22 56.33 54.67 57.37 58.63 56.02 54.10 53.75 49.94 49.35 50.69 52.23 51.80 51.58 52.49 52.80 52.74 52.25 51.81 52.33
57.14 56.94 56.14 56.46 55.37 55.30 54.88 53.87 53.12 52.54 52.58 52.38 51.97 51.88 51.51 51.61 51.78 50.15 48.99 54.07 52.69 51.71 51.60 52.86 53.41 53.91 53.90 56.36 57.32 56.35 53.43 53.65 50.46 49.16 49.74 49.43 48.09 49.00 49.76 51.36 52.91 53.57 53.37 53.19
56.92 56.65 56.70 56.56 56.18 54.49 52.25 52.69 53.09 53.13 53.05 53.02 52.86 52.73 52.34 50.66 50.99 51.76 52.81 51.48 50.56 51.05 52.41 52.26 53.38 52.67 52.03 56.85 55.65 54.65 54.35 54.40 54.06 51.16 49.30 47.01 49.03 49.60 49.32 49.29 49.43 50.89 53.21 50.77
57.16 56.64 56.06 54.56 53.13 51.92 53.04 53.14 52.54 52.81 52.83 53.19 53.27 54.04 53.25 53.31 51.22 51.48 53.03 53.05 51.99 51.90 53.49 52.77 52.10 51.86 53.76 55.68 55.36 53.82 53.04 52.88 52.27 51.44 50.02 48.18 47.95 48.29 48.00 48.57 48.53 48.41 49.31 50.05
55.87 53.98 53.55 54.53 52.95 52.76 52.71 52.37 50.91 52.07 51.34 49.99 51.35 51.93 51.24 51.73 52.42 51.56 53.36 51.94 53.15 51.82 52.47 53.79 53.38 53.61 54.98 54.74 54.47 54.46 53.59 51.93 50.94 49.44 49.11 47.34 47.03 46.90 47.03 47.73 48.56 48.93 49.64 49.69
54.24 50.47 53.58 52.90 52.76 52.99 52.60 51.72 51.67 50.85 50.62 50.81 49.94 50.44 51.35 51.29 51.23 50.31 49.85 52.31 51.77 51.36 51.34 51.41 51.16 50.52 51.63 51.14 51.44 52.47 52.27 50.68 48.41 49.14 47.70 47.12 47.30 46.96 47.17 47.64 48.62 49.80 50.61 50.34

GFSNGP_sfc_wetblb_105.txt.gz
Wetbulb
47.59 50.09 49.69 49.33 49.32 48.21 44.01 44.49 40.78 50.28 52.31 54.34 57.00 60.64 61.64 62.81 64.13 64.42 65.33 66.10 65.66 65.57 67.35 67.69 69.40 69.04 69.17 69.44 68.66 69.17 68.63 68.74 68.74 69.08 68.86 69.14 68.77 68.68 69.22 69.85 70.51 71.98 72.41 69.36
45.70 50.30 50.87 48.88 50.57 51.73 49.89 47.70 53.48 55.06 52.44 57.69 59.27 59.86 61.27 61.61 62.40 62.99 63.64 64.50 65.34 65.78 65.97 66.08 67.13 68.70 69.56 69.80 69.28 69.24 69.15 68.59 70.14 70.07 69.28 69.32 69.48 68.97 69.28 69.22 68.94 70.89 69.34 67.02
39.89 47.12 47.91 45.80 48.15 50.23 51.02 52.20 52.94 50.73 53.46 55.22 55.07 56.59 59.26 61.53 62.05 62.70 63.58 62.83 63.53 63.47 62.41 62.87 63.78 64.67 65.09 68.57 69.96 69.78 69.49 69.64 69.62 69.67 69.19 69.76 70.27 69.78 68.14 67.38 68.70 69.77 64.42 58.79
40.32 43.84 36.73 47.19 52.21 52.43 51.70 52.41 52.51 55.01 55.39 54.90 54.65 55.48 56.11 63.05 63.13 62.66 62.66 63.00 61.76 61.00 60.38 60.82 61.35 61.98 62.01 66.61 68.07 68.12 69.04 68.86 69.02 68.92 68.38 68.03 67.62 67.40 66.77 67.29 67.78 66.03 63.46 60.28
39.25 37.87 44.68 48.73 50.98 49.66 47.55 48.14 54.09 53.63 58.18 59.62 60.86 62.92 62.19 64.19 63.31 62.47 62.31 61.97 60.91 60.10 58.84 58.40 59.40 60.27 60.93 60.09 61.59 61.54 61.68 63.71 65.99 66.75 65.34 65.66 64.48 66.44 66.73 67.13 66.77 66.39 64.07 59.62
40.50 37.59 36.92 46.68 52.70 54.75 52.94 45.22 53.94 56.53 57.23 59.19 60.14 55.17 59.19 62.17 62.36 60.95 60.55 59.42 58.39 58.10 57.15 56.60 56.86 58.08 57.90 57.45 57.00 56.52 56.84 60.24 61.90 62.39 62.74 61.22 61.48 62.54 62.97 64.55 66.75 63.04 62.09 59.37
41.56 41.61 44.51 51.78 53.93 54.68 43.92 47.10 54.91 56.76 54.47 56.93 52.95 58.38 60.05 60.74 60.44 60.58 59.43 57.61 57.53 57.13 55.64 55.07 55.80 56.09 55.13 55.51 55.20 56.42 56.92 57.55 57.85 58.64 60.46 59.98 59.90 60.81 61.02 62.53 64.56 62.91 59.48 56.59
40.27 37.19 38.26 54.38 53.09 46.86 51.80 54.87 55.80 59.15 58.93 60.05 59.84 60.77 60.79 60.31 60.01 59.72 57.90 57.11 56.11 55.20 54.42 54.99 55.12 54.65 53.58 52.86 54.91 55.49 55.79 56.34 57.00 57.95 57.98 58.50 58.48 59.48 59.72 59.84 61.20 62.60 62.10 56.94
45.29 43.71 48.82 53.82 53.89 56.01 56.21 54.07 54.59 55.31 60.09 60.28 60.16 60.25 60.66 59.59 59.01 59.01 58.34 57.37 56.40 55.09 54.47 54.94 55.06 54.23 52.92 52.24 52.83 53.33 52.85 53.57 54.10 54.50 55.79 57.24 56.32 55.97 55.82 58.05 57.12 58.20 60.32 59.87
48.49 50.05 52.93 54.72 54.76 55.93 55.97 54.10 55.08 55.70 56.84 58.87 58.63 60.18 59.87 58.88 58.31 59.55 59.70 57.67 56.57 55.07 53.76 52.85 53.60 53.50 52.05 52.57 54.33 52.67 51.69 51.38 51.47 51.46 51.98 53.26 50.36 52.11 49.62 49.99 52.10 52.98 51.57 53.89
49.34 52.25 52.57 53.77 54.70 54.53 54.60 55.26 54.88 55.93 57.54 57.82 59.46 59.42 59.41 59.90 59.11 59.15 59.10 58.33 56.95 55.74 54.65 54.03 54.79 52.60 52.49 52.70 53.06 52.27 53.50 52.56 52.09 52.44 52.51 46.75 42.78 46.00 44.55 42.52 42.43 47.27 44.56 45.64
45.24 52.39 51.08 51.72 54.60 56.46 54.23 54.06 54.58 54.93 55.84 56.93 57.98 60.39 60.38 58.01 58.62 59.05 58.87 59.33 59.03 57.36 56.19 55.05 54.76 53.35 53.95 54.84 54.55 53.16 51.72 51.84 51.84 52.15 49.94 47.33 42.85 40.30 42.99 42.45 41.96 41.06 41.44 45.78
51.97 54.36 54.10 55.60 56.82 56.56 54.79 55.43 55.87 55.90 55.61 54.76 55.86 58.81 59.73 58.26 59.33 57.84 59.14 58.88 59.11 57.44 57.37 56.98 56.76 55.76 55.70 54.87 54.81 54.52 52.80 52.52 51.08 50.83 50.25 50.96 48.66 45.43 40.96 39.33 42.56 40.61 40.16 40.84
56.18 55.50 52.73 55.10 53.59 56.40 56.80 56.87 57.08 57.00 55.86 56.58 55.49 55.72 59.80 58.34 58.71 58.69 58.43 58.95 59.66 59.75 58.39 57.38 56.38 55.20 55.35 55.06 53.38 53.46 52.34 50.09 48.51 49.53 48.45 48.57 51.21 50.12 46.99 42.38 39.71 38.85 40.45 41.16
54.90 55.20 54.75 55.10 55.95 55.52 56.33 56.30 54.59 53.73 54.99 55.05 55.22 54.81 56.32 57.25 57.63 58.27 59.93 60.16 58.50 57.97 58.41 58.44 58.01 56.46 56.07 55.08 53.90 52.55 52.34 50.85 48.99 47.95 47.92 48.09 47.75 47.78 47.73 45.49 44.21 42.23 39.91 39.61
56.00 55.84 55.50 54.92 55.93 55.50 55.67 55.19 53.37 54.05 54.98 54.48 54.01 54.19 54.11 54.00 53.76 54.58 56.79 56.86 57.65 56.61 57.30 56.87 56.39 58.27 57.25 55.73 54.07 53.07 52.59 54.59 50.75 47.09 47.10 46.08 45.89 45.75 45.65 45.40 46.74 44.10 41.34 40.86
53.55 52.10 52.84 53.71 54.98 55.16 54.73 54.60 53.84 53.79 54.13 53.87 53.86 53.79 53.50 53.04 52.56 53.05 53.04 54.76 55.10 56.22 56.46 57.20 56.12 58.11 57.22 55.64 54.47 52.82 51.79 50.83 52.04 46.55 46.44 46.04 45.77 45.56 45.34 45.20 45.13 46.64 46.70 45.92
57.80 56.05 56.77 55.26 53.97 53.82 53.73 54.20 54.72 55.36 54.52 54.57 53.93 52.88 52.39 51.82 51.61 52.09 52.80 52.46 52.07 52.05 53.83 55.48 54.82 57.03 56.86 57.45 56.86 53.46 53.51 51.53 47.36 46.11 46.21 46.30 45.13 45.83 45.74 45.36 45.47 44.06 40.02 39.00
58.00 57.08 56.66 56.36 55.12 53.93 53.12 54.04 54.49 54.45 53.99 54.04 53.45 51.80 51.78 51.75 51.40 51.31 51.74 51.08 49.98 49.70 50.46 52.85 56.72 56.13 55.87 56.62 57.05 56.10 54.89 54.24 52.80 47.95 46.13 47.12 46.37 46.03 45.56 45.43 45.02 44.90 42.47 40.29
58.18 58.04 56.69 56.13 56.04 55.32 53.98 54.67 54.36 53.83 53.74 52.69 51.65 50.66 49.85 50.23 50.13 49.83 49.69 48.65 48.77 49.61 51.54 52.33 51.34 52.63 54.02 57.45 59.30 55.44 54.73 53.58 53.41 49.29 47.76 45.44 45.38 45.52 45.31 45.76 45.48 45.65 44.67 43.12
56.17 55.94 56.16 55.45 55.11 55.62 55.94 55.04 54.32 52.88 51.96 51.23 49.47 48.92 49.25 49.68 49.76 49.53 46.49 44.89 47.67 48.89 49.89 52.09 51.52 51.86 54.48 54.74 54.31 53.45 53.04 52.87 50.24 49.60 47.84 46.14 45.61 45.45 45.35 45.88 45.67 45.78 46.02 45.68
55.17 55.30 55.85 55.61 54.57 54.14 54.13 52.60 51.98 51.07 50.39 50.08 49.96 49.37 47.81 47.31 48.94 47.88 48.36 47.32 48.24 51.38 48.40 47.38 48.13 51.80 52.32 56.42 52.35 51.38 51.08 51.66 49.30 48.50 48.71 47.75 46.04 46.77 47.15 45.60 45.94 46.22 46.29 45.77
55.38 55.52 55.19 54.09 53.48 52.41 52.61 51.05 50.12 50.47 50.23 49.03 48.95 47.87 47.29 47.52 47.29 45.60 44.86 47.90 48.60 49.56 48.47 48.77 51.27 52.84 53.27 50.77 50.49 49.69 49.89 49.14 48.30 47.93 48.98 49.16 48.55 47.42 46.30 46.75 47.75 48.58 47.98 47.44
55.54 54.79 54.26 53.89 52.86 52.57 50.09 49.64 49.97 50.37 50.12 49.83 49.65 49.40 48.66 47.44 46.02 46.90 48.18 49.86 50.46 49.54 49.34 50.68 51.18 51.97 51.76 49.54 49.31 49.02 49.47 48.79 48.75 47.45 47.23 47.39 48.96 48.31 48.16 48.25 47.28 47.81 48.52 48.05
54.98 54.39 53.62 53.13 51.95 50.84 50.54 50.30 49.68 49.24 49.89 49.98 49.98 50.47 49.86 49.34 47.11 46.99 49.51 49.27 50.33 49.28 49.41 52.02 52.26 51.57 49.33 49.20 48.67 48.42 48.35 48.13 47.86 49.45 48.22 45.03 45.71 47.50 48.08 48.11 48.00 48.31 48.21 47.91
54.67 53.49 52.81 51.60 50.36 50.38 50.64 50.05 48.19 49.06 50.08 48.30 49.31 50.26 47.53 48.76 48.50 49.72 49.72 49.68 48.96 48.51 47.64 48.73 48.62 47.96 49.73 49.01 48.90 49.09 49.35 49.10 47.91 47.50 46.89 47.14 44.48 44.14 46.42 47.25 47.41 48.02 48.24 48.36
53.66 51.35 51.64 50.62 50.82 50.65 50.93 49.84 48.64 47.38 47.72 46.85 45.85 46.12 46.65 47.62 48.55 47.32 48.67 49.28 47.64 47.10 46.60 46.36 46.23 46.64 47.17 46.71 47.53 49.45 49.43 48.84 47.64 48.29 45.84 46.99 45.89 46.20 46.54 47.01 47.30 47.54 48.18 48.53

GFSNGP_sfc_wetblb_108.txt.gz
Wetbulb
45.20 48.84 49.23 48.49 48.15 49.41 44.51 41.66 40.54 43.93 49.09 53.51 54.94 60.02 61.75 63.44 64.41 64.03 61.70 63.37 64.36 64.93 64.91 65.30 66.10 69.02 68.77 69.48 69.30 69.05 68.58 68.24 68.30 68.62 69.21 69.07 69.32 69.59 69.42 69.52 69.31 69.58 68.60 67.45
44.38 48.86 48.29 47.89 48.66 50.80 50.13 49.69 53.92 53.44 51.93 57.79 61.08 61.44 61.52 62.59 63.73 63.90 62.76 63.81 64.73 65.03 65.97 66.35 67.32 67.18 68.89 68.96 68.60 68.44 67.81 67.25 68.21 67.90 67.47 67.11 68.41 69.37 69.04 68.84 68.26 69.10 67.11 64.21
37.92 44.56 47.54 42.84 46.91 48.79 49.57 50.83 49.95 49.26 52.63 56.30 56.69 59.73 59.31 61.23 63.22 63.45 64.09 64.58 64.14 64.15 65.28 66.21 66.02 68.22 66.11 68.64 68.82 68.15 67.88 68.40 68.96 68.53 68.37 68.35 69.05 68.78 67.36 67.11 68.24 64.11 58.96 55.24
37.68 40.50 35.94 44.05 50.91 51.25 50.11 50.86 53.61 55.14 55.42 55.64 54.67 55.77 60.73 62.44 62.46 62.06 62.39 62.13 62.06 60.86 60.96 61.27 62.49 63.24 66.13 68.67 68.80 68.01 68.04 68.26 68.31 68.13 67.95 67.40 66.80 65.93 65.39 66.04 65.62 61.25 58.39 54.90
36.12 35.87 41.83 47.28 49.51 49.16 47.04 46.85 54.04 55.75 57.18 58.39 59.50 60.96 60.26 62.67 62.79 62.20 61.41 60.86 60.62 60.71 60.02 60.28 61.81 62.15 62.83 64.16 64.71 65.59 66.56 67.83 67.90 67.69 66.78 65.40 64.97 65.14 65.36 65.35 64.20 62.26 58.95 55.14
37.00 34.57 34.56 44.17 51.29 54.23 52.87 43.10 54.05 55.65 54.95 56.66 59.10 54.33 57.29 60.30 60.16 58.53 58.34 57.95 57.49 58.87 58.74 59.33 59.07 60.65 60.57 59.02 60.23 59.36 60.68 61.78 63.94 64.85 63.88 62.66 62.71 62.03 62.29 65.42 65.13 62.34 58.39 54.81
38.33 35.86 40.89 48.34 51.61 54.01 43.92 43.85 54.86 55.67 54.91 57.53 55.98 57.93 59.73 60.45 59.10 58.20 57.12 56.50 56.73 57.13 55.99 55.96 58.69 58.28 57.93 57.81 56.87 57.53 58.66 58.87 59.84 61.73 61.32 60.56 60.20 59.96 61.36 63.60 61.50 59.41 58.04 54.61
36.29 33.16 33.08 51.16 51.68 46.59 50.21 54.05 56.23 55.77 56.49 55.17 55.75 57.42 60.16 59.95 58.18 56.70 55.58 55.25 56.23 55.03 54.54 55.01 56.26 56.74 55.65 55.58 56.46 57.69 57.24 58.07 58.07 58.44 59.32 59.34 59.36 59.06 58.93 62.15 61.19 59.51 54.87 52.69
44.31 40.93 46.40 50.14 50.05 54.27 53.67 56.20 56.82 54.77 59.32 57.71 55.55 57.49 59.95 58.83 57.80 57.34 55.83 55.01 56.08 54.97 54.41 54.74 54.70 54.10 52.57 52.46 53.36 54.04 54.47 54.09 55.25 55.38 55.68 56.23 55.69 55.41 54.86 57.61 59.61 60.47 59.92 55.24
43.84 47.02 50.72 53.11 53.03 53.91 54.46 52.14 53.10 56.37 58.41 61.21 59.50 59.74 58.88 58.13 57.60 56.87 55.91 53.84 53.39 52.65 52.09 51.11 51.85 51.77 51.27 51.65 52.02 50.78 50.18 50.19 50.75 51.55 49.47 47.85 51.20 50.67 48.64 49.41 50.95 51.59 50.72 54.17
44.55 47.82 50.91 51.79 52.08 52.07 52.95 54.17 54.88 55.60 57.23 59.67 60.39 59.43 58.91 58.20 58.15 58.08 56.56 55.41 54.48 53.98 53.07 52.54 52.32 49.99 50.75 50.93 50.79 50.05 49.70 49.26 49.07 48.68 45.74 42.79 42.33 43.38 43.61 42.50 43.95 46.23 46.64 46.73
42.80 48.06 46.22 48.17 51.18 52.97 52.21 52.34 53.85 53.47 53.92 56.56 59.91 59.03 59.10 57.91 57.16 56.33 56.05 55.23 54.48 53.74 52.98 52.34 52.44 50.63 50.83 50.51 51.44 50.88 49.30 49.62 50.32 50.00 48.07 43.09 41.55 40.31 42.42 41.99 41.29 40.54 41.32 42.64
49.41 51.21 50.01 52.23 53.66 54.09 52.20 53.46 53.98 52.84 52.94 55.26 58.29 58.23 59.06 57.07 55.99 56.58 56.48 56.34 55.69 54.29 53.74 53.17 51.78 51.40 51.95 52.26 51.85 50.41 48.61 48.69 48.73 49.40 47.64 46.83 43.80 41.60 39.82 38.60 41.60 39.96 39.58 40.24
51.95 51.33 50.28 51.73 50.83 53.28 54.67 55.23 54.87 54.59 53.80 53.79 57.04 57.29 57.30 57.84 56.99 56.63 57.51 58.01 58.39 56.06 54.80 54.50 54.06 52.78 53.54 53.00 52.40 51.81 50.69 50.09 46.67 48.70 48.00 48.15 48.89 46.60 44.17 41.01 39.60 38.19 39.65 39.79
51.95 51.81 50.94 51.73 51.73 52.59 53.27 53.03 52.20 52.39 53.05 53.09 54.47 53.93 53.93 53.78 54.37 55.52 57.58 58.50 58.15 56.76 54.85 55.11 55.81 53.54 53.60 53.56 51.90 50.68 50.64 49.89 48.75 45.98 45.67 46.22 46.91 48.27 47.37 44.10 41.83 39.64 38.37 39.37
51.72 52.15 52.12 51.60 51.58 52.28 52.62 51.92 50.72 51.10 51.67 51.42 51.24 51.18 51.24 51.41 51.15 51.78 53.37 54.73 53.97 53.31 56.55 55.78 54.70 55.94 54.46 52.46 51.45 50.75 50.47 52.77 50.52 46.85 44.37 44.16 43.62 44.13 43.65 43.90 43.11 41.49 39.11 38.45
49.75 48.40 49.57 50.25 50.70 51.10 50.72 52.72 51.99 51.64 51.45 51.16 50.30 50.54 50.35 50.90 50.85 49.80 49.98 50.33 50.07 50.88 52.64 53.40 52.75 54.58 56.14 54.09 52.32 51.77 51.80 50.73 53.23 47.58 44.76 44.44 43.47 43.46 43.24 42.64 44.66 42.95 41.58 41.09
52.21 51.86 51.85 52.03 50.64 50.44 50.20 51.32 52.46 51.96 51.02 50.88 50.63 50.19 49.96 48.74 47.44 47.55 47.86 48.07 48.21 48.86 52.45 53.71 52.67 53.51 53.37 54.75 53.32 51.94 51.76 51.93 52.55 50.67 45.87 44.12 43.79 43.35 43.23 42.84 42.65 44.23 43.67 43.12
54.43 54.14 53.00 52.16 51.27 50.57 51.45 51.95 51.43 51.57 51.45 50.81 49.69 48.58 48.42 47.65 47.08 46.93 46.59 46.19 45.37 45.20 46.53 48.20 53.81 50.45 50.24 53.12 56.04 52.66 51.75 51.17 51.53 50.30 48.64 47.37 45.50 44.41 43.02 43.33 42.88 42.77 41.93 40.99
54.43 54.31 53.04 51.79 51.95 52.09 51.23 51.75 51.66 50.42 49.84 48.93 47.82 46.98 46.34 46.44 46.68 46.28 45.65 44.03 45.53 46.00 46.39 46.89 46.65 47.63 47.89 50.59 55.63 52.69 52.32 52.20 51.56 50.01 49.95 47.98 44.57 43.99 45.45 43.61 43.51 42.78 41.52 40.11
53.50 53.05 52.36 52.06 51.64 52.06 51.63 51.20 50.20 48.59 47.54 47.37 46.79 46.34 45.79 45.37 46.12 45.09 42.92 41.82 44.39 46.62 46.85 49.21 46.42 45.65 46.73 50.39 51.31 50.40 50.85 50.73 50.17 50.13 51.32 50.51 47.48 45.28 44.62 44.16 43.96 43.38 43.30 42.13
52.68 52.10 52.03 51.90 50.73 49.78 50.02 48.88 48.53 47.80 47.40 46.65 46.57 45.58 44.10 43.98 45.15 44.38 44.89 44.03 44.84 49.74 47.19 45.69 45.90 49.22 50.06 53.30 48.12 48.18 48.19 48.63 48.22 46.63 46.76 48.73 48.51 46.69 44.50 44.23 43.94 44.81 43.92 43.24
52.23 52.06 51.90 50.79 49.31 48.71 49.50 49.44 49.49 48.31 46.35 46.00 45.05 44.31 43.80 43.87 43.76 42.61 40.95 44.53 46.19 47.86 46.55 46.62 50.55 52.45 52.61 47.91 46.54 47.06 47.31 46.83 46.29 45.21 45.46 46.02 48.38 48.43 47.82 46.69 46.70 47.27 45.87 43.44
51.11 51.32 49.57 48.56 49.35 48.05 45.23 45.11 46.74 46.20 45.78 46.13 45.72 45.15 44.32 43.90 43.61 44.41 44.22 47.99 48.83 48.29 47.73 48.72 50.32 51.65 50.62 46.22 45.91 45.63 45.52 45.35 45.51 45.07 46.32 46.74 48.35 47.91 47.71 47.87 47.72 47.74 47.04 46.37
51.82 50.28 49.64 48.57 47.17 45.55 44.81 44.99 45.36 45.30 45.13 45.07 45.33 45.63 45.91 45.11 43.95 44.18 45.98 47.21 49.24 46.70 45.93 49.03 50.44 49.86 47.03 46.36 45.82 45.60 45.15 44.79 45.47 45.37 45.55 44.24 42.98 44.99 46.52 46.16 47.51 48.11 48.02 48.17
50.16 50.32 49.56 48.60 48.54 47.15 46.87 45.60 44.51 44.44 44.82 44.96 45.68 45.89 46.51 45.46 45.25 45.53 46.02 47.45 46.74 46.61 44.55 45.47 45.24 45.18 44.82 44.29 44.02 45.30 45.34 46.14 45.80 45.68 45.38 46.85 45.59 43.23 43.56 45.17 46.43 47.84 48.07 48.05
48.84 48.61 46.52 45.09 45.44 45.99 47.24 46.00 44.48 44.32 45.47 45.09 44.44 44.11 44.25 43.06 44.80 46.62 46.28 46.28 45.25 44.29 44.03 44.03 43.72 44.55 43.87 43.12 42.96 43.65 44.48 45.80 45.58 47.52 45.98 43.78 44.61 42.71 42.74 44.26 45.06 45.57 46.45 48.57

GFSNGP_sfc_wetblb_111.txt.gz
Wetbulb
40.68 47.72 47.87 46.82 47.77 48.68 44.26 42.95 36.51 40.22 41.89 51.22 56.16 58.73 59.27 60.28 61.19 61.08 62.34 63.59 64.45 64.48 64.70 64.56 65.54 66.24 66.90 68.24 69.15 69.68 69.97 68.95 69.83 70.47 70.97 70.22 70.03 69.39 69.62 69.41 69.47 69.27 68.94 67.32
41.68 47.93 48.72 45.36 47.76 49.33 48.77 49.28 47.98 50.92 50.97 57.70 60.24 61.73 61.37 61.50 61.88 60.58 61.87 62.68 63.55 64.73 65.09 65.04 65.91 67.43 67.68 68.20 68.65 68.78 68.76 69.07 69.50 69.46 69.41 68.76 68.24 68.45 68.78 68.73 68.82 69.59 67.00 64.75
37.58 43.42 46.38 40.63 44.77 47.14 48.13 51.36 50.34 46.32 51.15 56.11 56.01 57.99 58.58 61.10 62.20 62.45 62.46 63.56 63.83 63.91 64.99 65.59 66.13 66.94 67.32 67.86 68.33 67.52 67.45 67.91 68.22 67.77 67.25 67.46 67.77 68.24 68.13 67.93 68.09 64.22 60.38 57.14
37.75 39.44 35.83 42.52 49.36 50.62 48.83 50.26 53.65 54.87 54.88 55.64 58.21 59.77 60.75 61.90 61.95 62.01 61.71 61.90 62.29 61.74 62.02 62.07 63.86 65.14 66.28 67.66 67.97 67.75 67.14 67.11 67.56 67.66 67.70 68.04 67.90 66.84 66.08 66.80 63.41 58.21 54.76 53.30
35.86 34.40 40.59 47.90 48.66 47.27 44.48 44.98 53.79 54.66 56.02 59.03 60.42 60.30 58.64 61.04 61.12 60.55 60.95 60.65 60.70 60.63 60.24 61.30 62.39 62.47 65.51 65.04 66.62 67.34 67.18 67.93 67.43 67.93 66.66 66.15 64.96 64.38 65.22 64.04 60.18 57.13 54.49 51.90
36.46 33.64 34.12 43.82 50.09 53.01 50.90 41.92 54.07 55.58 57.56 57.59 57.40 53.58 56.52 59.62 58.79 57.82 57.50 57.64 59.07 59.79 60.05 59.93 60.62 62.18 62.00 63.92 65.35 65.28 66.00 67.00 66.82 66.58 65.65 64.68 64.12 63.99 64.12 63.55 61.59 58.19 55.16 51.33
37.15 34.46 39.10 46.11 50.81 51.85 40.75 42.27 54.38 55.52 57.65 57.14 56.16 57.00 58.59 59.32 57.40 56.54 56.38 56.20 57.17 56.72 56.62 58.27 60.49 59.94 59.11 59.27 58.59 61.02 62.61 62.61 63.21 63.17 63.19 63.14 62.47 63.00 64.42 63.09 59.75 57.10 55.02 51.07
34.83 32.02 32.18 48.98 49.47 44.39 47.38 52.45 55.28 54.56 56.22 55.99 57.90 58.94 58.29 57.34 55.94 55.16 54.53 55.81 56.22 55.12 54.77 55.76 56.91 57.54 57.02 56.56 58.57 59.93 61.49 61.29 60.35 60.00 60.77 59.59 59.89 60.86 62.48 60.92 59.45 57.36 54.45 50.47
41.49 39.87 45.08 48.09 48.54 51.01 53.52 54.65 55.10 56.75 55.94 55.27 56.21 58.38 58.39 57.16 56.30 55.65 55.18 55.14 55.62 54.79 54.15 54.35 54.60 55.37 53.98 53.15 55.10 56.00 56.07 55.75 56.63 56.03 55.90 56.53 56.61 55.59 57.11 60.76 61.11 57.93 54.58 52.05
42.53 44.40 47.66 50.35 51.47 52.75 54.68 54.08 56.04 57.80 56.67 55.79 57.12 59.10 57.73 56.36 56.16 55.26 54.91 54.05 54.31 54.20 53.16 52.65 52.30 51.61 51.86 51.68 51.78 50.85 51.23 51.69 52.95 52.69 49.81 50.33 51.45 52.07 52.06 53.16 53.20 53.49 53.42 56.47
42.85 45.94 49.17 51.31 50.68 51.26 52.96 55.08 56.72 58.46 59.25 60.00 59.28 58.07 56.73 55.86 55.27 54.96 53.89 53.00 52.44 51.41 50.42 50.08 49.73 50.02 50.71 50.75 49.61 48.59 47.76 47.82 47.47 47.60 44.65 43.58 41.93 43.94 44.72 40.77 44.04 47.16 46.52 50.80
41.33 46.74 46.32 48.42 49.95 52.45 52.55 52.90 54.46 55.14 55.54 58.89 59.46 58.01 57.61 56.06 55.50 55.11 53.47 54.09 53.60 52.78 52.24 51.73 49.22 48.69 49.04 49.44 49.73 49.32 48.21 48.42 49.08 48.07 43.69 42.19 41.50 40.08 42.37 41.66 41.17 39.91 40.68 43.18
47.39 48.66 48.55 50.28 51.48 52.64 52.50 51.98 53.26 55.54 57.71 57.29 57.99 57.94 57.15 55.53 54.89 54.62 53.98 54.38 53.65 53.19 52.35 51.47 50.76 49.03 49.47 49.48 50.72 50.14 48.40 48.31 48.46 49.26 48.25 44.19 42.67 42.13 42.02 40.52 41.31 40.10 39.31 40.20
50.29 50.93 48.73 50.10 49.20 52.01 53.49 53.58 53.36 53.67 56.18 57.77 57.24 57.14 56.67 55.42 55.13 54.66 53.89 54.30 54.94 54.12 52.83 52.14 51.34 50.42 50.61 50.77 50.35 49.82 49.48 50.58 46.54 47.60 47.66 47.28 46.77 45.24 42.86 41.39 40.52 39.35 39.15 39.22
50.02 49.77 49.87 49.77 50.48 51.16 52.57 52.93 52.14 52.88 54.78 53.71 54.92 55.10 55.28 53.95 53.52 53.89 55.62 56.50 56.33 54.28 53.16 52.76 52.95 54.26 53.16 52.19 51.05 50.36 49.58 49.22 48.21 45.54 45.55 46.00 44.70 46.41 46.21 43.95 42.01 40.18 37.23 39.04
49.90 50.55 50.17 49.86 50.03 50.09 50.72 51.49 50.61 50.21 50.60 50.49 50.72 50.99 50.83 50.65 50.42 50.78 51.54 53.06 52.66 51.61 53.02 53.34 53.78 53.84 53.91 52.65 51.63 50.38 49.70 52.01 50.18 47.09 45.57 43.63 42.48 43.46 45.31 45.50 44.07 42.19 39.06 37.92
48.42 46.70 47.72 47.88 49.01 48.96 49.97 51.55 51.17 50.24 49.60 50.04 49.73 50.21 50.21 49.40 48.70 48.42 48.20 48.35 49.36 50.20 50.41 49.72 49.39 51.19 52.36 53.58 51.47 51.00 50.63 50.41 52.61 48.85 46.39 44.36 43.16 42.36 41.92 41.96 42.87 42.76 41.99 40.20
52.07 51.25 51.11 51.29 49.16 48.64 49.63 51.52 52.13 51.22 50.57 49.86 49.94 49.69 48.34 47.73 46.60 45.90 45.55 45.49 45.92 46.01 46.56 47.91 50.33 49.09 48.94 49.89 51.43 51.05 50.15 50.02 49.95 49.49 49.18 46.75 44.33 43.41 42.56 41.82 41.84 43.08 42.94 41.89
51.89 51.43 51.43 51.29 50.73 50.19 50.30 50.51 51.51 50.29 50.10 50.22 50.18 48.63 47.37 45.74 45.17 44.96 44.88 44.71 43.88 43.15 44.57 45.53 51.80 48.02 46.30 48.77 52.68 51.31 50.10 49.73 49.25 48.87 48.34 47.65 45.69 45.20 44.74 43.34 42.03 42.00 42.68 43.01
53.06 52.36 51.19 49.93 50.80 51.25 49.90 50.29 50.48 49.34 49.78 48.84 48.58 47.60 45.29 45.17 45.06 43.91 43.02 43.52 43.45 44.06 44.15 44.36 44.73 44.24 44.75 46.00 51.93 48.65 49.79 50.42 49.97 49.37 48.83 48.26 47.18 45.44 44.31 44.04 44.70 42.96 42.34 41.96
52.23 50.86 50.36 50.56 50.15 50.90 51.31 50.68 49.39 48.71 46.66 47.27 46.44 45.34 44.98 44.73 43.37 42.20 41.19 41.00 42.97 44.14 44.97 47.99 45.08 44.52 44.84 48.95 48.78 46.08 46.76 48.53 48.86 48.49 48.48 48.58 47.34 45.08 44.04 45.32 45.88 45.17 42.32 41.54
50.39 50.21 50.21 50.41 50.26 48.62 48.49 48.13 47.78 46.99 46.37 45.77 45.39 44.53 43.41 42.93 43.97 43.09 42.44 42.31 43.09 49.29 45.95 44.72 45.18 49.98 49.71 52.47 45.83 44.63 45.29 46.17 46.58 46.35 46.18 46.33 45.97 46.08 45.18 45.46 47.24 46.23 44.48 42.93
50.00 50.42 50.29 49.96 49.32 48.05 46.82 47.43 47.39 47.32 46.30 45.41 44.07 42.33 42.90 42.82 42.34 41.96 40.66 43.17 44.69 47.38 45.02 45.23 49.53 52.19 51.73 44.84 44.24 44.16 44.16 44.45 44.68 44.69 44.32 44.07 44.19 44.22 44.35 44.50 45.65 47.39 44.35 43.65
49.96 49.49 49.33 48.71 47.66 47.13 45.47 45.45 46.32 46.13 46.03 44.55 43.53 42.96 42.91 42.58 42.73 43.04 41.56 45.99 47.98 46.69 45.77 46.77 49.02 50.88 48.88 44.04 43.78 43.64 43.42 43.45 43.70 43.69 43.20 43.99 44.46 45.19 44.70 44.92 45.72 47.64 47.75 47.21
50.42 48.38 47.68 47.02 46.33 46.00 44.78 44.46 43.96 43.75 43.77 43.57 43.62 43.45 43.45 43.19 43.01 43.28 43.97 45.41 47.85 45.58 44.23 48.25 49.76 48.46 43.33 42.49 42.33 42.93 43.30 42.87 43.43 43.41 43.06 42.83 42.68 42.42 44.10 46.54 47.66 48.51 48.33 48.13
48.51 48.58 48.59 48.30 47.84 45.44 46.08 45.15 44.80 43.31 43.07 42.80 43.47 44.05 44.38 44.28 44.34 42.68 43.51 45.57 45.62 45.70 43.86 44.43 43.42 43.30 42.63 42.02 42.31 42.94 43.13 46.38 46.89 46.69 45.77 43.12 43.45 42.60 42.05 42.42 44.77 47.61 47.41 47.84
49.51 47.26 47.16 45.17 43.70 44.52 45.71 44.53 43.52 42.96 43.43 43.71 43.77 44.76 45.47 45.65 44.53 43.63 44.82 44.79 45.43 44.14 43.06 43.03 42.88 43.66 43.02 41.99 41.47 41.85 41.61 41.43 40.67 42.85 42.89 44.57 45.62 45.02 41.85 42.23 42.39 42.95 44.57 47.72

GFSNGP_sfc_wetblb_114.txt.gz
Wetbulb
42.46 46.24 47.74 46.86 46.03 47.80 42.75 42.29 35.83 41.92 47.14 53.78 56.37 58.56 57.87 58.85 59.85 61.19 62.03 63.37 63.92 64.52 65.23 65.93 65.81 66.40 67.18 67.54 68.29 69.23 69.28 69.97 69.41 70.13 70.52 70.24 69.77 69.71 70.40 70.33 69.97 69.50 69.91 69.93
43.24 46.61 46.98 45.33 46.88 48.31 48.43 50.21 48.26 48.51 48.48 58.48 59.84 61.73 61.19 60.47 59.67 60.90 61.89 62.99 64.12 64.65 65.13 64.96 66.00 66.11 67.02 67.84 68.42 69.18 69.59 68.22 68.98 69.92 69.25 69.64 69.48 69.32 69.57 69.32 69.10 69.55 68.31 67.12
38.30 43.75 44.67 41.60 43.98 46.45 47.74 51.44 50.88 47.07 50.00 56.69 56.73 58.34 60.01 61.73 61.63 60.61 62.78 63.28 63.68 64.08 64.60 65.23 65.99 66.67 66.26 67.50 68.65 68.51 68.11 68.35 68.24 68.74 68.85 68.94 68.65 68.31 68.26 68.24 68.47 68.22 65.82 62.32
38.46 40.29 33.95 43.70 50.21 49.63 47.70 49.74 52.72 54.56 55.29 57.78 58.02 59.07 60.33 61.53 61.74 62.15 62.53 62.92 62.56 63.22 63.99 63.33 64.42 66.93 67.72 68.15 67.74 67.13 66.97 67.49 68.17 68.20 67.77 67.61 67.99 68.40 67.99 68.06 66.52 63.21 58.47 56.00
36.29 35.71 39.35 46.89 49.66 47.74 44.95 45.90 52.67 54.41 56.32 59.02 59.85 59.03 58.31 60.00 59.94 59.92 60.18 60.40 60.83 60.92 61.23 61.77 62.63 64.87 66.00 67.06 67.24 67.42 66.50 66.79 67.72 67.74 67.68 67.95 67.92 67.45 66.75 65.48 61.47 58.79 57.03 55.63
36.30 33.05 33.19 42.49 50.36 53.04 50.48 42.58 52.75 55.59 57.38 59.09 57.10 52.80 57.29 59.27 58.84 57.62 58.20 58.67 58.71 59.81 60.30 60.00 61.21 63.88 65.80 65.43 66.11 66.27 66.18 66.21 67.70 68.17 67.70 66.14 65.89 66.09 66.75 63.76 60.58 57.08 54.62 53.68
35.91 34.19 38.88 45.65 51.25 53.36 41.94 42.84 54.29 57.82 57.78 56.67 54.46 55.81 59.27 58.60 56.69 56.81 56.95 57.16 57.39 57.08 56.49 57.75 60.36 60.98 60.62 59.86 59.60 62.22 62.56 63.08 63.60 64.69 65.21 65.12 64.85 65.75 65.75 61.93 59.12 57.15 54.56 52.21
34.66 32.71 32.51 49.22 50.21 46.11 48.43 54.03 55.50 56.18 57.16 56.53 57.78 57.82 57.13 56.21 55.58 56.11 56.06 56.72 56.77 55.84 55.85 57.23 59.53 57.97 56.61 56.27 59.08 60.81 61.56 60.18 59.64 60.30 61.59 62.77 62.76 63.52 64.51 62.26 59.06 58.29 53.21 50.98
39.03 38.26 44.48 47.17 48.81 51.90 53.56 54.34 54.82 55.70 55.71 58.64 57.44 57.43 56.72 54.91 54.97 55.16 55.37 55.31 55.95 55.13 54.24 54.24 56.19 56.64 55.27 55.77 56.49 57.61 57.71 57.27 58.45 57.75 58.53 58.71 58.40 59.92 61.90 61.11 59.03 55.95 54.10 52.45
41.83 44.65 47.28 49.85 51.70 54.08 56.56 55.65 56.73 56.95 56.25 56.47 57.87 57.50 55.87 55.39 55.09 54.94 55.09 54.56 54.73 54.54 53.58 52.27 52.31 52.36 52.54 52.59 53.37 52.72 52.46 54.21 54.86 55.27 53.39 52.89 53.58 53.46 56.99 56.79 58.60 59.00 58.07 55.67
41.92 45.81 49.20 50.72 52.44 52.21 54.41 56.32 58.12 57.03 57.07 58.07 58.46 56.94 55.81 55.21 54.98 54.47 54.17 53.41 52.80 51.87 51.48 51.13 51.85 51.88 52.15 51.48 51.25 49.66 49.94 50.19 49.74 48.12 47.83 46.14 43.46 45.04 46.73 43.90 47.18 51.47 51.21 54.79
41.10 47.06 46.15 48.07 52.00 54.89 55.28 55.84 57.94 57.72 59.12 59.32 58.34 57.21 56.79 55.35 54.92 53.74 52.96 53.31 53.01 53.15 52.72 51.24 51.20 51.04 51.26 51.42 51.28 49.89 49.34 50.00 49.91 48.21 46.33 46.07 45.72 44.42 42.72 42.09 41.13 40.20 41.01 46.98
46.51 48.44 48.01 50.14 51.95 54.63 54.16 55.01 56.43 57.08 58.43 58.41 58.57 58.41 57.46 55.69 55.59 54.52 54.33 54.47 53.92 53.92 53.54 52.62 50.00 49.78 50.51 51.59 53.13 51.92 51.10 51.14 51.33 50.14 49.02 46.94 46.31 46.84 47.83 45.47 41.51 40.22 39.39 40.21
49.27 49.87 48.55 49.62 49.24 52.70 53.94 54.57 55.92 57.94 58.87 58.63 57.73 57.77 56.87 55.45 55.08 54.62 54.43 55.09 54.82 54.09 53.22 52.77 52.54 52.62 53.35 53.02 53.37 52.26 51.30 50.27 50.89 50.44 50.68 50.41 49.27 48.71 47.43 47.06 47.50 47.05 41.17 40.68
49.58 49.77 50.07 49.59 50.75 51.59 52.82 54.24 55.23 55.71 56.19 56.02 56.73 56.21 56.13 55.17 54.84 55.09 56.08 56.60 56.27 55.05 54.29 54.13 54.23 54.74 54.21 53.33 52.79 52.29 52.17 51.77 50.87 49.23 49.67 49.78 49.60 49.60 49.86 48.53 47.19 46.35 44.17 41.74
49.34 49.19 49.55 49.74 49.91 50.51 52.05 53.17 52.76 51.73 52.82 53.23 53.20 53.00 52.88 52.56 51.92 51.44 52.42 54.49 54.15 53.01 54.10 54.28 53.22 53.68 55.72 54.87 54.23 53.29 52.44 52.15 51.77 50.95 49.87 48.32 47.11 46.62 47.82 48.57 48.09 47.78 46.51 45.10
48.15 46.90 47.39 47.55 49.16 49.64 51.42 52.49 53.04 51.07 50.82 51.45 50.73 51.04 50.59 49.66 48.96 49.04 49.83 50.47 50.05 49.69 50.27 51.06 51.01 51.46 52.39 53.01 54.15 53.95 53.90 52.98 52.91 51.90 50.04 49.07 47.89 47.14 46.46 46.48 47.55 48.22 48.09 46.47
51.99 51.58 51.33 51.12 48.93 49.12 50.13 51.30 51.43 51.20 50.87 50.63 50.63 50.27 49.59 49.21 47.40 46.51 46.68 47.20 46.90 46.50 47.21 48.65 51.56 49.01 49.01 49.82 52.62 53.08 53.08 52.87 52.67 52.26 52.20 51.29 50.29 49.11 48.25 46.68 46.17 46.10 47.45 46.86
51.50 51.14 50.58 50.82 50.64 50.65 50.63 50.31 50.68 50.38 50.53 50.34 49.70 48.26 47.77 47.03 46.46 46.10 46.57 46.32 45.68 45.60 46.40 46.86 51.20 48.02 47.50 49.29 52.50 51.33 51.33 51.92 52.60 52.15 51.85 50.91 51.02 50.27 48.75 47.90 47.28 47.05 46.92 46.59
51.89 51.89 51.67 50.49 50.64 51.16 50.14 50.60 50.32 50.19 50.68 49.27 48.59 47.32 46.43 46.21 46.49 46.63 46.14 44.99 45.56 46.50 47.55 46.84 47.62 47.15 47.73 48.66 52.40 50.26 49.26 49.85 50.89 51.75 52.20 51.91 51.41 51.22 50.71 46.27 48.01 48.02 46.90 46.80
51.95 51.34 50.38 50.04 50.02 50.80 51.19 50.87 50.78 50.12 49.72 49.59 48.36 46.82 46.26 45.62 44.70 43.96 43.89 44.27 46.55 47.17 47.87 48.84 48.45 47.95 49.19 51.74 51.75 49.44 48.32 48.77 49.58 50.29 51.15 51.50 51.35 51.12 50.72 49.99 49.47 49.19 48.72 48.63
50.05 49.80 49.70 50.08 50.19 49.15 49.54 50.33 51.01 49.05 48.06 46.97 46.73 46.48 45.17 43.89 43.92 44.22 44.99 44.12 46.22 48.12 47.58 47.68 48.08 50.93 51.59 50.25 48.12 47.47 47.63 47.90 48.28 48.92 49.14 49.39 49.26 49.17 49.13 49.07 48.87 49.59 49.56 49.32
49.61 49.78 49.85 49.82 49.04 48.35 47.74 48.09 48.52 48.90 47.99 47.56 46.28 45.41 45.34 45.23 45.10 44.45 44.14 46.09 47.01 48.26 47.97 48.11 49.99 51.41 50.33 47.85 47.57 47.46 47.32 47.19 47.21 47.55 47.73 47.60 47.68 48.12 48.23 48.44 48.66 49.29 49.01 48.67
48.37 49.20 49.10 48.39 47.61 47.82 45.99 46.09 47.26 47.84 47.67 47.14 46.36 45.85 44.84 43.64 44.34 44.94 44.31 46.39 47.11 48.24 47.45 48.27 49.72 49.35 46.19 46.30 46.40 46.85 47.00 47.16 47.28 47.48 47.79 43.65 48.19 47.92 47.87 48.57 48.27 49.58 49.55 48.46
49.20 48.25 47.66 47.69 47.91 47.99 47.79 46.24 45.99 45.74 45.60 45.15 44.62 44.58 45.54 45.88 46.64 46.47 45.86 47.57 47.81 47.36 47.27 49.19 49.67 47.72 46.41 46.21 46.25 46.87 47.07 47.72 48.49 48.20 48.07 48.18 47.57 47.03 46.78 47.01 48.12 48.70 49.01 49.24
47.41 47.91 48.57 49.23 49.46 46.82 46.97 46.74 46.76 45.78 45.09 43.97 44.58 45.02 45.74 45.70 45.54 45.15 46.05 46.93 48.29 47.24 46.59 47.00 47.00 47.64 47.05 46.57 46.46 46.48 46.75 47.42 48.07 48.16 46.98 47.08 46.55 46.73 46.13 45.94 46.82 47.58 49.14 48.99
47.06 45.70 45.63 44.75 45.16 47.10 47.59 47.76 46.21 45.14 45.12 45.65 45.78 45.98 46.70 46.80 46.65 46.16 44.79 46.29 47.62 47.49 46.63 46.26 46.29 46.44 46.21 46.41 46.18 45.81 46.11 46.19 42.90 44.62 45.51 45.73 45.62 46.56 45.92 45.58 47.32 47.96 48.14 48.84

GFSNGP_sfc_wetblb_117.txt.gz
Wetbulb
47.80 49.90 50.64 49.21 49.60 51.41 48.95 50.45 44.45 48.33 51.37 56.37 58.52 60.15 61.97 61.99 63.03 63.75 64.09 65.44 66.67 67.44 68.00 67.39 67.43 69.93 71.78 70.43 70.48 72.78 72.23 73.02 73.48 74.95 74.22 74.69 73.70 73.82 73.08 73.35 73.50 74.06 73.84 73.68
46.99 50.05 49.29 48.27 48.59 51.15 51.95 52.45 53.07 53.05 53.42 58.65 60.41 62.61 62.07 62.04 62.52 63.06 64.00 65.10 66.33 66.97 66.88 66.22 66.71 68.38 69.07 71.06 70.73 71.26 72.76 73.06 74.00 72.99 71.80 72.78 71.92 72.90 72.77 72.05 71.40 73.00 72.58 69.02
43.41 47.90 46.79 43.90 46.98 48.72 51.52 53.86 53.57 51.74 55.49 57.97 58.33 59.92 61.44 62.09 62.93 63.54 64.09 65.29 66.42 66.66 66.09 66.12 66.09 67.32 67.25 68.79 70.31 70.63 71.46 71.69 71.44 70.39 71.36 70.34 70.44 71.19 71.48 70.02 69.52 70.86 69.45 67.07
44.98 46.01 37.29 47.88 52.39 52.74 51.69 52.82 55.74 56.26 56.68 58.22 58.44 59.62 60.37 62.94 62.38 62.52 62.84 63.47 65.03 66.40 65.79 67.02 68.49 68.61 67.72 68.19 68.51 68.57 68.06 68.58 69.34 68.69 68.67 69.79 69.48 69.47 69.54 69.41 69.12 68.17 65.10 61.76
43.14 42.59 44.51 48.13 50.72 49.96 49.58 50.47 55.80 56.51 57.69 58.82 59.30 59.37 58.99 60.56 61.30 60.94 60.78 61.13 61.75 62.95 63.76 65.07 66.67 69.66 69.14 68.84 68.58 68.77 67.49 68.93 68.53 69.00 68.19 67.99 67.58 68.69 69.12 69.37 67.47 63.75 60.61 58.70
43.78 40.02 37.77 47.62 52.25 54.39 53.44 47.35 56.14 59.14 58.53 59.44 59.91 54.68 56.75 59.14 60.16 60.00 60.45 60.34 59.94 60.32 60.99 61.69 62.42 64.45 67.22 67.61 67.92 67.74 66.88 67.20 68.30 68.37 68.71 68.51 68.49 67.92 67.24 66.70 63.95 61.06 59.62 58.20
44.25 43.09 45.06 50.19 52.95 54.94 45.17 48.25 57.31 60.22 59.52 60.67 59.38 60.64 59.75 59.20 58.53 59.52 60.14 59.30 59.27 59.23 58.51 59.82 61.42 62.90 63.28 63.97 63.19 64.99 65.00 65.57 64.96 63.94 65.97 66.95 66.65 66.72 64.71 62.38 61.20 60.32 58.89 58.04
44.40 43.06 40.04 52.01 52.48 49.70 53.05 56.75 58.83 60.84 60.22 59.43 58.44 59.07 59.20 58.98 58.89 58.80 58.54 58.69 59.21 58.87 57.90 58.63 59.02 59.03 58.37 58.81 61.29 62.48 62.83 63.42 63.51 62.58 61.61 62.51 63.98 65.50 63.22 60.87 59.70 58.47 56.91 55.27
47.85 48.02 51.76 53.74 53.83 56.48 56.76 58.09 58.95 60.46 60.07 58.97 58.99 59.34 59.51 58.86 59.85 60.41 59.89 59.06 58.44 57.53 56.43 56.68 57.00 57.80 55.12 55.74 58.11 59.26 59.59 58.91 58.31 60.73 59.49 58.47 60.66 62.94 63.35 62.51 60.44 59.34 56.78 53.83
48.70 51.31 52.86 54.35 56.25 56.33 59.11 59.29 61.04 61.96 61.45 61.01 59.50 59.51 59.61 59.62 59.94 59.94 60.03 59.09 59.42 58.47 55.05 54.84 54.83 54.74 54.70 55.21 55.74 55.76 54.69 55.19 56.36 54.19 55.07 55.83 54.62 57.77 60.06 61.31 60.42 58.29 57.77 57.20
49.44 52.29 54.36 55.39 56.10 56.69 58.77 60.64 60.11 61.17 61.55 61.22 60.47 59.86 60.01 60.16 60.27 60.18 59.40 58.21 58.06 57.70 56.77 55.86 55.65 55.34 55.19 55.53 55.84 54.84 54.66 52.60 50.90 50.67 50.34 49.93 49.83 50.88 53.00 48.40 49.18 56.77 54.84 58.01
49.36 55.88 56.11 56.67 57.11 58.86 60.41 60.73 60.65 60.20 60.61 61.81 61.29 59.86 59.92 59.10 59.17 58.48 57.78 58.16 57.58 56.45 55.63 55.34 54.94 54.93 55.78 56.36 56.44 54.94 53.90 53.65 53.01 51.88 50.34 50.10 49.27 47.68 43.41 43.08 43.15 40.98 41.96 49.08
54.66 56.67 55.64 57.80 58.20 57.74 59.86 61.27 61.34 61.41 62.09 61.76 61.73 60.97 60.50 59.35 59.64 57.00 59.80 59.47 58.53 57.42 55.92 55.47 55.01 55.09 57.36 58.61 57.84 57.36 56.84 56.91 54.90 54.20 54.23 53.83 53.97 54.16 53.81 48.64 42.03 40.69 40.12 41.27
54.77 56.37 54.15 56.64 56.95 58.52 59.14 61.12 60.26 62.41 63.40 63.39 62.42 61.58 61.32 60.13 59.26 59.98 59.95 60.07 59.59 59.01 58.31 58.28 58.01 57.68 58.14 58.66 58.58 57.21 57.09 51.53 56.61 56.15 56.57 55.78 55.49 55.51 55.52 54.93 54.71 54.58 42.64 42.74
55.44 56.74 57.31 58.52 58.55 58.09 58.70 61.12 61.04 60.87 61.78 61.43 62.29 61.43 60.88 60.19 60.00 60.11 60.84 60.51 59.66 59.46 58.85 59.62 60.08 59.41 59.15 58.56 58.48 58.10 58.27 57.56 57.20 56.90 56.25 55.42 57.06 56.83 55.23 54.85 54.59 54.72 54.84 45.72
56.39 55.47 56.09 56.68 57.51 57.43 58.30 59.65 60.15 60.45 61.19 61.09 61.01 60.78 59.83 59.85 59.96 59.97 60.80 60.96 60.19 59.16 59.33 58.50 56.93 57.95 60.16 60.17 59.91 59.47 59.23 53.66 54.26 57.84 57.85 57.00 55.79 55.07 54.59 53.97 53.54 54.09 54.44 54.98
54.24 52.69 54.35 55.41 56.37 56.84 57.61 59.23 60.09 60.19 60.04 60.48 59.88 59.09 58.45 57.77 57.86 57.27 56.87 57.30 56.90 56.35 56.37 55.40 54.62 55.92 57.09 57.69 57.40 57.35 58.18 58.53 55.23 58.36 58.09 57.33 57.09 56.36 55.86 54.52 54.60 54.45 54.08 53.97
59.13 58.20 57.36 57.68 56.94 57.08 57.79 58.81 59.40 59.91 59.19 58.53 57.79 57.43 56.75 57.01 55.87 54.59 54.10 54.26 53.92 53.31 53.36 54.75 54.45 54.60 54.51 55.43 55.00 54.97 55.46 55.97 56.90 56.60 57.42 57.63 57.53 57.83 57.08 56.65 56.22 55.26 55.29 53.92
57.91 57.78 57.78 58.03 58.14 58.12 58.32 58.33 58.62 59.64 57.85 57.40 56.71 56.08 56.29 55.70 54.78 53.92 53.99 53.84 53.26 52.22 51.75 53.79 51.38 53.34 54.26 54.42 54.69 55.05 54.11 53.96 54.19 54.83 56.13 54.53 56.37 56.84 56.43 56.10 55.59 55.72 55.93 55.36
57.02 57.74 57.45 57.79 58.17 58.27 58.08 58.70 57.96 56.81 56.83 56.71 56.08 54.47 53.54 53.48 53.92 53.59 53.35 51.70 51.91 51.36 52.85 52.65 53.20 53.34 53.79 54.34 53.77 55.20 54.21 53.68 53.43 53.68 54.30 54.84 55.62 55.96 56.02 50.97 54.04 54.65 54.72 54.53
56.84 56.81 56.45 56.15 56.22 57.73 58.21 57.72 56.72 55.85 55.55 55.81 55.18 54.39 53.69 53.62 53.73 52.68 51.72 49.21 52.20 52.64 52.64 51.87 52.89 53.14 54.38 53.96 54.41 54.31 53.97 53.58 53.57 53.80 54.14 54.26 54.55 54.50 54.50 54.62 54.26 54.19 54.01 54.11
57.37 56.79 56.96 56.69 56.29 56.35 57.04 57.21 57.54 56.21 54.90 54.12 53.87 53.23 52.87 51.87 52.05 52.03 52.36 50.51 52.17 48.61 51.98 52.90 53.34 52.63 52.49 51.16 52.86 52.71 52.84 53.21 53.03 53.20 53.08 53.26 53.07 52.99 53.30 53.48 53.11 53.17 53.44 53.75
57.67 57.49 56.96 56.32 56.17 56.16 56.33 56.58 56.03 54.65 52.67 52.56 52.39 52.50 52.01 51.31 51.36 49.28 47.86 52.11 52.83 50.37 52.61 52.54 51.17 49.77 49.11 52.32 52.82 53.00 53.11 53.29 53.10 53.16 53.41 53.32 53.09 52.83 52.36 52.31 51.96 52.44 52.60 53.07
57.47 57.30 57.13 57.13 56.28 54.63 53.96 54.76 55.36 55.23 54.14 52.73 52.37 53.35 52.55 50.88 51.29 52.51 52.45 49.57 48.98 49.70 51.46 51.79 50.69 48.03 49.70 52.05 52.53 52.65 52.82 53.14 53.10 52.98 52.56 46.16 51.63 50.87 50.06 49.12 50.40 51.34 52.48 51.76
56.94 56.54 55.48 54.34 54.16 54.40 55.05 54.75 54.50 54.28 53.99 54.32 53.69 53.50 53.41 53.52 51.34 52.13 52.42 52.92 48.75 50.16 51.64 49.69 50.00 47.89 53.33 53.20 52.54 53.22 53.46 53.64 52.98 52.83 51.92 51.20 50.58 49.92 50.13 48.10 47.88 50.31 50.64 51.99
55.44 54.78 55.04 55.62 55.96 55.42 54.34 53.78 53.68 53.76 53.63 52.56 51.90 52.04 52.76 53.13 53.08 52.86 53.15 51.82 53.63 50.61 51.97 52.67 52.68 52.52 53.65 53.62 53.56 53.54 53.07 52.70 52.56 52.76 50.19 51.38 50.74 50.59 49.62 49.02 48.29 50.39 51.31 51.58
55.21 51.44 54.68 54.50 54.67 53.81 53.79 54.58 53.80 52.81 52.39 53.34 52.03 51.90 52.34 52.49 52.40 51.78 50.37 53.24 53.29 53.37 53.16 52.59 52.40 50.85 52.67 52.76 52.71 52.78 52.70 52.77 47.60 51.30 51.80 52.10 51.84 51.56 51.29 50.91 50.78 49.76 49.90 50.40

GFSNGP_sfc_wetblb_120.txt.gz
Wetbulb
49.18 49.67 51.87 51.69 51.66 52.92 52.57 52.93 49.82 51.03 52.34 56.73 60.06 60.58 64.44 64.86 65.53 65.59 66.06 66.71 67.14 65.73 65.49 67.37 67.88 69.97 72.57 74.01 74.77 74.85 74.25 74.61 75.09 76.01 76.25 76.64 76.52 76.63 76.69 76.19 75.91 76.08 75.82 75.71
48.27 50.14 51.26 50.02 51.31 52.25 53.31 54.26 54.49 55.14 54.95 62.09 62.38 62.74 64.96 64.68 64.60 64.41 65.44 66.51 68.52 67.69 67.89 66.48 67.85 69.03 70.30 73.29 74.11 74.53 72.80 71.84 75.63 76.22 76.30 76.25 75.61 76.03 75.85 74.94 75.05 75.14 74.89 74.83
46.00 48.98 49.76 46.65 49.97 51.65 52.74 54.75 54.40 52.09 57.27 61.53 61.65 60.50 61.36 64.86 65.62 65.37 66.11 67.26 67.27 68.86 68.98 68.85 67.83 68.50 68.79 71.77 73.50 73.35 70.84 71.52 74.42 74.94 74.78 75.70 75.32 75.22 73.88 72.53 73.92 73.06 74.13 73.70
46.48 46.68 40.04 49.80 54.63 54.15 52.73 53.95 55.99 56.45 58.93 60.81 59.55 59.99 61.47 64.66 64.40 63.98 64.96 66.75 67.88 68.76 69.47 66.93 67.86 69.78 69.71 69.78 71.17 72.84 71.04 70.28 73.06 71.05 72.02 74.09 71.10 71.06 70.70 71.32 71.12 71.35 71.81 70.59
45.19 44.04 46.43 49.54 52.78 52.66 51.87 50.80 55.01 55.75 59.78 59.81 59.63 61.88 59.43 61.33 62.09 61.83 62.60 63.33 63.59 64.64 66.94 68.52 67.92 68.10 67.81 67.70 67.94 68.06 68.50 69.84 70.70 70.08 70.95 69.50 68.82 69.16 69.82 69.64 70.04 67.72 64.49 61.74
46.20 41.97 39.49 50.03 54.95 56.76 55.87 48.30 57.14 58.93 61.11 61.14 62.20 59.20 58.03 59.25 60.38 60.35 60.67 61.27 61.86 62.58 64.37 65.16 65.62 69.41 68.57 67.13 67.79 68.15 68.40 69.94 70.55 71.12 70.35 68.42 69.03 68.30 68.80 69.05 65.70 62.54 59.76 59.26
45.55 44.85 46.45 53.33 55.51 57.00 47.36 51.03 59.93 61.89 62.96 62.29 59.70 60.53 59.84 60.66 60.17 60.45 60.46 60.29 60.86 60.28 60.17 61.75 63.79 67.43 68.10 69.10 68.23 68.46 68.91 67.25 66.55 66.75 66.43 68.26 68.80 67.74 65.79 61.90 59.87 59.01 57.86 57.48
48.75 45.58 42.29 55.34 55.18 51.60 56.24 60.71 61.77 63.17 63.38 59.12 60.37 62.18 61.36 60.39 59.95 60.00 59.69 60.37 60.52 58.98 58.69 59.24 60.88 61.01 59.87 60.69 63.77 65.81 65.45 65.33 65.04 64.96 65.46 65.66 65.62 62.63 61.72 60.78 59.19 57.54 56.04 54.75
50.01 50.32 56.23 58.39 57.32 59.27 59.92 60.30 62.68 62.45 62.60 63.46 61.65 61.65 61.73 60.32 61.09 61.50 61.07 59.68 58.89 57.45 56.44 56.29 57.48 58.02 57.14 57.62 60.79 61.23 60.35 59.57 60.53 61.95 61.78 62.35 64.90 64.01 61.45 61.46 59.39 57.52 56.28 56.14
52.23 55.71 56.42 58.24 59.13 59.89 61.94 62.30 64.26 62.67 63.61 62.58 60.67 60.36 60.11 60.62 60.91 61.08 61.71 61.27 60.13 60.08 57.74 55.49 56.13 56.18 56.30 56.70 57.16 56.73 56.14 56.06 55.60 58.60 59.16 59.86 59.55 60.52 61.40 62.15 61.06 59.82 58.18 57.32
52.29 55.78 57.92 58.79 60.63 61.48 62.37 64.29 64.20 64.01 62.90 62.31 60.94 60.83 61.83 61.98 62.43 62.32 61.45 61.14 61.70 60.06 59.25 57.92 57.62 57.61 58.09 58.05 57.94 54.82 53.84 53.10 53.95 55.53 52.99 50.92 49.42 52.28 52.78 49.13 52.39 59.37 59.13 60.51
51.08 55.79 58.66 59.29 61.38 62.90 62.87 62.79 63.44 63.35 62.51 62.88 62.58 61.27 61.76 60.93 60.80 60.36 59.51 59.79 59.32 58.54 57.98 57.40 57.77 57.91 58.97 59.26 59.27 57.85 56.75 56.24 54.68 52.68 52.89 51.95 50.17 47.15 44.04 46.94 47.57 46.32 46.04 51.36
56.68 59.44 59.34 60.70 61.59 62.09 62.87 63.28 63.20 63.90 63.45 62.16 62.46 61.84 61.43 60.87 61.63 59.14 61.11 59.91 58.81 58.21 58.76 59.47 59.92 60.11 60.57 61.84 61.97 60.21 58.56 57.94 56.63 56.74 57.89 57.36 57.85 57.36 55.66 47.47 42.90 41.06 41.40 42.31
59.93 61.08 58.73 59.66 58.66 61.88 63.33 64.16 62.63 64.57 64.10 63.31 62.80 62.84 62.27 61.37 61.76 62.13 61.81 61.87 61.76 61.08 61.35 61.58 60.87 60.47 61.80 61.89 61.58 61.58 59.66 52.64 59.66 58.57 57.74 57.16 57.11 57.32 57.60 58.12 58.38 57.30 42.53 45.18
59.18 61.02 60.00 61.04 61.37 60.73 62.11 62.65 63.05 63.10 63.42 63.01 63.43 62.66 62.45 62.00 61.92 62.46 63.15 63.40 63.27 63.02 62.95 63.18 62.45 62.17 63.46 63.63 63.30 62.76 62.55 61.73 61.28 60.74 59.83 57.82 60.35 59.22 57.46 56.03 55.75 56.29 57.49 46.79
59.45 60.67 60.19 60.15 60.10 60.12 60.69 60.95 60.67 61.80 63.24 63.17 62.99 62.98 62.86 63.24 63.70 63.64 63.90 63.78 62.96 62.19 62.76 62.31 61.65 62.64 63.44 63.61 64.31 63.35 62.15 56.40 57.19 63.26 61.84 61.69 61.96 60.72 60.39 59.71 58.95 57.60 56.77 56.24
58.37 57.88 58.90 59.07 59.62 59.62 60.11 60.69 61.52 63.17 63.49 63.02 63.25 63.75 61.98 62.64 63.16 63.20 63.48 63.75 63.17 61.79 60.70 59.89 58.76 59.63 60.01 59.99 60.36 61.64 61.50 61.57 53.80 59.20 59.82 59.66 59.25 58.74 58.77 58.77 58.16 58.20 58.46 58.40
61.14 61.14 61.46 61.12 60.17 59.96 60.15 60.76 61.59 62.64 63.30 63.92 64.30 63.48 62.77 62.18 60.88 60.37 59.94 59.73 59.07 58.51 58.51 58.21 57.77 58.10 57.85 57.73 57.33 56.70 56.19 55.98 56.28 56.36 56.93 57.09 57.47 57.67 57.68 57.76 57.31 56.96 56.89 57.56
61.40 60.82 61.18 61.19 61.23 61.39 61.08 61.01 61.39 62.74 64.41 64.19 63.60 62.82 62.62 61.59 60.39 59.04 58.94 58.37 57.62 56.52 55.76 55.93 51.79 55.68 56.18 54.92 56.01 57.44 56.42 56.41 56.52 56.88 56.38 54.38 56.05 57.00 56.70 56.89 56.37 56.34 56.45 56.09
60.73 61.82 62.00 61.57 61.77 61.70 61.50 62.15 62.39 62.73 63.44 63.30 62.97 61.61 60.39 59.72 59.01 58.48 58.35 56.78 55.91 54.42 55.01 54.65 55.44 55.37 55.80 55.88 54.26 56.19 55.76 55.98 55.93 55.97 55.87 55.49 56.19 56.06 56.52 52.14 55.84 56.17 56.27 56.04
60.90 61.23 61.48 61.84 61.68 62.40 62.59 62.85 62.66 61.89 62.36 62.42 61.15 60.25 59.24 58.79 58.86 58.15 55.32 52.72 53.97 54.48 55.38 53.58 56.75 55.74 55.97 56.09 55.63 56.66 57.24 56.21 56.54 55.89 55.69 55.47 55.70 55.29 55.24 55.44 55.33 55.30 55.18 55.40
61.58 60.98 61.04 61.66 61.83 61.95 62.89 62.86 62.44 62.05 61.47 61.20 60.81 59.70 58.51 57.68 57.34 56.53 56.33 54.75 54.17 49.68 54.32 55.10 54.42 51.21 53.05 53.06 55.45 55.15 55.78 56.35 55.81 55.84 55.40 55.34 54.79 53.92 53.48 53.58 53.69 54.50 54.82 55.16
61.47 61.45 61.73 61.51 61.56 62.09 62.75 62.33 62.12 61.37 60.20 60.54 59.81 58.94 58.13 57.07 56.37 53.80 52.14 55.13 53.96 51.56 54.54 53.48 50.30 50.00 50.45 55.71 55.58 55.25 54.92 54.95 54.37 54.09 53.65 53.99 53.57 52.95 52.67 52.40 51.69 52.14 52.16 52.51
61.86 61.92 62.13 62.74 62.64 61.67 60.43 61.47 61.87 61.53 60.92 60.76 58.95 59.54 58.36 56.61 56.06 56.09 55.06 50.99 48.28 50.37 53.54 52.30 51.08 49.03 50.02 54.57 54.63 54.46 54.48 54.68 54.73 54.50 54.35 46.83 53.07 52.78 52.60 52.56 51.60 51.08 52.13 51.91
62.45 62.34 62.17 61.80 61.03 60.56 61.47 61.29 60.95 60.16 59.57 59.20 58.74 58.74 59.35 58.74 56.75 55.46 54.75 54.05 48.52 51.67 53.28 49.34 49.92 49.47 54.78 54.70 54.73 55.39 55.68 55.53 54.33 55.45 54.71 53.96 53.35 52.75 52.43 52.77 52.65 52.39 52.20 53.00
61.97 61.21 61.48 62.07 61.50 61.31 60.88 60.20 59.09 59.22 58.73 57.81 58.07 58.46 58.42 57.87 56.28 54.82 54.96 52.82 53.60 51.57 53.86 53.88 53.65 53.77 55.12 54.92 55.48 55.95 56.09 55.50 54.66 55.55 53.15 55.10 54.56 54.15 53.64 53.21 52.62 52.99 53.25 53.43
61.93 56.54 60.91 60.70 61.33 61.20 60.70 59.71 59.39 58.47 57.94 58.45 57.69 58.20 57.84 56.83 55.49 54.16 51.83 54.14 54.42 53.66 54.02 54.35 54.26 52.71 54.70 54.75 54.68 54.67 54.76 55.01 50.89 54.48 55.88 55.60 55.66 55.21 54.93 54.55 54.32 53.85 53.55 53.81

GFSNGP_sfc_wetblb_123.txt.gz
Wetbulb
49.76 49.51 49.73 49.81 51.78 48.21 46.53 52.77 50.38 52.10 52.35 56.46 53.76 60.48 63.32 64.83 66.21 65.85 64.77 65.27 65.86 66.29 66.02 68.93 71.99 73.17 73.72 75.46 76.02 75.78 75.40 75.09 75.85 77.66 76.89 77.20 76.97 77.54 77.66 77.22 76.64 76.60 76.25 76.48
48.97 50.70 50.13 48.41 51.26 50.35 51.56 53.79 52.32 54.70 52.99 61.95 64.54 65.27 65.36 64.94 65.43 65.27 66.29 67.47 67.71 68.10 67.65 66.80 69.51 71.79 72.25 71.35 75.30 76.30 76.10 75.56 77.14 78.13 76.61 76.31 76.33 76.47 76.69 76.26 76.17 76.17 76.09 75.46
47.06 50.46 50.36 47.77 50.28 51.06 53.18 53.96 52.44 50.45 56.54 59.22 62.23 62.49 62.48 64.12 66.24 64.08 67.28 67.64 68.59 69.18 66.63 67.52 67.63 70.45 71.92 71.92 72.85 74.22 74.70 74.87 74.75 75.59 75.72 75.70 75.81 76.95 76.26 75.94 76.24 75.39 74.89 73.52
46.79 48.87 41.94 51.00 52.43 51.41 52.27 53.63 53.10 54.02 57.63 62.49 62.57 61.55 60.70 61.57 62.90 63.54 64.80 67.17 65.28 68.16 69.63 69.06 68.59 69.19 70.13 70.35 70.38 71.52 73.68 73.79 74.60 74.76 74.69 75.04 73.82 74.90 75.17 74.94 74.00 73.26 71.66 70.30
46.54 46.55 49.36 50.50 52.41 52.68 52.74 52.19 55.80 56.02 57.57 63.17 63.10 60.95 58.13 60.59 61.29 60.63 61.33 62.55 63.18 65.65 68.72 67.85 67.87 68.64 67.65 67.89 68.62 68.77 70.55 71.69 73.02 72.16 71.35 71.02 72.38 71.22 71.60 72.55 72.65 70.33 67.11 64.91
48.18 43.74 38.61 50.25 50.19 52.82 53.04 49.41 57.52 58.17 57.78 60.10 62.93 58.98 57.54 59.76 61.94 61.52 60.57 61.06 61.34 62.67 65.45 67.42 68.32 68.32 66.74 66.31 66.97 66.51 67.65 69.02 70.75 72.31 71.41 71.12 71.97 72.56 72.22 71.15 69.05 63.03 60.73 59.56
47.74 46.15 48.75 54.98 56.64 58.18 48.02 50.76 59.17 60.02 59.59 63.38 60.22 60.87 60.78 61.78 61.31 61.16 60.74 60.49 60.53 59.93 60.54 61.48 64.37 68.68 67.96 67.74 67.00 67.76 68.53 67.62 67.44 67.46 67.85 68.19 67.85 67.98 65.06 61.45 59.94 58.29 57.56 57.22
49.73 46.35 43.95 57.38 56.37 51.49 57.50 60.17 60.78 62.66 63.62 61.82 62.93 62.77 61.39 61.76 61.48 61.42 60.77 60.70 60.13 58.18 57.62 58.97 61.30 62.04 62.00 62.83 65.29 67.24 66.31 66.64 66.18 66.57 66.54 66.40 63.65 62.15 61.04 60.34 58.47 56.88 55.41 54.23
51.79 50.63 58.29 59.87 58.12 60.76 61.25 61.46 62.70 63.94 63.71 63.97 63.01 62.67 62.76 62.05 62.01 61.69 60.17 59.55 59.90 57.41 55.99 56.82 57.90 59.16 56.90 58.99 60.92 61.80 61.89 61.10 61.32 61.90 62.61 63.67 65.08 62.72 61.99 60.66 59.55 57.99 57.06 56.42
53.54 55.26 57.30 59.11 60.73 60.88 62.40 63.05 65.49 65.64 65.37 64.07 63.32 63.42 63.09 63.28 62.53 61.68 61.06 60.57 60.54 58.43 56.43 55.67 56.61 56.88 57.38 58.18 59.16 57.86 58.02 58.59 57.58 58.52 61.63 64.33 62.62 61.23 63.44 62.67 60.79 59.91 58.55 57.38
53.92 55.58 57.88 59.59 61.21 63.07 63.74 64.40 64.70 65.41 64.87 64.04 63.66 63.13 63.08 62.42 61.90 61.45 62.02 61.27 61.45 60.52 58.50 58.19 58.71 58.61 57.90 57.14 57.16 54.72 54.59 55.98 55.78 54.55 54.38 54.68 57.05 58.98 57.82 53.29 58.10 61.19 61.10 60.42
51.51 56.53 58.83 60.08 63.13 64.56 63.68 63.00 63.82 63.90 63.53 64.34 64.28 63.20 63.45 61.49 61.38 61.59 61.86 61.50 60.03 58.71 57.74 58.35 59.00 58.85 60.75 60.83 60.92 58.87 57.08 56.48 56.26 56.30 56.17 54.11 50.54 48.95 44.80 47.14 46.68 46.98 47.88 52.69
57.22 59.04 61.28 62.26 63.70 64.57 63.67 63.57 62.94 64.01 63.91 62.79 62.95 62.28 61.64 60.40 60.22 57.83 59.77 59.72 59.36 59.42 60.10 60.40 60.84 61.12 62.15 62.68 62.89 62.03 58.51 60.64 58.23 57.65 58.77 58.80 58.25 56.75 52.02 46.43 42.89 42.23 41.94 43.03
59.16 60.58 59.80 60.11 59.60 62.51 64.02 64.23 63.28 64.32 64.43 63.48 62.75 62.70 61.98 60.84 61.15 60.76 59.91 60.55 61.17 61.31 61.28 61.55 61.81 61.72 62.77 63.46 63.09 62.08 60.99 54.50 59.98 58.74 58.45 58.40 58.72 58.83 58.95 58.55 55.06 51.95 42.47 45.97
58.99 60.14 60.70 61.52 62.05 61.97 63.56 63.74 63.03 61.82 61.98 63.21 63.53 62.69 62.54 62.10 61.60 62.11 63.02 63.40 63.57 63.31 63.20 63.50 63.21 63.31 64.79 64.98 64.49 63.73 63.13 62.40 62.25 61.56 60.80 59.50 60.32 59.68 58.36 58.57 58.66 58.17 57.60 45.31
59.29 59.08 60.46 60.03 60.65 61.03 60.89 61.84 62.91 62.08 61.49 62.11 61.85 62.78 63.38 63.17 63.00 63.17 63.71 63.77 62.80 62.67 63.33 63.91 63.63 64.18 65.14 65.01 64.50 63.86 61.84 58.05 58.93 62.43 61.70 61.59 61.00 60.96 59.76 58.93 58.69 58.52 58.34 58.54
58.11 57.28 58.70 59.22 60.19 60.60 60.57 61.46 61.61 62.76 63.61 62.40 63.43 63.55 62.82 63.38 63.00 63.05 63.59 64.12 64.17 63.58 63.56 62.85 61.73 62.44 62.34 62.05 61.63 61.45 60.22 60.20 56.48 58.12 59.25 59.73 58.66 57.68 58.35 58.63 58.11 58.25 57.96 55.35
61.16 60.58 60.65 60.97 60.98 60.91 60.56 61.45 62.42 62.78 63.85 63.55 62.65 64.61 63.60 63.05 62.26 62.96 63.39 63.36 61.77 60.73 60.92 60.93 60.76 60.24 59.39 58.69 57.73 56.79 56.80 56.47 56.32 56.37 57.13 57.75 57.30 56.90 56.35 57.04 57.34 57.15 57.11 56.50
61.39 60.39 60.54 60.70 61.40 61.88 61.34 61.77 62.53 63.44 64.15 65.06 64.45 63.39 63.19 63.34 63.16 62.49 60.96 59.65 58.99 58.27 58.43 57.81 51.73 56.37 58.15 54.83 55.59 57.32 57.69 57.53 56.72 57.28 57.41 53.64 56.68 57.66 57.15 57.17 57.07 57.11 57.00 56.73
60.48 60.90 61.61 61.23 61.57 61.48 61.66 62.68 63.09 63.57 64.53 64.76 64.40 63.63 62.60 62.76 62.19 60.68 60.58 59.68 59.20 57.33 57.32 55.51 56.63 57.24 57.76 55.61 55.67 57.40 57.00 57.49 56.97 56.59 55.48 56.14 56.56 55.95 56.63 52.33 55.65 56.10 56.23 56.10
60.40 60.75 61.53 61.81 61.38 61.86 62.37 63.17 63.02 63.32 63.95 64.16 63.51 63.00 62.46 62.10 61.02 60.79 59.64 56.29 56.67 55.59 56.91 53.51 56.96 56.65 56.49 54.39 55.57 56.94 57.19 56.14 56.98 56.26 56.19 55.92 56.49 55.75 55.45 55.41 55.02 55.02 55.12 55.42
61.14 61.24 61.32 62.35 61.71 61.71 62.73 63.27 63.67 63.69 63.53 63.48 63.48 63.39 61.86 60.36 60.56 60.11 60.13 58.55 56.50 50.50 54.81 56.20 56.25 53.74 54.75 52.07 57.13 55.74 56.26 56.97 56.86 57.10 56.21 56.21 55.12 54.38 53.84 53.63 53.41 53.76 54.81 55.41
61.26 61.97 62.11 62.46 62.29 62.93 63.54 63.65 63.83 63.85 63.39 63.75 63.03 62.31 61.02 60.20 59.83 57.80 55.75 58.13 56.23 53.15 56.32 55.71 50.52 52.02 52.37 56.71 56.72 56.18 56.06 56.24 55.75 55.01 55.32 55.99 54.32 54.01 53.59 53.55 53.48 53.55 53.51 53.76
62.96 64.24 63.44 63.59 63.67 63.21 62.72 63.75 64.14 64.46 64.94 64.95 63.84 63.16 61.71 59.48 59.24 59.56 59.08 53.15 50.85 52.59 55.14 51.75 51.79 51.43 49.68 55.97 55.84 55.96 55.72 55.64 55.81 56.54 54.94 47.73 54.52 53.99 53.24 53.15 53.59 54.02 53.60 52.09
63.49 63.34 63.64 63.64 63.35 62.54 63.70 64.24 63.71 63.90 63.64 63.40 63.13 62.79 62.25 61.29 59.62 58.84 57.41 55.42 49.17 52.72 54.20 49.88 50.68 50.62 54.44 55.34 55.33 55.36 55.37 55.52 55.70 56.53 56.17 56.15 54.85 54.30 54.03 53.65 53.40 53.60 53.33 53.08
63.47 62.25 62.54 64.81 63.03 63.36 63.77 63.57 62.34 62.86 62.52 61.68 61.91 61.83 61.39 60.97 60.38 58.08 57.29 54.09 53.27 52.58 54.45 53.17 53.29 53.66 55.98 55.41 55.24 55.16 54.98 55.26 54.33 55.36 53.91 56.00 55.90 55.38 54.93 54.74 54.34 53.97 53.87 53.92
63.82 58.11 62.98 63.13 63.54 63.52 63.65 62.98 62.43 61.93 61.09 61.47 60.68 61.36 60.97 60.48 59.08 56.97 54.38 55.28 53.58 53.70 54.97 54.42 54.19 53.17 55.75 55.61 54.78 55.07 55.29 55.24 52.42 54.82 55.80 56.12 55.93 55.54 55.87 55.29 55.01 55.32 55.12 54.48

GFSNGP_sfc_wetblb_126.txt.gz
Wetbulb
48.94 49.79 49.60 48.72 48.62 50.01 51.37 51.77 48.66 51.25 51.61 55.44 57.66 58.07 61.85 64.86 66.99 65.67 65.65 66.43 67.83 68.20 68.89 68.67 70.45 69.88 71.40 74.08 75.17 75.10 74.28 74.33 74.47 75.76 76.16 76.22 76.39 77.36 77.57 76.05 77.04 77.84 76.86 77.10
48.46 50.03 49.70 48.19 49.79 49.66 51.61 52.19 51.19 52.31 51.72 59.23 58.00 57.15 58.63 63.82 66.13 66.17 65.50 66.50 67.17 66.92 67.16 67.67 66.80 68.71 67.59 71.39 71.48 73.71 74.55 74.24 75.58 76.08 76.86 76.57 76.95 76.93 76.76 76.63 77.44 76.63 76.47 76.05
46.51 50.41 50.38 47.13 50.24 51.37 52.52 53.92 51.77 49.10 54.58 58.96 52.74 53.21 54.26 61.64 63.78 63.61 63.37 63.59 64.33 67.83 66.16 66.56 66.59 69.02 65.63 68.68 73.93 71.77 73.72 75.25 75.86 76.26 75.26 75.95 75.95 75.83 75.43 75.65 76.10 75.12 75.00 74.93
46.49 48.38 40.72 50.25 55.17 54.43 52.53 53.42 53.93 54.53 56.58 59.74 58.30 59.50 60.17 61.60 61.29 61.16 62.31 62.24 61.61 65.88 67.18 68.69 69.58 69.28 70.80 72.45 73.28 73.07 70.05 70.61 73.26 74.85 74.08 75.12 75.60 75.53 75.80 75.81 74.88 74.70 72.97 72.37
44.98 45.00 48.76 50.99 52.81 51.83 50.76 50.87 55.91 55.54 56.85 57.58 58.80 59.88 58.15 61.62 61.21 61.19 61.61 61.36 61.54 62.45 65.31 68.08 67.97 67.88 68.23 70.36 71.62 72.35 71.30 71.05 70.42 70.59 71.18 73.08 72.96 73.66 74.37 73.82 71.62 72.45 72.00 69.72
47.38 43.12 41.15 50.98 54.66 55.98 55.02 46.35 55.02 58.06 57.17 56.90 55.80 54.35 57.13 61.13 61.53 60.51 61.05 61.70 61.61 61.27 61.92 63.09 65.53 67.99 66.75 66.11 66.71 67.24 67.95 68.51 68.96 69.53 69.32 71.02 71.73 72.23 72.46 69.50 68.98 64.29 59.23 59.13
47.17 45.20 48.15 54.68 54.15 57.80 47.36 50.30 55.40 55.22 55.53 55.87 57.61 61.70 60.54 61.17 60.89 60.96 60.63 60.20 60.33 59.95 59.63 59.73 62.47 67.59 65.84 65.55 64.87 66.65 67.42 67.40 66.68 66.99 66.39 65.16 64.01 63.15 61.68 60.08 58.59 57.17 55.32 54.45
49.55 46.76 44.55 58.25 56.23 52.26 57.76 58.37 54.71 53.86 51.65 54.52 61.03 60.37 61.12 61.42 61.06 60.54 59.79 59.26 58.69 57.46 57.25 58.29 59.91 63.25 64.10 61.93 66.75 66.81 66.25 65.89 65.73 66.31 65.73 63.83 62.28 61.91 60.68 58.69 57.02 56.16 54.89 53.85
50.80 50.56 58.65 60.05 58.82 59.93 60.00 60.14 57.73 53.97 52.77 59.74 61.83 61.47 61.13 61.46 60.54 60.20 59.13 58.00 57.88 57.13 57.08 57.55 57.87 58.91 59.11 60.24 61.89 62.95 62.32 61.68 61.79 63.01 64.48 64.04 62.74 62.12 61.39 59.81 57.95 57.31 56.40 55.31
53.17 52.02 55.72 58.84 59.99 60.83 61.23 58.28 59.97 58.87 62.06 63.41 61.58 62.23 61.69 61.38 61.36 60.80 60.03 58.29 57.51 56.43 55.49 56.12 57.24 58.53 57.77 59.19 60.76 61.10 59.86 59.40 59.62 60.32 62.47 62.73 62.92 63.45 62.08 60.93 60.38 59.81 59.28 57.83
54.07 56.38 58.91 59.81 61.21 61.15 62.96 64.02 64.02 64.17 63.87 62.77 62.93 61.79 61.68 61.70 61.78 61.20 61.39 61.37 60.24 57.89 56.69 56.46 57.19 56.36 57.62 57.24 57.64 57.70 57.96 57.59 56.22 55.52 56.70 55.55 52.46 54.26 58.28 52.41 53.65 61.00 60.74 60.68
52.06 58.35 56.95 56.98 59.41 62.42 62.46 61.51 60.53 61.79 62.59 63.64 63.60 62.66 62.19 61.62 62.90 61.55 60.43 58.92 58.06 58.62 58.32 58.19 59.59 60.14 60.50 59.87 58.31 57.54 57.04 57.42 56.80 56.66 56.51 54.89 53.55 51.57 44.58 45.96 45.09 45.55 45.64 55.30
57.22 61.30 61.64 61.14 61.71 62.76 63.11 63.45 63.47 63.48 63.94 62.64 63.18 62.27 61.21 60.30 61.49 58.16 59.69 59.36 59.57 60.00 60.19 61.32 61.62 61.94 63.11 62.79 61.45 60.34 56.87 56.09 56.09 55.17 55.68 54.55 54.79 54.51 51.93 47.52 44.02 43.51 42.43 43.63
58.92 60.86 60.15 60.29 61.75 64.22 64.22 63.84 63.22 63.30 62.82 61.92 61.44 61.63 60.50 59.40 59.96 59.75 59.41 60.29 61.27 61.92 62.24 61.96 61.54 62.12 63.40 63.87 63.81 63.14 59.08 56.45 58.93 58.66 59.13 59.59 60.10 56.69 54.35 52.58 52.52 51.12 43.47 45.60
58.49 60.14 60.79 61.55 62.02 61.61 62.76 63.37 62.65 61.04 61.62 61.67 62.18 61.10 61.42 61.22 60.56 60.42 61.69 62.35 62.64 62.73 63.26 63.57 63.44 63.82 65.64 66.02 66.21 64.38 63.20 62.22 62.75 61.06 60.99 59.78 61.09 60.51 59.18 59.77 59.52 55.79 53.24 45.10
58.95 58.45 60.00 60.58 60.74 61.04 61.42 61.19 61.67 61.55 62.29 61.37 61.34 62.28 62.07 62.90 63.14 63.04 63.59 64.47 62.33 62.34 62.50 63.24 63.43 64.25 64.13 65.93 66.39 62.41 61.08 58.30 59.22 63.86 61.50 62.42 60.64 59.94 59.39 59.50 59.19 59.19 59.19 57.86
57.89 57.55 58.66 60.23 59.82 59.93 59.73 62.73 61.26 62.25 62.56 62.37 62.77 63.89 62.12 61.69 63.43 62.95 63.94 63.30 64.12 64.25 64.46 63.97 62.92 63.84 64.04 63.48 61.89 62.40 60.89 59.87 57.13 57.68 59.88 59.02 59.10 59.47 59.97 59.67 58.40 58.20 57.71 55.35
59.65 60.28 60.05 60.77 61.11 60.50 60.35 61.01 62.67 63.88 61.19 63.42 64.37 62.33 62.48 61.15 62.59 63.33 63.66 64.05 63.34 62.45 62.05 62.45 61.85 61.21 60.96 59.87 59.05 58.94 58.70 58.83 58.79 57.97 59.06 58.37 57.54 57.62 57.98 58.57 58.88 57.40 57.45 53.99
60.03 60.47 60.79 60.31 61.42 62.55 61.82 61.31 62.09 65.07 65.47 64.08 64.75 63.63 62.38 64.01 64.11 63.73 63.46 61.76 60.55 59.58 59.18 57.79 54.17 56.53 59.47 54.77 53.67 57.77 55.95 55.77 57.05 58.07 58.42 55.14 57.07 58.27 57.87 57.41 56.84 57.03 57.01 57.05
60.01 61.09 61.58 61.68 62.68 63.06 62.87 63.70 63.43 64.80 65.89 65.42 64.15 64.18 63.37 63.57 64.42 63.11 62.19 61.06 60.78 59.50 59.71 54.94 56.72 57.65 57.80 55.47 56.46 56.44 55.79 55.70 56.13 56.75 55.63 55.98 55.97 55.85 56.85 52.60 54.57 55.01 55.20 55.60
61.73 62.08 61.51 63.04 62.64 64.59 63.54 64.59 64.18 64.17 65.55 65.49 65.18 64.16 63.70 64.09 63.76 62.70 61.55 57.30 58.92 57.03 58.58 56.08 57.27 56.19 57.15 53.47 54.61 56.19 55.73 55.42 55.91 55.83 55.86 55.64 55.71 54.56 54.18 53.87 53.25 53.00 53.48 54.89
62.73 62.05 62.03 62.50 63.30 63.23 63.72 64.37 65.12 65.10 65.17 65.70 65.66 64.77 63.94 63.18 62.40 62.39 63.45 60.77 57.49 51.98 54.38 54.71 56.62 53.83 55.44 54.57 56.05 55.14 55.64 55.50 55.68 56.25 55.47 55.07 54.66 53.76 53.59 53.80 52.79 53.12 53.43 53.85
62.42 62.96 62.76 62.76 64.23 63.50 64.40 64.54 65.01 65.05 64.90 65.12 64.94 64.22 63.26 61.63 61.19 59.48 57.37 60.68 57.75 52.78 55.53 56.69 52.38 53.08 54.10 56.27 57.49 56.87 55.78 56.01 55.73 54.70 54.41 54.44 53.68 53.70 53.49 52.62 53.09 53.47 53.71 53.30
64.08 64.40 63.72 64.11 65.14 63.40 62.86 64.52 64.88 65.21 65.55 65.97 65.55 65.44 63.63 61.25 61.17 61.28 61.32 55.00 51.78 52.10 55.19 50.91 51.58 52.03 49.49 56.59 57.30 57.24 56.48 55.65 56.12 56.08 54.20 47.64 53.70 53.39 52.75 52.83 52.74 53.53 53.67 51.92
65.11 65.02 65.14 63.99 64.39 63.63 64.74 65.43 65.68 64.87 65.07 65.49 65.54 65.61 64.42 63.58 61.67 61.06 59.90 56.83 50.52 53.34 54.01 50.71 51.49 51.66 53.36 56.01 55.67 55.71 56.48 57.16 56.15 56.32 55.03 54.78 54.07 53.65 53.80 53.57 53.04 52.99 53.57 53.40
65.42 62.57 63.90 65.06 64.11 64.03 63.85 64.41 62.82 64.03 63.59 62.28 62.67 64.08 63.61 63.42 62.45 60.97 59.35 55.47 55.15 52.73 54.58 52.05 51.96 52.20 55.16 57.30 57.18 56.48 55.68 54.84 53.27 53.38 53.95 54.47 55.12 54.51 54.15 54.09 54.08 53.47 53.46 53.63
63.49 57.73 62.95 64.07 64.29 63.90 64.08 62.73 63.10 61.50 62.21 63.14 62.32 63.69 63.57 62.49 61.17 58.36 55.16 55.81 54.39 52.88 54.52 52.41 51.81 51.69 54.77 55.93 54.97 55.09 55.46 55.85 52.69 56.03 55.82 55.95 55.15 55.23 55.00 54.88 54.70 54.79 54.87 54.62